# Wetter Temperatur Luftdruck Luftfeuchtigkeit Sichtweite Windgeschwindigkeit Windrichtung Zeit
1 Rain 14 1014 82 10000 3.1 220 08:23 14.07.2020
2 Rain 13 1014 82 10000 3.1 220 07:56 14.07.2020
3 Rain 13 1014 76 10000 6.2 180 07:37 14.07.2020
4 Clouds 13 1014 76 10000 6.2 180 07:18 14.07.2020
5 Clouds 13 1014 76 10000 6.2 180 06:36 14.07.2020
6 Clouds 13 1014 71 10000 6.7 180 06:18 14.07.2020
7 Clouds 13 1015 71 10000 6.7 190 05:25 14.07.2020
8 Clouds 13 1016 71 10000 6.7 180 04:36 14.07.2020
9 Clouds 13 1016 67 10000 6.7 190 03:34 14.07.2020
10 Clouds 13 1016 67 10000 6.7 190 02:41 14.07.2020
11 Clouds 13 1017 71 10000 6.2 180 02:21 14.07.2020
12 Clouds 13 1017 71 10000 4.6 190 01:35 14.07.2020
13 Clouds 13 1017 71 10000 4.6 190 00:49 14.07.2020
14 Clouds 13 1018 82 10000 4.1 180 00:28 14.07.2020
15 Clouds 13 1018 82 10000 4.1 180 23:59 13.07.2020
16 Clouds 13 1019 76 10000 4.1 190 23:37 13.07.2020
17 Clouds 13 1019 76 10000 4.1 190 23:18 13.07.2020
18 Clouds 14 1019 76 10000 4.1 190 22:41 13.07.2020
19 Clouds 15 1019 67 10000 2.6 230 22:21 13.07.2020
20 Clouds 15 1019 67 10000 2.6 230 21:57 13.07.2020
21 Clouds 15 1019 67 10000 2.6 230 21:39 13.07.2020
22 Clouds 16 1019 59 10000 5.7 270 21:20 13.07.2020
23 Clouds 16 1019 59 10000 5.7 270 20:58 13.07.2020
24 Clouds 16 1019 59 10000 5.7 270 20:40 13.07.2020
25 Clouds 17 1019 59 10000 6.2 270 20:21 13.07.2020
26 Clouds 18 1019 59 10000 6.2 270 19:56 13.07.2020
27 Clouds 18 1020 55 10000 7.2 270 19:38 13.07.2020
28 Clouds 19 1020 55 10000 7.2 270 19:18 13.07.2020
29 Clouds 19 1020 55 10000 7.2 270 18:42 13.07.2020
30 Clouds 19 1020 59 10000 6.2 290 18:24 13.07.2020
31 Clouds 19 1020 59 10000 6.2 290 17:58 13.07.2020
32 Clouds 19 1020 59 10000 6.2 290 17:40 13.07.2020
33 Clouds 19 1021 55 10000 7.2 290 17:21 13.07.2020
34 Clouds 19 1021 55 10000 7.2 290 16:58 13.07.2020
35 Clouds 19 1021 55 10000 7.2 290 16:40 13.07.2020
36 Clouds 19 1021 59 10000 7.2 280 16:20 13.07.2020
37 Clouds 19 1021 59 10000 7.2 280 15:57 13.07.2020
38 Clouds 18 1021 59 10000 7.2 280 15:38 13.07.2020
39 Clouds 19 1022 55 10000 7.2 270 15:19 13.07.2020
40 Clouds 19 1022 55 10000 7.2 270 14:56 13.07.2020
41 Clouds 19 1022 55 10000 7.2 270 14:38 13.07.2020
42 Clouds 19 1022 59 10000 7.2 280 14:19 13.07.2020
43 Clouds 18 1022 59 10000 7.2 280 13:43 13.07.2020
44 Clouds 18 1022 59 10000 7.2 280 13:43 13.07.2020
45 Clouds 18 1023 59 10000 6.2 280 13:22 13.07.2020
46 Clouds 18 1023 59 10000 6.2 280 12:57 13.07.2020
47 Clouds 18 1023 63 10000 5.1 270 12:39 13.07.2020
48 Clouds 18 1023 63 10000 5.1 270 12:20 13.07.2020
49 Clouds 17 1023 63 10000 5.1 270 11:42 13.07.2020
50 Clouds 17 1024 67 10000 4.6 300 11:23 13.07.2020
51 Clouds 17 1024 67 10000 4.6 300 10:54 13.07.2020
52 Clouds 17 1024 67 10000 4.1 290 10:36 13.07.2020
53 Clouds 17 1024 67 10000 4.1 290 10:18 13.07.2020
54 Clouds 16 1024 67 10000 4.1 290 09:41 13.07.2020
55 Clouds 15 1024 82 10000 2.1 290 09:22 13.07.2020
56 Clouds 15 1024 82 10000 2.1 290 08:50 13.07.2020
57 Clouds 14 1024 87 10000 3.1 280 08:32 13.07.2020
58 Clouds 12 1024 93 10000 2.6 260 07:34 13.07.2020
59 Clouds 11 1024 93 10000 2.6 260 06:55 13.07.2020
60 Clouds 10 1024 93 10000 3.6 250 06:36 13.07.2020
61 Clouds 10 1024 93 10000 3.6 250 05:59 13.07.2020
62 Clouds 10 1025 93 10000 3.6 260 04:30 13.07.2020
63 Clouds 10 1025 93 10000 4.1 270 01:52 13.07.2020
64 Clouds 11 1025 87 10000 4.6 270 01:26 13.07.2020
65 Clouds 11 1025 87 10000 4.6 270 00:55 13.07.2020
66 Clouds 12 1026 82 10000 5.1 280 00:25 13.07.2020
67 Clouds 12 1026 82 10000 5.1 280 23:57 12.07.2020
68 Clouds 12 1026 82 10000 4.6 280 23:39 12.07.2020
69 Clear 12 1026 82 10000 4.6 280 23:21 12.07.2020
70 Clear 13 1026 82 10000 4.6 280 22:39 12.07.2020
71 Clear 14 1026 77 10000 6.2 300 22:20 12.07.2020
72 Clear 14 1026 77 10000 6.2 300 21:59 12.07.2020
73 Clear 14 1026 77 10000 6.2 300 21:40 12.07.2020
74 Clear 16 1026 63 10000 7.7 310 21:20 12.07.2020
75 Clear 16 1026 63 10000 7.7 310 20:58 12.07.2020
76 Clear 16 1026 63 10000 7.7 310 20:40 12.07.2020
77 Clouds 17 1026 59 10000 8.7 310 20:20 12.07.2020
78 Clouds 17 1026 59 10000 8.7 310 19:55 12.07.2020
79 Clouds 17 1026 55 10000 10.8 300 19:37 12.07.2020
80 Clouds 18 1026 55 10000 10.8 300 19:18 12.07.2020
81 Clouds 18 1026 55 10000 10.8 300 18:42 12.07.2020
82 Clouds 18 1026 55 10000 10.3 300 18:20 12.07.2020
83 Clouds 18 1026 55 10000 10.3 300 17:58 12.07.2020
84 Clouds 18 1026 55 10000 10.3 300 17:37 12.07.2020
85 Clouds 18 1026 55 10000 11.8 310 17:19 12.07.2020
86 Clouds 18 1026 55 10000 11.8 310 16:45 12.07.2020
87 Clouds 18 1026 55 10000 11.8 280 16:21 12.07.2020
88 Clouds 18 1026 55 10000 11.8 280 15:45 12.07.2020
89 Rain 18 1026 55 10000 9.8 300 15:26 12.07.2020
90 Rain 18 1026 55 10000 9.8 300 14:57 12.07.2020
91 Rain 18 1026 55 10000 9.8 300 14:38 12.07.2020
92 Clouds 18 1026 55 10000 10.8 310 14:18 12.07.2020
93 Clouds 17 1026 55 10000 10.8 310 13:39 12.07.2020
94 Rain 16 1026 59 10000 10.8 290 13:20 12.07.2020
95 Rain 17 1026 59 10000 10.8 290 12:55 12.07.2020
96 Rain 16 1026 63 10000 9.8 290 12:36 12.07.2020
97 Rain 17 1026 63 10000 9.8 290 12:18 12.07.2020
98 Rain 16 1026 63 10000 9.8 290 11:44 12.07.2020
99 Rain 16 1026 67 10000 8.7 300 11:20 12.07.2020
100 Rain 16 1026 67 10000 8.7 300 10:44 12.07.2020
101 Rain 15 1025 67 10000 8.7 310 10:23 12.07.2020
102 Rain 15 1025 67 10000 8.7 310 09:58 12.07.2020
103 Rain 16 1025 67 10000 8.7 310 09:40 12.07.2020
104 Clear 15 1025 72 10000 6.7 290 09:20 12.07.2020
105 Clear 16 1025 72 10000 6.7 290 08:55 12.07.2020
106 Clear 14 1024 82 10000 6.7 300 08:36 12.07.2020
107 Clear 14 1024 82 10000 6.7 300 08:18 12.07.2020
108 Clear 12 1024 81 10000 5.7 280 07:45 12.07.2020
109 Clear 12 1024 81 10000 5.7 280 07:22 12.07.2020
110 Clear 11 1024 81 10000 5.7 280 06:52 12.07.2020
111 Clear 11 1024 87 10000 5.7 290 06:22 12.07.2020
112 Clear 10 1024 87 10000 5.7 290 05:44 12.07.2020
113 Clouds 10 1024 81 10000 6.2 290 04:57 12.07.2020
114 Clouds 10 1024 81 10000 5.1 270 04:28 12.07.2020
115 Clouds 10 1024 81 10000 5.1 270 03:44 12.07.2020
116 Clouds 10 1024 87 10000 5.1 270 03:23 12.07.2020
117 Clear 9 1024 87 10000 4.6 280 01:52 12.07.2020
118 Clear 10 1024 81 10000 5.1 290 00:59 12.07.2020
119 Clear 10 1024 81 10000 6.2 290 00:39 12.07.2020
120 Clear 10 1024 81 10000 6.2 290 00:20 12.07.2020
121 Clear 10 1024 81 10000 6.2 290 23:40 11.07.2020
122 Clear 11 1023 76 10000 6.2 280 23:20 11.07.2020
123 Clear 11 1023 76 10000 6.2 280 22:57 11.07.2020
124 Clear 12 1023 76 10000 6.2 280 22:37 11.07.2020
125 Clear 12 1023 71 10000 7.2 290 22:19 11.07.2020
126 Clear 13 1023 71 10000 7.2 290 21:43 11.07.2020
127 Clear 14 1023 67 10000 7.2 300 21:24 11.07.2020
128 Clear 14 1023 67 10000 7.2 300 20:59 11.07.2020
129 Clear 14 1023 67 10000 7.2 300 20:41 11.07.2020
130 Clear 15 1022 59 10000 9.3 310 20:21 11.07.2020
131 Clear 15 1022 59 10000 9.3 310 19:59 11.07.2020
132 Clear 16 1022 59 10000 9.3 310 19:41 11.07.2020
133 Clear 16 1022 55 10000 9.3 310 19:23 11.07.2020
134 Clear 16 1022 55 10000 9.3 310 18:57 11.07.2020
135 Clear 16 1022 63 10000 9.3 290 18:39 11.07.2020
136 Clear 16 1022 63 10000 9.3 290 18:39 11.07.2020
137 Clear 17 1022 63 10000 9.3 290 18:19 11.07.2020
138 Clear 17 1022 63 10000 9.3 290 17:56 11.07.2020
139 Clear 17 1022 63 10000 9.3 290 17:38 11.07.2020
140 Clear 17 1022 63 10000 12.3 290 17:19 11.07.2020
141 Clear 17 1022 63 10000 12.3 290 16:43 11.07.2020
142 Clear 17 1021 59 10000 11.8 300 16:24 11.07.2020
143 Clear 17 1021 59 10000 11.8 300 15:59 11.07.2020
144 Clear 16 1021 59 10000 11.8 300 15:41 11.07.2020
145 Clear 17 1021 63 10000 12.3 310 15:20 11.07.2020
146 Clear 17 1021 63 10000 12.3 310 14:58 11.07.2020
147 Clear 17 1020 59 10000 11.3 290 14:39 11.07.2020
148 Clear 17 1020 59 10000 11.3 290 14:20 11.07.2020
149 Clear 16 1020 59 10000 11.3 290 13:43 11.07.2020
150 Clear 16 1020 63 10000 10.8 280 13:22 11.07.2020
151 Clear 17 1020 63 10000 10.8 280 12:58 11.07.2020
152 Clear 16 1020 72 10000 10.8 300 12:40 11.07.2020
153 Rain 16 1020 72 10000 10.8 300 12:21 11.07.2020
154 Rain 16 1020 72 10000 10.8 300 11:56 11.07.2020
155 Rain 15 1019 77 10000 6.7 290 11:38 11.07.2020
156 Rain 15 1019 77 10000 6.7 290 11:19 11.07.2020
157 Rain 14 1019 77 10000 6.7 290 10:43 11.07.2020
158 Rain 14 1019 82 10000 7.7 310 10:25 11.07.2020
159 Rain 14 1019 82 10000 7.7 310 09:45 11.07.2020
160 Clear 14 1018 71 7000 7.7 280 09:21 11.07.2020
161 Clear 13 1018 71 7000 7.7 280 08:59 11.07.2020
162 Clear 13 1018 81 10000 5.7 280 08:37 11.07.2020
163 Clear 14 1018 81 10000 5.7 280 08:19 11.07.2020
164 Clear 13 1017 81 10000 5.7 280 07:42 11.07.2020
165 Clear 12 1017 81 10000 5.7 280 07:23 11.07.2020
166 Clear 12 1017 81 10000 5.7 280 06:56 11.07.2020
167 Clear 10 1017 87 10000 5.1 280 06:22 11.07.2020
168 Clear 10 1016 81 10000 6.7 280 05:36 11.07.2020
169 Clear 10 1016 81 10000 6.7 280 04:56 11.07.2020
170 Clear 10 1016 87 10000 6.2 290 04:33 11.07.2020
171 Clear 10 1016 87 10000 7.7 280 03:38 11.07.2020
172 Clear 11 1016 87 10000 7.7 280 02:48 11.07.2020
173 Clear 11 1015 81 10000 7.2 290 01:53 11.07.2020
174 Clear 11 1015 81 10000 7.2 280 01:20 11.07.2020
175 Clear 11 1015 81 10000 7.2 280 00:41 11.07.2020
176 Clear 11 1014 81 10000 8.2 290 00:22 11.07.2020
177 Clear 11 1014 81 10000 8.2 290 23:58 10.07.2020
178 Clear 11 1014 81 10000 8.2 290 23:58 10.07.2020
179 Clear 11 1014 71 10000 8.7 300 23:40 10.07.2020
180 Clear 12 1014 71 10000 8.7 300 23:21 10.07.2020
181 Clear 12 1014 71 10000 8.7 300 22:47 10.07.2020
182 Clear 12 1013 67 10000 8.2 310 22:23 10.07.2020
183 Clear 13 1013 67 10000 8.2 310 21:59 10.07.2020
184 Clear 13 1013 67 10000 8.2 310 21:38 10.07.2020
185 Clear 13 1013 67 10000 9.8 300 21:20 10.07.2020
186 Clear 13 1013 67 10000 9.8 300 20:54 10.07.2020
187 Clear 13 1013 67 10000 9.8 300 20:54 10.07.2020
188 Clear 14 1012 62 10000 11.8 300 20:36 10.07.2020
189 Clear 14 1012 62 10000 11.8 300 20:36 10.07.2020
190 Clouds 14 1012 62 10000 11.8 300 20:18 10.07.2020
191 Clouds 15 1012 62 10000 11.8 300 19:42 10.07.2020
192 Clouds 15 1011 67 10000 11.3 310 19:22 10.07.2020
193 Clouds 15 1011 67 10000 11.3 310 18:58 10.07.2020
194 Clouds 15 1011 67 10000 11.3 310 18:58 10.07.2020
195 Clouds 15 1011 72 10000 11.3 310 18:37 10.07.2020
196 Rain 15 1011 72 10000 11.3 310 18:18 10.07.2020
197 Rain 15 1011 72 10000 11.3 310 17:55 10.07.2020
198 Rain 15 1011 72 10000 11.3 310 17:36 10.07.2020
199 Rain 15 1010 76 10000 5.1 320 17:18 10.07.2020
200 Rain 15 1010 76 10000 5.1 320 16:40 10.07.2020
201 Clouds 16 1010 67 10000 2.1 250 16:19 10.07.2020
202 Clouds 16 1010 67 10000 2.1 250 15:44 10.07.2020
203 Rain 15 1009 82 10000 2.6 290 15:22 10.07.2020
204 Rain 15 1009 82 10000 2.6 290 14:55 10.07.2020
205 Rain 13 1009 82 10000 2.6 290 14:37 10.07.2020
206 Rain 14 1009 81 10000 3.1 10 14:18 10.07.2020
207 Rain 13 1009 81 10000 3.1 10 13:56 10.07.2020
208 Rain 12 1009 81 10000 6.2 360 13:37 10.07.2020
209 Rain 12 1009 81 10000 6.2 360 13:18 10.07.2020
210 Rain 12 1009 81 10000 6.2 360 12:43 10.07.2020
211 Rain 12 1008 87 10000 5.7 30 12:24 10.07.2020
212 Rain 12 1008 87 10000 5.7 30 11:59 10.07.2020
213 Rain 13 1008 87 10000 5.7 30 11:38 10.07.2020
214 Rain 12 1008 87 10000 6.2 30 11:19 10.07.2020
215 Rain 12 1008 87 10000 6.2 30 10:55 10.07.2020
216 Rain 12 1008 87 10000 6.2 30 10:36 10.07.2020
217 Rain 12 1008 87 10000 6.2 40 10:18 10.07.2020
218 Rain 12 1008 87 10000 6.2 40 09:38 10.07.2020
219 Rain 12 1008 87 10000 3.6 60 09:20 10.07.2020
220 Rain 12 1008 87 10000 3.6 60 08:58 10.07.2020
221 Rain 12 1008 87 10000 3.6 60 08:39 10.07.2020
222 Clouds 12 1008 87 10000 4.1 70 08:21 10.07.2020
223 Clouds 12 1008 87 10000 4.1 70 07:43 10.07.2020
224 Clouds 11 1009 87 6000 3.1 80 07:23 10.07.2020
225 Clouds 11 1009 87 6000 3.1 80 06:51 10.07.2020
226 Clouds 11 1009 87 10000 2.6 80 06:27 10.07.2020
227 Clouds 10 1009 93 10000 4.1 50 05:19 10.07.2020
228 Clouds 10 1010 87 10000 3.1 40 03:42 10.07.2020
229 Clouds 10 1010 81 10000 3.1 40 02:53 10.07.2020
230 Clouds 11 1010 81 10000 2.6 30 01:53 10.07.2020
231 Clouds 11 1011 81 10000 2.6 350 00:53 10.07.2020
232 Clouds 11 1011 93 10000 2.1 270 00:22 10.07.2020
233 Clouds 11 1011 93 10000 2.1 270 23:55 09.07.2020
234 Clouds 11 1011 93 10000 2.1 270 23:37 09.07.2020
235 Clouds 12 1011 87 10000 2.1 240 23:18 09.07.2020
236 Clouds 12 1011 87 10000 2.1 240 22:56 09.07.2020
237 Clouds 12 1011 87 10000 2.1 240 22:38 09.07.2020
238 Clouds 13 1011 87 10000 1.5 280 22:19 09.07.2020
239 Clouds 14 1010 67 10000 0.5 0 21:39 09.07.2020
240 Clouds 15 1010 67 10000 0.5 0 21:20 09.07.2020
241 Clouds 15 1010 67 10000 0.5 0 20:59 09.07.2020
242 Clouds 15 1010 67 10000 0.5 0 20:40 09.07.2020
243 Clouds 16 1011 63 10000 0.5 0 20:22 09.07.2020
244 Clouds 15 1011 63 10000 0.5 0 19:43 09.07.2020
245 Clouds 16 1011 59 10000 1.5 360 19:22 09.07.2020
246 Clouds 16 1011 59 10000 1.5 360 18:58 09.07.2020
247 Clouds 16 1011 59 10000 1.5 360 18:40 09.07.2020
248 Clouds 16 1011 59 10000 1 150 18:19 09.07.2020
249 Clouds 16 1011 59 10000 1 150 17:43 09.07.2020
250 Clouds 16 1011 67 10000 1.5 80 17:24 09.07.2020
251 Clouds 16 1011 67 10000 1.5 80 16:58 09.07.2020
252 Clouds 16 1011 67 10000 1.5 80 16:39 09.07.2020
253 Clouds 16 1012 67 10000 1.5 130 16:19 09.07.2020
254 Clouds 16 1012 67 10000 1.5 130 16:19 09.07.2020
255 Clouds 15 1012 67 10000 1.5 130 15:59 09.07.2020
256 Clouds 16 1012 67 10000 1.5 130 15:40 09.07.2020
257 Clouds 15 1012 71 10000 2.6 150 15:21 09.07.2020
258 Clouds 15 1012 71 10000 2.6 150 14:58 09.07.2020
259 Clouds 15 1012 71 10000 2.6 150 14:40 09.07.2020
260 Rain 14 1012 71 10000 1.5 130 14:22 09.07.2020
261 Rain 15 1012 71 10000 1.5 130 13:57 09.07.2020
262 Rain 14 1013 67 10000 2.1 130 13:38 09.07.2020
263 Rain 15 1013 67 10000 2.1 130 13:19 09.07.2020
264 Rain 14 1013 67 10000 2.1 130 12:43 09.07.2020
265 Rain 14 1013 71 10000 2.1 170 12:24 09.07.2020
266 Rain 14 1013 71 10000 2.1 170 12:24 09.07.2020
267 Rain 14 1013 71 10000 2.1 170 11:59 09.07.2020
268 Rain 14 1013 71 10000 2.1 170 11:41 09.07.2020
269 Clouds 14 1013 71 10000 2.1 140 11:22 09.07.2020
270 Clouds 14 1013 71 10000 2.1 140 10:58 09.07.2020
271 Clouds 14 1013 71 10000 2.1 140 10:40 09.07.2020
272 Clouds 14 1013 71 10000 2.1 160 10:21 09.07.2020
273 Clouds 14 1013 71 10000 2.1 160 09:44 09.07.2020
274 Clouds 13 1013 82 10000 1.5 140 09:24 09.07.2020
275 Clouds 13 1013 82 10000 1.5 140 08:56 09.07.2020
276 Clouds 13 1013 82 10000 1.5 140 08:37 09.07.2020
277 Clouds 12 1014 93 10000 0.5 320 08:18 09.07.2020
278 Clouds 11 1014 93 10000 0.5 320 07:45 09.07.2020
279 Clouds 10 1014 93 10000 0.5 240 07:22 09.07.2020
280 Clouds 9 1014 93 10000 1.5 280 06:41 09.07.2020
281 Clouds 9 1014 93 10000 1.5 280 06:19 09.07.2020
282 Clouds 8 1014 93 10000 2.1 270 04:29 09.07.2020
283 Clouds 8 1015 93 10000 2.6 270 03:32 09.07.2020
284 Clouds 9 1015 93 10000 2.6 270 02:19 09.07.2020
285 Clouds 9 1015 87 10000 3.1 270 01:32 09.07.2020
286 Clouds 9 1015 87 10000 3.1 270 01:32 09.07.2020
287 Clouds 9 1015 87 10000 3.1 270 00:47 09.07.2020
288 Clouds 9 1015 93 10000 4.6 280 00:23 09.07.2020
289 Clouds 9 1015 93 10000 4.6 280 23:46 08.07.2020
290 Clouds 10 1015 76 10000 4.6 300 23:27 08.07.2020
291 Clouds 11 1015 76 10000 4.6 300 22:58 08.07.2020
292 Clouds 11 1015 76 10000 4.6 300 22:40 08.07.2020
293 Clouds 12 1014 71 10000 6.7 300 22:22 08.07.2020
294 Clouds 12 1014 71 10000 6.7 300 21:58 08.07.2020
295 Clouds 12 1014 71 10000 6.7 300 21:58 08.07.2020
296 Clouds 12 1014 71 10000 6.7 300 21:38 08.07.2020
297 Clear 13 1014 67 10000 7.7 310 21:20 08.07.2020
298 Clear 13 1014 67 10000 7.7 310 20:54 08.07.2020
299 Clear 13 1014 67 10000 7.7 310 20:54 08.07.2020
300 Clear 14 1014 62 10000 8.7 300 20:36 08.07.2020
301 Clouds 14 1014 62 10000 8.7 300 20:18 08.07.2020
302 Clouds 15 1014 62 10000 8.7 300 19:42 08.07.2020
303 Clouds 15 1014 62 10000 9.3 310 19:22 08.07.2020
304 Clouds 15 1014 62 10000 9.3 310 18:57 08.07.2020
305 Clouds 15 1014 62 10000 9.3 310 18:39 08.07.2020
306 Clouds 16 1014 55 10000 8.7 300 18:20 08.07.2020
307 Clouds 16 1014 55 10000 8.7 300 17:56 08.07.2020
308 Clouds 16 1014 51 10000 9.8 290 17:37 08.07.2020
309 Clouds 16 1014 51 10000 9.8 290 17:19 08.07.2020
310 Clouds 17 1014 51 10000 9.8 290 16:43 08.07.2020
311 Clouds 16 1014 55 10000 10.8 290 16:24 08.07.2020
312 Clouds 16 1014 55 10000 10.8 290 15:59 08.07.2020
313 Clouds 16 1014 55 10000 10.8 290 15:41 08.07.2020
314 Clouds 16 1013 55 10000 7.7 310 15:20 08.07.2020
315 Clouds 16 1013 55 10000 7.7 310 14:59 08.07.2020
316 Clouds 16 1013 55 10000 7.7 310 14:41 08.07.2020
317 Clouds 16 1013 55 10000 9.3 300 14:19 08.07.2020
318 Clouds 16 1013 55 10000 9.3 300 13:45 08.07.2020
319 Clouds 16 1013 62 10000 10.8 300 13:27 08.07.2020
320 Clouds 15 1013 62 10000 10.8 300 12:46 08.07.2020
321 Clouds 15 1012 58 10000 8.2 290 12:22 08.07.2020
322 Clouds 15 1012 58 10000 8.2 290 12:22 08.07.2020
323 Clouds 15 1012 58 10000 8.2 290 11:59 08.07.2020
324 Clouds 15 1012 58 10000 8.2 290 11:39 08.07.2020
325 Clouds 14 1012 67 10000 8.2 300 11:20 08.07.2020
326 Clouds 14 1012 67 10000 8.2 300 10:56 08.07.2020
327 Clouds 14 1012 67 10000 8.2 300 10:38 08.07.2020
328 Rain 13 1012 71 10000 8.2 290 10:19 08.07.2020
329 Rain 13 1012 71 10000 8.2 290 09:43 08.07.2020
330 Clear 13 1012 76 10000 5.7 280 09:23 08.07.2020
331 Clear 13 1012 76 10000 5.7 280 08:43 08.07.2020
332 Clouds 12 1012 81 10000 2.6 270 08:24 08.07.2020
333 Clouds 12 1012 81 10000 2.6 270 07:48 08.07.2020
334 Clouds 12 1012 81 10000 2.6 270 07:48 08.07.2020
335 Clouds 11 1012 76 10000 5.7 280 07:24 08.07.2020
336 Clouds 11 1012 76 10000 5.7 280 06:57 08.07.2020
337 Clouds 10 1012 87 10000 6.7 260 06:37 08.07.2020
338 Clouds 10 1012 87 10000 6.7 260 06:19 08.07.2020
339 Clouds 10 1012 87 10000 4.1 260 05:38 08.07.2020
340 Clouds 10 1012 76 10000 6.2 270 04:38 08.07.2020
341 Clouds 10 1012 87 10000 5.1 250 02:55 08.07.2020
342 Clouds 11 1013 81 10000 6.2 260 01:57 08.07.2020
343 Clouds 11 1013 81 10000 6.2 280 01:37 08.07.2020
344 Clouds 11 1013 81 10000 6.2 290 00:39 08.07.2020
345 Clouds 11 1013 81 10000 6.2 290 00:19 08.07.2020
346 Clouds 11 1013 81 10000 6.2 290 23:41 07.07.2020
347 Clouds 11 1013 81 10000 5.7 270 23:21 07.07.2020
348 Clouds 11 1013 81 10000 5.7 270 23:21 07.07.2020
349 Clouds 11 1013 81 10000 5.7 270 22:54 07.07.2020
350 Clouds 11 1013 81 10000 5.7 270 22:36 07.07.2020
351 Clouds 12 1013 87 10000 7.7 290 22:18 07.07.2020
352 Clouds 12 1013 87 10000 7.7 290 21:41 07.07.2020
353 Clouds 12 1013 87 10000 7.7 290 21:41 07.07.2020
354 Clouds 12 1013 82 10000 5.1 320 21:22 07.07.2020
355 Clouds 13 1013 82 10000 5.1 320 20:59 07.07.2020
356 Clouds 12 1013 82 10000 5.1 320 20:41 07.07.2020
357 Rain 13 1013 76 3800 12.3 290 20:23 07.07.2020
358 Rain 13 1013 76 3800 12.3 290 19:55 07.07.2020
359 Rain 13 1013 76 10000 6.7 300 19:37 07.07.2020
360 Rain 13 1013 76 10000 6.7 300 19:19 07.07.2020
361 Rain 14 1013 76 10000 6.7 300 18:55 07.07.2020
362 Rain 14 1013 76 10000 7.7 300 18:37 07.07.2020
363 Rain 14 1013 76 10000 7.7 300 18:18 07.07.2020
364 Rain 14 1013 76 10000 7.7 300 17:44 07.07.2020
365 Clouds 15 1013 59 10000 13.4 280 17:23 07.07.2020
366 Clouds 15 1013 59 10000 13.4 280 16:59 07.07.2020
367 Clouds 15 1013 59 10000 13.4 280 16:40 07.07.2020
368 Rain 15 1013 72 10000 9.8 270 16:22 07.07.2020
369 Rain 16 1013 72 10000 9.8 270 15:55 07.07.2020
370 Rain 16 1013 72 10000 9.8 270 15:37 07.07.2020
371 Rain 15 1014 87 10000 5.7 250 15:18 07.07.2020
372 Rain 15 1014 87 10000 5.7 250 14:42 07.07.2020
373 Rain 14 1014 93 5000 8.2 240 14:24 07.07.2020
374 Rain 12 1014 93 5000 8.2 240 13:43 07.07.2020
375 Rain 15 1014 59 10000 6.7 250 13:20 07.07.2020
376 Rain 15 1014 59 10000 6.7 250 12:57 07.07.2020
377 Rain 14 1015 59 10000 7.2 240 12:37 07.07.2020
378 Rain 15 1015 59 10000 7.2 240 12:18 07.07.2020
379 Rain 16 1015 59 10000 7.2 240 11:43 07.07.2020
380 Clouds 15 1015 62 10000 10.8 270 11:22 07.07.2020
381 Clouds 15 1015 62 10000 10.8 270 10:58 07.07.2020
382 Clouds 15 1015 62 10000 10.8 270 10:40 07.07.2020
383 Rain 15 1015 63 10000 9.3 260 10:21 07.07.2020
384 Rain 16 1015 63 10000 9.3 260 09:54 07.07.2020
385 Rain 16 1015 63 10000 9.3 260 09:36 07.07.2020
386 Clear 15 1015 71 10000 10.8 280 09:18 07.07.2020
387 Clear 14 1015 71 10000 9.3 280 08:39 07.07.2020
388 Clouds 14 1015 71 10000 9.3 280 08:19 07.07.2020
389 Clouds 12 1015 76 10000 7.7 280 07:38 07.07.2020
390 Clouds 12 1015 76 10000 7.7 280 07:20 07.07.2020
391 Clouds 12 1015 76 10000 7.7 280 06:48 07.07.2020
392 Clouds 11 1015 76 10000 6.2 280 06:27 07.07.2020
393 Clouds 11 1015 76 10000 6.2 280 05:47 07.07.2020
394 Clouds 11 1015 76 10000 8.2 300 04:59 07.07.2020
395 Clouds 11 1014 71 10000 9.3 290 04:36 07.07.2020
396 Clear 11 1014 76 10000 9.8 300 03:35 07.07.2020
397 Clouds 11 1014 81 10000 9.8 290 02:18 07.07.2020
398 Clouds 11 1013 71 10000 11.3 300 01:22 07.07.2020
399 Clouds 12 1013 76 10000 9.8 290 00:42 07.07.2020
400 Clouds 12 1013 76 10000 9.8 290 00:23 07.07.2020
401 Clouds 12 1013 76 10000 9.8 290 23:46 06.07.2020
402 Clouds 12 1013 76 7000 11.8 310 23:26 06.07.2020
403 Clouds 12 1013 76 7000 11.8 310 22:59 06.07.2020
404 Clouds 12 1013 76 7000 11.8 310 22:40 06.07.2020
405 Clouds 13 1012 67 10000 11.8 300 22:19 06.07.2020
406 Clouds 13 1012 67 10000 11.8 300 21:57 06.07.2020
407 Clouds 13 1012 67 10000 11.8 300 21:38 06.07.2020
408 Clear 13 1011 67 10000 13.9 310 21:19 06.07.2020
409 Clear 13 1011 67 10000 13.9 310 20:59 06.07.2020
410 Clear 14 1010 67 10000 12.3 300 20:38 06.07.2020
411 Clouds 14 1010 67 10000 12.3 300 20:20 06.07.2020
412 Clouds 14 1010 67 10000 12.3 300 19:57 06.07.2020
413 Clouds 15 1009 63 10000 15.9 310 19:39 06.07.2020
414 Clouds 15 1009 63 10000 15.9 310 19:20 06.07.2020
415 Clouds 15 1009 63 10000 15.9 310 18:55 06.07.2020
416 Clouds 15 1008 77 10000 13.4 300 18:37 06.07.2020
417 Clouds 15 1008 77 10000 13.4 300 18:18 06.07.2020
418 Clouds 15 1008 77 10000 13.4 300 17:42 06.07.2020
419 Rain 15 1007 82 10000 12.9 280 17:24 06.07.2020
420 Rain 16 1007 82 10000 12.9 280 16:57 06.07.2020
421 Rain 15 1007 82 10000 12.9 280 16:39 06.07.2020
422 Rain 16 1007 72 10000 14.4 280 16:21 06.07.2020
423 Rain 16 1007 72 10000 14.4 280 15:42 06.07.2020
424 Rain 16 1006 63 10000 17.5 290 15:24 06.07.2020
425 Rain 16 1006 63 10000 17.5 290 15:24 06.07.2020
426 Rain 16 1006 63 10000 17.5 290 14:57 06.07.2020
427 Rain 16 1006 63 10000 17.5 290 14:38 06.07.2020
428 Rain 16 1005 67 10000 14.4 290 14:19 06.07.2020
429 Rain 16 1005 67 10000 14.4 290 13:55 06.07.2020
430 Rain 15 1004 76 10000 12.9 280 13:36 06.07.2020
431 Rain 15 1004 76 10000 12.9 280 13:36 06.07.2020
432 Rain 15 1004 76 10000 12.9 280 13:18 06.07.2020
433 Rain 16 1003 67 10000 14.4 280 12:42 06.07.2020
434 Rain 15 1003 67 10000 14.4 280 12:19 06.07.2020
435 Rain 15 1003 67 10000 14.4 280 11:57 06.07.2020
436 Rain 15 1003 67 10000 14.9 280 11:38 06.07.2020
437 Rain 16 1003 67 10000 14.9 280 11:19 06.07.2020
438 Rain 15 1003 67 10000 14.9 280 10:56 06.07.2020
439 Rain 14 1003 82 10000 8.7 260 10:37 06.07.2020
440 Rain 14 1003 82 10000 8.7 260 10:18 06.07.2020
441 Rain 15 1003 82 10000 8.7 260 09:41 06.07.2020
442 Rain 14 1002 76 10000 9.8 270 09:21 06.07.2020
443 Rain 14 1002 76 10000 9.8 270 08:56 06.07.2020
444 Rain 14 1002 76 10000 9.8 270 08:38 06.07.2020
445 Rain 13 1002 81 10000 6.7 230 08:19 06.07.2020
446 Rain 12 1002 81 10000 6.7 230 07:46 06.07.2020
447 Rain 12 1002 76 10000 8.2 240 07:24 06.07.2020
448 Rain 12 1002 81 10000 7.2 250 06:42 06.07.2020
449 Rain 12 1002 81 10000 7.2 250 06:42 06.07.2020
450 Rain 12 1002 81 10000 7.2 250 06:23 06.07.2020
451 Rain 11 1002 81 10000 7.2 250 05:42 06.07.2020
452 Clouds 12 1002 76 10000 8.7 250 05:19 06.07.2020
453 Clouds 11 1002 81 10000 6.2 250 03:52 06.07.2020
454 Rain 13 1003 71 10000 5.7 240 02:24 06.07.2020
455 Rain 13 1003 71 10000 5.7 240 01:42 06.07.2020
456 Clouds 13 1004 71 10000 8.2 260 00:39 06.07.2020
457 Clear 13 1004 71 10000 8.2 260 00:21 06.07.2020
458 Clear 13 1004 71 10000 8.2 260 23:44 05.07.2020
459 Clouds 14 1004 67 10000 10.3 260 23:26 05.07.2020
460 Clouds 14 1004 67 10000 10.3 260 22:59 05.07.2020
461 Clouds 14 1004 67 10000 10.3 260 22:41 05.07.2020
462 Clouds 14 1004 67 10000 10.3 260 22:41 05.07.2020
463 Clear 15 1004 67 10000 9.8 270 22:20 05.07.2020
464 Clear 15 1004 67 10000 9.8 270 21:58 05.07.2020
465 Clear 15 1004 67 10000 9.8 270 21:40 05.07.2020
466 Clear 15 1004 67 10000 9.8 270 21:40 05.07.2020
467 Clouds 15 1004 67 10000 14.4 280 21:19 05.07.2020
468 Clouds 15 1004 67 10000 14.4 280 20:58 05.07.2020
469 Clouds 15 1004 67 10000 14.4 280 20:58 05.07.2020
470 Clouds 16 1004 63 10000 16.5 280 20:39 05.07.2020
471 Clouds 16 1004 63 10000 16.5 280 20:21 05.07.2020
472 Clouds 16 1004 63 10000 16.5 280 19:55 05.07.2020
473 Clouds 17 1003 63 10000 17.5 280 19:37 05.07.2020
474 Clouds 17 1003 63 10000 17.5 280 19:19 05.07.2020
475 Clouds 18 1003 63 10000 18 280 18:42 05.07.2020
476 Clouds 17 1003 63 10000 18 280 18:22 05.07.2020
477 Clouds 17 1003 63 10000 18 280 18:22 05.07.2020
478 Clouds 18 1003 63 10000 18 280 17:56 05.07.2020
479 Clouds 18 1003 63 10000 18 280 17:38 05.07.2020
480 Clouds 18 1003 59 10000 17 270 17:19 05.07.2020
481 Clouds 18 1003 59 10000 17 270 16:44 05.07.2020
482 Clouds 18 1002 68 10000 17 270 16:25 05.07.2020
483 Clouds 19 1002 68 10000 17 270 15:58 05.07.2020
484 Clouds 19 1002 68 10000 17 270 15:37 05.07.2020
485 Rain 19 1002 72 10000 18.5 270 15:19 05.07.2020
486 Rain 19 1002 72 10000 18.5 270 14:42 05.07.2020
487 Rain 18 1001 82 10000 16.5 260 14:23 05.07.2020
488 Rain 18 1001 82 10000 16.5 260 13:55 05.07.2020
489 Rain 18 1001 88 7000 14.4 260 13:37 05.07.2020
490 Rain 17 1001 88 7000 14.4 260 13:19 05.07.2020
491 Rain 17 1001 88 7000 14.4 260 12:39 05.07.2020
492 Rain 17 1001 93 3600 12.9 250 12:20 05.07.2020
493 Rain 17 1001 93 3600 12.9 250 11:55 05.07.2020
494 Rain 17 1001 93 3300 12.3 250 11:36 05.07.2020
495 Rain 17 1001 93 3600 12.9 250 11:36 05.07.2020
496 Rain 17 1001 93 3300 12.3 250 11:18 05.07.2020
497 Rain 17 1001 93 3300 12.3 250 10:42 05.07.2020
498 Rain 17 1001 93 3300 12.3 250 10:42 05.07.2020
499 Rain 17 1001 93 3500 9.8 240 10:20 05.07.2020
500 Rain 17 1001 93 3500 9.8 240 09:59 05.07.2020
501 Rain 17 1001 93 3500 9.8 240 09:41 05.07.2020
502 Clouds 17 1001 93 3800 9.3 240 09:20 05.07.2020
503 Clouds 17 1001 93 3800 9.3 240 08:55 05.07.2020
504 Clouds 17 1001 93 4100 6.7 240 08:36 05.07.2020
505 Clouds 17 1001 93 4100 6.7 240 07:51 05.07.2020
506 Clouds 17 1002 93 1400 7.2 230 07:30 05.07.2020
507 Clouds 17 1002 93 1400 7.2 230 06:54 05.07.2020
508 Clouds 17 1003 93 1800 6.2 230 06:25 05.07.2020
509 Clouds 17 1004 93 10000 5.7 240 03:55 05.07.2020
510 Clouds 16 1005 100 2600 4.6 230 02:59 05.07.2020
511 Clouds 16 1005 93 2400 4.6 240 02:36 05.07.2020
512 Rain 16 1005 93 2400 4.6 240 01:43 05.07.2020
513 Rain 16 1006 93 5000 6.2 250 01:22 05.07.2020
514 Rain 16 1006 93 5000 6.2 250 00:50 05.07.2020
515 Rain 16 1006 93 10000 6.2 250 00:28 05.07.2020
516 Rain 16 1006 93 10000 6.2 250 23:56 04.07.2020
517 Rain 16 1006 93 3600 8.2 260 23:32 04.07.2020
518 Rain 16 1006 93 3600 8.2 260 22:59 04.07.2020
519 Rain 16 1006 93 3600 8.2 260 22:40 04.07.2020
520 Rain 16 1006 93 3300 8.2 260 22:22 04.07.2020
521 Rain 16 1006 93 3300 8.2 260 21:58 04.07.2020
522 Rain 16 1006 93 3300 8.2 260 21:40 04.07.2020
523 Rain 16 1006 93 5000 9.8 260 21:22 04.07.2020
524 Rain 16 1006 93 5000 9.8 260 20:43 04.07.2020
525 Rain 16 1006 93 6000 8.2 260 20:22 04.07.2020
526 Rain 16 1006 93 6000 8.2 260 19:58 04.07.2020
527 Rain 16 1007 93 3100 9.3 260 19:39 04.07.2020
528 Rain 17 1007 93 3100 9.3 260 19:21 04.07.2020
529 Rain 17 1007 93 3100 9.3 260 19:21 04.07.2020
530 Rain 17 1007 93 2200 10.3 260 18:46 04.07.2020
531 Rain 17 1007 93 2200 10.3 260 18:23 04.07.2020
532 Rain 17 1007 93 2200 10.3 260 17:56 04.07.2020
533 Rain 17 1007 88 4300 8.7 250 17:38 04.07.2020
534 Rain 17 1007 88 4300 8.7 250 17:19 04.07.2020
535 Rain 17 1007 88 4300 8.7 250 16:56 04.07.2020
536 Rain 17 1007 88 4300 8.7 250 16:36 04.07.2020
537 Rain 17 1007 88 4300 8.7 250 16:36 04.07.2020
538 Rain 16 1007 93 2100 6.7 230 16:18 04.07.2020
539 Rain 16 1007 93 2100 6.7 230 15:41 04.07.2020
540 Rain 16 1007 93 2700 8.2 230 15:23 04.07.2020
541 Rain 16 1007 93 2700 8.2 230 14:58 04.07.2020
542 Rain 16 1007 93 2700 8.2 230 14:37 04.07.2020
543 Rain 16 1007 93 10000 8.2 220 14:18 04.07.2020
544 Rain 16 1007 93 10000 8.2 220 14:18 04.07.2020
545 Rain 16 1007 93 10000 8.2 220 13:56 04.07.2020
546 Rain 16 1007 93 4900 7.7 220 13:36 04.07.2020
547 Rain 16 1007 93 4900 7.7 220 13:18 04.07.2020
548 Rain 16 1007 93 4900 7.7 220 12:40 04.07.2020
549 Rain 16 1007 87 2400 7.7 230 12:20 04.07.2020
550 Rain 16 1007 87 2400 7.7 230 11:45 04.07.2020
551 Rain 16 1008 93 8000 8.7 250 11:25 04.07.2020
552 Rain 16 1008 93 8000 8.7 250 10:59 04.07.2020
553 Rain 16 1008 93 8000 8.7 250 10:39 04.07.2020
554 Rain 16 1008 93 4900 8.7 250 10:21 04.07.2020
555 Rain 16 1008 93 4900 8.7 250 09:56 04.07.2020
556 Rain 16 1008 87 10000 8.7 250 09:36 04.07.2020
557 Rain 16 1008 87 10000 8.7 250 09:18 04.07.2020
558 Rain 16 1008 87 10000 8.7 250 08:46 04.07.2020
559 Rain 15 1008 93 5000 6.2 240 08:27 04.07.2020
560 Rain 15 1008 93 5000 6.2 240 07:44 04.07.2020
561 Rain 15 1008 93 2100 7.2 240 07:26 04.07.2020
562 Rain 15 1008 93 2100 7.2 240 06:53 04.07.2020
563 Rain 14 1008 93 2200 7.2 220 06:22 04.07.2020
564 Rain 15 1008 93 2100 6.7 230 05:34 04.07.2020
565 Rain 15 1008 93 2100 6.7 230 04:42 04.07.2020
566 Clouds 15 1009 93 1800 6.7 220 02:49 04.07.2020
567 Clouds 15 1010 87 3300 6.2 210 02:19 04.07.2020
568 Clouds 14 1011 93 3100 5.1 230 01:26 04.07.2020
569 Clouds 14 1011 93 3100 5.1 230 00:41 04.07.2020
570 Rain 14 1011 93 10000 4.1 230 00:22 04.07.2020
571 Rain 14 1011 87 10000 4.6 230 23:40 03.07.2020
572 Clouds 14 1011 87 10000 4.6 230 23:19 03.07.2020
573 Clouds 14 1011 87 10000 4.6 230 22:58 03.07.2020
574 Clouds 14 1012 82 10000 7.2 270 22:39 03.07.2020
575 Rain 14 1012 82 10000 7.2 270 22:20 03.07.2020
576 Rain 14 1012 82 10000 7.2 270 21:41 03.07.2020
577 Clouds 14 1011 87 10000 5.7 250 21:20 03.07.2020
578 Clouds 14 1011 87 10000 5.7 250 20:56 03.07.2020
579 Clouds 14 1011 87 10000 5.7 250 20:56 03.07.2020
580 Clouds 15 1011 87 10000 5.7 250 20:38 03.07.2020
581 Clouds 15 1011 82 5000 6.2 260 20:20 03.07.2020
582 Clouds 15 1012 87 10000 5.1 260 19:41 03.07.2020
583 Clouds 15 1012 87 10000 5.1 260 19:21 03.07.2020
584 Clouds 15 1012 87 10000 5.1 260 18:57 03.07.2020
585 Clouds 15 1012 77 10000 6.7 250 18:39 03.07.2020
586 Clouds 16 1012 77 10000 6.7 250 18:20 03.07.2020
587 Clouds 16 1012 77 10000 6.7 250 17:44 03.07.2020
588 Clouds 16 1013 67 10000 9.8 260 17:22 03.07.2020
589 Clouds 17 1013 67 10000 9.8 260 16:47 03.07.2020
590 Clouds 17 1012 63 10000 10.3 260 16:29 03.07.2020
591 Clouds 17 1012 63 10000 10.3 260 15:57 03.07.2020
592 Clouds 18 1012 63 10000 10.3 260 15:39 03.07.2020
593 Rain 17 1012 67 10000 6.2 240 15:20 03.07.2020
594 Rain 17 1012 67 10000 6.2 240 14:41 03.07.2020
595 Rain 17 1013 82 10000 5.1 270 14:23 03.07.2020
596 Rain 16 1013 82 10000 5.1 270 13:59 03.07.2020
597 Rain 15 1013 82 10000 5.1 270 13:40 03.07.2020
598 Rain 15 1013 77 10000 4.1 190 13:22 03.07.2020
599 Rain 16 1013 63 10000 5.1 200 12:40 03.07.2020
600 Rain 16 1013 63 10000 5.1 200 12:22 03.07.2020
601 Rain 15 1013 63 10000 5.1 200 11:54 03.07.2020
602 Rain 15 1013 67 10000 4.1 210 11:36 03.07.2020
603 Clouds 15 1013 67 10000 4.1 210 11:18 03.07.2020
604 Clouds 15 1013 67 10000 4.1 210 10:42 03.07.2020
605 Clouds 15 1013 67 10000 3.1 210 10:21 03.07.2020
606 Clouds 15 1013 67 10000 3.1 210 09:59 03.07.2020
607 Clouds 15 1013 67 10000 3.1 210 09:39 03.07.2020
608 Clouds 14 1013 71 10000 2.1 190 09:20 03.07.2020
609 Clouds 14 1013 71 10000 2.1 190 08:57 03.07.2020
610 Clouds 14 1013 71 10000 2.1 190 08:38 03.07.2020
611 Clouds 14 1012 71 10000 1 180 08:18 03.07.2020
612 Clouds 14 1012 71 10000 1 180 07:43 03.07.2020
613 Clouds 13 1012 82 10000 1.5 360 07:22 03.07.2020
614 Clouds 13 1012 71 10000 2.6 350 06:37 03.07.2020
615 Clouds 13 1012 71 10000 2.6 350 05:53 03.07.2020
616 Clouds 13 1012 67 10000 2.6 340 04:26 03.07.2020
617 Clouds 13 1011 71 10000 2.6 350 02:57 03.07.2020
618 Clouds 13 1011 76 10000 4.1 350 02:32 03.07.2020
619 Clouds 13 1011 76 10000 4.1 350 01:43 03.07.2020
620 Clouds 13 1011 76 10000 3.1 320 01:20 03.07.2020
621 Clouds 13 1011 76 10000 3.1 320 01:20 03.07.2020
622 Clouds 13 1011 76 10000 3.1 320 00:42 03.07.2020
623 Clouds 14 1011 71 10000 4.1 330 00:18 03.07.2020
624 Clouds 13 1011 71 10000 4.1 330 23:43 02.07.2020
625 Clouds 14 1010 67 10000 5.1 340 23:20 02.07.2020
626 Clouds 14 1010 67 10000 5.1 340 22:57 02.07.2020
627 Clouds 14 1010 67 10000 5.1 340 22:38 02.07.2020
628 Clouds 15 1010 67 10000 5.1 330 22:20 02.07.2020
629 Clouds 15 1010 67 10000 5.1 330 21:54 02.07.2020
630 Clouds 16 1009 59 10000 5.7 330 21:36 02.07.2020
631 Clouds 16 1009 59 10000 5.7 330 21:18 02.07.2020
632 Clouds 16 1009 59 10000 5.7 330 20:42 02.07.2020
633 Clouds 16 1009 55 10000 5.7 330 20:20 02.07.2020
634 Clouds 17 1009 55 10000 5.7 330 19:56 02.07.2020
635 Clouds 17 1008 52 10000 7.2 330 19:38 02.07.2020
636 Clouds 18 1008 52 10000 7.2 330 19:20 02.07.2020
637 Clouds 18 1008 52 10000 7.2 330 18:57 02.07.2020
638 Clouds 18 1008 55 10000 6.2 320 18:38 02.07.2020
639 Clouds 19 1008 55 10000 6.2 320 18:20 02.07.2020
640 Clouds 19 1008 55 10000 6.2 320 17:40 02.07.2020
641 Clouds 21 1008 52 10000 6.2 320 17:20 02.07.2020
642 Clouds 21 1008 52 10000 6.2 320 16:56 02.07.2020
643 Clouds 21 1008 52 10000 6.2 320 16:38 02.07.2020
644 Clouds 20 1008 59 10000 7.2 300 16:19 02.07.2020
645 Clouds 19 1008 59 10000 7.2 300 15:55 02.07.2020
646 Clouds 19 1008 59 10000 7.2 300 15:36 02.07.2020
647 Clouds 20 1008 56 10000 5.7 270 15:36 02.07.2020
648 Clouds 20 1008 56 10000 5.7 270 15:18 02.07.2020
649 Clouds 20 1008 56 10000 5.7 270 14:43 02.07.2020
650 Clouds 19 1008 63 10000 6.7 300 14:20 02.07.2020
651 Clouds 19 1008 63 10000 6.7 300 13:56 02.07.2020
652 Clouds 20 1007 63 10000 7.2 300 13:36 02.07.2020
653 Clouds 20 1007 63 10000 7.2 300 13:18 02.07.2020
654 Clouds 20 1007 63 10000 7.2 300 12:41 02.07.2020
655 Clouds 19 1007 59 10000 6.7 260 12:22 02.07.2020
656 Clouds 19 1007 59 10000 6.7 260 12:22 02.07.2020
657 Clouds 19 1007 59 10000 6.7 260 11:55 02.07.2020
658 Clouds 19 1007 59 10000 6.7 260 11:37 02.07.2020
659 Clouds 18 1007 59 10000 7.2 270 11:19 02.07.2020
660 Clouds 18 1007 59 10000 7.2 270 10:42 02.07.2020
661 Clouds 18 1006 67 10000 7.2 280 10:23 02.07.2020
662 Clouds 17 1006 67 10000 7.2 280 09:44 02.07.2020
663 Clouds 16 1006 77 10000 7.7 280 09:23 02.07.2020
664 Clouds 16 1006 77 10000 7.7 280 08:59 02.07.2020
665 Clouds 16 1006 77 10000 7.7 280 08:40 02.07.2020
666 Clouds 15 1005 82 10000 6.2 260 08:20 02.07.2020
667 Clouds 15 1005 82 10000 6.2 260 07:42 02.07.2020
668 Clear 14 1005 87 10000 4.6 260 07:22 02.07.2020
669 Clear 14 1005 87 10000 4.6 260 06:50 02.07.2020
670 Clear 14 1005 82 10000 6.2 260 06:27 02.07.2020
671 Clear 14 1005 82 10000 6.2 260 05:50 02.07.2020
672 Clear 14 1004 87 10000 7.2 290 05:19 02.07.2020
673 Clear 15 1004 87 2800 7.2 290 03:35 02.07.2020
674 Clouds 15 1003 87 10000 5.1 250 01:53 02.07.2020
675 Rain 15 1003 87 10000 6.7 260 00:46 02.07.2020
676 Rain 15 1003 82 10000 8.7 270 00:22 02.07.2020
677 Rain 15 1003 82 10000 8.7 270 23:45 01.07.2020
678 Rain 16 1002 82 10000 9.3 280 23:26 01.07.2020
679 Rain 16 1002 82 10000 9.3 280 22:56 01.07.2020
680 Rain 16 1002 82 10000 9.3 280 22:38 01.07.2020
681 Rain 16 1002 82 10000 10.3 280 22:19 01.07.2020
682 Rain 16 1002 82 10000 10.3 280 21:58 01.07.2020
683 Rain 16 1002 82 10000 10.3 280 21:40 01.07.2020
684 Clear 17 1001 82 10000 6.2 280 21:21 01.07.2020
685 Clear 17 1001 82 10000 6.2 280 20:55 01.07.2020
686 Clear 18 1002 88 8000 1 330 20:36 01.07.2020
687 Clouds 18 1002 88 8000 1 330 20:18 01.07.2020
688 Clouds 18 1002 88 8000 1 330 19:42 01.07.2020
689 Rain 18 1002 88 8000 3.1 210 19:24 01.07.2020
690 Rain 18 1002 88 8000 3.1 210 18:59 01.07.2020
691 Rain 18 1002 88 8000 3.1 210 18:40 01.07.2020
692 Rain 19 1002 60 10000 3.1 190 18:21 01.07.2020
693 Rain 19 1002 60 10000 3.1 190 17:56 01.07.2020
694 Rain 20 1002 60 10000 3.1 190 17:37 01.07.2020
695 Rain 20 1002 56 10000 3.6 220 17:18 01.07.2020
696 Rain 20 1002 56 10000 3.6 220 16:44 01.07.2020
697 Rain 20 1003 56 10000 4.1 230 16:26 01.07.2020
698 Rain 20 1003 56 10000 4.1 230 15:55 01.07.2020
699 Rain 21 1003 56 10000 4.1 230 15:37 01.07.2020
700 Clouds 21 1003 52 10000 6.7 260 15:18 01.07.2020
701 Clouds 20 1003 52 10000 6.7 260 14:42 01.07.2020
702 Clouds 19 1003 59 10000 6.2 260 14:21 01.07.2020
703 Clouds 19 1003 59 10000 6.2 260 13:57 01.07.2020
704 Clouds 19 1003 59 10000 6.2 260 13:38 01.07.2020
705 Clouds 19 1003 59 10000 6.2 250 13:20 01.07.2020
706 Clouds 19 1003 59 10000 6.2 250 12:57 01.07.2020
707 Clouds 19 1003 63 10000 7.2 260 12:38 01.07.2020
708 Clouds 18 1003 63 10000 7.2 260 12:20 01.07.2020
709 Clouds 18 1003 63 10000 7.2 260 11:40 01.07.2020
710 Clouds 18 1003 67 10000 5.7 260 11:22 01.07.2020
711 Clouds 18 1003 67 10000 5.7 260 10:58 01.07.2020
712 Clouds 17 1003 67 10000 5.7 260 10:40 01.07.2020
713 Clouds 18 1003 72 10000 6.7 280 10:21 01.07.2020
714 Clouds 17 1003 72 10000 6.7 280 09:54 01.07.2020
715 Clouds 17 1003 72 10000 6.7 280 09:36 01.07.2020
716 Clouds 17 1003 77 10000 6.7 260 09:18 01.07.2020
717 Clouds 17 1003 77 10000 6.7 260 08:41 01.07.2020
718 Clouds 16 1003 82 10000 5.7 260 08:21 01.07.2020
719 Clouds 16 1003 82 10000 5.7 260 07:57 01.07.2020
720 Clouds 15 1002 77 10000 5.7 250 07:36 01.07.2020
721 Clouds 15 1002 77 10000 5.7 250 07:18 01.07.2020
722 Clouds 14 1002 77 10000 5.7 250 06:48 01.07.2020
723 Clouds 14 1002 77 10000 6.2 260 06:27 01.07.2020
724 Clouds 14 1002 77 10000 7.7 260 04:32 01.07.2020
725 Clouds 14 1002 77 10000 7.7 260 03:47 01.07.2020
726 Clouds 14 1002 77 10000 7.2 260 03:27 01.07.2020
727 Clouds 14 1002 77 10000 7.2 260 02:41 01.07.2020
728 Clouds 14 1002 77 10000 8.2 270 01:47 01.07.2020
729 Clouds 14 1002 77 10000 9.3 260 00:43 01.07.2020
730 Clouds 14 1002 77 10000 9.3 260 00:24 01.07.2020
731 Clouds 14 1002 77 10000 9.3 260 23:42 30.06.2020
732 Clouds 15 1002 77 10000 10.3 260 23:22 30.06.2020
733 Clouds 15 1002 77 10000 10.3 260 22:59 30.06.2020
734 Clouds 14 1002 77 10000 10.3 260 22:40 30.06.2020
735 Clouds 15 1002 82 10000 10.8 270 22:18 30.06.2020
736 Clouds 15 1002 82 10000 10.8 270 21:41 30.06.2020
737 Clouds 15 1002 72 10000 14.4 270 21:19 30.06.2020
738 Clouds 15 1002 72 10000 14.4 270 20:55 30.06.2020
739 Clouds 16 1002 72 10000 14.4 270 20:37 30.06.2020
740 Clouds 16 1002 72 10000 13.9 270 20:19 30.06.2020
741 Clouds 16 1002 67 10000 14.9 270 19:42 30.06.2020
742 Rain 16 1002 67 10000 14.9 270 19:19 30.06.2020
743 Rain 16 1002 67 10000 14.9 270 19:19 30.06.2020
744 Rain 17 1002 67 10000 14.9 270 18:46 30.06.2020
745 Rain 17 1002 63 10000 18 280 18:21 30.06.2020
746 Rain 17 1002 63 10000 18 280 17:59 30.06.2020
747 Rain 17 1002 63 10000 15.9 270 17:38 30.06.2020
748 Rain 17 1002 63 10000 15.9 270 17:19 30.06.2020
749 Rain 17 1002 63 10000 15.9 270 17:19 30.06.2020
750 Rain 17 1002 63 10000 15.9 270 16:54 30.06.2020
751 Rain 17 1002 63 10000 15.9 270 16:36 30.06.2020
752 Rain 18 1002 63 10000 16.5 260 16:18 30.06.2020
753 Rain 17 1002 63 10000 16.5 260 15:41 30.06.2020
754 Rain 18 1002 63 10000 15.4 260 15:22 30.06.2020
755 Rain 18 1002 63 10000 15.4 260 14:56 30.06.2020
756 Rain 18 1002 63 10000 15.4 260 14:38 30.06.2020
757 Rain 18 1002 63 10000 16.5 260 14:18 30.06.2020
758 Rain 18 1002 63 10000 16.5 260 13:41 30.06.2020
759 Rain 16 1001 77 10000 10.3 260 13:21 30.06.2020
760 Rain 16 1001 77 10000 10.3 260 12:59 30.06.2020
761 Rain 16 1001 82 10000 11.3 260 12:40 30.06.2020
762 Rain 17 1001 82 10000 11.3 260 12:21 30.06.2020
763 Rain 17 1001 82 10000 11.3 260 11:58 30.06.2020
764 Rain 17 1001 82 10000 11.3 260 11:39 30.06.2020
765 Rain 17 1001 82 10000 11.3 260 11:39 30.06.2020
766 Rain 17 1001 72 10000 10.8 250 11:19 30.06.2020
767 Rain 17 1001 72 10000 10.8 250 10:58 30.06.2020
768 Clouds 19 1010 68 10000 7.2 270 16:43 28.06.2020
769 Rain 19 1010 63 10000 11.3 270 16:24 28.06.2020
770 Rain 18 1010 63 10000 11.3 270 15:56 28.06.2020
771 Rain 18 1010 63 10000 11.3 270 15:38 28.06.2020
772 Rain 19 1010 63 10000 7.2 260 15:19 28.06.2020
773 Rain 19 1010 63 10000 7.2 260 14:46 28.06.2020
774 Clouds 19 1009 77 10000 7.7 260 14:28 28.06.2020
775 Clouds 18 1009 77 10000 7.7 260 13:58 28.06.2020
776 Clouds 18 1009 77 10000 7.7 260 13:38 28.06.2020
777 Clouds 18 1009 77 10000 4.1 240 13:20 28.06.2020
778 Clouds 18 1009 77 10000 4.1 240 13:20 28.06.2020
779 Clouds 18 1009 77 10000 4.1 240 12:56 28.06.2020
780 Clouds 17 1009 88 5000 6.2 220 12:37 28.06.2020
781 Clouds 17 1009 88 5000 6.2 220 12:37 28.06.2020
782 Clouds 17 1009 88 5000 6.2 220 12:19 28.06.2020
783 Clouds 17 1009 88 5000 6.2 220 11:57 28.06.2020
784 Clouds 17 1009 88 5000 6.2 220 11:57 28.06.2020
785 Clouds 17 1009 88 5000 6.2 220 11:39 28.06.2020
786 Clouds 19 1008 82 10000 3.1 200 11:20 28.06.2020
787 Clouds 19 1008 82 10000 3.1 200 10:56 28.06.2020
788 Clouds 19 1008 82 10000 3.1 200 10:38 28.06.2020
789 Clouds 18 1008 88 10000 3.6 200 10:19 28.06.2020
790 Clouds 18 1008 88 10000 3.6 200 09:40 28.06.2020
791 Rain 18 1008 88 10000 3.6 180 09:21 28.06.2020
792 Rain 18 1008 88 10000 3.6 180 08:48 28.06.2020
793 Clouds 18 1007 88 10000 4.6 190 08:28 28.06.2020
794 Clouds 18 1007 88 10000 4.6 190 07:53 28.06.2020
795 Clouds 17 1007 93 10000 3.1 190 07:30 28.06.2020
796 Clouds 17 1007 88 10000 5.7 260 06:45 28.06.2020
797 Clouds 17 1007 88 10000 5.7 260 06:26 28.06.2020
798 Clouds 17 1007 93 5000 4.6 190 05:27 28.06.2020
799 Clouds 18 1007 93 4100 2.6 210 03:45 28.06.2020
800 Clouds 18 1008 93 3200 3.1 220 02:49 28.06.2020
801 Clouds 18 1008 93 3700 3.1 200 02:19 28.06.2020
802 Clouds 18 1008 93 10000 3.1 220 01:27 28.06.2020
803 Clouds 18 1008 93 10000 3.1 220 00:51 28.06.2020
804 Clear 18 1008 93 7000 2.6 230 00:29 28.06.2020
805 Clear 18 1008 93 7000 2.6 230 23:45 27.06.2020
806 Clear 18 1008 93 10000 2.1 200 23:24 27.06.2020
807 Clear 18 1008 93 10000 2.1 200 22:59 27.06.2020
808 Clear 18 1008 93 10000 2.1 200 22:41 27.06.2020
809 Clear 18 1007 93 10000 2.1 250 22:23 27.06.2020
810 Clear 19 1007 93 10000 2.1 250 21:57 27.06.2020
811 Clear 19 1007 93 10000 2.1 250 21:39 27.06.2020
812 Clear 19 1008 93 9000 2.6 160 21:20 27.06.2020
813 Clear 19 1008 93 9000 2.6 160 20:45 27.06.2020
814 Clouds 19 1007 93 4500 1 0 20:20 27.06.2020
815 Clouds 19 1007 93 4500 1 0 20:00 27.06.2020
816 Clouds 20 1007 93 8000 3.1 140 19:37 27.06.2020
817 Rain 20 1007 93 8000 3.1 140 19:19 27.06.2020
818 Rain 20 1007 93 8000 3.1 140 19:19 27.06.2020
819 Rain 20 1007 93 8000 3.1 140 18:48 27.06.2020
820 Rain 21 1008 93 6000 4.1 150 18:29 27.06.2020
821 Rain 21 1008 93 6000 4.1 150 17:59 27.06.2020
822 Rain 21 1008 93 6000 4.1 150 17:40 27.06.2020
823 Rain 20 1007 93 1800 7.7 140 17:20 27.06.2020
824 Rain 20 1007 93 1800 7.7 140 17:20 27.06.2020
825 Rain 21 1007 93 1800 7.7 140 16:57 27.06.2020
826 Rain 22 1007 93 1800 7.7 140 16:38 27.06.2020
827 Rain 26 1007 69 10000 4.6 120 16:19 27.06.2020
828 Rain 25 1007 69 10000 4.6 120 15:43 27.06.2020
829 Rain 27 1007 65 10000 4.1 90 15:24 27.06.2020
830 Rain 26 1007 65 10000 4.1 90 14:58 27.06.2020
831 Rain 26 1007 65 10000 4.1 90 14:39 27.06.2020
832 Clouds 26 1008 65 10000 3.1 100 14:20 27.06.2020
833 Clouds 27 1008 65 10000 3.1 100 13:54 27.06.2020
834 Clouds 27 1008 65 10000 4.1 90 13:36 27.06.2020
835 Rain 27 1008 65 10000 4.1 90 13:18 27.06.2020
836 Rain 27 1008 69 10000 3.1 110 12:41 27.06.2020
837 Rain 27 1008 69 10000 3.1 110 12:22 27.06.2020
838 Rain 26 1008 69 10000 3.1 110 11:59 27.06.2020
839 Rain 26 1008 69 10000 3.1 110 11:40 27.06.2020
840 Rain 26 1008 69 8000 3.1 100 11:21 27.06.2020
841 Rain 26 1008 69 8000 3.1 100 10:42 27.06.2020
842 Clear 25 1009 69 9000 2.6 170 10:19 27.06.2020
843 Clear 25 1009 69 9000 2.6 170 09:59 27.06.2020
844 Clear 24 1009 69 9000 2.6 170 09:39 27.06.2020
845 Clear 22 1009 78 10000 3.6 140 09:20 27.06.2020
846 Clear 22 1009 78 10000 3.6 140 08:44 27.06.2020
847 Clear 21 1009 88 9000 3.1 140 08:23 27.06.2020
848 Clear 20 1009 88 9000 3.1 140 07:48 27.06.2020
849 Clear 19 1010 93 7000 5.1 140 07:27 27.06.2020
850 Clear 19 1010 93 7000 5.1 140 06:53 27.06.2020
851 Clear 18 1010 93 5000 5.7 120 06:33 27.06.2020
852 Clear 18 1010 93 5000 5.1 120 05:31 27.06.2020
853 Clear 18 1011 93 6000 4.1 120 04:19 27.06.2020
854 Clear 18 1011 93 6000 4.1 120 03:51 27.06.2020
855 Clear 18 1011 93 5000 2.6 120 02:45 27.06.2020
856 Clear 19 1011 88 7000 3.6 130 02:26 27.06.2020
857 Clear 19 1011 88 7000 3.6 130 01:37 27.06.2020
858 Clear 20 1012 82 9000 3.1 100 00:49 27.06.2020
859 Clear 20 1012 77 10000 5.1 130 23:57 26.06.2020
860 Clear 21 1012 77 10000 5.1 130 23:38 26.06.2020
861 Clear 21 1012 77 10000 5.1 130 23:20 26.06.2020
862 Clear 21 1012 77 10000 5.1 130 22:43 26.06.2020
863 Clear 22 1013 64 10000 5.1 120 22:24 26.06.2020
864 Clear 22 1013 64 10000 5.1 120 21:58 26.06.2020
865 Clear 22 1013 64 10000 5.1 120 21:40 26.06.2020
866 Clear 22 1013 64 10000 5.1 120 21:40 26.06.2020
867 Clear 22 1013 64 10000 5.1 120 21:40 26.06.2020
868 Clear 23 1012 60 10000 5.7 130 21:21 26.06.2020
869 Clear 23 1012 60 10000 5.7 130 21:21 26.06.2020
870 Clear 23 1012 60 10000 5.7 130 20:59 26.06.2020
871 Clear 24 1012 60 10000 5.7 130 20:40 26.06.2020
872 Clear 24 1012 57 10000 5.1 120 20:18 26.06.2020
873 Clear 25 1013 54 10000 5.1 120 19:41 26.06.2020
874 Clear 25 1013 54 10000 5.1 120 19:23 26.06.2020
875 Clear 26 1013 54 10000 5.1 120 18:44 26.06.2020
876 Clear 26 1014 54 10000 5.7 130 18:25 26.06.2020
877 Clear 26 1014 54 10000 5.7 130 17:58 26.06.2020
878 Clear 26 1014 54 10000 5.7 130 17:40 26.06.2020
879 Rain 26 1014 54 10000 4.6 110 17:21 26.06.2020
880 Rain 26 1014 54 10000 4.6 110 16:43 26.06.2020
881 Rain 26 1014 57 10000 4.6 110 16:23 26.06.2020
882 Rain 26 1014 57 10000 4.6 110 15:54 26.06.2020
883 Rain 27 1015 57 10000 4.1 110 15:36 26.06.2020
884 Rain 26 1015 57 10000 4.1 110 15:18 26.06.2020
885 Rain 27 1015 57 10000 4.1 110 14:40 26.06.2020
886 Rain 27 1015 54 10000 4.6 100 14:22 26.06.2020
887 Rain 26 1015 54 10000 4.6 100 13:57 26.06.2020
888 Rain 26 1016 65 10000 3.6 90 13:38 26.06.2020
889 Clear 26 1016 65 10000 3.6 90 13:18 26.06.2020
890 Clear 25 1016 69 10000 4.6 90 12:41 26.06.2020
891 Clear 26 1016 69 10000 4.6 90 12:23 26.06.2020
892 Clear 26 1016 69 10000 4.6 90 11:59 26.06.2020
893 Clear 26 1016 69 10000 4.6 90 11:39 26.06.2020
894 Clear 25 1017 73 7000 3.6 90 11:21 26.06.2020
895 Clear 25 1017 73 7000 3.6 90 10:58 26.06.2020
896 Clear 25 1017 73 7000 3.6 90 10:38 26.06.2020
897 Clear 24 1017 73 8000 2.6 90 10:19 26.06.2020
898 Clear 24 1017 73 8000 2.6 90 09:44 26.06.2020
899 Clear 22 1017 78 10000 2.1 110 09:25 26.06.2020
900 Clear 22 1017 78 10000 2.1 110 08:57 26.06.2020
901 Clear 22 1017 88 10000 3.1 120 08:37 26.06.2020
902 Clear 21 1017 88 10000 3.1 120 08:19 26.06.2020
903 Clear 21 1017 88 10000 3.1 120 07:44 26.06.2020
904 Clear 19 1017 93 10000 4.1 120 07:21 26.06.2020
905 Clear 19 1017 93 10000 4.1 120 06:44 26.06.2020
906 Clear 17 1018 93 10000 3.6 120 06:26 26.06.2020
907 Clear 17 1018 93 10000 3.6 120 05:48 26.06.2020
908 Clear 17 1018 88 10000 4.6 120 04:39 26.06.2020
909 Clear 19 1019 82 10000 4.1 120 02:22 26.06.2020
910 Clear 19 1020 77 10000 4.6 110 01:22 26.06.2020
911 Clear 19 1020 77 10000 3.1 110 00:42 26.06.2020
912 Clear 20 1020 77 10000 3.1 110 00:20 26.06.2020
913 Clear 20 1020 77 10000 3.1 110 23:45 25.06.2020
914 Clear 20 1020 73 10000 3.1 100 23:20 25.06.2020
915 Clear 21 1020 73 10000 3.1 100 22:57 25.06.2020
916 Clear 21 1020 68 10000 3.6 110 22:38 25.06.2020
917 Clear 21 1020 68 10000 3.6 110 22:19 25.06.2020
918 Clear 22 1020 68 10000 3.6 110 21:56 25.06.2020
919 Clear 22 1020 68 10000 3.6 110 21:38 25.06.2020
920 Clouds 23 1020 57 10000 4.1 110 21:19 25.06.2020
921 Clouds 24 1020 57 10000 4.1 110 20:45 25.06.2020
922 Clouds 24 1020 53 10000 3.1 100 20:24 25.06.2020
923 Clouds 25 1020 53 10000 3.1 100 19:58 25.06.2020
924 Clouds 25 1020 53 10000 3.1 100 19:40 25.06.2020
925 Clouds 25 1021 50 10000 4.6 90 19:19 25.06.2020
926 Clouds 25 1021 50 10000 4.6 90 19:19 25.06.2020
927 Clouds 25 1021 50 10000 4.6 90 19:19 25.06.2020
928 Clouds 25 1021 50 10000 4.6 90 18:58 25.06.2020
929 Clouds 26 1021 50 10000 4.1 100 18:38 25.06.2020
930 Clouds 26 1021 50 10000 4.1 100 18:19 25.06.2020
931 Clouds 26 1021 50 10000 4.1 100 17:42 25.06.2020
932 Clouds 25 1022 50 10000 4.6 110 17:20 25.06.2020
933 Clouds 25 1022 50 10000 4.6 110 17:20 25.06.2020
934 Clouds 26 1022 50 10000 4.6 110 16:58 25.06.2020
935 Clouds 26 1022 50 10000 4.6 110 16:37 25.06.2020
936 Clouds 26 1023 47 10000 5.1 110 16:19 25.06.2020
937 Clouds 26 1023 47 10000 5.1 110 15:41 25.06.2020
938 Clouds 25 1023 50 10000 4.6 120 15:22 25.06.2020
939 Clouds 25 1023 50 10000 4.6 120 14:45 25.06.2020
940 Clouds 24 1024 53 10000 6.2 110 14:25 25.06.2020
941 Clouds 25 1024 53 10000 6.2 110 13:59 25.06.2020
942 Clouds 24 1024 53 10000 6.2 110 13:41 25.06.2020
943 Clouds 25 1024 53 10000 4.6 120 13:19 25.06.2020
944 Clouds 25 1024 53 10000 4.6 120 13:19 25.06.2020
945 Clouds 25 1024 53 10000 4.6 120 12:55 25.06.2020
946 Clouds 25 1024 50 10000 5.7 110 12:37 25.06.2020
947 Clouds 23 1024 50 10000 5.7 110 12:18 25.06.2020
948 Clouds 24 1024 50 10000 5.7 110 11:42 25.06.2020
949 Clouds 24 1024 53 10000 5.7 110 11:21 25.06.2020
950 Clouds 24 1024 53 10000 5.7 110 10:44 25.06.2020
951 Clouds 23 1025 56 7000 3.6 110 10:25 25.06.2020
952 Clouds 23 1025 56 7000 3.6 110 09:55 25.06.2020
953 Clouds 23 1025 56 7000 3.6 110 09:36 25.06.2020
954 Clouds 21 1025 68 10000 4.6 120 09:18 25.06.2020
955 Clouds 21 1025 68 10000 4.6 120 08:42 25.06.2020
956 Clouds 20 1025 88 10000 3.6 120 08:18 25.06.2020
957 Clouds 20 1025 88 10000 3.6 120 08:18 25.06.2020
958 Clouds 20 1025 88 10000 3.6 120 08:18 25.06.2020
959 Clouds 18 1025 100 10000 4.1 120 07:43 25.06.2020
960 Clouds 18 1025 100 10000 4.1 120 07:25 25.06.2020
961 Clouds 17 1025 100 10000 4.1 120 06:45 25.06.2020
962 Clouds 15 1025 93 8000 3.6 120 06:25 25.06.2020
963 Clouds 15 1025 93 7000 3.1 120 05:39 25.06.2020
964 Clouds 15 1026 93 7000 2.6 100 03:51 25.06.2020
965 Clouds 15 1026 93 10000 2.6 100 03:25 25.06.2020
966 Clouds 15 1026 93 10000 2.6 100 02:41 25.06.2020
967 Clouds 16 1026 93 10000 3.6 120 01:43 25.06.2020
968 Clouds 16 1026 93 10000 3.6 120 01:19 25.06.2020
969 Clouds 16 1026 93 10000 3.6 120 01:19 25.06.2020
970 Clouds 16 1026 93 10000 4.1 110 00:40 25.06.2020
971 Clouds 16 1026 93 10000 4.1 110 00:18 25.06.2020
972 Clouds 16 1026 93 10000 4.1 110 23:42 24.06.2020
973 Clouds 17 1026 88 10000 2.6 110 23:23 24.06.2020
974 Clouds 17 1026 88 10000 2.6 110 22:57 24.06.2020
975 Clouds 17 1026 88 10000 2.6 110 22:38 24.06.2020
976 Clouds 19 1025 68 10000 2.6 110 22:19 24.06.2020
977 Clouds 20 1025 68 10000 2.6 110 21:55 24.06.2020
978 Clouds 21 1025 56 10000 2.1 110 21:36 24.06.2020
979 Clouds 21 1025 56 10000 2.1 110 21:18 24.06.2020
980 Clouds 21 1025 56 10000 2.1 110 20:57 24.06.2020
981 Clouds 23 1025 49 10000 4.1 110 20:38 24.06.2020
982 Clouds 23 1025 49 10000 4.1 110 20:19 24.06.2020
983 Clouds 23 1025 49 10000 4.1 110 19:55 24.06.2020
984 Clouds 24 1025 44 10000 3.1 110 19:36 24.06.2020
985 Clouds 24 1025 44 10000 3.1 110 19:18 24.06.2020
986 Clouds 24 1025 44 10000 3.1 110 18:57 24.06.2020
987 Clouds 24 1026 41 10000 3.6 100 18:38 24.06.2020
988 Clouds 24 1026 41 10000 3.6 100 18:19 24.06.2020
989 Clouds 24 1026 41 10000 3.6 100 17:43 24.06.2020
990 Clouds 24 1026 41 10000 4.1 110 17:21 24.06.2020
991 Clouds 25 1026 41 10000 4.1 110 16:59 24.06.2020
992 Clouds 24 1026 41 10000 4.1 110 16:40 24.06.2020
993 Clear 25 1026 50 10000 2.6 100 16:22 24.06.2020
994 Clear 25 1026 50 10000 2.6 100 15:58 24.06.2020
995 Clear 25 1026 50 10000 3.1 120 15:39 24.06.2020
996 Clear 25 1026 50 10000 3.1 120 15:20 24.06.2020
997 Clear 25 1026 50 10000 3.1 120 14:54 24.06.2020
998 Clear 24 1026 50 10000 2.6 70 14:36 24.06.2020
999 Clear 24 1026 50 10000 2.6 70 14:18 24.06.2020
1000 Clear 24 1026 50 10000 2.6 70 13:42 24.06.2020
1001 Clear 24 1026 56 10000 4.1 100 13:21 24.06.2020
1002 Clear 23 1026 53 10000 3.1 110 12:42 24.06.2020
1003 Clear 23 1026 53 10000 3.1 110 12:21 24.06.2020
1004 Clear 23 1026 53 10000 3.1 110 11:58 24.06.2020
1005 Clear 23 1026 60 9000 1.5 90 11:39 24.06.2020
1006 Clear 23 1026 60 9000 1.5 90 11:21 24.06.2020
1007 Clear 23 1026 60 9000 1.5 90 10:45 24.06.2020
1008 Clear 22 1026 77 7000 2.6 30 10:19 24.06.2020
1009 Clear 22 1026 77 7000 2.6 30 09:56 24.06.2020
1010 Clear 21 1026 77 10000 2.6 40 09:38 24.06.2020
1011 Clear 19 1026 77 10000 2.6 40 09:19 24.06.2020
1012 Clear 20 1026 77 10000 2.6 40 08:40 24.06.2020
1013 Clouds 18 1026 93 10000 1.5 30 08:19 24.06.2020
1014 Clouds 17 1026 93 10000 1.5 30 07:48 24.06.2020
1015 Clouds 16 1026 93 7000 0.5 360 07:25 24.06.2020
1016 Clouds 14 1026 93 5000 1 10 06:46 24.06.2020
1017 Clouds 13 1026 93 5000 1 10 06:24 24.06.2020
1018 Clouds 13 1026 93 5000 1 10 06:24 24.06.2020
1019 Clouds 12 1026 93 5000 1 10 05:46 24.06.2020
1020 Clouds 12 1026 93 6000 1 350 04:40 24.06.2020
1021 Clouds 13 1026 93 8000 1 340 03:40 24.06.2020
1022 Clouds 13 1026 93 10000 1.5 350 03:18 24.06.2020
1023 Clouds 13 1026 87 10000 1 310 02:36 24.06.2020
1024 Clouds 14 1026 82 10000 1.5 320 00:58 24.06.2020
1025 Clouds 14 1026 82 10000 2.1 330 00:39 24.06.2020
1026 Clouds 15 1026 82 10000 2.1 330 00:21 24.06.2020
1027 Clouds 16 1025 72 10000 1.5 300 23:40 23.06.2020
1028 Clouds 16 1025 72 10000 1.5 300 23:18 23.06.2020
1029 Clouds 17 1025 72 10000 1.5 300 22:41 23.06.2020
1030 Clouds 18 1025 63 10000 3.1 320 22:19 23.06.2020
1031 Clouds 18 1025 63 10000 3.1 320 21:59 23.06.2020
1032 Clear 20 1025 49 10000 2.6 350 21:38 23.06.2020
1033 Clear 20 1025 49 10000 2.6 350 21:19 23.06.2020
1034 Clear 20 1025 49 10000 2.6 350 20:55 23.06.2020
1035 Clear 20 1025 49 10000 2.6 350 20:55 23.06.2020
1036 Clear 21 1025 46 10000 3.6 330 20:37 23.06.2020
1037 Clear 21 1025 46 10000 3.6 330 20:18 23.06.2020
1038 Clear 21 1025 43 10000 3.6 330 19:44 23.06.2020
1039 Clear 22 1025 43 10000 3.6 330 19:25 23.06.2020
1040 Clear 23 1025 47 10000 4.6 310 18:42 23.06.2020
1041 Clear 23 1025 47 10000 4.6 310 18:19 23.06.2020
1042 Clear 23 1025 47 10000 4.6 310 17:56 23.06.2020
1043 Clear 22 1025 46 10000 4.1 310 17:38 23.06.2020
1044 Clear 23 1025 46 10000 4.1 310 17:19 23.06.2020
1045 Clear 22 1025 46 10000 4.1 310 16:55 23.06.2020
1046 Clear 22 1025 46 10000 5.1 280 16:36 23.06.2020
1047 Clear 22 1025 46 10000 5.1 280 16:18 23.06.2020
1048 Clear 22 1025 46 10000 5.1 280 15:43 23.06.2020
1049 Clear 22 1025 49 10000 4.6 270 15:24 23.06.2020
1050 Clear 22 1025 49 10000 4.6 270 14:56 23.06.2020
1051 Clear 21 1026 49 10000 3.1 270 14:37 23.06.2020
1052 Clear 22 1026 49 10000 3.1 270 14:18 23.06.2020
1053 Clear 21 1025 52 10000 4.6 270 13:45 23.06.2020
1054 Clear 21 1025 52 10000 4.6 270 13:26 23.06.2020
1055 Clear 21 1025 52 10000 4.6 270 12:59 23.06.2020
1056 Clear 21 1025 52 10000 4.6 270 12:59 23.06.2020
1057 Clear 21 1025 56 10000 4.6 270 12:40 23.06.2020
1058 Clear 20 1025 56 10000 4.6 270 12:20 23.06.2020
1059 Clear 20 1025 56 10000 4.6 270 11:43 23.06.2020
1060 Clear 20 1025 52 10000 3.6 270 11:23 23.06.2020
1061 Clear 20 1025 52 10000 3.6 270 10:59 23.06.2020
1062 Clear 20 1025 52 10000 3.6 270 10:41 23.06.2020
1063 Clear 19 1025 63 10000 5.7 280 10:22 23.06.2020
1064 Clear 19 1025 63 10000 5.7 280 09:57 23.06.2020
1065 Clear 18 1025 77 10000 6.2 280 09:38 23.06.2020
1066 Clear 17 1025 77 10000 6.2 280 09:20 23.06.2020
1067 Clear 15 1025 77 10000 6.2 280 08:47 23.06.2020
1068 Clear 16 1025 87 10000 3.6 270 08:26 23.06.2020
1069 Clear 15 1025 87 10000 3.6 270 07:51 23.06.2020
1070 Clear 13 1025 100 10000 2.1 270 07:25 23.06.2020
1071 Clear 12 1025 100 10000 2.1 270 06:57 23.06.2020
1072 Clear 11 1025 93 10000 2.6 270 06:38 23.06.2020
1073 Clear 10 1025 93 10000 2.6 270 06:19 23.06.2020
1074 Clear 9 1024 93 10000 2.6 260 05:29 23.06.2020
1075 Clear 9 1025 93 10000 3.1 270 03:23 23.06.2020
1076 Clear 10 1025 93 10000 3.1 270 02:53 23.06.2020
1077 Clear 10 1024 93 10000 1.5 270 02:34 23.06.2020
1078 Clear 11 1024 93 10000 1.5 270 01:46 23.06.2020
1079 Clear 11 1024 93 10000 4.1 300 01:28 23.06.2020
1080 Clear 11 1024 93 10000 4.1 300 00:53 23.06.2020
1081 Clear 12 1024 77 10000 4.1 310 00:22 23.06.2020
1082 Clear 13 1024 77 10000 4.1 310 23:55 22.06.2020
1083 Clear 13 1024 77 10000 4.1 310 23:55 22.06.2020
1084 Clear 13 1024 77 10000 4.1 310 23:55 22.06.2020
1085 Clear 14 1024 72 10000 5.1 320 23:37 22.06.2020
1086 Clear 14 1024 72 10000 5.1 320 23:19 22.06.2020
1087 Clear 14 1024 72 10000 5.1 320 22:55 22.06.2020
1088 Clear 15 1024 63 10000 5.1 320 22:37 22.06.2020
1089 Clear 15 1024 63 10000 5.1 320 22:19 22.06.2020
1090 Clear 16 1024 63 10000 5.1 320 21:57 22.06.2020
1091 Clear 16 1024 55 10000 8.2 310 21:38 22.06.2020
1092 Clear 17 1024 55 10000 8.2 310 21:20 22.06.2020
1093 Clear 18 1024 55 10000 8.2 320 20:41 22.06.2020
1094 Clear 18 1024 55 10000 8.2 320 20:22 22.06.2020
1095 Clear 19 1024 55 10000 8.2 320 19:56 22.06.2020
1096 Clear 19 1023 52 10000 8.7 320 19:37 22.06.2020
1097 Clear 19 1023 52 10000 8.7 320 19:18 22.06.2020
1098 Clear 20 1023 52 10000 8.7 310 18:40 22.06.2020
1099 Clear 20 1023 52 10000 8.7 310 18:22 22.06.2020
1100 Clear 20 1023 52 10000 8.7 310 17:57 22.06.2020
1101 Clear 21 1023 52 10000 10.3 300 17:38 22.06.2020
1102 Clear 21 1023 52 10000 10.3 300 17:20 22.06.2020
1103 Clear 21 1023 52 10000 10.3 300 16:56 22.06.2020
1104 Clear 21 1023 52 10000 9.8 310 16:38 22.06.2020
1105 Clear 21 1023 52 10000 9.8 310 16:18 22.06.2020
1106 Clear 21 1023 53 10000 8.7 310 15:44 22.06.2020
1107 Clear 22 1023 53 10000 8.7 310 15:25 22.06.2020
1108 Clear 22 1023 53 10000 8.7 310 14:58 22.06.2020
1109 Clear 22 1022 53 10000 9.8 300 14:38 22.06.2020
1110 Clear 22 1022 53 10000 9.8 300 14:19 22.06.2020
1111 Clear 22 1022 53 10000 9.8 300 13:54 22.06.2020
1112 Clear 21 1022 60 10000 8.2 310 13:36 22.06.2020
1113 Clear 21 1022 60 10000 8.2 310 13:18 22.06.2020
1114 Clear 20 1021 64 10000 8.7 300 12:41 22.06.2020
1115 Clear 21 1021 64 10000 8.7 300 12:22 22.06.2020
1116 Clear 21 1021 68 10000 6.7 300 11:38 22.06.2020
1117 Clear 21 1021 68 10000 6.7 300 11:20 22.06.2020
1118 Clear 20 1021 68 10000 6.7 300 10:57 22.06.2020
1119 Clear 20 1021 68 10000 6.7 300 10:57 22.06.2020
1120 Clear 20 1020 72 10000 7.7 300 10:39 22.06.2020
1121 Clear 20 1020 72 10000 7.7 300 10:19 22.06.2020
1122 Clear 19 1020 72 10000 7.7 300 09:59 22.06.2020
1123 Clear 18 1020 88 10000 6.7 310 09:41 22.06.2020
1124 Clear 18 1020 88 10000 6.7 310 09:20 22.06.2020
1125 Clear 17 1020 88 10000 6.7 310 08:57 22.06.2020
1126 Clear 17 1019 93 10000 5.7 290 08:38 22.06.2020
1127 Clouds 17 1019 93 10000 5.7 290 08:20 22.06.2020
1128 Clouds 17 1019 93 5000 6.2 280 07:50 22.06.2020
1129 Clouds 16 1019 93 5000 6.2 280 07:31 22.06.2020
1130 Clouds 16 1018 93 3400 6.2 280 06:44 22.06.2020
1131 Clouds 15 1018 93 3400 6.2 280 06:26 22.06.2020
1132 Clouds 15 1018 93 3400 6.2 280 05:58 22.06.2020
1133 Clouds 15 1018 93 3200 5.7 280 04:59 22.06.2020
1134 Rain 16 1018 88 3000 5.7 300 02:54 22.06.2020
1135 Rain 17 1018 72 10000 3.6 160 01:25 22.06.2020
1136 Rain 16 1018 82 10000 4.1 160 00:41 22.06.2020
1137 Clouds 16 1018 82 10000 4.1 160 23:59 21.06.2020
1138 Clouds 16 1018 82 10000 2.6 150 23:39 21.06.2020
1139 Clouds 16 1018 82 10000 2.6 150 23:21 21.06.2020
1140 Clouds 16 1018 82 10000 2.6 150 22:57 21.06.2020
1141 Clouds 17 1018 72 10000 1 280 22:38 21.06.2020
1142 Clouds 18 1018 72 10000 1 280 22:19 21.06.2020
1143 Clouds 18 1018 72 10000 1 280 22:19 21.06.2020
1144 Clouds 18 1018 72 10000 1 280 21:58 21.06.2020
1145 Clouds 19 1018 56 10000 2.1 300 21:40 21.06.2020
1146 Clouds 20 1018 56 10000 2.1 300 21:21 21.06.2020
1147 Clear 20 1018 56 10000 2.1 300 20:59 21.06.2020
1148 Clear 21 1018 46 10000 3.6 290 20:38 21.06.2020
1149 Clouds 22 1018 46 10000 3.6 290 20:19 21.06.2020
1150 Clouds 22 1018 46 10000 3.6 290 20:19 21.06.2020
1151 Clouds 22 1018 46 10000 3.6 290 19:57 21.06.2020
1152 Clouds 22 1018 46 10000 3.6 290 19:57 21.06.2020
1153 Clouds 22 1018 49 10000 3.6 290 19:38 21.06.2020
1154 Clouds 22 1018 49 10000 3.6 290 19:19 21.06.2020
1155 Clouds 22 1018 49 10000 3.6 290 18:55 21.06.2020
1156 Clouds 22 1018 46 10000 4.1 280 18:37 21.06.2020
1157 Clear 22 1018 46 10000 4.1 280 18:18 21.06.2020
1158 Clear 23 1018 46 10000 4.6 280 17:40 21.06.2020
1159 Clear 23 1018 46 10000 4.6 280 17:21 21.06.2020
1160 Clear 22 1018 46 10000 4.6 280 16:57 21.06.2020
1161 Clear 22 1018 49 10000 2.6 280 16:38 21.06.2020
1162 Clear 22 1018 49 10000 2.6 280 16:20 21.06.2020
1163 Clear 22 1019 49 10000 3.1 270 15:39 21.06.2020
1164 Clear 22 1019 49 10000 3.1 270 15:21 21.06.2020
1165 Clear 22 1019 49 10000 3.1 270 14:55 21.06.2020
1166 Clear 21 1019 52 10000 4.1 280 14:36 21.06.2020
1167 Clouds 21 1019 52 10000 4.1 280 14:18 21.06.2020
1168 Clouds 21 1019 52 10000 4.1 290 13:42 21.06.2020
1169 Clouds 21 1019 52 10000 4.1 290 13:42 21.06.2020
1170 Clouds 21 1019 52 10000 4.1 290 13:23 21.06.2020
1171 Clouds 21 1019 52 10000 4.1 290 12:58 21.06.2020
1172 Clouds 21 1019 52 10000 4.1 290 12:58 21.06.2020
1173 Clouds 20 1019 60 10000 3.6 280 12:39 21.06.2020
1174 Clouds 20 1019 60 10000 3.6 280 12:21 21.06.2020
1175 Clouds 19 1019 63 7000 4.1 290 11:42 21.06.2020
1176 Clouds 18 1019 63 7000 4.1 290 11:24 21.06.2020
1177 Clouds 20 1019 63 7000 4.1 290 10:59 21.06.2020
1178 Clouds 19 1019 68 9000 5.7 300 10:40 21.06.2020
1179 Clouds 19 1019 68 9000 5.7 300 10:22 21.06.2020
1180 Clouds 17 1019 82 10000 4.6 290 09:44 21.06.2020
1181 Clouds 16 1019 82 10000 4.6 290 09:25 21.06.2020
1182 Clouds 17 1019 82 10000 4.6 290 08:59 21.06.2020
1183 Clouds 16 1019 93 10000 4.6 300 08:41 21.06.2020
1184 Clouds 15 1019 93 10000 4.6 300 08:20 21.06.2020
1185 Clouds 15 1019 93 10000 4.6 300 07:59 21.06.2020
1186 Clouds 14 1019 93 7000 3.1 280 07:40 21.06.2020
1187 Clouds 13 1019 93 7000 3.1 280 07:20 21.06.2020
1188 Clouds 12 1019 100 7000 1 0 06:46 21.06.2020
1189 Clouds 10 1019 100 7000 1 0 05:58 21.06.2020
1190 Clouds 10 1019 93 9000 4.1 300 04:49 21.06.2020
1191 Clouds 12 1019 93 10000 3.6 300 03:20 21.06.2020
1192 Clouds 11 1019 93 10000 3.6 300 02:53 21.06.2020
1193 Clouds 13 1019 82 10000 5.1 310 01:48 21.06.2020
1194 Clouds 13 1019 82 10000 4.6 310 01:21 21.06.2020
1195 Clouds 13 1019 82 10000 4.6 310 00:55 21.06.2020
1196 Clouds 13 1019 82 10000 5.1 310 00:37 21.06.2020
1197 Clouds 14 1019 82 10000 5.1 310 00:18 21.06.2020
1198 Clouds 14 1019 77 10000 6.2 320 23:43 20.06.2020
1199 Clouds 14 1019 77 10000 6.2 320 23:21 20.06.2020
1200 Clouds 15 1019 77 10000 6.2 320 22:55 20.06.2020
1201 Clouds 15 1019 77 10000 7.2 330 22:37 20.06.2020
1202 Clouds 15 1019 77 10000 7.2 330 22:18 20.06.2020
1203 Clouds 15 1019 77 10000 7.2 330 22:18 20.06.2020
1204 Clouds 15 1019 77 10000 7.2 330 21:56 20.06.2020
1205 Clouds 16 1019 72 10000 9.8 310 21:37 20.06.2020
1206 Clouds 16 1019 72 10000 9.8 310 21:19 20.06.2020
1207 Clouds 17 1019 72 10000 9.8 310 20:56 20.06.2020
1208 Clouds 17 1019 68 10000 10.3 320 20:38 20.06.2020
1209 Clouds 17 1019 68 10000 10.3 320 20:19 20.06.2020
1210 Clouds 17 1019 68 10000 10.3 320 20:19 20.06.2020
1211 Clouds 18 1018 63 10000 10.3 300 19:43 20.06.2020
1212 Clouds 18 1018 63 10000 10.3 300 19:23 20.06.2020
1213 Clouds 18 1018 63 10000 10.3 300 18:55 20.06.2020
1214 Clouds 19 1018 59 10000 10.8 300 18:37 20.06.2020
1215 Clouds 19 1018 59 10000 10.8 300 18:19 20.06.2020
1216 Clouds 19 1018 59 10000 10.8 300 17:56 20.06.2020
1217 Clouds 20 1018 56 10000 10.8 300 17:37 20.06.2020
1218 Clouds 20 1018 56 10000 10.8 300 17:18 20.06.2020
1219 Clouds 20 1018 60 10000 10.8 310 16:40 20.06.2020
1220 Clouds 20 1018 60 10000 10.8 310 16:19 20.06.2020
1221 Clouds 20 1018 60 10000 10.8 310 15:55 20.06.2020
1222 Clouds 21 1018 56 10000 9.3 330 15:37 20.06.2020
1223 Clouds 21 1018 56 10000 9.3 330 15:18 20.06.2020
1224 Clouds 21 1018 60 10000 10.3 310 14:42 20.06.2020
1225 Clouds 21 1018 60 10000 10.3 310 14:20 20.06.2020
1226 Clouds 20 1018 63 10000 9.8 330 13:42 20.06.2020
1227 Clouds 20 1018 63 10000 9.8 330 13:20 20.06.2020
1228 Clouds 20 1018 63 10000 9.8 330 12:56 20.06.2020
1229 Clouds 20 1017 68 10000 9.8 320 12:38 20.06.2020
1230 Clouds 20 1017 68 10000 9.8 320 12:19 20.06.2020
1231 Clouds 20 1017 77 10000 8.7 310 11:40 20.06.2020
1232 Clouds 19 1017 77 10000 8.7 310 11:21 20.06.2020
1233 Clouds 19 1017 77 10000 8.7 310 10:58 20.06.2020
1234 Clouds 18 1017 82 10000 7.7 310 10:40 20.06.2020
1235 Clouds 17 1017 82 10000 7.7 310 10:20 20.06.2020
1236 Clouds 17 1016 87 10000 7.2 300 09:43 20.06.2020
1237 Clouds 16 1016 87 10000 7.2 300 09:25 20.06.2020
1238 Clouds 16 1016 87 10000 7.2 300 08:59 20.06.2020
1239 Clouds 16 1016 87 10000 7.7 300 08:40 20.06.2020
1240 Clouds 16 1016 87 10000 7.7 300 08:22 20.06.2020
1241 Clouds 15 1016 87 10000 7.7 300 07:51 20.06.2020
1242 Clouds 15 1016 87 10000 6.7 300 07:26 20.06.2020
1243 Clouds 14 1016 87 10000 6.7 300 06:51 20.06.2020
1244 Clouds 14 1016 87 10000 6.7 300 06:23 20.06.2020
1245 Clouds 14 1016 87 10000 6.7 300 05:49 20.06.2020
1246 Clouds 14 1016 93 9000 6.7 300 04:50 20.06.2020
1247 Clouds 15 1015 93 8000 6.7 290 02:23 20.06.2020
1248 Clouds 16 1015 93 8000 7.2 290 01:46 20.06.2020
1249 Clouds 16 1015 93 8000 7.2 290 00:52 20.06.2020
1250 Rain 16 1015 88 10000 5.7 300 00:21 20.06.2020
1251 Rain 16 1015 88 10000 5.7 300 23:55 19.06.2020
1252 Rain 16 1014 93 10000 5.7 300 23:36 19.06.2020
1253 Rain 16 1014 93 10000 5.7 300 23:18 19.06.2020
1254 Rain 17 1014 93 10000 5.7 300 22:40 19.06.2020
1255 Rain 17 1014 93 10000 5.7 300 22:22 19.06.2020
1256 Rain 17 1014 93 10000 5.7 300 21:58 19.06.2020
1257 Rain 17 1014 93 10000 7.7 300 21:38 19.06.2020
1258 Rain 17 1014 93 10000 7.7 300 21:18 19.06.2020
1259 Rain 17 1014 93 10000 7.7 300 20:58 19.06.2020
1260 Rain 18 1013 88 10000 6.7 310 20:40 19.06.2020
1261 Rain 18 1013 88 10000 6.7 310 20:21 19.06.2020
1262 Rain 18 1013 88 10000 6.7 310 19:57 19.06.2020
1263 Rain 18 1013 88 10000 6.2 320 19:38 19.06.2020
1264 Rain 18 1013 88 10000 6.2 320 19:20 19.06.2020
1265 Rain 18 1013 88 10000 6.7 310 18:41 19.06.2020
1266 Rain 18 1013 88 10000 6.7 310 18:22 19.06.2020
1267 Rain 18 1013 88 10000 6.7 310 17:58 19.06.2020
1268 Rain 18 1013 88 10000 5.7 300 17:40 19.06.2020
1269 Rain 18 1013 88 10000 5.7 300 17:22 19.06.2020
1270 Rain 18 1013 88 10000 5.7 300 16:56 19.06.2020
1271 Rain 17 1013 93 8000 6.2 310 16:37 19.06.2020
1272 Rain 17 1013 93 8000 6.2 310 16:19 19.06.2020
1273 Rain 17 1013 93 5000 6.2 300 15:43 19.06.2020
1274 Rain 17 1013 93 5000 6.2 300 15:24 19.06.2020
1275 Rain 16 1013 93 5000 6.2 300 14:56 19.06.2020
1276 Rain 16 1013 93 10000 6.7 290 14:38 19.06.2020
1277 Clouds 16 1013 93 10000 6.7 290 14:19 19.06.2020
1278 Clouds 16 1013 93 6000 6.7 290 13:45 19.06.2020
1279 Rain 16 1013 93 6000 6.7 290 13:27 19.06.2020
1280 Rain 16 1013 93 6000 6.7 290 12:58 19.06.2020
1281 Rain 16 1012 93 10000 4.6 270 12:40 19.06.2020
1282 Rain 15 1012 93 10000 4.6 270 12:18 19.06.2020
1283 Rain 15 1012 93 10000 4.6 290 11:40 19.06.2020
1284 Rain 15 1012 93 10000 4.6 290 11:19 19.06.2020
1285 Rain 15 1012 93 10000 4.6 290 10:59 19.06.2020
1286 Rain 16 1012 93 10000 4.6 280 10:41 19.06.2020
1287 Rain 16 1012 93 10000 4.6 280 10:19 19.06.2020
1288 Rain 16 1011 93 5000 5.7 280 09:44 19.06.2020
1289 Rain 16 1011 93 5000 5.7 280 09:25 19.06.2020
1290 Rain 16 1011 93 5000 5.7 280 08:58 19.06.2020
1291 Rain 15 1012 93 5000 2.6 250 08:38 19.06.2020
1292 Rain 15 1012 93 5000 2.6 250 08:20 19.06.2020
1293 Rain 15 1012 93 5000 1 160 07:41 19.06.2020
1294 Rain 15 1012 93 5000 1 160 07:21 19.06.2020
1295 Rain 15 1012 93 10000 1.5 130 06:45 19.06.2020
1296 Clouds 15 1012 93 10000 1.5 130 06:21 19.06.2020
1297 Clouds 15 1012 87 10000 2.6 110 04:59 19.06.2020
1298 Clouds 16 1012 82 10000 3.6 130 03:37 19.06.2020
1299 Clouds 16 1012 82 10000 3.1 130 02:19 19.06.2020
1300 Clouds 16 1012 77 10000 2.6 120 00:44 19.06.2020
1301 Clouds 17 1012 77 10000 2.6 120 00:22 19.06.2020
1302 Clouds 17 1012 77 10000 2.6 120 23:57 18.06.2020
1303 Clouds 17 1012 72 10000 2.6 130 23:39 18.06.2020
1304 Clouds 18 1012 72 10000 2.6 130 23:20 18.06.2020
1305 Clouds 18 1012 68 10000 3.1 120 22:41 18.06.2020
1306 Clouds 18 1012 68 10000 3.1 120 22:21 18.06.2020
1307 Clouds 19 1012 68 10000 3.1 120 21:57 18.06.2020
1308 Clouds 19 1011 60 10000 2.1 100 21:38 18.06.2020
1309 Clouds 20 1011 60 10000 2.1 100 21:19 18.06.2020
1310 Clouds 21 1011 56 10000 2.6 110 20:43 18.06.2020
1311 Clouds 21 1011 56 10000 2.6 110 20:22 18.06.2020
1312 Clouds 21 1011 56 10000 2.6 110 19:58 18.06.2020
1313 Clouds 21 1011 49 10000 3.6 110 19:40 18.06.2020
1314 Clouds 21 1011 49 10000 3.6 110 19:20 18.06.2020
1315 Clouds 21 1011 49 10000 3.6 110 18:56 18.06.2020
1316 Clouds 21 1011 56 10000 5.7 120 18:36 18.06.2020
1317 Clouds 21 1011 56 10000 5.7 120 18:18 18.06.2020
1318 Clouds 22 1011 53 10000 5.7 110 17:43 18.06.2020
1319 Clouds 22 1011 53 10000 5.7 110 17:24 18.06.2020
1320 Clouds 22 1012 56 10000 3.6 100 16:55 18.06.2020
1321 Clouds 22 1012 56 10000 3.6 100 16:37 18.06.2020
1322 Clouds 22 1012 56 10000 3.6 100 16:18 18.06.2020
1323 Clouds 22 1012 56 10000 4.6 110 15:40 18.06.2020
1324 Clouds 22 1012 56 10000 4.6 110 15:20 18.06.2020
1325 Clouds 21 1012 56 10000 4.6 110 14:58 18.06.2020
1326 Clouds 22 1012 53 10000 5.1 100 14:39 18.06.2020
1327 Clouds 22 1012 53 10000 5.1 100 14:21 18.06.2020
1328 Clouds 22 1012 53 10000 5.1 100 13:55 18.06.2020
1329 Clouds 22 1012 60 10000 5.1 100 13:37 18.06.2020
1330 Clouds 22 1012 60 10000 5.1 100 13:18 18.06.2020
1331 Clouds 22 1012 60 10000 5.1 100 12:54 18.06.2020
1332 Clouds 21 1012 60 10000 5.1 110 12:36 18.06.2020
1333 Clouds 21 1012 60 10000 5.1 110 12:18 18.06.2020
1334 Clouds 21 1012 68 10000 5.1 110 11:44 18.06.2020
1335 Clouds 21 1012 68 10000 5.1 110 11:20 18.06.2020
1336 Clouds 20 1012 68 10000 6.2 110 10:41 18.06.2020
1337 Clouds 20 1012 68 10000 6.2 110 10:20 18.06.2020
1338 Clouds 20 1012 68 10000 6.2 110 09:57 18.06.2020
1339 Clouds 19 1012 68 10000 3.6 110 09:39 18.06.2020
1340 Clouds 19 1012 68 10000 3.6 110 09:21 18.06.2020
1341 Clear 18 1011 93 10000 2.1 90 08:40 18.06.2020
1342 Clouds 18 1011 93 10000 2.1 90 08:22 18.06.2020
1343 Clouds 18 1011 93 10000 2.1 90 07:57 18.06.2020
1344 Clouds 17 1011 93 10000 2.1 80 07:37 18.06.2020
1345 Clouds 17 1011 93 10000 2.1 80 07:19 18.06.2020
1346 Clouds 15 1012 100 8000 2.1 90 06:22 18.06.2020
1347 Clouds 15 1012 93 10000 2.6 100 04:26 18.06.2020
1348 Clouds 16 1012 93 10000 2.6 70 02:51 18.06.2020
1349 Clouds 16 1013 87 10000 3.1 60 01:30 18.06.2020
1350 Clouds 16 1013 87 10000 3.1 60 00:59 18.06.2020
1351 Clouds 17 1012 82 10000 2.6 70 00:39 18.06.2020
1352 Clouds 17 1012 82 10000 2.6 70 00:21 18.06.2020
1353 Clouds 18 1012 77 10000 3.6 70 23:45 17.06.2020
1354 Clouds 18 1012 77 10000 3.6 70 23:21 17.06.2020
1355 Clouds 19 1012 77 10000 3.6 70 22:58 17.06.2020
1356 Clouds 20 1012 68 10000 2.6 80 22:40 17.06.2020
1357 Clouds 20 1012 68 10000 2.6 80 22:21 17.06.2020
1358 Clouds 20 1012 68 10000 2.6 80 22:21 17.06.2020
1359 Clouds 20 1012 68 10000 2.6 80 22:21 17.06.2020
1360 Clouds 20 1012 68 10000 2.6 80 21:57 17.06.2020
1361 Clouds 21 1012 53 10000 3.6 80 21:39 17.06.2020
1362 Clouds 22 1012 53 10000 3.6 80 21:20 17.06.2020
1363 Clouds 23 1011 53 10000 3.1 60 20:38 17.06.2020
1364 Clouds 23 1011 53 10000 3.1 60 20:20 17.06.2020
1365 Clouds 23 1011 53 10000 3.1 60 20:20 17.06.2020
1366 Clouds 24 1011 53 10000 3.1 60 19:59 17.06.2020
1367 Clouds 24 1012 50 10000 3.6 40 19:39 17.06.2020
1368 Clouds 24 1012 50 10000 3.6 40 19:19 17.06.2020
1369 Clouds 25 1012 50 10000 2.6 70 18:45 17.06.2020
1370 Clouds 25 1012 50 10000 2.6 70 18:27 17.06.2020
1371 Clouds 25 1012 50 10000 2.6 70 18:27 17.06.2020
1372 Clouds 25 1012 44 10000 3.1 60 17:47 17.06.2020
1373 Clouds 26 1012 44 10000 3.1 60 17:23 17.06.2020
1374 Clouds 25 1012 44 10000 3.1 60 16:59 17.06.2020
1375 Clouds 26 1012 41 10000 2.6 90 16:40 17.06.2020
1376 Clouds 26 1012 41 10000 2.6 90 16:21 17.06.2020
1377 Clouds 26 1012 41 10000 2.6 90 15:58 17.06.2020
1378 Clouds 25 1012 50 10000 2.6 40 15:39 17.06.2020
1379 Clear 26 1012 50 10000 2.6 40 15:21 17.06.2020
1380 Clear 26 1012 50 10000 2.6 40 15:21 17.06.2020
1381 Clear 26 1012 50 10000 2.6 40 15:21 17.06.2020
1382 Clear 25 1012 50 10000 2.6 40 14:58 17.06.2020
1383 Clear 25 1013 50 10000 3.6 30 14:39 17.06.2020
1384 Clouds 25 1013 50 10000 3.6 30 14:19 17.06.2020
1385 Clouds 25 1013 50 10000 3.6 30 13:57 17.06.2020
1386 Clouds 24 1013 50 10000 3.1 40 13:39 17.06.2020
1387 Clouds 24 1013 50 10000 3.1 40 13:21 17.06.2020
1388 Clouds 24 1013 50 10000 3.1 40 12:55 17.06.2020
1389 Clouds 23 1013 53 10000 2.1 40 12:36 17.06.2020
1390 Clouds 23 1013 53 10000 2.1 40 12:18 17.06.2020
1391 Clouds 23 1013 56 6000 1.5 40 11:43 17.06.2020
1392 Clouds 23 1013 56 6000 1.5 40 11:23 17.06.2020
1393 Clouds 22 1013 64 10000 1 30 10:39 17.06.2020
1394 Clouds 22 1013 64 10000 1 30 10:20 17.06.2020
1395 Clouds 21 1013 64 10000 1 30 09:59 17.06.2020
1396 Clouds 20 1012 72 10000 2.1 20 09:41 17.06.2020
1397 Clouds 19 1012 72 10000 2.1 20 09:21 17.06.2020
1398 Clouds 18 1012 72 10000 2.1 20 08:56 17.06.2020
1399 Clouds 17 1012 77 10000 0.5 300 08:38 17.06.2020
1400 Clear 17 1012 77 10000 0.5 300 08:18 17.06.2020
1401 Clear 17 1012 87 10000 1 300 07:43 17.06.2020
1402 Clear 17 1012 87 10000 1 300 07:21 17.06.2020
1403 Clear 15 1012 87 10000 1 300 06:56 17.06.2020
1404 Clear 14 1012 93 10000 2.1 290 06:37 17.06.2020
1405 Clear 14 1012 93 10000 2.1 290 06:19 17.06.2020
1406 Clear 13 1012 93 10000 2.1 310 05:29 17.06.2020
1407 Clear 14 1013 87 10000 2.1 290 03:28 17.06.2020
1408 Clouds 16 1013 77 10000 2.6 290 01:52 17.06.2020
1409 Clouds 16 1013 77 10000 2.6 300 00:47 17.06.2020
1410 Clouds 16 1013 77 10000 2.6 300 00:25 17.06.2020
1411 Clouds 16 1013 77 10000 2.6 300 23:56 16.06.2020
1412 Clouds 16 1013 77 10000 3.6 290 23:37 16.06.2020
1413 Clouds 17 1013 77 10000 3.6 290 23:19 16.06.2020
1414 Clouds 17 1013 77 10000 3.6 290 22:56 16.06.2020
1415 Clouds 18 1012 68 10000 2.6 300 22:37 16.06.2020
1416 Clouds 18 1012 68 10000 2.6 300 22:18 16.06.2020
1417 Clouds 21 1013 56 10000 3.6 280 21:47 16.06.2020
1418 Clouds 21 1013 56 10000 3.6 280 21:24 16.06.2020
1419 Clouds 21 1013 56 10000 3.6 280 20:58 16.06.2020
1420 Clouds 22 1013 43 10000 5.7 320 20:40 16.06.2020
1421 Clouds 23 1013 43 10000 5.7 320 20:19 16.06.2020
1422 Clouds 23 1013 43 10000 5.7 320 19:58 16.06.2020
1423 Clouds 23 1013 44 10000 7.2 310 19:39 16.06.2020
1424 Clear 24 1013 44 10000 7.2 310 19:21 16.06.2020
1425 Clear 24 1013 44 10000 7.2 310 18:55 16.06.2020
1426 Clear 25 1013 33 10000 2.1 50 18:37 16.06.2020
1427 Clear 25 1013 33 10000 2.1 50 18:19 16.06.2020
1428 Clear 25 1013 33 10000 2.1 50 17:55 16.06.2020
1429 Clear 26 1013 31 10000 2.1 30 17:36 16.06.2020
1430 Clear 26 1013 31 10000 2.1 30 17:18 16.06.2020
1431 Clear 25 1013 33 10000 1.5 30 16:42 16.06.2020
1432 Clear 26 1013 33 10000 1.5 30 16:20 16.06.2020
1433 Clear 25 1013 33 10000 1.5 30 15:58 16.06.2020
1434 Clear 26 1014 36 10000 1 40 15:40 16.06.2020
1435 Clear 25 1014 36 10000 1 40 15:22 16.06.2020
1436 Clear 25 1014 36 10000 1 40 14:59 16.06.2020
1437 Clear 24 1014 38 10000 1 50 14:41 16.06.2020
1438 Clear 24 1014 38 10000 1 50 14:22 16.06.2020
1439 Clear 24 1014 43 10000 1 270 13:48 16.06.2020
1440 Clear 24 1014 43 10000 1 270 13:26 16.06.2020
1441 Clear 24 1014 43 10000 1 270 12:57 16.06.2020
1442 Clear 23 1014 43 10000 0.5 290 12:38 16.06.2020
1443 Clear 23 1014 43 10000 0.5 290 12:20 16.06.2020
1444 Clear 23 1014 43 10000 0.5 290 11:55 16.06.2020
1445 Clear 22 1015 46 6000 1 0 11:37 16.06.2020
1446 Clear 22 1015 46 6000 1 0 11:37 16.06.2020
1447 Clear 22 1015 46 6000 1 0 11:19 16.06.2020
1448 Clear 21 1015 52 7000 2.1 290 10:42 16.06.2020
1449 Clear 21 1015 52 7000 2.1 290 10:21 16.06.2020
1450 Clear 20 1015 52 7000 2.1 290 09:58 16.06.2020
1451 Clear 20 1015 52 7000 2.1 290 09:58 16.06.2020
1452 Clear 19 1015 59 10000 2.1 270 09:40 16.06.2020
1453 Clear 19 1015 59 10000 2.1 270 09:21 16.06.2020
1454 Clear 16 1015 87 10000 1.5 300 08:45 16.06.2020
1455 Clear 16 1015 87 10000 1.5 300 08:26 16.06.2020
1456 Clear 16 1015 87 10000 1.5 300 07:50 16.06.2020
1457 Clear 14 1015 93 10000 2.1 270 07:27 16.06.2020
1458 Clear 12 1015 93 10000 2.1 270 06:54 16.06.2020
1459 Clear 11 1015 100 10000 2.1 270 06:27 16.06.2020
1460 Clear 10 1015 93 10000 3.1 270 05:45 16.06.2020
1461 Clear 10 1015 93 10000 2.1 290 04:40 16.06.2020
1462 Clear 10 1016 100 10000 1.5 270 03:00 16.06.2020
1463 Clear 11 1016 93 10000 1 290 02:00 16.06.2020
1464 Clear 11 1016 93 10000 1.5 340 01:30 16.06.2020
1465 Clear 12 1016 93 10000 1.5 340 00:52 16.06.2020
1466 Clear 13 1016 87 10000 2.1 180 00:22 16.06.2020
1467 Clear 14 1016 87 10000 0.5 200 23:43 15.06.2020
1468 Clear 14 1016 87 10000 0.5 200 23:23 15.06.2020
1469 Clear 14 1016 87 10000 0.5 200 22:56 15.06.2020
1470 Clear 16 1016 72 10000 0.5 170 22:38 15.06.2020
1471 Clear 16 1016 72 10000 0.5 170 22:19 15.06.2020
1472 Clear 17 1016 72 10000 0.5 170 21:56 15.06.2020
1473 Clear 19 1016 43 10000 1.5 0 21:37 15.06.2020
1474 Clear 20 1016 43 10000 1.5 0 21:19 15.06.2020
1475 Clear 20 1016 43 10000 1.5 0 20:56 15.06.2020
1476 Clear 21 1016 43 10000 2.6 140 20:38 15.06.2020
1477 Clear 21 1016 43 10000 2.6 140 20:19 15.06.2020
1478 Clear 21 1016 43 10000 2.6 140 19:56 15.06.2020
1479 Clear 22 1016 40 10000 3.6 100 19:38 15.06.2020
1480 Clear 22 1016 40 10000 3.6 100 19:19 15.06.2020
1481 Clear 22 1016 40 10000 3.6 100 18:55 15.06.2020
1482 Clear 22 1016 40 10000 4.1 110 18:37 15.06.2020
1483 Clear 22 1016 40 10000 4.1 110 18:19 15.06.2020
1484 Clear 22 1016 37 10000 3.1 90 17:42 15.06.2020
1485 Clear 22 1016 37 10000 3.1 90 17:22 15.06.2020
1486 Clear 22 1016 37 10000 3.1 90 16:59 15.06.2020
1487 Clear 22 1016 43 10000 3.6 110 16:41 15.06.2020
1488 Clear 22 1016 43 10000 3.6 110 16:19 15.06.2020
1489 Clear 22 1016 43 10000 3.6 110 15:56 15.06.2020
1490 Clear 22 1016 46 10000 5.1 100 15:38 15.06.2020
1491 Clear 22 1016 46 10000 5.1 100 15:18 15.06.2020
1492 Clear 22 1017 46 10000 3.6 110 14:42 15.06.2020
1493 Clear 22 1017 46 10000 3.6 110 14:21 15.06.2020
1494 Clear 22 1017 46 10000 3.6 110 13:59 15.06.2020
1495 Clear 22 1017 49 10000 5.1 110 13:41 15.06.2020
1496 Clear 22 1017 49 10000 5.1 110 13:22 15.06.2020
1497 Clear 21 1017 49 10000 5.1 110 12:58 15.06.2020
1498 Clear 21 1017 55 10000 4.6 120 12:39 15.06.2020
1499 Clear 20 1017 55 10000 4.6 120 12:21 15.06.2020
1500 Clear 20 1017 52 8000 5.1 110 11:44 15.06.2020
1501 Clear 20 1017 52 8000 5.1 110 11:25 15.06.2020
1502 Clear 20 1017 52 8000 5.1 110 10:56 15.06.2020
1503 Clear 19 1017 55 7000 4.6 110 10:38 15.06.2020
1504 Clear 20 1017 55 7000 4.6 110 10:19 15.06.2020
1505 Clear 18 1017 67 10000 3.6 100 09:41 15.06.2020
1506 Clear 17 1017 67 10000 3.6 100 09:22 15.06.2020
1507 Clear 15 1016 76 10000 3.1 90 08:43 15.06.2020
1508 Clear 15 1016 76 10000 3.1 90 08:24 15.06.2020
1509 Clear 15 1016 76 10000 3.1 90 07:50 15.06.2020
1510 Clear 14 1016 93 10000 3.1 90 07:32 15.06.2020
1511 Clear 13 1016 93 10000 3.1 90 06:53 15.06.2020
1512 Clear 11 1016 100 10000 3.6 80 06:26 15.06.2020
1513 Clear 11 1016 100 10000 3.6 80 05:48 15.06.2020
1514 Clear 12 1016 93 10000 2.6 80 05:27 15.06.2020
1515 Clear 11 1016 93 10000 3.6 70 04:22 15.06.2020
1516 Clear 11 1016 93 10000 3.6 70 03:48 15.06.2020
1517 Clear 12 1016 93 10000 2.6 110 02:56 15.06.2020
1518 Clear 13 1016 82 10000 2.6 100 02:20 15.06.2020
1519 Clear 13 1017 72 10000 4.1 110 01:41 15.06.2020
1520 Clear 13 1017 72 10000 4.1 110 01:23 15.06.2020
1521 Clear 14 1017 72 10000 3.6 100 00:43 15.06.2020
1522 Clear 14 1017 72 10000 3.6 100 00:23 15.06.2020
1523 Clear 14 1017 72 10000 3.6 100 23:57 14.06.2020
1524 Clear 15 1016 67 10000 3.6 100 23:39 14.06.2020
1525 Clear 15 1016 67 10000 3.6 100 23:20 14.06.2020
1526 Clear 15 1016 67 10000 3.6 100 22:56 14.06.2020
1527 Clear 16 1016 67 10000 3.6 110 22:37 14.06.2020
1528 Clear 16 1016 67 10000 3.6 110 22:18 14.06.2020
1529 Clear 17 1016 67 10000 3.6 110 21:56 14.06.2020
1530 Clear 17 1016 59 10000 4.6 110 21:37 14.06.2020
1531 Clear 18 1016 59 10000 4.6 110 21:18 14.06.2020
1532 Clear 18 1016 59 10000 4.6 110 20:56 14.06.2020
1533 Clear 19 1016 55 10000 4.6 110 20:37 14.06.2020
1534 Clear 19 1016 55 10000 4.6 110 20:18 14.06.2020
1535 Clear 19 1016 55 10000 4.6 110 19:56 14.06.2020
1536 Clear 20 1015 56 10000 6.2 110 19:37 14.06.2020
1537 Clear 20 1015 56 10000 6.2 110 19:18 14.06.2020
1538 Clear 20 1015 56 10000 6.2 110 18:55 14.06.2020
1539 Clear 21 1015 56 10000 7.7 110 18:37 14.06.2020
1540 Clear 21 1015 56 10000 7.7 110 18:18 14.06.2020
1541 Clear 21 1015 56 10000 7.7 110 18:18 14.06.2020
1542 Clear 21 1015 56 10000 7.7 110 17:55 14.06.2020
1543 Clear 21 1015 52 10000 6.7 110 17:36 14.06.2020
1544 Clear 21 1015 52 10000 6.7 110 17:18 14.06.2020
1545 Clear 21 1016 52 10000 7.2 110 16:40 14.06.2020
1546 Clear 21 1016 52 10000 7.2 110 16:20 14.06.2020
1547 Clear 21 1016 52 10000 7.2 110 16:20 14.06.2020
1548 Clear 22 1016 52 10000 7.2 110 15:57 14.06.2020
1549 Clear 22 1016 60 10000 7.2 110 15:39 14.06.2020
1550 Clear 22 1016 60 10000 7.2 110 15:18 14.06.2020
1551 Clear 22 1016 60 10000 7.2 110 14:57 14.06.2020
1552 Clear 21 1015 64 10000 6.2 110 14:38 14.06.2020
1553 Clouds 22 1015 64 10000 6.2 110 14:18 14.06.2020
1554 Clouds 21 1015 68 10000 5.1 100 13:42 14.06.2020
1555 Clouds 21 1015 68 10000 5.1 100 13:22 14.06.2020
1556 Clouds 21 1015 68 10000 5.1 100 12:59 14.06.2020
1557 Clouds 21 1015 72 10000 4.6 110 12:41 14.06.2020
1558 Clouds 21 1015 72 10000 4.6 110 12:41 14.06.2020
1559 Clouds 19 1015 72 10000 4.6 110 12:23 14.06.2020
1560 Clouds 19 1015 72 10000 4.6 110 11:59 14.06.2020
1561 Clouds 19 1015 77 10000 4.6 100 11:40 14.06.2020
1562 Clouds 19 1015 77 10000 4.6 100 11:22 14.06.2020
1563 Clouds 19 1015 77 10000 4.6 100 10:59 14.06.2020
1564 Clouds 19 1015 82 10000 4.6 100 10:40 14.06.2020
1565 Clouds 19 1015 82 10000 4.6 100 10:18 14.06.2020
1566 Clouds 17 1015 82 10000 4.6 100 09:44 14.06.2020
1567 Clouds 17 1015 82 10000 4.6 100 09:24 14.06.2020
1568 Clouds 16 1015 82 10000 4.1 100 08:43 14.06.2020
1569 Clouds 16 1015 82 10000 4.1 100 08:22 14.06.2020
1570 Clouds 16 1015 82 10000 4.1 100 07:56 14.06.2020
1571 Clouds 16 1014 82 10000 4.6 90 07:35 14.06.2020
1572 Clouds 15 1014 82 10000 4.6 90 06:59 14.06.2020
1573 Rain 15 1015 82 10000 4.1 80 05:58 14.06.2020
1574 Rain 14 1014 87 10000 4.6 60 05:39 14.06.2020
1575 Clouds 14 1015 82 10000 4.1 90 04:43 14.06.2020
1576 Clouds 15 1015 82 10000 4.1 90 03:57 14.06.2020
1577 Clouds 15 1015 82 10000 4.1 90 02:53 14.06.2020
1578 Clouds 15 1016 82 10000 4.1 90 02:23 14.06.2020
1579 Clouds 15 1016 82 10000 3.6 110 01:36 14.06.2020
1580 Clouds 16 1016 82 10000 3.6 110 00:50 14.06.2020
1581 Clouds 16 1016 82 10000 5.7 110 00:31 14.06.2020
1582 Clouds 16 1016 82 10000 5.7 110 23:59 13.06.2020
1583 Clouds 16 1015 87 10000 6.2 110 23:41 13.06.2020
1584 Clouds 16 1015 87 10000 6.2 110 23:22 13.06.2020
1585 Clouds 16 1015 87 10000 6.2 110 22:56 13.06.2020
1586 Clouds 16 1014 87 10000 6.7 110 22:36 13.06.2020
1587 Clouds 16 1014 87 10000 6.7 110 22:18 13.06.2020
1588 Clouds 16 1014 87 10000 5.1 110 21:43 13.06.2020
1589 Clouds 16 1014 87 10000 5.1 110 21:24 13.06.2020
1590 Clouds 16 1014 87 10000 5.1 110 20:59 13.06.2020
1591 Clouds 18 1014 93 10000 6.2 110 20:41 13.06.2020
1592 Rain 18 1014 93 10000 6.2 110 20:19 13.06.2020
1593 Rain 18 1014 88 10000 6.2 110 19:42 13.06.2020
1594 Rain 18 1014 88 10000 6.2 110 19:21 13.06.2020
1595 Rain 19 1014 88 10000 6.2 110 18:59 13.06.2020
1596 Rain 19 1013 93 6000 5.7 110 18:41 13.06.2020
1597 Rain 19 1013 93 6000 5.7 110 18:21 13.06.2020
1598 Rain 19 1013 93 6000 5.7 110 18:21 13.06.2020
1599 Rain 19 1013 93 6000 5.7 110 17:59 13.06.2020
1600 Rain 18 1014 93 5000 4.6 90 17:41 13.06.2020
1601 Rain 17 1014 93 5000 4.6 90 17:22 13.06.2020
1602 Rain 17 1014 93 5000 4.6 90 16:56 13.06.2020
1603 Rain 17 1014 93 3500 4.6 100 16:38 13.06.2020
1604 Rain 17 1014 93 3500 4.6 100 16:19 13.06.2020
1605 Rain 18 1014 88 10000 6.2 110 15:44 13.06.2020
1606 Clouds 18 1014 88 10000 6.2 110 15:26 13.06.2020
1607 Clouds 19 1014 88 10000 6.2 110 14:59 13.06.2020
1608 Clouds 19 1014 88 5000 4.1 100 14:41 13.06.2020
1609 Rain 19 1014 88 5000 4.1 100 14:20 13.06.2020
1610 Rain 18 1014 93 6000 3.6 100 13:44 13.06.2020
1611 Clouds 17 1014 93 6000 3.6 100 13:26 13.06.2020
1612 Clouds 17 1014 93 6000 3.6 100 12:57 13.06.2020
1613 Clouds 17 1014 93 8000 4.1 80 12:37 13.06.2020
1614 Rain 17 1014 93 8000 4.1 80 12:19 13.06.2020
1615 Rain 17 1014 93 8000 4.1 80 12:19 13.06.2020
1616 Rain 16 1014 93 2200 2.6 130 11:40 13.06.2020
1617 Clouds 16 1014 93 2200 2.6 130 11:19 13.06.2020
1618 Clouds 15 1014 93 2200 2.6 130 10:58 13.06.2020
1619 Clouds 15 1014 100 1500 4.1 110 10:40 13.06.2020
1620 Clouds 15 1014 100 1500 4.1 110 10:22 13.06.2020
1621 Clouds 15 1013 100 1900 3.6 100 09:54 13.06.2020
1622 Rain 15 1013 100 1900 3.6 100 09:36 13.06.2020
1623 Clouds 15 1013 100 1900 3.6 100 09:18 13.06.2020
1624 Clouds 15 1013 100 2200 5.7 100 08:42 13.06.2020
1625 Clouds 15 1013 100 2200 5.7 100 08:24 13.06.2020
1626 Clouds 15 1013 100 2800 4.6 90 07:43 13.06.2020
1627 Clouds 15 1013 100 2800 4.6 90 07:25 13.06.2020
1628 Clouds 15 1013 100 1400 4.6 110 06:44 13.06.2020
1629 Clouds 15 1013 100 1400 4.6 110 06:25 13.06.2020
1630 Clouds 15 1013 100 3100 4.6 110 05:28 13.06.2020
1631 Clouds 15 1014 93 2800 3.6 100 04:37 13.06.2020
1632 Clouds 15 1014 93 4800 5.1 100 03:33 13.06.2020
1633 Clouds 15 1014 93 2300 4.6 110 02:39 13.06.2020
1634 Clouds 15 1014 93 2300 4.6 110 01:49 13.06.2020
1635 Clouds 15 1014 93 2100 6.7 110 01:23 13.06.2020
1636 Clouds 15 1014 93 2100 6.7 110 00:54 13.06.2020
1637 Clouds 15 1014 93 1900 6.7 110 00:27 13.06.2020
1638 Clouds 15 1014 93 1900 6.7 110 23:59 12.06.2020
1639 Clouds 15 1014 93 1600 6.2 110 23:38 12.06.2020
1640 Clouds 15 1014 93 1600 6.2 110 23:18 12.06.2020
1641 Clouds 15 1014 93 1600 6.2 110 22:54 12.06.2020
1642 Clouds 15 1013 100 1600 5.7 120 22:36 12.06.2020
1643 Clouds 15 1013 100 1600 5.7 120 22:18 12.06.2020
1644 Clouds 16 1013 87 7000 6.7 120 21:42 12.06.2020
1645 Clouds 16 1013 87 7000 6.7 120 21:23 12.06.2020
1646 Clouds 16 1013 87 7000 6.7 120 20:57 12.06.2020
1647 Clouds 16 1013 93 7000 4.6 120 20:37 12.06.2020
1648 Clouds 16 1013 93 7000 4.6 120 20:19 12.06.2020
1649 Clouds 16 1013 93 9000 6.2 130 19:42 12.06.2020
1650 Clouds 16 1013 93 9000 6.2 130 19:21 12.06.2020
1651 Clouds 16 1013 93 9000 6.2 130 18:58 12.06.2020
1652 Clouds 17 1013 82 10000 5.7 120 18:37 12.06.2020
1653 Clouds 17 1013 82 10000 5.7 120 18:18 12.06.2020
1654 Clouds 17 1013 82 10000 6.7 120 17:43 12.06.2020
1655 Clouds 17 1013 82 10000 6.7 120 17:25 12.06.2020
1656 Clouds 16 1013 87 10000 5.7 110 16:47 12.06.2020
1657 Clouds 17 1013 87 10000 5.7 110 16:23 12.06.2020
1658 Clouds 16 1013 87 10000 5.7 110 15:53 12.06.2020
1659 Clouds 16 1013 87 10000 6.7 120 15:29 12.06.2020
1660 Clouds 16 1013 87 10000 6.7 120 14:59 12.06.2020
1661 Clouds 16 1013 87 7000 5.1 120 14:41 12.06.2020
1662 Clouds 16 1013 87 7000 5.1 120 14:22 12.06.2020
1663 Clouds 16 1013 87 7000 5.1 120 13:56 12.06.2020
1664 Clouds 16 1013 87 7000 5.1 120 13:56 12.06.2020
1665 Clouds 15 1013 87 10000 4.6 120 13:38 12.06.2020
1666 Clouds 16 1013 87 10000 4.6 120 13:18 12.06.2020
1667 Clouds 16 1013 87 10000 6.2 110 12:40 12.06.2020
1668 Clouds 15 1013 87 10000 6.2 110 12:19 12.06.2020
1669 Clouds 15 1013 87 10000 5.7 120 11:45 12.06.2020
1670 Clouds 15 1013 87 10000 5.7 120 11:23 12.06.2020
1671 Clouds 15 1013 87 10000 5.7 120 11:23 12.06.2020
1672 Clouds 15 1013 87 10000 5.7 120 10:58 12.06.2020
1673 Clouds 15 1012 87 10000 4.1 110 10:40 12.06.2020
1674 Clouds 15 1012 87 10000 4.1 110 10:21 12.06.2020
1675 Clouds 15 1012 87 10000 4.1 100 09:44 12.06.2020
1676 Clouds 15 1012 87 10000 4.1 100 09:21 12.06.2020
1677 Clouds 15 1012 87 10000 3.1 70 08:43 12.06.2020
1678 Clouds 15 1012 87 10000 3.1 70 08:24 12.06.2020
1679 Clouds 15 1012 93 10000 3.6 80 07:43 12.06.2020
1680 Clouds 14 1012 93 10000 3.6 80 07:24 12.06.2020
1681 Clouds 14 1012 93 10000 3.6 80 06:55 12.06.2020
1682 Clouds 14 1013 93 10000 3.1 100 06:25 12.06.2020
1683 Clouds 14 1013 93 10000 3.1 100 05:50 12.06.2020
1684 Clouds 15 1013 77 10000 4.6 80 05:28 12.06.2020
1685 Clouds 15 1013 82 10000 4.1 60 04:41 12.06.2020
1686 Rain 15 1014 87 10000 5.7 60 02:46 12.06.2020
1687 Clouds 15 1014 87 10000 5.7 60 01:52 12.06.2020
1688 Rain 16 1014 82 10000 6.7 60 01:25 12.06.2020
1689 Rain 16 1015 87 8000 4.6 90 00:42 12.06.2020
1690 Clouds 16 1015 87 8000 4.6 90 00:24 12.06.2020
1691 Clouds 16 1015 87 8000 4.6 90 23:59 11.06.2020
1692 Clouds 16 1015 87 10000 4.1 110 23:40 11.06.2020
1693 Clouds 16 1015 87 10000 4.1 110 23:21 11.06.2020
1694 Clouds 16 1015 87 10000 4.1 110 22:57 11.06.2020
1695 Clouds 17 1015 82 3500 5.7 120 22:38 11.06.2020
1696 Clouds 17 1015 82 3500 5.7 120 22:19 11.06.2020
1697 Clouds 17 1015 82 3500 5.7 120 21:55 11.06.2020
1698 Clouds 18 1014 77 10000 3.6 110 21:37 11.06.2020
1699 Clouds 18 1014 77 10000 3.6 110 21:19 11.06.2020
1700 Clouds 19 1014 63 10000 3.6 100 20:43 11.06.2020
1701 Clouds 19 1014 63 10000 3.6 100 20:21 11.06.2020
1702 Clouds 19 1014 63 10000 3.6 100 19:55 11.06.2020
1703 Clouds 19 1014 63 10000 3.6 80 19:36 11.06.2020
1704 Clouds 20 1014 63 10000 3.6 80 19:18 11.06.2020
1705 Clouds 20 1014 63 10000 3.6 70 18:41 11.06.2020
1706 Clouds 20 1014 63 10000 3.6 70 18:20 11.06.2020
1707 Clouds 20 1014 63 10000 3.6 70 17:56 11.06.2020
1708 Clouds 20 1014 63 10000 4.6 60 17:38 11.06.2020
1709 Clouds 20 1014 63 10000 4.6 60 17:19 11.06.2020
1710 Clouds 19 1014 63 10000 4.6 60 16:56 11.06.2020
1711 Clouds 19 1014 68 10000 5.1 70 16:38 11.06.2020
1712 Clouds 19 1014 68 10000 5.1 70 16:38 11.06.2020
1713 Clouds 19 1014 68 10000 5.1 70 16:19 11.06.2020
1714 Clouds 19 1014 68 10000 5.1 70 15:42 11.06.2020
1715 Clouds 19 1014 68 10000 3.6 80 15:23 11.06.2020
1716 Clouds 19 1014 68 10000 3.6 80 14:56 11.06.2020
1717 Clouds 19 1014 68 10000 3.6 80 14:56 11.06.2020
1718 Clouds 19 1014 68 10000 4.1 60 14:38 11.06.2020
1719 Clouds 18 1014 68 10000 4.1 60 14:20 11.06.2020
1720 Clouds 18 1014 68 10000 4.1 60 13:55 11.06.2020
1721 Clouds 17 1015 77 10000 3.6 80 13:37 11.06.2020
1722 Clouds 16 1015 77 10000 3.6 80 13:18 11.06.2020
1723 Clouds 16 1015 77 10000 3.6 80 12:54 11.06.2020
1724 Clouds 15 1014 82 10000 5.1 80 12:36 11.06.2020
1725 Rain 14 1014 82 10000 5.1 80 12:18 11.06.2020
1726 Rain 14 1014 82 10000 5.1 80 11:56 11.06.2020
1727 Rain 14 1014 93 10000 3.6 60 11:37 11.06.2020
1728 Rain 14 1014 93 10000 3.6 60 11:18 11.06.2020
1729 Rain 13 1014 93 10000 3.6 60 10:42 11.06.2020
1730 Rain 13 1015 93 7000 5.1 70 10:20 11.06.2020
1731 Rain 13 1015 93 7000 5.1 70 09:56 11.06.2020
1732 Rain 13 1014 87 10000 4.6 70 09:38 11.06.2020
1733 Rain 14 1014 87 10000 4.6 70 09:20 11.06.2020
1734 Rain 14 1014 93 10000 5.1 70 08:39 11.06.2020
1735 Rain 14 1014 93 10000 5.1 70 08:19 11.06.2020
1736 Rain 14 1014 93 10000 5.1 70 07:42 11.06.2020
1737 Rain 14 1014 87 10000 4.6 60 07:24 11.06.2020
1738 Rain 15 1014 82 10000 4.1 60 06:37 11.06.2020
1739 Rain 15 1014 82 10000 4.1 60 05:57 11.06.2020
1740 Clouds 15 1014 82 10000 4.6 50 04:49 11.06.2020
1741 Clouds 15 1015 77 10000 7.2 40 03:25 11.06.2020
1742 Clouds 15 1015 77 10000 7.2 40 02:49 11.06.2020
1743 Clouds 15 1015 67 10000 8.7 50 01:57 11.06.2020
1744 Clouds 15 1016 72 10000 6.2 30 01:39 11.06.2020
1745 Clouds 15 1016 72 10000 6.2 30 01:19 11.06.2020
1746 Clouds 16 1017 67 10000 5.7 50 00:43 11.06.2020
1747 Clouds 16 1017 67 10000 5.7 50 00:24 11.06.2020
1748 Clouds 16 1017 67 10000 5.7 50 23:43 10.06.2020
1749 Clouds 16 1017 72 10000 5.7 50 23:24 10.06.2020
1750 Clouds 16 1017 72 10000 5.7 50 22:56 10.06.2020
1751 Clouds 16 1016 59 10000 5.7 50 22:37 10.06.2020
1752 Clouds 17 1016 59 10000 5.7 50 22:18 10.06.2020
1753 Clouds 17 1016 59 10000 5.7 50 21:55 10.06.2020
1754 Clouds 17 1016 59 10000 4.1 50 21:37 10.06.2020
1755 Clouds 17 1016 59 10000 4.1 50 21:18 10.06.2020
1756 Clouds 18 1016 59 10000 4.1 50 20:56 10.06.2020
1757 Clouds 18 1016 55 10000 4.6 50 20:37 10.06.2020
1758 Clear 19 1016 55 10000 4.6 50 20:19 10.06.2020
1759 Clear 19 1016 55 10000 6.2 50 19:40 10.06.2020
1760 Clear 20 1016 55 10000 6.2 50 19:19 10.06.2020
1761 Clear 19 1016 55 10000 6.2 50 18:58 10.06.2020
1762 Clear 19 1016 55 10000 5.7 40 18:40 10.06.2020
1763 Clouds 19 1016 55 10000 5.7 40 18:19 10.06.2020
1764 Clouds 19 1016 55 10000 5.7 40 17:55 10.06.2020
1765 Clouds 19 1017 59 10000 5.7 30 17:37 10.06.2020
1766 Clouds 19 1017 59 10000 5.7 30 17:37 10.06.2020
1767 Clear 19 1017 59 10000 5.7 30 17:19 10.06.2020
1768 Clear 19 1017 59 10000 5.7 30 16:57 10.06.2020
1769 Clear 19 1017 56 10000 4.6 30 16:39 10.06.2020
1770 Clear 19 1017 56 10000 4.6 30 16:19 10.06.2020
1771 Clear 20 1017 56 10000 4.6 30 15:40 10.06.2020
1772 Clouds 19 1017 55 10000 3.6 40 15:22 10.06.2020
1773 Clouds 19 1017 55 10000 3.6 40 14:58 10.06.2020
1774 Clouds 18 1018 59 10000 2.6 50 14:39 10.06.2020
1775 Clouds 17 1018 59 10000 2.6 50 14:20 10.06.2020
1776 Clouds 17 1018 59 10000 3.6 40 13:41 10.06.2020
1777 Clouds 18 1018 59 10000 3.6 40 13:21 10.06.2020
1778 Clouds 18 1018 59 10000 3.1 30 12:45 10.06.2020
1779 Clouds 17 1018 59 10000 3.1 30 12:23 10.06.2020
1780 Clouds 18 1018 59 10000 3.1 30 11:59 10.06.2020
1781 Clouds 17 1018 63 10000 2.6 80 11:41 10.06.2020
1782 Clouds 17 1018 63 10000 2.6 80 11:20 10.06.2020
1783 Clouds 16 1018 63 10000 2.6 80 10:58 10.06.2020
1784 Clouds 16 1018 67 10000 3.1 110 10:40 10.06.2020
1785 Clouds 16 1018 67 10000 3.1 110 10:21 10.06.2020
1786 Clouds 16 1018 72 10000 2.1 90 09:43 10.06.2020
1787 Clouds 16 1018 72 10000 2.1 90 09:43 10.06.2020
1788 Clouds 14 1018 72 10000 2.1 90 09:24 10.06.2020
1789 Clouds 15 1018 72 10000 2.1 90 08:58 10.06.2020
1790 Clouds 14 1018 82 10000 2.1 60 08:39 10.06.2020
1791 Clouds 14 1018 82 10000 2.1 60 08:20 10.06.2020
1792 Clouds 12 1018 87 10000 2.1 10 07:41 10.06.2020
1793 Clouds 12 1018 87 10000 2.1 10 07:23 10.06.2020
1794 Clouds 11 1018 87 10000 2.1 10 06:50 10.06.2020
1795 Clouds 10 1018 93 10000 3.1 40 06:31 10.06.2020
1796 Clouds 9 1018 93 10000 3.1 40 05:58 10.06.2020
1797 Clouds 9 1018 81 10000 1.5 360 05:29 10.06.2020
1798 Clouds 9 1018 81 10000 1.5 360 04:48 10.06.2020
1799 Clouds 9 1018 81 10000 2.6 320 04:28 10.06.2020
1800 Clouds 10 1019 76 10000 2.6 20 02:24 10.06.2020
1801 Clouds 10 1019 71 10000 4.1 360 01:40 10.06.2020
1802 Clouds 10 1019 76 10000 3.6 330 00:42 10.06.2020
1803 Clouds 10 1019 76 10000 3.6 330 00:23 10.06.2020
1804 Clouds 10 1019 76 10000 3.6 330 23:59 09.06.2020
1805 Clouds 10 1019 76 10000 3.6 330 23:41 09.06.2020
1806 Clouds 10 1019 87 10000 2.6 60 23:23 09.06.2020
1807 Clouds 11 1019 87 10000 2.6 60 22:57 09.06.2020
1808 Clouds 12 1018 71 10000 3.1 60 22:39 09.06.2020
1809 Clouds 13 1018 71 10000 3.1 60 22:20 09.06.2020
1810 Clouds 13 1018 71 10000 3.1 60 21:57 09.06.2020
1811 Clouds 15 1018 55 10000 1.5 30 21:39 09.06.2020
1812 Clouds 15 1018 55 10000 1.5 30 21:21 09.06.2020
1813 Clouds 16 1018 55 10000 1.5 30 20:57 09.06.2020
1814 Clouds 15 1018 55 10000 2.1 360 20:39 09.06.2020
1815 Clouds 15 1018 55 10000 2.1 360 20:20 09.06.2020
1816 Clouds 16 1018 55 10000 2.1 360 19:58 09.06.2020
1817 Clouds 16 1018 59 10000 2.1 360 19:39 09.06.2020
1818 Clouds 16 1018 59 10000 2.1 360 19:20 09.06.2020
1819 Clouds 16 1018 59 10000 2.1 360 18:58 09.06.2020
1820 Clouds 15 1019 62 10000 1.5 360 18:39 09.06.2020
1821 Clouds 15 1019 62 10000 1.5 360 18:21 09.06.2020
1822 Clouds 15 1019 62 10000 1.5 360 17:56 09.06.2020
1823 Clouds 15 1019 62 10000 2.1 100 17:37 09.06.2020
1824 Clouds 15 1019 62 10000 2.1 100 17:19 09.06.2020
1825 Clouds 15 1019 62 10000 2.1 100 16:43 09.06.2020
1826 Clouds 15 1019 58 10000 2.1 40 16:23 09.06.2020
1827 Clouds 15 1019 58 10000 2.1 40 15:57 09.06.2020
1828 Clouds 15 1019 54 10000 1.5 340 15:38 09.06.2020
1829 Clouds 15 1019 54 10000 1.5 340 15:20 09.06.2020
1830 Clouds 15 1019 54 10000 1.5 340 14:55 09.06.2020
1831 Clouds 15 1019 54 10000 1 360 14:37 09.06.2020
1832 Clouds 15 1019 54 10000 1 360 14:18 09.06.2020
1833 Clouds 15 1019 54 10000 1 360 13:43 09.06.2020
1834 Clouds 15 1019 58 10000 1.5 30 13:21 09.06.2020
1835 Clouds 14 1019 58 10000 1.5 30 12:59 09.06.2020
1836 Clouds 14 1019 54 10000 0.5 350 12:40 09.06.2020
1837 Clouds 14 1019 54 10000 0.5 350 12:19 09.06.2020
1838 Clouds 15 1019 54 10000 0.5 350 11:55 09.06.2020
1839 Clouds 14 1019 54 10000 1 40 11:37 09.06.2020
1840 Clouds 14 1019 54 10000 1 40 11:37 09.06.2020
1841 Clouds 15 1019 54 10000 1 40 11:19 09.06.2020
1842 Clouds 15 1019 54 10000 1 40 10:44 09.06.2020
1843 Clear 14 1019 58 5000 0.5 360 10:25 09.06.2020
1844 Clear 13 1019 58 5000 0.5 360 09:55 09.06.2020
1845 Clear 13 1018 58 10000 1 40 09:36 09.06.2020
1846 Clear 13 1018 58 10000 1 40 09:18 09.06.2020
1847 Clear 12 1018 76 10000 1 40 08:39 09.06.2020
1848 Clear 12 1018 76 10000 1 40 08:20 09.06.2020
1849 Clear 10 1018 93 10000 2.6 360 07:40 09.06.2020
1850 Clear 9 1018 93 10000 2.6 360 07:22 09.06.2020
1851 Clear 8 1018 93 10000 2.6 360 06:55 09.06.2020
1852 Clear 8 1017 81 10000 4.1 350 06:36 09.06.2020
1853 Clear 6 1017 87 10000 4.6 350 05:36 09.06.2020
1854 Clear 6 1017 93 10000 3.6 350 03:53 09.06.2020
1855 Clear 7 1017 81 10000 4.1 340 02:20 09.06.2020
1856 Clear 8 1017 76 10000 3.6 340 01:36 09.06.2020
1857 Clear 8 1017 76 10000 3.6 340 01:18 09.06.2020
1858 Clear 9 1016 71 10000 4.1 340 00:40 09.06.2020
1859 Clear 9 1016 71 10000 4.1 340 00:19 09.06.2020
1860 Clear 10 1016 71 10000 5.7 320 23:41 08.06.2020
1861 Clear 10 1016 71 10000 5.7 320 23:21 08.06.2020
1862 Clear 10 1016 71 10000 5.7 320 22:58 08.06.2020
1863 Clear 11 1015 66 10000 6.2 320 22:38 08.06.2020
1864 Clear 12 1015 66 10000 6.2 320 22:20 08.06.2020
1865 Clear 12 1015 66 10000 6.2 320 21:56 08.06.2020
1866 Clear 13 1015 67 10000 6.2 330 21:37 08.06.2020
1867 Clear 13 1015 67 10000 6.2 330 21:19 08.06.2020
1868 Clear 14 1015 67 10000 6.2 330 20:55 08.06.2020
1869 Clear 14 1015 67 10000 6.2 330 20:55 08.06.2020
1870 Clouds 15 1014 59 10000 6.7 320 20:36 08.06.2020
1871 Clouds 15 1014 59 10000 6.7 320 20:18 08.06.2020
1872 Clouds 16 1014 59 10000 7.7 330 19:43 08.06.2020
1873 Clouds 16 1014 59 10000 7.7 330 19:21 08.06.2020
1874 Clouds 16 1014 63 10000 6.2 330 18:44 08.06.2020
1875 Clouds 17 1014 63 10000 6.2 330 18:22 08.06.2020
1876 Clouds 17 1014 63 10000 6.2 330 17:58 08.06.2020
1877 Clouds 16 1014 63 10000 6.2 330 17:40 08.06.2020
1878 Clouds 17 1013 63 10000 6.2 320 17:22 08.06.2020
1879 Clouds 17 1013 63 10000 6.2 320 16:58 08.06.2020
1880 Clouds 17 1013 63 10000 6.2 320 16:58 08.06.2020
1881 Clouds 16 1013 63 10000 6.2 320 16:40 08.06.2020
1882 Clouds 17 1013 59 10000 5.7 310 16:21 08.06.2020
1883 Clouds 17 1013 59 10000 5.7 310 15:44 08.06.2020
1884 Clouds 18 1013 55 10000 4.6 270 15:22 08.06.2020
1885 Clouds 18 1013 55 10000 4.6 270 14:58 08.06.2020
1886 Clouds 17 1013 55 10000 2.1 260 14:39 08.06.2020
1887 Rain 17 1013 55 10000 2.1 260 14:20 08.06.2020
1888 Rain 16 1013 55 10000 2.1 260 13:44 08.06.2020
1889 Rain 17 1013 67 10000 3.1 290 13:24 08.06.2020
1890 Rain 17 1012 67 10000 3.6 300 12:44 08.06.2020
1891 Rain 15 1012 67 10000 3.6 300 12:22 08.06.2020
1892 Rain 16 1012 67 10000 3.6 300 11:59 08.06.2020
1893 Rain 16 1012 67 10000 3.6 300 11:41 08.06.2020
1894 Rain 16 1012 63 6000 1.5 280 11:22 08.06.2020
1895 Rain 16 1012 63 6000 1.5 280 10:58 08.06.2020
1896 Rain 15 1012 72 4300 3.6 290 10:39 08.06.2020
1897 Clear 16 1012 72 4300 3.6 290 10:20 08.06.2020
1898 Clear 15 1012 72 4300 3.6 290 09:58 08.06.2020
1899 Clear 15 1012 72 4300 3.6 290 09:40 08.06.2020
1900 Clear 13 1011 82 10000 3.1 280 09:21 08.06.2020
1901 Clear 14 1011 82 10000 3.1 280 08:46 08.06.2020
1902 Clear 13 1011 93 10000 3.6 280 08:22 08.06.2020
1903 Clear 12 1011 93 10000 3.6 280 07:46 08.06.2020
1904 Clear 11 1010 93 6000 2.6 280 07:24 08.06.2020
1905 Clear 10 1010 93 6000 2.6 280 06:51 08.06.2020
1906 Clear 9 1010 100 10000 3.1 250 06:33 08.06.2020
1907 Clear 8 1010 100 10000 3.1 250 05:52 08.06.2020
1908 Clear 8 1010 93 7000 3.6 200 04:29 08.06.2020
1909 Clear 8 1009 93 3900 2.6 260 02:46 08.06.2020
1910 Clear 8 1009 93 3600 4.1 270 02:21 08.06.2020
1911 Clear 9 1009 93 8000 4.1 270 01:34 08.06.2020
1912 Clear 10 1009 87 10000 4.6 270 00:41 08.06.2020
1913 Clear 10 1009 87 10000 4.6 270 00:18 08.06.2020
1914 Clear 11 1008 87 10000 5.1 250 23:37 07.06.2020
1915 Clear 11 1008 87 10000 5.1 250 23:18 07.06.2020
1916 Clear 11 1008 87 10000 5.1 250 22:55 07.06.2020
1917 Clear 11 1007 93 10000 4.6 260 22:36 07.06.2020
1918 Clear 11 1007 93 10000 4.6 260 22:18 07.06.2020
1919 Clear 11 1007 93 10000 4.6 260 21:56 07.06.2020
1920 Clear 12 1006 87 10000 5.7 260 21:36 07.06.2020
1921 Rain 12 1006 87 10000 5.7 260 21:18 07.06.2020
1922 Rain 12 1005 93 5000 2.1 170 20:39 07.06.2020
1923 Rain 12 1005 93 5000 2.1 170 20:20 07.06.2020
1924 Rain 12 1005 93 5000 2.1 170 19:56 07.06.2020
1925 Rain 13 1005 76 10000 1 0 19:38 07.06.2020
1926 Clouds 13 1005 76 10000 1 0 19:19 07.06.2020
1927 Rain 13 1005 76 10000 1 0 18:56 07.06.2020
1928 Rain 13 1005 82 10000 3.6 160 18:38 07.06.2020
1929 Rain 13 1005 82 10000 3.6 160 18:19 07.06.2020
1930 Rain 13 1005 82 10000 3.6 160 17:56 07.06.2020
1931 Rain 13 1005 71 10000 3.1 170 17:37 07.06.2020
1932 Rain 14 1005 71 10000 3.1 170 17:19 07.06.2020
1933 Rain 14 1005 71 10000 3.1 170 16:42 07.06.2020
1934 Rain 12 1005 93 10000 5.1 210 16:21 07.06.2020
1935 Rain 13 1005 93 10000 5.1 210 15:42 07.06.2020
1936 Rain 14 1004 93 9000 5.1 160 15:22 07.06.2020
1937 Rain 14 1004 93 9000 5.1 160 14:41 07.06.2020
1938 Rain 15 1004 67 10000 2.1 180 14:41 07.06.2020
1939 Rain 15 1004 67 10000 2.1 180 14:22 07.06.2020
1940 Rain 15 1004 67 10000 2.1 180 14:22 07.06.2020
1941 Rain 15 1004 67 10000 2.1 180 13:50 07.06.2020
1942 Rain 15 1003 58 10000 3.6 210 13:22 07.06.2020
1943 Rain 14 1003 58 10000 3.6 210 12:58 07.06.2020
1944 Rain 15 1002 51 10000 3.6 200 12:40 07.06.2020
1945 Rain 15 1002 51 10000 3.6 200 12:20 07.06.2020
1946 Rain 15 1002 51 10000 3.6 200 11:55 07.06.2020
1947 Rain 15 1002 54 6000 6.2 200 11:37 07.06.2020
1948 Rain 15 1002 54 6000 6.2 200 11:37 07.06.2020
1949 Rain 15 1002 54 6000 6.2 200 11:18 07.06.2020
1950 Rain 15 1002 54 6000 6.2 200 10:45 07.06.2020
1951 Clouds 15 1001 54 10000 6.7 210 10:22 07.06.2020
1952 Clouds 14 1001 54 10000 6.7 210 09:59 07.06.2020
1953 Clouds 14 1001 54 10000 6.7 210 09:40 07.06.2020
1954 Clouds 12 1001 66 6000 4.6 200 09:21 07.06.2020
1955 Clouds 11 1001 66 6000 4.6 200 08:58 07.06.2020
1956 Clouds 11 1001 66 6000 4.6 200 08:40 07.06.2020
1957 Clouds 11 1001 66 10000 5.1 190 08:21 07.06.2020
1958 Clouds 11 1000 71 10000 6.2 190 07:41 07.06.2020
1959 Clouds 11 1000 71 10000 6.2 190 07:41 07.06.2020
1960 Clouds 10 1000 71 10000 6.2 190 06:55 07.06.2020
1961 Clouds 9 1000 81 10000 5.1 180 05:57 07.06.2020
1962 Clouds 9 1000 87 10000 6.2 170 04:22 07.06.2020
1963 Clouds 9 1000 87 10000 6.2 170 03:48 07.06.2020
1964 Clouds 9 1000 87 10000 6.2 170 03:48 07.06.2020
1965 Clouds 9 1000 87 10000 5.1 160 02:19 07.06.2020
1966 Clouds 9 1000 87 10000 4.6 170 01:26 07.06.2020
1967 Clouds 9 1000 87 10000 4.6 170 00:59 07.06.2020
1968 Clouds 9 1000 81 10000 5.1 180 00:39 07.06.2020
1969 Clouds 9 1000 81 10000 5.1 180 00:18 07.06.2020
1970 Clouds 9 1000 76 10000 4.6 180 23:38 06.06.2020
1971 Clouds 9 1000 76 10000 4.6 180 23:20 06.06.2020
1972 Clouds 9 1000 76 10000 4.6 180 22:58 06.06.2020
1973 Clouds 9 1000 76 10000 2.1 210 22:39 06.06.2020
1974 Clouds 9 1000 76 10000 2.1 210 22:20 06.06.2020
1975 Clouds 9 1000 76 10000 2.1 210 21:58 06.06.2020
1976 Clouds 10 1000 62 10000 6.2 220 21:39 06.06.2020
1977 Clouds 12 1000 62 10000 6.2 220 21:20 06.06.2020
1978 Clouds 11 1000 62 10000 6.2 220 20:41 06.06.2020
1979 Clouds 12 999 50 10000 5.7 210 20:21 06.06.2020
1980 Clouds 13 999 50 10000 5.7 210 19:59 06.06.2020
1981 Clouds 13 998 47 10000 4.6 240 19:40 06.06.2020
1982 Clouds 14 998 47 10000 4.6 240 19:22 06.06.2020
1983 Clouds 14 998 47 10000 4.6 240 18:57 06.06.2020
1984 Clouds 14 998 47 10000 11.3 270 18:39 06.06.2020
1985 Clouds 15 998 47 10000 11.3 270 18:20 06.06.2020
1986 Clouds 15 997 44 10000 9.8 260 17:44 06.06.2020
1987 Rain 15 997 44 10000 9.8 260 17:21 06.06.2020
1988 Rain 15 997 44 10000 9.8 260 16:58 06.06.2020
1989 Rain 16 997 44 10000 9.8 260 16:39 06.06.2020
1990 Rain 14 997 58 10000 11.8 260 16:21 06.06.2020
1991 Rain 14 997 58 10000 11.8 260 15:54 06.06.2020
1992 Rain 13 997 58 10000 8.2 230 15:36 06.06.2020
1993 Clear 14 997 58 10000 8.2 230 15:18 06.06.2020
1994 Clear 12 996 76 8000 11.3 240 14:39 06.06.2020
1995 Clouds 11 996 76 8000 11.3 240 14:20 06.06.2020
1996 Clouds 10 996 76 8000 11.3 240 13:54 06.06.2020
1997 Clouds 12 995 62 10000 10.3 240 13:36 06.06.2020
1998 Rain 12 995 62 10000 10.3 240 13:18 06.06.2020
1999 Rain 11 994 76 10000 6.7 250 12:41 06.06.2020
2000 Rain 12 994 76 10000 6.7 250 12:21 06.06.2020
2001 Rain 12 994 76 10000 6.7 250 11:58 06.06.2020
2002 Rain 13 994 66 10000 6.2 240 11:38 06.06.2020
2003 Rain 13 994 66 10000 6.2 240 11:19 06.06.2020
2004 Rain 13 994 66 10000 6.2 240 10:57 06.06.2020
2005 Rain 12 994 66 10000 6.2 240 10:39 06.06.2020
2006 Rain 12 993 71 10000 8.2 240 10:20 06.06.2020
2007 Rain 12 993 71 10000 8.2 240 09:45 06.06.2020
2008 Rain 10 993 87 10000 4.6 210 09:27 06.06.2020
2009 Rain 9 993 87 10000 4.6 210 08:56 06.06.2020
2010 Rain 9 992 81 10000 6.2 230 08:38 06.06.2020
2011 Rain 9 992 81 10000 6.2 230 08:19 06.06.2020
2012 Rain 9 992 81 10000 6.2 230 07:45 06.06.2020
2013 Rain 9 992 81 10000 5.1 240 07:21 06.06.2020
2014 Rain 8 991 87 10000 5.1 240 06:46 06.06.2020
2015 Rain 8 991 87 10000 5.1 240 06:27 06.06.2020
2016 Rain 8 991 87 10000 5.1 240 05:52 06.06.2020
2017 Clouds 8 990 81 10000 8.7 270 05:26 06.06.2020
2018 Clouds 8 990 81 10000 8.7 270 04:42 06.06.2020
2019 Clouds 8 990 87 10000 7.7 280 02:45 06.06.2020
2020 Rain 8 989 87 10000 7.7 270 01:45 06.06.2020
2021 Rain 9 988 93 10000 6.2 240 01:18 06.06.2020
2022 Rain 9 988 87 10000 4.1 190 00:43 06.06.2020
2023 Rain 9 988 87 10000 4.1 190 00:25 06.06.2020
2024 Rain 9 988 87 10000 4.1 190 23:55 05.06.2020
2025 Rain 9 988 93 6000 4.1 180 23:36 05.06.2020
2026 Rain 9 988 93 6000 4.1 180 23:18 05.06.2020
2027 Rain 9 988 93 6000 4.1 180 23:18 05.06.2020
2028 Rain 9 988 93 6000 4.1 180 22:41 05.06.2020
2029 Rain 10 988 93 10000 5.1 190 22:23 05.06.2020
2030 Rain 10 988 93 10000 5.1 190 21:59 05.06.2020
2031 Rain 10 988 93 10000 5.1 190 21:40 05.06.2020
2032 Rain 10 988 93 6000 7.7 180 21:21 05.06.2020
2033 Rain 10 988 93 6000 7.7 180 20:57 05.06.2020
2034 Rain 12 987 58 10000 6.7 130 20:38 05.06.2020
2035 Rain 12 987 58 10000 6.7 130 20:20 05.06.2020
2036 Rain 14 988 62 10000 6.2 120 19:41 05.06.2020
2037 Rain 14 988 62 10000 6.2 120 19:22 05.06.2020
2038 Rain 14 988 62 10000 6.2 120 18:56 05.06.2020
2039 Rain 14 989 54 10000 5.7 140 18:38 05.06.2020
2040 Rain 14 989 54 10000 5.7 140 18:19 05.06.2020
2041 Rain 14 989 54 10000 5.7 140 17:57 05.06.2020
2042 Rain 15 990 47 10000 4.6 170 17:38 05.06.2020
2043 Rain 15 990 47 10000 4.6 170 17:18 05.06.2020
2044 Rain 15 990 47 10000 4.1 210 16:39 05.06.2020
2045 Clouds 16 990 47 10000 4.1 210 16:20 05.06.2020
2046 Clouds 16 990 47 10000 4.1 210 15:47 05.06.2020
2047 Clouds 15 991 54 10000 4.6 230 15:23 05.06.2020
2048 Clouds 15 991 54 10000 4.6 230 14:59 05.06.2020
2049 Clouds 15 991 54 10000 4.6 230 14:40 05.06.2020
2050 Rain 15 991 58 10000 6.2 220 14:22 05.06.2020
2051 Rain 14 991 58 10000 6.2 220 13:58 05.06.2020
2052 Rain 14 992 71 10000 7.2 220 13:39 05.06.2020
2053 Rain 13 992 71 10000 7.2 220 13:20 05.06.2020
2054 Rain 13 992 71 10000 7.2 220 12:42 05.06.2020
2055 Rain 12 991 62 10000 5.7 250 12:20 05.06.2020
2056 Rain 13 991 62 10000 5.7 250 11:56 05.06.2020
2057 Rain 13 991 81 10000 5.7 260 11:38 05.06.2020
2058 Rain 13 991 81 10000 5.7 260 11:20 05.06.2020
2059 Rain 12 991 81 10000 5.7 260 10:54 05.06.2020
2060 Rain 12 991 71 10000 5.1 290 10:36 05.06.2020
2061 Rain 12 991 71 10000 5.1 290 10:18 05.06.2020
2062 Rain 12 991 71 10000 5.1 290 09:54 05.06.2020
2063 Rain 11 991 76 10000 6.7 260 09:36 05.06.2020
2064 Rain 10 991 76 10000 6.7 260 09:18 05.06.2020
2065 Rain 10 991 76 10000 8.2 260 08:41 05.06.2020
2066 Clouds 11 991 76 10000 8.2 260 08:19 05.06.2020
2067 Clouds 10 991 76 10000 8.2 260 07:56 05.06.2020
2068 Clouds 10 990 81 10000 7.7 270 07:38 05.06.2020
2069 Clouds 9 990 81 10000 7.7 270 06:56 05.06.2020
2070 Clouds 10 990 87 10000 8.2 270 05:50 05.06.2020
2071 Clouds 10 990 87 10000 4.6 240 05:19 05.06.2020
2072 Clouds 10 990 81 10000 6.7 270 03:54 05.06.2020
2073 Clouds 10 990 87 10000 9.3 280 02:53 05.06.2020
2074 Clouds 10 990 93 10000 10.3 280 02:24 05.06.2020
2075 Clouds 11 990 93 10000 10.3 280 01:52 05.06.2020
2076 Clouds 11 990 93 10000 8.2 280 01:26 05.06.2020
2077 Clouds 11 990 87 10000 9.3 290 00:42 05.06.2020
2078 Clouds 11 990 87 10000 9.3 290 00:20 05.06.2020
2079 Clouds 11 990 87 10000 9.3 290 23:46 04.06.2020
2080 Clouds 11 990 93 10000 9.3 290 23:28 04.06.2020
2081 Clouds 12 990 93 10000 9.3 290 22:56 04.06.2020
2082 Clouds 12 989 87 6000 5.7 250 22:36 04.06.2020
2083 Clouds 12 989 87 6000 5.7 250 22:18 04.06.2020
2084 Clouds 13 989 87 6000 5.7 250 21:56 04.06.2020
2085 Rain 13 990 93 8000 2.1 220 21:37 04.06.2020
2086 Rain 13 990 93 8000 2.1 220 21:19 04.06.2020
2087 Rain 14 990 93 8000 2.1 220 20:55 04.06.2020
2088 Rain 13 990 100 4500 3.6 140 20:36 04.06.2020
2089 Rain 13 990 100 4500 3.6 140 20:18 04.06.2020
2090 Rain 14 990 93 5000 3.6 120 19:40 04.06.2020
2091 Rain 14 990 93 5000 3.6 120 19:21 04.06.2020
2092 Rain 14 990 93 5000 3.6 120 18:56 04.06.2020
2093 Rain 14 991 93 4500 2.1 150 18:38 04.06.2020
2094 Rain 14 991 93 4500 2.1 150 18:20 04.06.2020
2095 Rain 14 991 93 4500 2.1 150 17:42 04.06.2020
2096 Rain 14 992 93 3200 4.1 150 17:21 04.06.2020
2097 Rain 14 992 93 3200 4.1 150 16:57 04.06.2020
2098 Rain 14 993 93 3000 2.6 140 16:39 04.06.2020
2099 Rain 14 993 93 3000 2.6 140 16:18 04.06.2020
2100 Rain 14 993 93 3000 2.6 140 15:43 04.06.2020
2101 Rain 15 993 72 10000 6.2 130 15:24 04.06.2020
2102 Rain 16 993 72 10000 6.2 130 14:41 04.06.2020
2103 Rain 16 993 72 10000 5.7 120 14:22 04.06.2020
2104 Rain 16 993 72 10000 5.7 120 14:22 04.06.2020
2105 Rain 16 993 72 10000 5.7 120 13:58 04.06.2020
2106 Rain 17 993 72 10000 4.1 110 13:40 04.06.2020
2107 Rain 17 993 72 10000 4.1 110 13:20 04.06.2020
2108 Rain 17 993 72 10000 4.1 110 12:58 04.06.2020
2109 Rain 17 994 77 10000 4.1 110 12:40 04.06.2020
2110 Rain 17 994 77 10000 4.1 110 12:22 04.06.2020
2111 Rain 16 994 77 10000 4.1 110 11:54 04.06.2020
2112 Rain 16 995 82 10000 4.1 110 11:36 04.06.2020
2113 Rain 15 995 82 10000 4.1 110 11:18 04.06.2020
2114 Rain 15 995 82 10000 4.1 110 10:41 04.06.2020
2115 Rain 14 995 82 8000 4.1 120 10:22 04.06.2020
2116 Rain 14 995 82 8000 4.1 120 09:57 04.06.2020
2117 Rain 14 996 82 10000 4.1 110 09:38 04.06.2020
2118 Rain 14 996 82 10000 4.1 110 09:20 04.06.2020
2119 Rain 14 996 82 10000 4.1 110 08:42 04.06.2020
2120 Rain 13 996 87 10000 4.1 110 08:24 04.06.2020
2121 Rain 13 996 87 10000 4.1 110 07:46 04.06.2020
2122 Rain 12 997 93 10000 6.2 120 07:22 04.06.2020
2123 Rain 12 998 87 10000 3.6 120 06:42 04.06.2020
2124 Rain 12 998 87 10000 3.6 120 06:23 04.06.2020
2125 Rain 13 998 76 10000 4.6 130 05:34 04.06.2020
2126 Clouds 13 999 76 10000 6.2 120 03:55 04.06.2020
2127 Rain 13 1000 82 10000 5.7 120 02:56 04.06.2020
2128 Clouds 13 1001 71 10000 5.7 130 01:48 04.06.2020
2129 Rain 13 1001 71 10000 5.7 120 01:19 04.06.2020
2130 Rain 14 1002 71 10000 4.6 120 00:40 04.06.2020
2131 Clouds 14 1003 67 10000 5.1 130 23:41 03.06.2020
2132 Clouds 14 1003 67 10000 5.1 130 23:20 03.06.2020
2133 Clouds 14 1003 67 10000 5.1 130 22:59 03.06.2020
2134 Clouds 15 1003 55 10000 5.1 140 22:39 03.06.2020
2135 Clouds 16 1003 55 10000 5.1 140 22:19 03.06.2020
2136 Clouds 16 1003 55 10000 5.1 140 21:57 03.06.2020
2137 Clouds 17 1003 48 10000 4.6 120 21:38 03.06.2020
2138 Clouds 17 1003 48 10000 4.6 120 21:20 03.06.2020
2139 Clouds 17 1003 48 10000 4.6 120 20:55 03.06.2020
2140 Clouds 18 1003 49 10000 6.2 130 20:37 03.06.2020
2141 Clouds 19 1003 49 10000 6.2 130 20:19 03.06.2020
2142 Clouds 19 1003 49 10000 6.2 130 19:55 03.06.2020
2143 Clouds 19 1003 43 10000 6.7 130 19:36 03.06.2020
2144 Clouds 20 1003 43 10000 6.7 130 19:18 03.06.2020
2145 Clouds 20 1003 49 10000 4.6 110 18:41 03.06.2020
2146 Clouds 20 1003 49 10000 4.6 110 18:22 03.06.2020
2147 Clouds 20 1003 49 10000 4.6 110 17:57 03.06.2020
2148 Clouds 20 1004 49 10000 4.6 110 17:37 03.06.2020
2149 Clouds 21 1004 49 10000 4.6 110 17:19 03.06.2020
2150 Clouds 21 1004 49 10000 4.6 110 16:42 03.06.2020
2151 Clouds 21 1004 53 10000 4.1 100 16:21 03.06.2020
2152 Clouds 22 1004 53 10000 4.1 100 15:59 03.06.2020
2153 Clouds 22 1005 53 10000 4.1 100 15:41 03.06.2020
2154 Clouds 22 1005 53 10000 4.1 100 15:20 03.06.2020
2155 Clouds 22 1005 53 10000 4.1 100 14:47 03.06.2020
2156 Clouds 23 1005 49 10000 5.1 100 14:26 03.06.2020
2157 Clouds 23 1005 49 10000 5.1 100 13:59 03.06.2020
2158 Clouds 22 1006 49 10000 4.6 100 13:38 03.06.2020
2159 Clouds 22 1006 49 10000 4.6 100 13:18 03.06.2020
2160 Clouds 22 1006 49 10000 4.6 100 12:43 03.06.2020
2161 Clouds 22 1006 53 10000 2.6 100 12:21 03.06.2020
2162 Clouds 22 1006 53 10000 2.6 100 11:46 03.06.2020
2163 Clouds 21 1007 52 10000 3.1 100 11:27 03.06.2020
2164 Clouds 21 1007 52 10000 3.1 100 10:58 03.06.2020
2165 Clouds 21 1007 52 10000 3.1 100 10:39 03.06.2020
2166 Clouds 20 1007 68 10000 2.6 100 10:21 03.06.2020
2167 Clouds 20 1007 68 10000 2.6 100 09:44 03.06.2020
2168 Clouds 18 1008 72 10000 1.5 80 09:20 03.06.2020
2169 Clouds 18 1008 72 10000 1.5 80 08:56 03.06.2020
2170 Clouds 15 1008 87 10000 1.5 90 08:36 03.06.2020
2171 Clouds 17 1008 87 10000 1.5 90 08:18 03.06.2020
2172 Clouds 16 1008 87 10000 1.5 90 07:42 03.06.2020
2173 Clouds 14 1008 93 10000 2.1 60 07:20 03.06.2020
2174 Clouds 14 1008 93 10000 2.1 60 06:50 03.06.2020
2175 Clouds 13 1008 93 10000 3.6 50 06:30 03.06.2020
2176 Clouds 12 1008 93 10000 3.6 50 05:46 03.06.2020
2177 Clouds 12 1009 93 10000 1 10 04:46 03.06.2020
2178 Clouds 12 1009 87 10000 1 320 03:50 03.06.2020
2179 Clouds 14 1010 87 10000 1 300 02:57 03.06.2020
2180 Clouds 12 1011 82 10000 0.96 69 01:52 03.06.2020
2181 Clouds 13 1012 82 10000 2.1 20 00:43 03.06.2020
2182 Clouds 13 1012 82 10000 2.1 20 00:25 03.06.2020
2183 Clouds 14 1012 82 10000 2.1 20 23:51 02.06.2020
2184 Clouds 15 1012 82 10000 1.5 10 23:28 02.06.2020
2185 Clouds 16 1012 82 10000 1.5 10 22:57 02.06.2020
2186 Clouds 17 1013 63 10000 0.5 150 22:38 02.06.2020
2187 Clouds 18 1013 63 10000 0.5 150 22:19 02.06.2020
2188 Clouds 18 1013 63 10000 0.5 150 21:56 02.06.2020
2189 Clouds 19 1013 49 10000 2.1 40 21:37 02.06.2020
2190 Clouds 20 1013 49 10000 2.1 40 21:19 02.06.2020
2191 Clouds 21 1013 49 10000 2.1 40 20:57 02.06.2020
2192 Clouds 22 1013 41 10000 1 80 20:39 02.06.2020
2193 Clouds 23 1013 41 10000 1 80 20:20 02.06.2020
2194 Clouds 23 1014 33 10000 2.1 70 19:43 02.06.2020
2195 Clouds 24 1014 33 10000 2.1 70 19:25 02.06.2020
2196 Clouds 24 1014 33 10000 2.1 70 18:58 02.06.2020
2197 Clouds 24 1015 31 10000 2.1 40 18:39 02.06.2020
2198 Clouds 25 1015 31 10000 2.1 40 18:20 02.06.2020
2199 Clouds 25 1015 31 10000 2.1 40 17:55 02.06.2020
2200 Clouds 25 1016 31 10000 2.1 30 17:37 02.06.2020
2201 Clouds 24 1016 31 10000 2.1 30 17:19 02.06.2020
2202 Clouds 24 1016 31 10000 2.1 30 16:54 02.06.2020
2203 Clouds 24 1017 33 10000 2.6 30 16:36 02.06.2020
2204 Clouds 24 1017 33 10000 2.6 30 16:18 02.06.2020
2205 Clouds 24 1017 33 10000 2.6 30 15:40 02.06.2020
2206 Clouds 24 1018 33 10000 0.5 340 15:20 02.06.2020
2207 Clouds 24 1018 33 10000 0.5 340 14:46 02.06.2020
2208 Clouds 23 1018 40 10000 2.1 300 14:27 02.06.2020
2209 Clouds 23 1018 40 10000 2.1 300 13:55 02.06.2020
2210 Clouds 23 1019 35 10000 1 40 13:37 02.06.2020
2211 Clouds 23 1019 35 10000 1 40 13:18 02.06.2020
2212 Clouds 22 1019 35 10000 1 40 12:56 02.06.2020
2213 Clouds 23 1020 33 10000 1.5 0 12:38 02.06.2020
2214 Clouds 23 1020 33 10000 1.5 0 12:19 02.06.2020
2215 Clouds 22 1020 33 10000 1.5 0 11:41 02.06.2020
2216 Clouds 22 1021 43 10000 1 300 11:23 02.06.2020
2217 Clouds 22 1021 43 10000 1 300 10:59 02.06.2020
2218 Clouds 22 1021 43 10000 1 300 10:41 02.06.2020
2219 Clouds 21 1021 55 10000 0.5 350 10:21 02.06.2020
2220 Clouds 20 1021 55 10000 0.5 350 09:43 02.06.2020
2221 Clouds 18 1021 59 10000 1.5 20 09:21 02.06.2020
2222 Clouds 18 1021 59 10000 1.5 20 08:55 02.06.2020
2223 Clouds 15 1021 93 10000 0.5 310 08:29 02.06.2020
2224 Clouds 16 1021 93 10000 0.5 310 07:58 02.06.2020
2225 Clouds 15 1022 93 10000 1 0 07:38 02.06.2020
2226 Clouds 14 1022 93 10000 1 0 07:18 02.06.2020
2227 Clouds 11 1022 100 10000 1 50 06:39 02.06.2020
2228 Clouds 8 1022 100 10000 1 50 05:45 02.06.2020
2229 Clouds 9 1022 93 10000 2.1 70 04:52 02.06.2020
2230 Clouds 10 1023 87 10000 1.5 100 03:19 02.06.2020
2231 Clouds 10 1023 87 10000 0.5 110 02:19 02.06.2020
2232 Clouds 11 1024 81 10000 0.5 0 00:57 02.06.2020
2233 Clouds 11 1024 81 10000 4.1 140 00:23 02.06.2020
2234 Clouds 12 1024 81 10000 4.1 140 23:39 01.06.2020
2235 Clouds 13 1024 76 10000 3.1 140 23:21 01.06.2020
2236 Clouds 13 1024 76 10000 3.1 140 22:59 01.06.2020
2237 Clouds 14 1024 76 10000 3.1 140 22:40 01.06.2020
2238 Clouds 15 1024 63 10000 3.6 130 22:20 01.06.2020
2239 Clouds 15 1024 63 10000 3.6 130 22:20 01.06.2020
2240 Clouds 15 1024 63 10000 3.6 130 21:57 01.06.2020
2241 Clouds 17 1024 42 10000 4.6 120 21:37 01.06.2020
2242 Clouds 18 1024 42 10000 4.6 120 21:18 01.06.2020
2243 Clouds 18 1024 42 10000 4.6 120 20:55 01.06.2020
2244 Clouds 19 1024 40 10000 5.7 120 20:36 01.06.2020
2245 Clouds 19 1024 40 10000 5.7 120 20:18 01.06.2020
2246 Clouds 20 1024 40 10000 5.7 120 19:43 01.06.2020
2247 Clear 21 1025 37 10000 6.2 120 19:21 01.06.2020
2248 Clear 21 1025 37 10000 6.2 120 18:59 01.06.2020
2249 Clear 21 1025 37 10000 6.2 120 18:59 01.06.2020
2250 Clear 21 1025 37 10000 5.7 120 18:39 01.06.2020
2251 Clear 21 1025 37 10000 5.7 120 18:19 01.06.2020
2252 Clear 21 1025 37 10000 5.7 120 17:56 01.06.2020
2253 Clear 22 1026 35 10000 6.2 130 17:38 01.06.2020
2254 Clear 21 1026 35 10000 6.2 130 17:18 01.06.2020
2255 Clear 22 1026 30 10000 6.2 110 16:40 01.06.2020
2256 Clear 22 1026 30 10000 6.2 110 16:22 01.06.2020
2257 Clear 22 1026 30 10000 6.2 110 15:56 01.06.2020
2258 Clear 22 1026 33 10000 4.1 120 15:37 01.06.2020
2259 Clear 22 1026 33 10000 4.1 120 15:19 01.06.2020
2260 Clear 22 1026 33 10000 4.1 120 14:57 01.06.2020
2261 Clear 21 1027 35 10000 4.1 110 14:38 01.06.2020
2262 Clear 21 1027 35 10000 4.1 110 14:20 01.06.2020
2263 Clear 21 1027 37 10000 5.1 100 13:44 01.06.2020
2264 Clear 21 1027 37 10000 5.1 100 13:22 01.06.2020
2265 Clear 21 1027 37 10000 5.1 100 12:59 01.06.2020
2266 Clear 20 1028 40 10000 6.2 100 12:40 01.06.2020
2267 Clear 20 1028 40 10000 6.2 100 12:40 01.06.2020
2268 Clear 20 1028 40 10000 6.2 100 12:40 01.06.2020
2269 Clear 20 1028 40 10000 6.2 100 12:40 01.06.2020
2270 Clear 20 1028 40 10000 6.2 100 12:22 01.06.2020
2271 Clear 20 1028 40 10000 6.2 100 11:59 01.06.2020
2272 Clear 19 1028 39 10000 4.1 100 11:38 01.06.2020
2273 Clear 19 1028 39 10000 4.1 100 11:19 01.06.2020
2274 Clear 20 1028 39 10000 4.1 100 10:56 01.06.2020
2275 Clear 19 1028 45 10000 3.1 90 10:37 01.06.2020
2276 Clear 19 1028 45 10000 3.1 90 10:18 01.06.2020
2277 Clear 17 1028 59 10000 2.6 70 09:46 01.06.2020
2278 Clear 16 1028 59 10000 2.6 70 09:26 01.06.2020
2279 Clear 15 1028 59 10000 2.6 70 08:57 01.06.2020
2280 Clear 14 1027 87 10000 3.1 50 08:37 01.06.2020
2281 Clear 14 1027 87 10000 3.1 50 08:19 01.06.2020
2282 Clear 13 1027 93 10000 3.1 50 07:41 01.06.2020
2283 Clear 12 1027 93 10000 3.1 50 07:22 01.06.2020
2284 Clear 10 1027 93 10000 2.6 50 06:49 01.06.2020
2285 Clear 8 1027 93 10000 2.6 50 05:57 01.06.2020
2286 Clear 7 1027 93 10000 2.6 60 05:22 01.06.2020
2287 Clouds 7 1028 93 10000 2.6 50 04:18 01.06.2020
2288 Clouds 8 1028 87 10000 2.6 100 03:42 01.06.2020
2289 Clouds 8 1028 87 10000 2.6 100 02:59 01.06.2020
2290 Clouds 9 1028 93 10000 3.1 110 01:47 01.06.2020
2291 Clouds 9 1028 87 10000 3.1 120 01:26 01.06.2020
2292 Clouds 9 1028 87 10000 3.1 120 00:57 01.06.2020
2293 Clouds 9 1028 87 10000 3.1 120 00:57 01.06.2020
2294 Clouds 9 1027 81 10000 2.1 100 00:38 01.06.2020
2295 Clouds 10 1027 81 10000 2.1 100 00:20 01.06.2020
2296 Clouds 10 1027 81 10000 2.1 100 23:54 31.05.2020
2297 Clouds 11 1027 76 10000 2.1 100 23:36 31.05.2020
2298 Clouds 11 1027 76 10000 2.1 100 23:18 31.05.2020
2299 Clouds 13 1027 58 10000 3.1 120 22:42 31.05.2020
2300 Clouds 14 1027 58 10000 3.1 120 22:24 31.05.2020
2301 Clouds 14 1027 58 10000 3.1 120 21:57 31.05.2020
2302 Clouds 15 1026 48 10000 4.1 140 21:39 31.05.2020
2303 Clouds 16 1026 48 10000 4.1 140 21:21 31.05.2020
2304 Clouds 17 1026 48 10000 4.1 140 20:48 31.05.2020
2305 Clouds 18 1026 42 10000 5.1 140 20:25 31.05.2020
2306 Clouds 19 1026 42 10000 5.1 140 19:57 31.05.2020
2307 Clouds 19 1026 37 10000 4.1 120 19:38 31.05.2020
2308 Clouds 20 1026 37 10000 4.1 120 19:20 31.05.2020
2309 Clouds 20 1026 37 10000 4.1 120 18:58 31.05.2020
2310 Clouds 20 1026 37 10000 6.2 120 18:40 31.05.2020
2311 Clouds 20 1026 37 10000 6.2 120 18:21 31.05.2020
2312 Clouds 20 1026 37 10000 6.2 110 17:43 31.05.2020
2313 Clouds 20 1026 37 10000 6.2 110 17:24 31.05.2020
2314 Clouds 20 1026 37 10000 6.2 110 16:43 31.05.2020
2315 Clouds 20 1026 37 10000 6.2 110 16:23 31.05.2020
2316 Clouds 20 1026 37 10000 6.2 110 15:59 31.05.2020
2317 Clouds 20 1026 42 10000 5.1 90 15:39 31.05.2020
2318 Clouds 20 1026 42 10000 5.1 90 15:21 31.05.2020
2319 Clouds 20 1026 42 10000 5.1 90 14:47 31.05.2020
2320 Clouds 20 1026 42 10000 5.7 100 14:21 31.05.2020
2321 Clouds 20 1026 42 10000 5.7 100 13:56 31.05.2020
2322 Clouds 19 1026 48 10000 8.2 40 13:38 31.05.2020
2323 Clouds 19 1026 48 10000 8.2 40 13:20 31.05.2020
2324 Clouds 19 1026 48 10000 8.2 40 12:57 31.05.2020
2325 Clouds 19 1027 52 10000 6.7 50 12:37 31.05.2020
2326 Clouds 18 1027 52 10000 6.7 50 12:19 31.05.2020
2327 Clouds 18 1027 52 10000 6.7 50 11:48 31.05.2020
2328 Clouds 18 1027 55 10000 6.7 50 11:23 31.05.2020
2329 Clouds 18 1027 55 10000 6.7 50 10:57 31.05.2020
2330 Clouds 18 1027 55 10000 6.2 50 10:39 31.05.2020
2331 Clouds 18 1027 55 10000 6.2 50 10:20 31.05.2020
2332 Clouds 17 1027 67 10000 3.1 50 09:42 31.05.2020
2333 Clouds 15 1027 67 10000 3.1 50 09:23 31.05.2020
2334 Clouds 15 1027 67 10000 3.1 50 08:59 31.05.2020
2335 Clouds 14 1027 93 10000 4.1 40 08:40 31.05.2020
2336 Clouds 14 1027 93 10000 4.1 40 08:21 31.05.2020
2337 Clouds 13 1027 93 10000 4.1 40 07:46 31.05.2020
2338 Clouds 12 1027 93 10000 2.6 30 07:21 31.05.2020
2339 Clouds 11 1027 93 10000 2.6 30 06:54 31.05.2020
2340 Clouds 10 1026 93 10000 2.6 30 06:34 31.05.2020
2341 Clouds 9 1026 93 10000 2.1 20 05:46 31.05.2020
2342 Clouds 9 1026 93 10000 2.1 20 05:27 31.05.2020
2343 Clouds 9 1027 93 10000 2.1 90 03:56 31.05.2020
2344 Clouds 9 1026 87 10000 2.6 110 02:59 31.05.2020
2345 Clouds 9 1027 87 10000 2.6 140 02:33 31.05.2020
2346 Clouds 11 1026 76 10000 4.1 140 01:39 31.05.2020
2347 Clouds 12 1026 76 10000 3.1 140 00:37 31.05.2020
2348 Clouds 12 1026 76 10000 3.1 140 00:19 31.05.2020
2349 Clouds 13 1026 76 10000 3.1 120 23:41 30.05.2020
2350 Clouds 13 1026 76 10000 3.1 120 23:23 30.05.2020
2351 Clouds 13 1026 76 10000 3.1 120 22:54 30.05.2020
2352 Clouds 15 1025 55 10000 2.6 120 22:36 30.05.2020
2353 Clear 15 1025 55 10000 2.6 120 22:18 30.05.2020
2354 Clear 17 1025 42 10000 2.6 120 21:42 30.05.2020
2355 Clear 18 1025 42 10000 2.6 120 21:22 30.05.2020
2356 Clear 18 1025 42 10000 2.6 120 20:57 30.05.2020
2357 Clear 19 1025 32 10000 3.6 60 20:39 30.05.2020
2358 Clear 20 1025 32 10000 3.6 60 20:21 30.05.2020
2359 Clear 20 1025 32 10000 3.6 60 19:55 30.05.2020
2360 Clear 21 1025 35 10000 3.6 40 19:37 30.05.2020
2361 Clear 21 1025 35 10000 3.6 40 19:18 30.05.2020
2362 Clear 21 1025 37 10000 3.6 40 18:43 30.05.2020
2363 Clear 21 1025 37 10000 3.6 40 18:19 30.05.2020
2364 Clear 21 1025 37 10000 2.6 60 17:42 30.05.2020
2365 Clear 21 1025 37 10000 2.6 60 17:24 30.05.2020
2366 Clear 21 1025 37 10000 2.6 60 17:24 30.05.2020
2367 Clear 21 1025 37 10000 2.6 60 16:58 30.05.2020
2368 Clear 21 1026 35 10000 4.1 40 16:39 30.05.2020
2369 Clear 21 1026 35 10000 4.1 40 16:20 30.05.2020
2370 Clear 21 1026 34 10000 4.6 40 15:42 30.05.2020
2371 Clear 21 1026 34 10000 4.6 40 15:24 30.05.2020
2372 Clear 21 1027 37 10000 4.1 40 14:44 30.05.2020
2373 Clear 21 1027 37 10000 4.1 40 14:25 30.05.2020
2374 Clear 21 1027 45 10000 4.1 50 13:44 30.05.2020
2375 Clear 20 1027 45 10000 4.1 50 13:24 30.05.2020
2376 Clear 20 1027 52 10000 3.1 40 12:42 30.05.2020
2377 Clear 19 1027 52 10000 3.1 40 12:22 30.05.2020
2378 Clear 19 1027 52 10000 3.1 40 11:58 30.05.2020
2379 Clear 19 1028 59 10000 3.6 40 11:40 30.05.2020
2380 Clear 19 1028 59 10000 3.6 40 11:22 30.05.2020
2381 Clear 18 1028 59 10000 3.6 40 10:55 30.05.2020
2382 Clear 16 1028 72 10000 2.6 40 10:37 30.05.2020
2383 Clear 17 1028 72 10000 2.6 40 10:19 30.05.2020
2384 Clear 16 1028 77 10000 1.5 40 09:42 30.05.2020
2385 Clear 15 1028 77 10000 1.5 40 09:24 30.05.2020
2386 Clear 13 1028 93 10000 1 40 08:41 30.05.2020
2387 Clear 12 1028 93 10000 1 40 08:22 30.05.2020
2388 Clear 11 1028 100 8000 2.1 50 07:40 30.05.2020
2389 Clear 11 1028 100 8000 2.1 50 07:19 30.05.2020
2390 Clear 9 1028 93 7000 3.1 60 06:29 30.05.2020
2391 Clear 7 1028 93 7000 3.1 60 05:51 30.05.2020
2392 Clear 8 1028 93 8000 1.5 30 04:59 30.05.2020
2393 Clear 7 1028 93 10000 2.1 40 02:53 30.05.2020
2394 Clear 8 1028 93 10000 2.28 60 02:23 30.05.2020
2395 Clear 9 1027 93 10000 1 360 01:20 30.05.2020
2396 Clear 9 1028 87 10000 2.1 330 00:36 30.05.2020
2397 Clear 9 1028 87 10000 2.1 330 00:18 30.05.2020
2398 Clear 11 1027 76 10000 2.6 320 23:41 29.05.2020
2399 Clear 11 1027 76 10000 2.6 320 23:20 29.05.2020
2400 Clear 12 1027 76 10000 2.6 320 22:56 29.05.2020
2401 Clear 13 1027 67 10000 1 290 22:38 29.05.2020
2402 Clear 13 1027 67 10000 1 290 22:18 29.05.2020
2403 Clear 16 1027 39 10000 2.6 40 21:41 29.05.2020
2404 Clear 16 1027 39 10000 2.6 40 21:21 29.05.2020
2405 Clear 17 1027 39 10000 2.6 40 20:59 29.05.2020
2406 Clear 17 1027 36 10000 2.1 100 20:40 29.05.2020
2407 Clear 17 1027 36 10000 2.1 100 20:19 29.05.2020
2408 Clear 18 1027 36 10000 2.1 100 19:56 29.05.2020
2409 Clear 18 1028 32 10000 2.6 90 19:37 29.05.2020
2410 Clear 19 1028 32 10000 2.6 90 19:19 29.05.2020
2411 Clear 19 1028 34 10000 4.1 40 18:44 29.05.2020
2412 Clear 19 1028 34 10000 4.1 40 18:19 29.05.2020
2413 Clear 19 1028 34 10000 4.1 40 17:56 29.05.2020
2414 Clear 19 1028 34 10000 4.1 40 17:56 29.05.2020
2415 Clear 19 1028 28 10000 0.5 330 17:37 29.05.2020
2416 Clear 19 1028 28 10000 0.5 330 17:19 29.05.2020
2417 Clear 19 1029 49 10000 0.5 350 16:43 29.05.2020
2418 Clear 19 1029 47 10000 0.5 350 16:24 29.05.2020
2419 Clear 20 1029 47 10000 0.5 350 15:56 29.05.2020
2420 Clear 19 1029 31 10000 0.5 310 15:38 29.05.2020
2421 Clear 19 1029 31 10000 0.5 310 15:19 29.05.2020
2422 Clear 18 1029 31 10000 0.5 310 14:49 29.05.2020
2423 Clear 18 1030 39 10000 0.5 320 14:23 29.05.2020
2424 Clear 17 1030 39 10000 0.5 320 13:58 29.05.2020
2425 Clear 17 1030 48 10000 0.5 360 13:39 29.05.2020
2426 Clear 17 1030 48 10000 0.5 360 13:18 29.05.2020
2427 Clear 17 1031 51 10000 1 280 12:43 29.05.2020
2428 Clear 15 1031 51 10000 1 280 12:24 29.05.2020
2429 Clear 15 1031 62 10000 0.5 310 11:46 29.05.2020
2430 Clear 15 1031 62 10000 0.5 310 11:46 29.05.2020
2431 Clear 15 1031 62 10000 0.5 310 11:27 29.05.2020
2432 Clear 15 1031 62 10000 0.5 310 11:27 29.05.2020
2433 Clear 15 1031 62 10000 0.5 310 10:58 29.05.2020
2434 Clear 14 1031 76 10000 0.5 360 10:38 29.05.2020
2435 Clear 14 1031 76 10000 0.5 360 10:20 29.05.2020
2436 Clear 13 1031 81 10000 1 30 09:44 29.05.2020
2437 Clear 11 1031 81 10000 1 30 09:20 29.05.2020
2438 Clear 10 1031 81 10000 1 30 08:57 29.05.2020
2439 Clear 9 1031 87 10000 1.5 350 08:39 29.05.2020
2440 Clear 10 1031 87 10000 1.5 350 08:20 29.05.2020
2441 Clear 9 1031 93 10000 2.6 330 07:44 29.05.2020
2442 Clear 8 1031 93 10000 2.6 330 07:26 29.05.2020
2443 Clear 7 1031 93 10000 2.6 330 06:49 29.05.2020
2444 Clear 7 1031 87 10000 2.1 20 06:28 29.05.2020
2445 Clear 6 1031 87 10000 2.1 20 05:53 29.05.2020
2446 Clear 6 1031 87 10000 3.1 360 03:44 29.05.2020
2447 Clouds 8 1031 76 10000 3.6 10 01:47 29.05.2020
2448 Clouds 8 1031 71 10000 3.6 340 01:25 29.05.2020
2449 Clouds 8 1031 71 10000 3.6 340 01:25 29.05.2020
2450 Clouds 8 1031 71 10000 3.6 340 00:47 29.05.2020
2451 Clouds 9 1031 66 10000 4.6 340 00:22 29.05.2020
2452 Clouds 10 1031 66 10000 3.1 300 23:41 28.05.2020
2453 Clouds 10 1031 66 10000 3.1 300 23:19 28.05.2020
2454 Clouds 10 1031 66 10000 3.1 300 23:19 28.05.2020
2455 Clouds 10 1031 66 10000 3.1 300 22:58 28.05.2020
2456 Clouds 12 1031 62 10000 6.2 320 22:39 28.05.2020
2457 Clouds 12 1031 62 10000 6.2 320 22:18 28.05.2020
2458 Clouds 13 1031 62 10000 6.2 320 21:54 28.05.2020
2459 Clear 13 1031 54 10000 8.7 320 21:36 28.05.2020
2460 Clear 14 1031 54 10000 8.7 320 21:18 28.05.2020
2461 Clear 15 1031 55 10000 1.5 50 20:40 28.05.2020
2462 Clouds 16 1031 55 10000 1.5 50 20:19 28.05.2020
2463 Clouds 16 1031 55 10000 1.5 50 19:58 28.05.2020
2464 Clouds 17 1031 42 10000 2.6 30 19:40 28.05.2020
2465 Clouds 17 1031 42 10000 2.6 30 19:20 28.05.2020
2466 Clouds 18 1031 42 10000 2.6 30 18:57 28.05.2020
2467 Clouds 18 1031 39 10000 2.1 40 18:38 28.05.2020
2468 Clouds 18 1031 39 10000 2.1 40 18:20 28.05.2020
2469 Clouds 18 1031 36 10000 1 10 17:40 28.05.2020
2470 Clouds 18 1031 36 10000 1 10 17:21 28.05.2020
2471 Clouds 18 1031 36 10000 1 10 16:47 28.05.2020
2472 Clear 18 1032 45 10000 2.6 30 16:21 28.05.2020
2473 Clear 18 1032 45 10000 2.6 30 15:59 28.05.2020
2474 Clear 18 1032 45 10000 3.6 20 15:40 28.05.2020
2475 Clear 18 1032 45 10000 3.6 20 15:22 28.05.2020
2476 Clear 17 1032 48 10000 2.6 360 14:42 28.05.2020
2477 Clear 16 1032 48 10000 2.6 360 14:23 28.05.2020
2478 Clear 17 1032 48 10000 2.6 360 13:48 28.05.2020
2479 Clear 17 1033 51 10000 4.6 340 13:30 28.05.2020
2480 Clear 16 1033 51 10000 4.6 340 12:59 28.05.2020
2481 Clear 16 1033 51 10000 5.1 360 12:38 28.05.2020
2482 Clear 16 1033 51 10000 5.1 360 12:18 28.05.2020
2483 Clear 15 1033 62 10000 4.6 330 11:41 28.05.2020
2484 Clear 15 1033 62 10000 4.6 330 11:23 28.05.2020
2485 Clear 14 1033 62 10000 4.6 330 10:56 28.05.2020
2486 Clear 14 1033 71 10000 3.1 340 10:38 28.05.2020
2487 Clear 14 1033 71 10000 3.1 340 10:18 28.05.2020
2488 Clear 13 1033 76 8000 4.6 340 09:39 28.05.2020
2489 Clear 11 1033 76 8000 4.6 340 09:19 28.05.2020
2490 Clear 12 1033 76 8000 4.6 340 08:47 28.05.2020
2491 Clear 10 1033 87 10000 4.1 330 08:26 28.05.2020
2492 Clear 9 1033 93 10000 2.6 300 07:45 28.05.2020
2493 Clear 9 1033 93 10000 2.6 300 07:26 28.05.2020
2494 Clear 9 1033 93 10000 2.6 300 06:57 28.05.2020
2495 Clear 8 1033 87 10000 4.6 330 06:37 28.05.2020
2496 Clear 8 1033 87 10000 4.6 330 05:56 28.05.2020
2497 Clear 8 1033 87 10000 4.1 330 05:35 28.05.2020
2498 Clear 8 1033 87 10000 6.7 320 04:28 28.05.2020
2499 Clear 8 1033 87 10000 6.7 320 03:46 28.05.2020
2500 Clear 8 1033 87 10000 5.1 320 02:45 28.05.2020
2501 Clouds 8 1033 87 10000 5.1 320 01:52 28.05.2020
2502 Clouds 9 1033 81 10000 4.6 330 00:55 28.05.2020
2503 Clouds 9 1033 71 10000 6.7 340 00:28 28.05.2020
2504 Clouds 10 1033 71 10000 6.7 340 23:58 27.05.2020
2505 Clouds 10 1033 66 10000 6.2 330 23:39 27.05.2020
2506 Clouds 11 1033 66 10000 6.2 330 23:21 27.05.2020
2507 Clouds 11 1033 66 10000 6.2 330 23:21 27.05.2020
2508 Clouds 11 1033 66 10000 6.2 330 22:58 27.05.2020
2509 Clouds 11 1032 58 10000 7.7 350 22:40 27.05.2020
2510 Clouds 12 1032 58 10000 7.7 350 22:21 27.05.2020
2511 Clouds 13 1032 58 10000 6.7 340 21:42 27.05.2020
2512 Clouds 13 1032 58 10000 6.7 340 21:24 27.05.2020
2513 Clouds 13 1032 58 10000 6.7 340 20:59 27.05.2020
2514 Clouds 14 1032 54 10000 7.2 360 20:41 27.05.2020
2515 Clouds 14 1032 54 10000 7.2 360 20:22 27.05.2020
2516 Clouds 14 1032 54 10000 7.2 360 19:59 27.05.2020
2517 Clouds 14 1032 51 10000 8.7 360 19:40 27.05.2020
2518 Clouds 14 1032 51 10000 8.7 360 19:19 27.05.2020
2519 Clouds 15 1032 48 10000 8.7 360 18:41 27.05.2020
2520 Clouds 15 1032 48 10000 8.7 360 18:20 27.05.2020
2521 Clouds 15 1032 48 10000 8.7 360 17:57 27.05.2020
2522 Clouds 16 1032 42 10000 9.8 360 17:38 27.05.2020
2523 Clouds 16 1032 42 10000 9.8 360 17:19 27.05.2020
2524 Clouds 16 1032 42 10000 9.8 360 16:55 27.05.2020
2525 Clouds 17 1032 45 10000 6.7 350 16:37 27.05.2020
2526 Clouds 18 1032 45 10000 6.7 350 16:18 27.05.2020
2527 Clouds 18 1032 48 10000 6.2 340 15:41 27.05.2020
2528 Clouds 19 1032 48 10000 6.2 340 15:21 27.05.2020
2529 Clouds 17 1032 55 10000 4.1 340 14:45 27.05.2020
2530 Clouds 18 1032 55 10000 4.1 340 14:22 27.05.2020
2531 Clouds 18 1032 55 10000 4.1 340 14:22 27.05.2020
2532 Clouds 18 1032 55 10000 4.1 340 14:22 27.05.2020
2533 Clouds 17 1032 55 10000 4.1 340 13:58 27.05.2020
2534 Clouds 17 1032 67 10000 4.6 330 13:39 27.05.2020
2535 Rain 17 1032 67 10000 4.6 330 13:20 27.05.2020
2536 Rain 17 1033 72 10000 4.6 330 12:42 27.05.2020
2537 Rain 16 1033 72 10000 4.6 330 12:23 27.05.2020
2538 Rain 17 1033 72 10000 4.6 330 11:55 27.05.2020
2539 Rain 16 1032 77 9000 4.1 310 11:36 27.05.2020
2540 Clouds 16 1032 77 9000 4.1 310 11:18 27.05.2020
2541 Clouds 14 1033 87 7000 4.1 290 10:42 27.05.2020
2542 Clouds 14 1033 87 7000 4.1 290 10:23 27.05.2020
2543 Clouds 14 1033 87 7000 4.1 290 09:56 27.05.2020
2544 Clouds 13 1033 87 7000 2.6 290 09:37 27.05.2020
2545 Clouds 13 1033 87 7000 2.6 290 09:19 27.05.2020
2546 Clouds 12 1033 93 10000 1.5 290 08:42 27.05.2020
2547 Clouds 11 1033 93 10000 1.5 290 08:24 27.05.2020
2548 Clouds 11 1033 93 10000 1.5 290 07:52 27.05.2020
2549 Clouds 11 1033 100 10000 2.6 300 07:34 27.05.2020
2550 Clouds 10 1033 100 10000 2.6 300 06:55 27.05.2020
2551 Clouds 10 1033 93 10000 2.1 300 06:30 27.05.2020
2552 Clouds 9 1033 93 10000 2.1 300 05:50 27.05.2020
2553 Clouds 8 1033 93 10000 3.1 310 05:25 27.05.2020
2554 Clouds 7 1033 93 10000 1.5 290 03:39 27.05.2020
2555 Clouds 7 1034 93 10000 1.5 310 02:30 27.05.2020
2556 Clouds 8 1034 93 10000 2.1 290 01:34 27.05.2020
2557 Clouds 8 1034 93 10000 2.1 290 00:58 27.05.2020
2558 Clouds 9 1034 87 10000 2.1 310 00:40 27.05.2020
2559 Clouds 10 1034 87 10000 2.1 310 00:18 27.05.2020
2560 Clouds 10 1034 87 10000 3.1 300 23:42 26.05.2020
2561 Clouds 11 1034 87 10000 3.1 300 23:24 26.05.2020
2562 Clouds 11 1034 87 10000 3.1 300 22:58 26.05.2020
2563 Clouds 12 1034 76 10000 3.6 310 22:38 26.05.2020
2564 Clouds 12 1034 76 10000 3.6 310 22:20 26.05.2020
2565 Clouds 13 1034 76 10000 3.6 310 21:56 26.05.2020
2566 Clouds 14 1034 72 10000 5.7 310 21:38 26.05.2020
2567 Clouds 15 1034 72 10000 5.7 310 21:19 26.05.2020
2568 Clouds 16 1034 67 10000 5.7 290 20:42 26.05.2020
2569 Clouds 16 1034 67 10000 5.7 290 20:21 26.05.2020
2570 Clouds 16 1034 67 10000 5.7 290 19:56 26.05.2020
2571 Clouds 17 1034 63 10000 5.7 280 19:37 26.05.2020
2572 Clouds 18 1034 63 10000 5.7 280 19:18 26.05.2020
2573 Clouds 18 1034 63 10000 5.1 290 18:41 26.05.2020
2574 Clouds 19 1034 63 10000 5.1 290 18:22 26.05.2020
2575 Clouds 19 1034 63 10000 5.1 290 17:55 26.05.2020
2576 Clouds 19 1034 59 10000 3.1 280 17:37 26.05.2020
2577 Clouds 19 1034 59 10000 3.1 280 17:19 26.05.2020
2578 Clouds 19 1035 63 10000 2.6 280 16:41 26.05.2020
2579 Clouds 18 1035 63 10000 2.6 280 16:19 26.05.2020
2580 Clouds 18 1035 63 10000 2.6 280 16:19 26.05.2020
2581 Clouds 18 1035 67 10000 1.5 320 15:44 26.05.2020
2582 Clouds 18 1035 67 10000 1.5 320 15:21 26.05.2020
2583 Clouds 18 1035 67 10000 1.5 320 14:59 26.05.2020
2584 Clouds 18 1035 67 10000 1.5 300 14:41 26.05.2020
2585 Clouds 17 1035 67 10000 1.5 300 14:22 26.05.2020
2586 Clouds 18 1035 67 10000 1.5 300 13:55 26.05.2020
2587 Clouds 16 1035 82 10000 1.5 310 13:37 26.05.2020
2588 Clouds 16 1035 82 10000 1.5 310 13:18 26.05.2020
2589 Clouds 15 1035 81 10000 1.5 0 12:41 26.05.2020
2590 Clouds 14 1035 81 10000 1.5 0 12:20 26.05.2020
2591 Clouds 13 1035 81 10000 1.5 0 11:57 26.05.2020
2592 Clouds 12 1036 93 10000 2.6 290 11:39 26.05.2020
2593 Clouds 11 1036 93 10000 2.6 290 11:18 26.05.2020
2594 Clouds 10 1035 100 6000 3.1 280 10:41 26.05.2020
2595 Clouds 10 1035 100 6000 3.1 280 10:41 26.05.2020
2596 Clouds 10 1035 100 6000 3.1 280 10:19 26.05.2020
2597 Clouds 9 1035 93 2400 1.5 260 09:40 26.05.2020
2598 Clouds 9 1035 93 2400 1.5 260 09:20 26.05.2020
2599 Clouds 9 1034 93 450 2.1 300 08:43 26.05.2020
2600 Clear 9 1034 93 450 2.1 300 08:22 26.05.2020
2601 Clear 9 1034 93 450 2.1 300 07:57 26.05.2020
2602 Clear 9 1034 100 600 3.1 280 07:37 26.05.2020
2603 Clear 8 1034 100 600 3.1 280 07:18 26.05.2020
2604 Clear 8 1034 100 1800 3.6 290 06:45 26.05.2020
2605 Clear 8 1034 100 1800 3.6 290 06:19 26.05.2020
2606 Clear 8 1034 93 400 3.6 300 05:35 26.05.2020
2607 Clear 8 1034 93 400 3.6 300 04:56 26.05.2020
2608 Clear 9 1034 93 4300 4.6 300 04:37 26.05.2020
2609 Clear 9 1034 93 4300 4.6 300 04:18 26.05.2020
2610 Clear 8 1034 93 10000 4.1 310 02:51 26.05.2020
2611 Clear 9 1033 87 10000 5.1 290 02:21 26.05.2020
2612 Clear 9 1033 93 10000 3.6 300 01:40 26.05.2020
2613 Clear 10 1033 87 10000 4.6 290 00:39 26.05.2020
2614 Clear 10 1033 87 10000 4.6 290 00:20 26.05.2020
2615 Clear 10 1033 87 10000 4.6 290 23:58 25.05.2020
2616 Clear 10 1033 87 10000 6.7 290 23:38 25.05.2020
2617 Clear 10 1033 87 10000 6.7 290 23:19 25.05.2020
2618 Clear 10 1033 87 10000 6.7 290 22:55 25.05.2020
2619 Clear 11 1032 76 10000 6.2 290 22:37 25.05.2020
2620 Clear 12 1032 76 10000 6.2 290 22:19 25.05.2020
2621 Clear 12 1032 76 10000 6.2 290 21:57 25.05.2020
2622 Clear 12 1032 82 10000 6.2 290 21:37 25.05.2020
2623 Clear 13 1032 82 10000 6.2 290 21:18 25.05.2020
2624 Clear 13 1032 82 10000 6.2 290 21:18 25.05.2020
2625 Clear 13 1032 82 10000 6.2 290 20:57 25.05.2020
2626 Clear 14 1031 76 10000 6.7 300 20:38 25.05.2020
2627 Clouds 14 1031 76 10000 6.7 300 20:19 25.05.2020
2628 Clouds 15 1031 72 10000 8.2 300 19:41 25.05.2020
2629 Clouds 15 1031 72 10000 8.2 300 19:20 25.05.2020
2630 Clouds 15 1031 72 10000 8.2 300 18:58 25.05.2020
2631 Clouds 16 1030 67 10000 5.1 300 18:40 25.05.2020
2632 Rain 16 1030 67 10000 5.1 300 18:21 25.05.2020
2633 Rain 17 1030 59 10000 4.1 300 17:44 25.05.2020
2634 Rain 18 1030 59 10000 4.1 300 17:25 25.05.2020
2635 Rain 18 1030 59 10000 4.1 300 16:58 25.05.2020
2636 Rain 18 1030 59 10000 4.1 300 16:58 25.05.2020
2637 Rain 17 1030 59 10000 2.6 330 16:40 25.05.2020
2638 Rain 17 1030 59 10000 2.6 330 16:21 25.05.2020
2639 Rain 18 1030 59 10000 2.6 330 15:55 25.05.2020
2640 Rain 17 1029 63 10000 7.7 320 15:36 25.05.2020
2641 Rain 18 1029 63 10000 7.7 320 15:18 25.05.2020
2642 Rain 16 1029 62 10000 8.2 320 14:42 25.05.2020
2643 Rain 16 1029 62 10000 8.2 320 14:23 25.05.2020
2644 Rain 16 1029 62 10000 8.2 320 13:56 25.05.2020
2645 Rain 15 1028 67 10000 9.8 320 13:37 25.05.2020
2646 Clouds 15 1028 67 10000 9.8 320 13:19 25.05.2020
2647 Clouds 15 1028 71 10000 10.3 310 12:40 25.05.2020
2648 Clouds 15 1028 71 10000 10.3 310 12:21 25.05.2020
2649 Clouds 14 1028 71 10000 10.3 310 11:58 25.05.2020
2650 Clouds 14 1027 71 10000 10.3 340 11:38 25.05.2020
2651 Clouds 13 1027 71 10000 10.3 340 11:19 25.05.2020
2652 Clouds 12 1027 76 10000 10.3 330 10:43 25.05.2020
2653 Clouds 12 1027 76 10000 10.3 330 10:21 25.05.2020
2654 Clouds 12 1027 76 10000 10.3 330 09:57 25.05.2020
2655 Clouds 11 1026 76 10000 8.7 320 09:38 25.05.2020
2656 Clouds 11 1026 76 10000 8.7 320 09:19 25.05.2020
2657 Clouds 11 1026 76 10000 8.7 320 08:57 25.05.2020
2658 Clouds 11 1026 81 10000 9.3 320 08:36 25.05.2020
2659 Clouds 10 1026 81 10000 9.3 320 08:18 25.05.2020
2660 Clouds 10 1025 81 10000 9.3 320 07:43 25.05.2020
2661 Clouds 10 1025 81 10000 9.3 320 07:21 25.05.2020
2662 Clouds 10 1025 81 10000 9.3 320 06:50 25.05.2020
2663 Clouds 10 1024 81 10000 10.3 310 06:31 25.05.2020
2664 Clouds 10 1023 76 10000 9.3 310 04:18 25.05.2020
2665 Clouds 10 1023 81 10000 10.8 310 03:23 25.05.2020
2666 Clouds 10 1023 87 10000 11.3 300 02:45 25.05.2020
2667 Clouds 10 1023 87 10000 11.3 300 01:57 25.05.2020
2668 Clouds 11 1023 81 10000 10.8 310 01:29 25.05.2020
2669 Clouds 11 1022 76 10000 12.3 290 00:42 25.05.2020
2670 Clouds 11 1022 76 10000 12.3 290 00:20 25.05.2020
2671 Clouds 11 1022 76 10000 12.3 290 23:57 24.05.2020
2672 Clouds 11 1022 76 10000 12.3 290 23:37 24.05.2020
2673 Clouds 11 1022 76 10000 12.3 290 23:18 24.05.2020
2674 Clouds 11 1022 71 10000 12.3 300 22:41 24.05.2020
2675 Clouds 11 1022 71 10000 12.3 300 22:19 24.05.2020
2676 Clouds 11 1022 71 10000 12.3 300 21:58 24.05.2020
2677 Clouds 11 1022 76 10000 11.3 290 21:40 24.05.2020
2678 Clouds 11 1022 76 10000 11.3 290 21:21 24.05.2020
2679 Clouds 12 1022 76 10000 11.3 290 20:57 24.05.2020
2680 Clouds 12 1022 76 10000 11.3 290 20:57 24.05.2020
2681 Clouds 12 1021 76 10000 12.3 300 20:38 24.05.2020
2682 Clouds 12 1021 76 10000 12.3 300 20:18 24.05.2020
2683 Clouds 12 1021 76 10000 12.3 300 19:56 24.05.2020
2684 Clouds 12 1021 71 10000 12.3 300 19:36 24.05.2020
2685 Clouds 12 1021 71 10000 12.3 300 19:18 24.05.2020
2686 Clouds 12 1021 71 10000 12.3 300 19:18 24.05.2020
2687 Clouds 13 1021 66 10000 14.4 290 18:42 24.05.2020
2688 Rain 13 1021 66 10000 14.4 290 18:23 24.05.2020
2689 Rain 13 1021 66 10000 14.4 290 17:57 24.05.2020
2690 Rain 13 1020 67 10000 12.3 290 17:38 24.05.2020
2691 Clouds 14 1020 67 10000 12.3 290 17:19 24.05.2020
2692 Clouds 14 1020 67 10000 12.3 290 16:56 24.05.2020
2693 Clouds 14 1020 67 10000 12.3 290 16:56 24.05.2020
2694 Clouds 14 1020 67 10000 11.8 270 16:36 24.05.2020
2695 Clouds 14 1020 67 10000 11.8 270 16:18 24.05.2020
2696 Clouds 14 1020 67 10000 11.8 270 15:55 24.05.2020
2697 Clouds 14 1020 71 10000 11.8 280 15:36 24.05.2020
2698 Rain 14 1020 71 10000 11.8 280 15:18 24.05.2020
2699 Rain 14 1020 71 10000 11.8 280 15:18 24.05.2020
2700 Rain 14 1019 81 10000 11.8 280 14:41 24.05.2020
2701 Rain 14 1019 81 10000 11.8 280 14:22 24.05.2020
2702 Rain 13 1019 81 10000 11.8 280 13:56 24.05.2020
2703 Rain 13 1019 81 10000 13.4 290 13:38 24.05.2020
2704 Rain 13 1019 81 10000 13.4 290 13:20 24.05.2020
2705 Rain 13 1019 81 10000 13.4 290 12:57 24.05.2020
2706 Rain 13 1019 71 10000 12.9 280 12:38 24.05.2020
2707 Rain 13 1019 71 10000 12.9 280 12:19 24.05.2020
2708 Rain 13 1019 71 10000 12.9 280 11:56 24.05.2020
2709 Rain 13 1019 71 10000 12.3 280 11:38 24.05.2020
2710 Rain 13 1019 71 10000 12.3 280 11:19 24.05.2020
2711 Rain 13 1019 71 10000 12.3 280 10:55 24.05.2020
2712 Rain 13 1018 71 10000 12.3 280 10:36 24.05.2020
2713 Rain 13 1018 71 10000 12.3 280 10:18 24.05.2020
2714 Rain 13 1018 71 10000 10.8 280 09:41 24.05.2020
2715 Rain 13 1018 71 10000 10.8 280 09:18 24.05.2020
2716 Rain 12 1018 71 10000 10.8 280 08:56 24.05.2020
2717 Rain 12 1018 76 10000 8.2 270 08:37 24.05.2020
2718 Rain 12 1018 76 10000 8.2 270 08:19 24.05.2020
2719 Rain 11 1017 81 10000 6.7 240 07:42 24.05.2020
2720 Rain 11 1017 81 10000 6.7 240 07:24 24.05.2020
2721 Rain 10 1017 87 10000 5.7 240 06:48 24.05.2020
2722 Rain 10 1017 87 10000 5.7 240 06:25 24.05.2020
2723 Clouds 10 1018 87 10000 11.8 280 04:54 24.05.2020
2724 Clouds 11 1018 76 10000 9.3 270 03:41 24.05.2020
2725 Clouds 12 1018 76 10000 8.7 260 02:42 24.05.2020
2726 Clouds 12 1018 76 10000 8.7 260 01:47 24.05.2020
2727 Clouds 12 1018 71 10000 6.2 240 00:41 24.05.2020
2728 Clouds 12 1018 71 10000 6.2 240 00:22 24.05.2020
2729 Clouds 11 1018 71 10000 5.7 240 23:44 23.05.2020
2730 Clear 11 1018 71 10000 5.7 240 23:25 23.05.2020
2731 Clear 11 1018 71 10000 5.7 240 22:59 23.05.2020
2732 Clear 12 1018 66 10000 8.7 260 22:39 23.05.2020
2733 Clear 12 1018 66 10000 8.7 260 22:20 23.05.2020
2734 Clear 12 1018 66 10000 8.7 260 21:58 23.05.2020
2735 Clear 13 1018 62 10000 11.3 270 21:40 23.05.2020
2736 Clear 13 1018 62 10000 11.3 270 21:20 23.05.2020
2737 Clear 13 1018 62 10000 11.3 270 20:59 23.05.2020
2738 Clear 13 1018 62 10000 12.9 270 20:39 23.05.2020
2739 Clear 13 1018 62 10000 12.9 270 20:19 23.05.2020
2740 Clear 14 1018 62 10000 12.9 270 19:55 23.05.2020
2741 Clear 14 1017 67 10000 12.3 280 19:37 23.05.2020
2742 Clear 14 1017 67 10000 12.3 280 19:18 23.05.2020
2743 Clear 14 1017 67 10000 12.3 280 19:18 23.05.2020
2744 Clear 14 1017 67 10000 12.3 280 18:41 23.05.2020
2745 Clear 14 1017 67 10000 12.3 280 18:22 23.05.2020
2746 Clear 14 1017 67 10000 12.3 280 17:58 23.05.2020
2747 Clear 14 1017 58 10000 12.9 260 17:40 23.05.2020
2748 Clear 15 1017 58 10000 12.9 260 17:20 23.05.2020
2749 Clear 15 1017 58 10000 12.9 260 16:59 23.05.2020
2750 Clear 15 1017 58 10000 12.9 260 16:59 23.05.2020
2751 Clear 15 1017 55 10000 12.9 260 16:40 23.05.2020
2752 Clear 16 1017 55 10000 12.9 260 16:20 23.05.2020
2753 Clear 16 1017 55 10000 12.9 260 15:56 23.05.2020
2754 Clear 16 1016 59 10000 12.9 260 15:38 23.05.2020
2755 Clear 16 1016 59 10000 12.9 260 15:20 23.05.2020
2756 Clear 16 1016 59 10000 12.9 270 14:41 23.05.2020
2757 Clouds 16 1016 59 10000 12.9 270 14:23 23.05.2020
2758 Clouds 16 1016 59 10000 12.9 270 14:23 23.05.2020
2759 Clouds 15 1016 59 10000 12.9 270 13:55 23.05.2020
2760 Clouds 16 1016 67 10000 10.3 270 13:37 23.05.2020
2761 Clouds 16 1016 67 10000 10.3 270 13:18 23.05.2020
2762 Clouds 16 1016 63 10000 9.3 270 12:41 23.05.2020
2763 Clouds 16 1016 63 10000 9.3 270 12:19 23.05.2020
2764 Clouds 15 1016 63 10000 9.3 270 11:57 23.05.2020
2765 Clouds 15 1015 67 10000 8.7 270 11:37 23.05.2020
2766 Clouds 15 1015 67 10000 8.7 270 11:19 23.05.2020
2767 Clouds 15 1015 67 10000 8.7 270 10:54 23.05.2020
2768 Clouds 15 1015 72 10000 7.7 270 10:36 23.05.2020
2769 Clouds 15 1015 72 10000 7.7 270 10:18 23.05.2020
2770 Clouds 14 1015 82 10000 4.1 250 09:42 23.05.2020
2771 Rain 13 1015 82 10000 4.1 250 09:24 23.05.2020
2772 Rain 14 1015 82 10000 4.1 250 08:58 23.05.2020
2773 Rain 13 1015 93 10000 5.1 230 08:38 23.05.2020
2774 Clouds 12 1015 93 10000 5.1 230 08:19 23.05.2020
2775 Clouds 12 1015 93 6000 4.1 230 07:44 23.05.2020
2776 Clouds 11 1015 93 6000 4.1 230 07:23 23.05.2020
2777 Clouds 11 1015 100 4600 4.1 230 06:43 23.05.2020
2778 Clouds 10 1015 100 4600 4.1 230 05:55 23.05.2020
2779 Clouds 11 1015 93 3200 4.1 230 03:55 23.05.2020
2780 Clouds 11 1015 93 4100 3.1 240 03:24 23.05.2020
2781 Clouds 11 1015 93 5000 3.6 230 02:40 23.05.2020
2782 Clouds 11 1015 93 5000 3.6 230 01:50 23.05.2020
2783 Clouds 12 1015 93 5000 3.1 230 01:18 23.05.2020
2784 Clouds 12 1015 93 3600 4.1 250 00:42 23.05.2020
2785 Clouds 12 1015 93 3600 4.1 250 00:19 23.05.2020
2786 Clouds 13 1015 93 4800 4.1 250 23:44 22.05.2020
2787 Clouds 13 1015 93 4800 4.1 250 23:22 22.05.2020
2788 Clouds 13 1015 93 4800 4.1 250 22:59 22.05.2020
2789 Clouds 14 1015 87 8000 4.1 230 22:40 22.05.2020
2790 Clouds 14 1015 87 8000 4.1 230 22:21 22.05.2020
2791 Clouds 14 1015 87 8000 4.1 230 21:54 22.05.2020
2792 Clouds 14 1014 87 10000 6.7 180 21:36 22.05.2020
2793 Rain 15 1014 87 10000 6.7 180 21:18 22.05.2020
2794 Rain 14 1014 93 10000 8.2 170 20:42 22.05.2020
2795 Rain 14 1014 93 10000 8.2 170 20:20 22.05.2020
2796 Rain 14 1014 93 10000 8.2 170 20:20 22.05.2020
2797 Rain 14 1015 93 8000 7.7 160 19:45 22.05.2020
2798 Rain 14 1015 93 8000 7.7 160 19:26 22.05.2020
2799 Rain 14 1015 93 8000 7.7 160 18:58 22.05.2020
2800 Rain 14 1014 93 5000 7.7 160 18:39 22.05.2020
2801 Rain 14 1014 93 5000 7.7 160 18:19 22.05.2020
2802 Rain 14 1014 87 7000 7.2 140 17:41 22.05.2020
2803 Rain 15 1014 87 7000 7.2 140 17:20 22.05.2020
2804 Rain 15 1014 87 7000 7.2 140 17:00 22.05.2020
2805 Rain 15 1017 87 6000 6.2 160 16:41 22.05.2020
2806 Rain 15 1017 87 6000 6.2 160 16:20 22.05.2020
2807 Rain 15 1017 87 6000 6.2 160 16:20 22.05.2020
2808 Rain 15 1017 87 6000 6.2 160 16:20 22.05.2020
2809 Rain 15 1017 87 6000 6.2 160 15:57 22.05.2020
2810 Rain 15 1017 77 9000 5.1 150 15:39 22.05.2020
2811 Rain 17 1017 77 9000 5.1 150 15:19 22.05.2020
2812 Rain 17 1017 72 10000 6.2 140 14:42 22.05.2020
2813 Clouds 16 1017 72 10000 6.2 140 14:24 22.05.2020
2814 Rain 16 1017 63 10000 5.1 140 13:45 22.05.2020
2815 Clouds 16 1017 63 10000 5.1 140 13:20 22.05.2020
2816 Clouds 17 1017 48 10000 4.6 150 12:44 22.05.2020
2817 Clouds 17 1017 48 10000 4.6 150 12:26 22.05.2020
2818 Clouds 17 1017 48 10000 4.6 150 11:59 22.05.2020
2819 Clouds 17 1018 48 10000 6.2 150 11:40 22.05.2020
2820 Clouds 18 1018 48 10000 6.2 150 11:20 22.05.2020
2821 Clouds 18 1018 48 10000 6.2 150 10:55 22.05.2020
2822 Clouds 19 1018 48 10000 4.6 140 10:36 22.05.2020
2823 Clouds 19 1018 48 10000 4.6 140 10:18 22.05.2020
2824 Clouds 16 1018 55 10000 3.6 150 09:41 22.05.2020
2825 Clouds 16 1018 55 10000 3.6 150 09:19 22.05.2020
2826 Clouds 14 1019 67 10000 3.1 150 08:44 22.05.2020
2827 Clouds 14 1019 67 10000 3.1 150 08:21 22.05.2020
2828 Clouds 14 1019 67 10000 3.1 150 08:21 22.05.2020
2829 Clouds 15 1019 67 10000 3.1 150 07:57 22.05.2020
2830 Clouds 13 1019 76 10000 3.1 130 07:27 22.05.2020
2831 Clouds 12 1019 76 10000 3.1 130 06:58 22.05.2020
2832 Clouds 12 1019 66 10000 3.6 140 06:40 22.05.2020
2833 Clouds 12 1020 66 10000 4.1 140 05:40 22.05.2020
2834 Clouds 12 1020 66 10000 4.1 140 04:51 22.05.2020
2835 Clouds 12 1020 66 10000 4.1 150 04:32 22.05.2020
2836 Clouds 12 1020 66 10000 4.1 150 03:48 22.05.2020
2837 Clouds 12 1021 71 10000 5.1 150 03:23 22.05.2020
2838 Clouds 12 1021 66 10000 4.6 160 01:57 22.05.2020
2839 Clouds 12 1021 71 10000 3.1 140 01:29 22.05.2020
2840 Clouds 13 1021 71 10000 3.1 140 00:49 22.05.2020
2841 Clouds 12 1022 81 10000 3.6 140 00:28 22.05.2020
2842 Clouds 12 1022 81 10000 3.6 140 23:54 21.05.2020
2843 Clouds 13 1022 71 10000 2.1 120 23:36 21.05.2020
2844 Clouds 13 1022 71 10000 2.1 120 23:18 21.05.2020
2845 Clouds 13 1022 71 10000 2.1 120 22:55 21.05.2020
2846 Clouds 14 1021 62 10000 4.6 140 22:36 21.05.2020
2847 Clouds 14 1021 62 10000 4.6 140 22:18 21.05.2020
2848 Clouds 14 1021 62 10000 4.6 140 22:18 21.05.2020
2849 Clouds 15 1021 55 10000 5.1 150 21:43 21.05.2020
2850 Clear 15 1021 55 10000 5.1 150 21:25 21.05.2020
2851 Clouds 16 1021 55 10000 5.1 150 20:54 21.05.2020
2852 Clouds 17 1021 48 10000 3.6 140 20:36 21.05.2020
2853 Clouds 17 1021 48 10000 3.6 140 20:18 21.05.2020
2854 Clouds 18 1021 49 10000 2.6 110 19:39 21.05.2020
2855 Clouds 19 1021 49 10000 2.6 110 19:19 21.05.2020
2856 Clouds 19 1022 49 10000 4.1 100 18:40 21.05.2020
2857 Rain 19 1022 49 10000 4.1 100 18:20 21.05.2020
2858 Rain 19 1022 49 10000 4.1 100 17:59 21.05.2020
2859 Rain 19 1022 49 10000 3.6 100 17:41 21.05.2020
2860 Rain 20 1022 49 10000 3.6 100 17:22 21.05.2020
2861 Rain 20 1022 49 10000 3.6 100 16:47 21.05.2020
2862 Rain 21 1023 46 10000 3.1 60 16:25 21.05.2020
2863 Rain 21 1023 46 10000 3.1 60 15:56 21.05.2020
2864 Rain 20 1023 52 10000 4.6 40 15:38 21.05.2020
2865 Rain 20 1023 52 10000 4.6 40 15:20 21.05.2020
2866 Rain 20 1023 52 10000 2.6 50 14:40 21.05.2020
2867 Clouds 20 1023 52 10000 2.6 50 14:19 21.05.2020
2868 Clouds 19 1023 59 10000 2.6 50 13:42 21.05.2020
2869 Clouds 19 1023 59 10000 2.6 50 13:23 21.05.2020
2870 Clouds 19 1023 59 10000 2.6 50 12:59 21.05.2020
2871 Clouds 19 1023 63 10000 3.6 40 12:38 21.05.2020
2872 Clouds 18 1023 63 10000 3.6 40 12:19 21.05.2020
2873 Clouds 18 1023 63 10000 3.6 40 11:55 21.05.2020
2874 Clouds 17 1024 77 10000 3.1 40 11:37 21.05.2020
2875 Clouds 17 1024 77 10000 3.1 40 11:19 21.05.2020
2876 Clouds 17 1024 76 10000 1.5 50 10:39 21.05.2020
2877 Clouds 16 1024 76 10000 1.5 50 10:21 21.05.2020
2878 Clouds 16 1024 76 10000 1.5 50 09:57 21.05.2020
2879 Clouds 15 1023 81 10000 0.5 0 09:39 21.05.2020
2880 Clouds 12 1023 81 10000 0.5 0 09:21 21.05.2020
2881 Clouds 12 1023 93 10000 1.58 170 08:48 21.05.2020
2882 Clouds 12 1023 93 10000 1.2 162 08:29 21.05.2020
2883 Clouds 10 1023 93 10000 1.2 162 07:49 21.05.2020
2884 Clouds 9 1023 93 10000 1 290 07:28 21.05.2020
2885 Clouds 9 1023 93 10000 1 290 06:55 21.05.2020
2886 Clouds 9 1023 93 10000 1 290 06:25 21.05.2020
2887 Clouds 8 1023 93 10000 1 290 05:49 21.05.2020
2888 Clouds 9 1023 93 10000 2.1 310 03:23 21.05.2020
2889 Clouds 9 1023 93 10000 2.1 310 02:57 21.05.2020
2890 Clouds 10 1023 87 10000 2.1 300 02:31 21.05.2020
2891 Clouds 10 1023 87 10000 2.1 300 01:50 21.05.2020
2892 Clouds 10 1023 87 10000 2.1 300 01:24 21.05.2020
2893 Clouds 10 1023 87 10000 2.1 300 00:54 21.05.2020
2894 Clouds 10 1023 87 10000 1.5 310 00:26 21.05.2020
2895 Clouds 10 1023 87 10000 1.5 310 23:58 20.05.2020
2896 Clouds 10 1023 87 10000 2.6 310 23:38 20.05.2020
2897 Clouds 11 1023 87 10000 2.6 310 23:18 20.05.2020
2898 Clouds 12 1023 71 10000 3.6 320 22:42 20.05.2020
2899 Clouds 12 1023 71 10000 3.6 320 22:42 20.05.2020
2900 Clouds 13 1023 71 10000 3.6 320 22:24 20.05.2020
2901 Clouds 13 1023 71 10000 3.6 320 21:56 20.05.2020
2902 Clouds 14 1023 63 10000 4.1 330 21:38 20.05.2020
2903 Clouds 15 1023 63 10000 4.1 330 21:19 20.05.2020
2904 Clouds 16 1022 59 10000 4.6 320 20:44 20.05.2020
2905 Clouds 16 1022 59 10000 4.6 320 20:23 20.05.2020
2906 Clouds 17 1023 59 10000 4.6 300 19:44 20.05.2020
2907 Clouds 17 1023 59 10000 4.6 300 19:25 20.05.2020
2908 Clouds 17 1023 59 10000 4.6 300 18:59 20.05.2020
2909 Clouds 17 1022 59 10000 4.6 310 18:40 20.05.2020
2910 Clouds 18 1022 59 10000 4.6 310 18:20 20.05.2020
2911 Clouds 18 1022 59 10000 4.6 310 18:20 20.05.2020
2912 Clouds 17 1022 51 10000 1.5 330 17:40 20.05.2020
2913 Rain 18 1022 51 10000 1.5 330 17:22 20.05.2020
2914 Rain 18 1022 51 10000 1.5 330 16:55 20.05.2020
2915 Rain 17 1023 55 10000 2.6 270 16:37 20.05.2020
2916 Clouds 17 1023 55 10000 2.6 270 16:18 20.05.2020
2917 Clouds 17 1023 48 10000 1.5 290 15:43 20.05.2020
2918 Clouds 17 1023 48 10000 1.5 290 15:43 20.05.2020
2919 Clouds 18 1023 48 10000 1.5 290 15:25 20.05.2020
2920 Clouds 17 1023 48 10000 1 280 14:44 20.05.2020
2921 Clouds 17 1023 48 10000 1 280 14:23 20.05.2020
2922 Clouds 17 1023 48 10000 1 280 13:55 20.05.2020
2923 Clouds 16 1023 55 10000 2.1 280 13:37 20.05.2020
2924 Clouds 16 1023 55 10000 2.1 280 13:18 20.05.2020
2925 Clouds 17 1023 59 8000 3.1 290 12:42 20.05.2020
2926 Clouds 16 1023 59 8000 3.1 290 12:21 20.05.2020
2927 Clouds 15 1023 54 10000 2.1 260 11:38 20.05.2020
2928 Clouds 15 1023 54 10000 2.1 260 11:20 20.05.2020
2929 Clouds 15 1023 54 10000 2.1 260 10:55 20.05.2020
2930 Clouds 15 1023 62 10000 1 0 10:37 20.05.2020
2931 Clouds 14 1023 62 10000 1 0 10:18 20.05.2020
2932 Clouds 13 1022 87 9000 1.5 280 09:41 20.05.2020
2933 Clouds 10 1022 87 9000 1.5 280 09:20 20.05.2020
2934 Clear 11 1022 100 10000 1 270 08:42 20.05.2020
2935 Clear 10 1022 100 10000 1 270 08:19 20.05.2020
2936 Clear 9 1022 100 10000 1 270 07:50 20.05.2020
2937 Clear 7 1022 100 4400 1.5 310 07:25 20.05.2020
2938 Clear 6 1022 100 4400 1.5 310 06:53 20.05.2020
2939 Clear 5 1022 93 6000 1 310 06:20 20.05.2020
2940 -273 0 0 0 0 0 04:59 20.05.2020
2941 Clear 5 1022 93 3200 1 290 04:19 20.05.2020
2942 Clear 6 1022 93 4600 2.6 310 03:35 20.05.2020
2943 Clouds 6 1022 93 10000 2.6 300 01:57 20.05.2020
2944 Clouds 7 1022 93 10000 1.5 320 01:24 20.05.2020
2945 Clouds 8 1021 87 10000 4.1 310 00:41 20.05.2020
2946 Clouds 8 1021 87 10000 4.1 310 00:22 20.05.2020
2947 Clouds 9 1021 76 10000 5.7 310 23:38 19.05.2020
2948 Clouds 9 1021 76 10000 5.7 310 23:19 19.05.2020
2949 Clouds 10 1021 76 10000 5.7 310 22:55 19.05.2020
2950 Clouds 10 1021 66 10000 5.1 320 22:37 19.05.2020
2951 Clear 10 1021 66 10000 5.1 320 22:18 19.05.2020
2952 Clear 11 1021 66 10000 5.1 320 21:55 19.05.2020
2953 Clear 12 1020 54 10000 6.7 330 21:36 19.05.2020
2954 Clear 12 1020 54 10000 6.7 330 21:18 19.05.2020
2955 Clear 13 1020 54 10000 6.7 330 20:56 19.05.2020
2956 Clear 14 1020 47 7000 8.2 320 20:38 19.05.2020
2957 Clear 14 1020 47 7000 8.2 320 20:19 19.05.2020
2958 Clear 15 1019 48 7000 10.3 320 19:39 19.05.2020
2959 Clear 15 1019 48 7000 10.3 320 19:20 19.05.2020
2960 Clear 15 1019 48 7000 10.3 320 18:55 19.05.2020
2961 Clear 16 1019 48 10000 9.3 340 18:36 19.05.2020
2962 Clear 16 1019 48 10000 9.3 340 18:18 19.05.2020
2963 Clear 17 1019 51 10000 9.8 310 17:40 19.05.2020
2964 Clear 17 1019 51 10000 9.8 310 17:21 19.05.2020
2965 Clear 17 1019 51 10000 9.8 310 16:58 19.05.2020
2966 Clear 17 1019 51 10000 9.3 320 16:38 19.05.2020
2967 Clear 17 1019 51 10000 9.3 320 16:19 19.05.2020
2968 Clear 16 1019 58 10000 10.3 330 15:44 19.05.2020
2969 Clear 17 1019 58 10000 10.3 330 15:21 19.05.2020
2970 Clear 16 1019 58 10000 10.3 330 14:56 19.05.2020
2971 Clear 16 1019 63 10000 7.2 300 14:38 19.05.2020
2972 Clouds 17 1019 63 10000 7.2 300 14:20 19.05.2020
2973 Clouds 17 1019 63 10000 7.2 300 13:57 19.05.2020
2974 Clouds 16 1018 72 10000 8.2 310 13:38 19.05.2020
2975 Rain 16 1018 72 10000 8.2 310 13:20 19.05.2020
2976 Rain 16 1018 72 10000 8.2 310 12:56 19.05.2020
2977 Rain 15 1018 82 10000 6.7 300 12:36 19.05.2020
2978 Clouds 14 1018 82 10000 6.7 300 12:18 19.05.2020
2979 Clouds 15 1018 82 10000 6.7 300 12:18 19.05.2020
2980 Clouds 14 1018 82 10000 9.8 300 11:42 19.05.2020
2981 Clouds 14 1018 82 10000 9.8 300 11:23 19.05.2020
2982 Clouds 13 1018 82 10000 9.8 300 10:58 19.05.2020
2983 Clouds 13 1017 87 10000 9.8 290 10:40 19.05.2020
2984 Clouds 12 1017 87 10000 9.8 290 10:21 19.05.2020
2985 Clouds 12 1017 87 10000 9.8 290 09:46 19.05.2020
2986 Clouds 11 1017 93 10000 7.7 280 09:25 19.05.2020
2987 Clouds 11 1017 93 7000 6.7 270 08:48 19.05.2020
2988 Clouds 11 1017 93 7000 6.7 270 08:26 19.05.2020
2989 Clouds 11 1017 93 7000 6.7 270 07:59 19.05.2020
2990 Clouds 11 1017 93 10000 6.2 260 07:41 19.05.2020
2991 Clouds 11 1017 93 10000 6.2 260 07:23 19.05.2020
2992 Clouds 11 1017 93 10000 8.2 280 06:41 19.05.2020
2993 Clouds 11 1017 93 10000 8.2 280 06:41 19.05.2020
2994 Clouds 11 1017 93 10000 8.2 280 06:19 19.05.2020
2995 Clouds 11 1017 93 10000 7.2 270 05:39 19.05.2020
2996 Clouds 11 1017 93 10000 7.2 270 04:54 19.05.2020
2997 Clouds 11 1017 93 8000 6.7 260 02:59 19.05.2020
2998 Clouds 11 1018 93 5000 6.7 270 01:21 19.05.2020
2999 Clouds 11 1018 93 5000 6.7 270 00:41 19.05.2020
3000 Clouds 11 1018 93 5000 6.7 270 00:19 19.05.2020
3001 Clouds 11 1018 93 8000 7.7 260 23:40 18.05.2020
3002 Clouds 11 1018 93 8000 7.7 260 23:21 18.05.2020
3003 Clouds 11 1018 93 8000 7.7 260 22:59 18.05.2020
3004 Clouds 11 1018 87 10000 7.7 260 22:39 18.05.2020
3005 Clouds 11 1018 87 10000 7.7 260 22:21 18.05.2020
3006 Clouds 11 1018 87 10000 6.7 270 21:43 18.05.2020
3007 Clouds 11 1018 87 10000 6.7 270 21:22 18.05.2020
3008 Clouds 11 1018 87 10000 6.7 270 20:58 18.05.2020
3009 Clouds 11 1018 87 10000 6.7 270 20:58 18.05.2020
3010 Clouds 12 1018 87 10000 6.7 270 20:40 18.05.2020
3011 Clouds 12 1018 87 10000 8.2 270 20:21 18.05.2020
3012 Clouds 12 1018 87 10000 8.2 270 20:21 18.05.2020
3013 Clouds 12 1018 87 10000 8.2 270 19:57 18.05.2020
3014 Clouds 12 1018 87 10000 10.8 280 19:38 18.05.2020
3015 Clouds 12 1018 87 10000 10.8 280 19:18 18.05.2020
3016 Clouds 12 1018 87 10000 11.3 280 18:45 18.05.2020
3017 Clouds 12 1018 87 10000 11.3 280 18:24 18.05.2020
3018 Clouds 12 1018 93 10000 9.3 270 17:41 18.05.2020
3019 Clouds 12 1018 93 10000 9.3 270 17:18 18.05.2020
3020 Clouds 12 1018 93 10000 9.3 270 16:59 18.05.2020
3021 Clouds 12 1018 93 10000 9.8 270 16:40 18.05.2020
3022 Clouds 12 1018 93 10000 9.8 270 16:20 18.05.2020
3023 Clouds 12 1018 93 10000 9.8 270 15:57 18.05.2020
3024 Clouds 12 1018 93 1900 8.2 260 15:39 18.05.2020
3025 Clouds 12 1018 93 1900 8.2 260 15:20 18.05.2020
3026 Clouds 12 1018 93 1900 8.2 260 14:56 18.05.2020
3027 Clouds 13 1017 87 4100 8.7 260 14:38 18.05.2020
3028 Rain 13 1017 87 4100 8.7 260 14:19 18.05.2020
3029 Rain 12 1018 93 3000 6.2 260 13:41 18.05.2020
3030 Rain 12 1018 93 3000 6.2 260 13:20 18.05.2020
3031 Rain 12 1018 93 3000 6.2 260 12:58 18.05.2020
3032 Rain 12 1018 87 4800 4.6 250 12:39 18.05.2020
3033 Rain 12 1018 87 4800 4.6 250 12:19 18.05.2020
3034 Rain 12 1018 87 4800 4.6 250 11:57 18.05.2020
3035 Rain 12 1018 87 5000 4.1 250 11:38 18.05.2020
3036 Rain 12 1018 87 5000 4.1 250 11:20 18.05.2020
3037 Rain 12 1017 81 7000 6.2 260 10:42 18.05.2020
3038 Rain 12 1017 81 7000 6.2 260 10:22 18.05.2020
3039 Rain 11 1017 87 10000 4.6 260 09:45 18.05.2020
3040 Rain 11 1017 87 10000 4.6 260 09:26 18.05.2020
3041 Rain 11 1017 87 10000 4.6 260 08:56 18.05.2020
3042 Rain 11 1017 87 7000 5.7 260 08:38 18.05.2020
3043 Clouds 11 1017 87 7000 5.7 260 08:19 18.05.2020
3044 Clouds 11 1017 87 10000 4.6 250 07:42 18.05.2020
3045 Clouds 11 1017 87 10000 4.6 250 07:21 18.05.2020
3046 Clouds 11 1017 87 6000 7.2 280 06:47 18.05.2020
3047 Clouds 11 1017 87 6000 7.2 280 06:21 18.05.2020
3048 Clouds 10 1017 87 5000 7.7 270 05:42 18.05.2020
3049 Clouds 10 1018 93 10000 7.7 270 03:38 18.05.2020
3050 Clouds 10 1018 93 5000 9.3 270 02:35 18.05.2020
3051 Clouds 10 1018 93 3000 8.2 280 01:45 18.05.2020
3052 Rain 10 1018 87 8000 9.8 280 00:38 18.05.2020
3053 Rain 10 1018 87 8000 9.8 280 00:18 18.05.2020
3054 Rain 10 1018 81 10000 10.3 280 23:42 17.05.2020
3055 Rain 10 1018 81 10000 10.3 280 23:42 17.05.2020
3056 Clouds 10 1018 81 10000 10.3 280 23:21 17.05.2020
3057 Clouds 10 1018 81 10000 10.3 280 22:59 17.05.2020
3058 Clouds 11 1018 81 10000 9.8 280 22:39 17.05.2020
3059 Clouds 11 1018 81 10000 9.8 280 22:39 17.05.2020
3060 Clouds 11 1018 81 10000 9.8 280 22:21 17.05.2020
3061 Clouds 11 1018 81 10000 9.8 280 21:59 17.05.2020
3062 Clouds 11 1018 81 10000 10.8 280 21:41 17.05.2020
3063 Clouds 11 1018 81 10000 10.8 280 21:19 17.05.2020
3064 Clouds 11 1018 81 10000 10.8 280 20:56 17.05.2020
3065 Clouds 11 1018 81 10000 12.9 280 20:37 17.05.2020
3066 Clouds 11 1018 81 10000 12.9 280 20:18 17.05.2020
3067 Clouds 11 1018 71 10000 14.4 290 19:42 17.05.2020
3068 Clouds 11 1018 71 10000 14.4 290 19:24 17.05.2020
3069 Clouds 12 1018 71 10000 14.4 290 18:56 17.05.2020
3070 Clouds 12 1018 71 10000 14.9 280 18:38 17.05.2020
3071 Clouds 12 1018 71 10000 14.9 280 18:20 17.05.2020
3072 Clouds 13 1018 62 10000 13.9 280 17:41 17.05.2020
3073 Clouds 13 1018 62 10000 13.9 280 17:23 17.05.2020
3074 Clouds 14 1018 62 10000 13.9 280 16:57 17.05.2020
3075 Clouds 14 1018 58 10000 16.5 280 16:39 17.05.2020
3076 Rain 15 1018 58 10000 16.5 280 16:20 17.05.2020
3077 Rain 15 1018 58 10000 14.4 280 15:46 17.05.2020
3078 Clouds 16 1018 58 10000 14.4 280 15:25 17.05.2020
3079 Clouds 15 1018 58 10000 14.4 280 14:58 17.05.2020
3080 Clouds 15 1018 58 10000 12.9 280 14:40 17.05.2020
3081 Clouds 16 1018 58 10000 12.9 280 14:21 17.05.2020
3082 Clouds 15 1018 58 10000 13.9 280 13:43 17.05.2020
3083 Rain 15 1018 58 10000 13.9 280 13:21 17.05.2020
3084 Rain 14 1018 71 10000 11.8 270 10:35 17.05.2020
3085 Rain 9 1017 81 10000 8.2 270 03:55 17.05.2020
3086 Clouds 8 1017 81 10000 6.7 270 02:28 17.05.2020
3087 Clouds 8 1017 81 10000 6.7 270 01:55 17.05.2020
3088 Clouds 8 1017 81 10000 7.7 270 00:56 17.05.2020
3089 Clouds 8 1017 81 10000 8.2 280 00:37 17.05.2020
3090 Clouds 8 1017 81 10000 8.2 280 23:57 16.05.2020
3091 Clouds 8 1017 81 10000 7.7 280 23:39 16.05.2020
3092 Clouds 8 1017 81 10000 7.7 280 23:19 16.05.2020
3093 Clouds 9 1017 81 10000 7.7 280 22:57 16.05.2020
3094 Clouds 9 1017 76 10000 9.3 300 22:39 16.05.2020
3095 Clouds 9 1017 76 10000 9.3 300 22:19 16.05.2020
3096 Clouds 10 1017 66 10000 10.8 290 21:44 16.05.2020
3097 Clouds 10 1017 66 10000 10.8 290 21:25 16.05.2020
3098 Clouds 10 1017 66 10000 10.8 290 20:57 16.05.2020
3099 Clouds 11 1017 62 10000 11.3 300 20:39 16.05.2020
3100 Clear 11 1017 62 10000 11.3 300 20:20 16.05.2020
3101 Clear 11 1017 62 10000 11.3 300 19:57 16.05.2020
3102 Clear 12 1017 58 10000 11.3 300 19:39 16.05.2020
3103 Clear 12 1017 58 10000 11.3 300 19:21 16.05.2020
3104 Clear 13 1017 50 10000 13.4 290 18:42 16.05.2020
3105 Clear 13 1017 50 10000 13.4 290 18:22 16.05.2020
3106 Clear 13 1017 50 10000 13.4 290 17:56 16.05.2020
3107 Clear 13 1017 54 10000 12.9 290 17:37 16.05.2020
3108 Clear 13 1017 54 10000 12.9 290 17:18 16.05.2020
3109 Clear 13 1017 54 10000 12.9 290 17:18 16.05.2020
3110 Clear 13 1017 58 10000 12.9 300 16:39 16.05.2020
3111 Clear 13 1017 58 10000 12.9 300 16:20 16.05.2020
3112 Clear 13 1017 58 10000 12.9 300 15:56 16.05.2020
3113 Clear 14 1017 54 10000 13.4 280 15:38 16.05.2020
3114 Clear 14 1017 54 10000 13.4 280 15:19 16.05.2020
3115 Clear 14 1017 58 10000 13.4 280 14:43 16.05.2020
3116 Rain 14 1017 58 10000 13.4 280 14:20 16.05.2020
3117 Rain 14 1017 58 10000 13.4 280 13:57 16.05.2020
3118 Rain 14 1017 54 10000 11.8 270 13:39 16.05.2020
3119 Rain 14 1017 54 10000 11.8 270 13:21 16.05.2020
3120 Rain 13 1017 62 10000 12.9 290 12:45 16.05.2020
3121 Rain 12 1017 62 10000 12.9 290 12:22 16.05.2020
3122 Rain 12 1017 62 10000 12.9 290 11:59 16.05.2020
3123 Rain 12 1017 66 10000 12.9 280 11:38 16.05.2020
3124 Rain 13 1017 66 10000 12.9 280 11:20 16.05.2020
3125 Rain 13 1017 66 10000 12.9 280 10:56 16.05.2020
3126 Rain 12 1017 71 10000 12.3 280 10:37 16.05.2020
3127 Rain 12 1017 71 10000 12.3 280 10:18 16.05.2020
3128 Rain 12 1017 66 10000 12.3 280 09:45 16.05.2020
3129 Clouds 12 1017 66 10000 12.3 280 09:27 16.05.2020
3130 Clouds 11 1017 71 10000 10.3 270 08:44 16.05.2020
3131 Clouds 11 1017 71 10000 10.3 270 08:22 16.05.2020
3132 Clouds 10 1017 71 10000 10.3 270 07:55 16.05.2020
3133 Clouds 10 1017 76 10000 9.3 270 07:37 16.05.2020
3134 Clouds 9 1017 76 10000 9.3 270 07:19 16.05.2020
3135 Clouds 9 1017 81 10000 9.3 270 06:44 16.05.2020
3136 Clouds 9 1017 81 10000 9.3 270 06:18 16.05.2020
3137 Clouds 9 1017 81 10000 9.8 280 05:40 16.05.2020
3138 Clouds 8 1017 81 10000 9.8 280 04:51 16.05.2020
3139 Clear 8 1017 81 10000 8.2 280 03:25 16.05.2020
3140 Clear 8 1017 81 10000 7.2 280 02:38 16.05.2020
3141 Clear 8 1017 81 10000 7.2 280 02:18 16.05.2020
3142 Clear 7 1017 81 10000 7.7 280 01:37 16.05.2020
3143 Clear 7 1017 81 10000 7.7 280 00:56 16.05.2020
3144 Clear 8 1018 76 10000 8.2 290 00:38 16.05.2020
3145 Clear 8 1018 76 10000 8.2 290 00:19 16.05.2020
3146 Clear 8 1018 76 10000 8.7 290 23:39 15.05.2020
3147 Clear 8 1018 76 10000 8.7 290 23:19 15.05.2020
3148 Clear 8 1017 81 10000 9.8 300 22:41 15.05.2020
3149 Clear 8 1017 81 10000 9.8 300 22:20 15.05.2020
3150 Clear 8 1017 81 10000 9.8 300 21:57 15.05.2020
3151 Clear 9 1017 81 10000 9.3 300 21:38 15.05.2020
3152 Clear 9 1017 81 10000 9.3 300 21:20 15.05.2020
3153 Clear 9 1017 81 10000 9.3 300 20:55 15.05.2020
3154 Clear 10 1017 66 10000 13.4 300 20:37 15.05.2020
3155 Clouds 10 1017 66 10000 13.4 300 20:18 15.05.2020
3156 Clouds 11 1017 62 10000 13.4 310 19:43 15.05.2020
3157 Clouds 11 1017 62 10000 13.4 310 19:23 15.05.2020
3158 Clouds 11 1017 62 10000 13.4 310 18:54 15.05.2020
3159 Clouds 11 1017 62 10000 13.4 310 18:54 15.05.2020
3160 Clouds 11 1017 62 10000 13.4 300 18:36 15.05.2020
3161 Rain 11 1017 62 10000 13.4 300 18:18 15.05.2020
3162 Rain 11 1017 62 10000 12.9 310 17:38 15.05.2020
3163 Rain 11 1017 62 10000 12.9 310 17:19 15.05.2020
3164 Rain 11 1017 62 10000 12.9 310 16:56 15.05.2020
3165 Rain 11 1016 62 10000 14.4 300 16:38 15.05.2020
3166 Rain 11 1016 62 10000 14.4 300 16:19 15.05.2020
3167 Rain 12 1016 62 10000 13.9 300 15:41 15.05.2020
3168 Rain 12 1016 62 10000 13.9 300 15:21 15.05.2020
3169 Rain 12 1016 62 10000 13.9 300 14:58 15.05.2020
3170 Rain 11 1016 66 10000 13.9 310 14:40 15.05.2020
3171 Rain 11 1016 66 10000 13.9 310 14:22 15.05.2020
3172 Rain 12 1016 66 10000 12.3 300 13:43 15.05.2020
3173 Rain 12 1016 66 10000 12.3 300 13:23 15.05.2020
3174 Rain 11 1016 66 10000 12.3 300 12:59 15.05.2020
3175 Rain 10 1016 81 10000 11.8 290 12:39 15.05.2020
3176 Rain 10 1016 81 10000 11.8 290 12:18 15.05.2020
3177 Rain 10 1016 81 10000 11.8 290 11:56 15.05.2020
3178 Rain 10 1016 76 10000 9.3 290 11:38 15.05.2020
3179 Rain 11 1016 76 10000 9.3 290 11:19 15.05.2020
3180 Rain 10 1016 76 10000 9.3 290 10:57 15.05.2020
3181 Rain 11 1017 71 10000 8.7 300 10:38 15.05.2020
3182 Clouds 10 1017 71 10000 8.7 300 10:20 15.05.2020
3183 Clouds 10 1017 71 10000 8.7 300 09:56 15.05.2020
3184 Rain 10 1017 76 10000 6.2 290 09:36 15.05.2020
3185 Clouds 10 1017 76 10000 6.2 290 09:18 15.05.2020
3186 Clouds 9 1017 87 10000 5.7 280 08:38 15.05.2020
3187 Clouds 9 1017 87 10000 5.7 280 08:20 15.05.2020
3188 Clouds 9 1017 87 10000 5.7 280 08:20 15.05.2020
3189 Clouds 8 1017 87 10000 5.7 280 07:47 15.05.2020
3190 Clouds 8 1017 87 10000 5.7 270 07:28 15.05.2020
3191 Clouds 7 1017 87 10000 5.7 270 06:59 15.05.2020
3192 Clouds 7 1017 81 10000 6.2 260 06:32 15.05.2020
3193 Clouds 7 1017 75 10000 7.2 260 05:33 15.05.2020
3194 Clouds 6 1018 81 10000 5.7 250 03:52 15.05.2020
3195 Clouds 5 1018 75 10000 5.1 250 02:58 15.05.2020
3196 Clear 4 1019 75 10000 5.7 270 01:37 15.05.2020
3197 Clear 4 1019 75 10000 5.7 270 01:19 15.05.2020
3198 Clear 4 1019 81 10000 6.2 280 00:43 15.05.2020
3199 Clear 4 1019 81 10000 6.2 280 00:22 15.05.2020
3200 Clear 5 1019 70 10000 6.2 280 23:41 14.05.2020
3201 Clear 5 1019 70 10000 6.2 280 23:20 14.05.2020
3202 Clear 5 1019 70 10000 6.2 280 22:55 14.05.2020
3203 Clear 6 1019 65 10000 7.2 300 22:37 14.05.2020
3204 Clear 6 1019 65 10000 7.2 300 22:18 14.05.2020
3205 Clear 7 1019 61 10000 8.2 310 21:42 14.05.2020
3206 Clear 7 1019 61 10000 8.2 310 21:42 14.05.2020
3207 Clear 8 1019 61 10000 8.2 310 21:20 14.05.2020
3208 -273 0 0 0 0 0 20:59 14.05.2020
3209 Clear 9 1019 84 10000 8.2 300 20:40 14.05.2020
3210 Clouds 10 1019 76 10000 8.2 300 20:20 14.05.2020
3211 Clouds 10 1019 76 10000 8.2 300 19:57 14.05.2020
3212 Clouds 10 1019 50 10000 9.3 310 19:39 14.05.2020
3213 Clouds 10 1019 50 10000 9.3 310 19:20 14.05.2020
3214 Clouds 11 1019 50 10000 9.3 310 18:57 14.05.2020
3215 Clouds 11 1019 53 10000 8.2 340 18:38 14.05.2020
3216 Clouds 11 1019 53 10000 8.2 340 18:19 14.05.2020
3217 Clouds 11 1019 53 10000 8.2 340 17:57 14.05.2020
3218 Clouds 11 1019 53 10000 9.8 330 17:37 14.05.2020
3219 Clouds 11 1019 53 10000 9.8 330 17:18 14.05.2020
3220 Clouds 11 1019 53 10000 9.8 330 16:57 14.05.2020
3221 Clouds 11 1019 50 10000 8.7 330 16:37 14.05.2020
3222 Clouds 11 1019 50 10000 8.7 330 16:18 14.05.2020
3223 Clouds 11 1019 50 10000 8.7 330 15:55 14.05.2020
3224 Clouds 11 1019 43 10000 6.2 320 15:36 14.05.2020
3225 Clouds 11 1019 43 10000 6.2 320 15:18 14.05.2020
3226 Clouds 11 1019 43 10000 6.2 330 14:40 14.05.2020
3227 Clouds 11 1019 43 10000 6.2 330 14:20 14.05.2020
3228 Clouds 11 1019 43 10000 6.2 330 13:57 14.05.2020
3229 Clouds 11 1019 43 10000 7.2 320 13:38 14.05.2020
3230 Clouds 11 1019 43 10000 7.2 320 13:20 14.05.2020
3231 Clouds 11 1019 43 10000 7.2 320 12:58 14.05.2020
3232 Clouds 10 1019 49 10000 8.2 340 12:39 14.05.2020
3233 Clouds 9 1019 49 10000 8.2 340 12:20 14.05.2020
3234 Clouds 10 1019 49 10000 8.2 340 11:57 14.05.2020
3235 Clouds 10 1018 49 10000 8.2 330 11:39 14.05.2020
3236 Clouds 9 1018 49 10000 8.2 330 11:20 14.05.2020
3237 Clouds 9 1018 49 10000 8.2 330 11:20 14.05.2020
3238 Clouds 9 1018 49 10000 8.2 330 10:55 14.05.2020
3239 Clouds 9 1018 56 10000 7.2 340 10:36 14.05.2020
3240 Clear 8 1018 57 10000 7.2 340 10:18 14.05.2020
3241 Clear 8 1018 65 7000 4.6 320 09:42 14.05.2020
3242 Clear 8 1018 65 7000 4.6 320 09:22 14.05.2020
3243 Clear 6 1018 80 10000 5.7 330 08:41 14.05.2020
3244 Clear 6 1018 80 10000 5.7 330 08:20 14.05.2020
3245 Clear 5 1018 80 10000 5.7 330 07:46 14.05.2020
3246 Clear 5 1017 80 10000 5.1 330 07:25 14.05.2020
3247 Clear 4 1017 80 10000 5.1 330 06:55 14.05.2020
3248 Clear 3 1017 80 10000 5.7 330 06:31 14.05.2020
3249 Clear 2 1017 92 10000 5.7 330 05:57 14.05.2020
3250 Clear 1 1016 92 10000 4.1 340 05:35 14.05.2020
3251 Clear 2 1016 94 10000 4.1 330 04:32 14.05.2020
3252 Clear 2 1016 92 10000 4.1 350 03:28 14.05.2020
3253 Clear 3 1016 65 10000 5.1 360 02:43 14.05.2020
3254 Clouds 3 1016 65 10000 5.1 360 02:18 14.05.2020
3255 Clouds 4 1015 60 10000 6.2 360 01:35 14.05.2020
3256 Clouds 5 1015 60 10000 6.2 360 00:50 14.05.2020
3257 Clouds 5 1015 70 10000 3.1 330 00:25 14.05.2020
3258 Clouds 6 1014 65 10000 5.1 360 23:45 13.05.2020
3259 Clouds 6 1014 65 10000 5.1 360 23:22 13.05.2020
3260 Clouds 6 1014 65 10000 5.1 360 22:56 13.05.2020
3261 Clouds 7 1014 81 10000 4.6 350 22:38 13.05.2020
3262 Clear 7 1014 82 10000 4.6 350 22:19 13.05.2020
3263 Clear 7 1014 82 10000 4.6 350 21:57 13.05.2020
3264 Clear 7 1013 45 10000 2.1 140 21:38 13.05.2020
3265 Clouds 8 1013 45 10000 2.1 140 21:19 13.05.2020
3266 Clouds 9 1013 29 10000 1.5 110 20:41 13.05.2020
3267 Clouds 10 1013 29 10000 1.5 110 20:23 13.05.2020
3268 Clouds 10 1013 29 10000 1.5 110 19:56 13.05.2020
3269 Clouds 11 1013 32 10000 2.1 60 19:38 13.05.2020
3270 Clouds 11 1013 32 10000 2.1 60 19:19 13.05.2020
3271 Clouds 11 1013 32 10000 3.1 50 18:42 13.05.2020
3272 Clouds 11 1013 32 10000 3.1 50 18:21 13.05.2020
3273 Clouds 11 1013 32 10000 3.1 50 17:57 13.05.2020
3274 Clouds 11 1013 32 10000 5.1 40 17:37 13.05.2020
3275 Clouds 11 1013 32 10000 5.1 40 17:18 13.05.2020
3276 Clouds 11 1013 32 10000 5.1 40 17:18 13.05.2020
3277 Clouds 11 1013 46 10000 2.6 30 16:40 13.05.2020
3278 Clouds 11 1013 46 10000 2.6 30 16:19 13.05.2020
3279 Clouds 11 1013 46 10000 2.6 30 15:55 13.05.2020
3280 Clouds 10 1013 47 10000 3.6 50 15:36 13.05.2020
3281 Clouds 10 1013 47 10000 3.6 50 15:18 13.05.2020
3282 Clouds 10 1012 49 10000 5.7 50 14:42 13.05.2020
3283 Clouds 10 1012 49 10000 5.7 50 14:42 13.05.2020
3284 Clouds 10 1012 49 10000 5.7 50 14:23 13.05.2020
3285 Clouds 10 1012 49 10000 5.7 50 13:59 13.05.2020
3286 Clouds 10 1012 57 10000 6.7 40 13:41 13.05.2020
3287 Clouds 10 1012 57 10000 6.7 40 13:21 13.05.2020
3288 Clouds 10 1013 51 10000 4.1 50 12:58 13.05.2020
3289 Clouds 9 1013 65 10000 4.1 40 12:39 13.05.2020
3290 Clouds 9 1013 65 10000 4.1 40 12:20 13.05.2020
3291 Clouds 8 1012 65 0 3.58 53 11:56 13.05.2020
3292 Clouds 8 1012 65 0 2.68 50 11:37 13.05.2020
3293 Clouds 8 1012 66 0 2.68 70 11:19 13.05.2020
3294 Clouds 8 1011 74 0 2.68 63 10:57 13.05.2020
3295 Clouds 7 1011 76 0 2.68 38 10:38 13.05.2020
3296 Clouds 7 1011 77 0 3.13 41 10:19 13.05.2020
3297 Clouds 6 1011 84 0 1.34 39 09:46 13.05.2020
3298 Clouds 6 1011 86 0 1.34 16 09:24 13.05.2020
3299 Clouds 5 1011 86 10000 3.1 20 08:58 13.05.2020
3300 Clouds 5 1011 87 10000 2.6 30 08:39 13.05.2020
3301 Clouds 5 1011 91 0 0.89 57 08:20 13.05.2020
3302 Clouds 5 1010 92 0 1.34 25 07:52 13.05.2020
3303 Clouds 5 1010 92 0 0.89 56 07:32 13.05.2020
3304 Clouds 4 1010 93 10000 3.6 220 06:52 13.05.2020
3305 Clouds 4 1010 93 10000 3.6 220 06:34 13.05.2020
3306 Rain 4 1010 86 10000 4.1 220 05:37 13.05.2020
3307 Rain 4 1010 86 10000 5.1 240 03:49 13.05.2020
3308 Clouds 4 1010 80 10000 4.6 230 02:38 13.05.2020
3309 Clouds 4 1011 80 10000 4.6 230 01:46 13.05.2020
3310 Clouds 4 1011 80 10000 4.6 230 00:58 13.05.2020
3311 Clouds 4 1011 80 10000 4.1 240 00:23 13.05.2020
3312 Clouds 4 1011 80 10000 4.1 240 23:59 12.05.2020
3313 Clouds 5 1011 81 10000 4.1 250 23:39 12.05.2020
3314 Clouds 5 1011 81 10000 4.1 250 23:20 12.05.2020
3315 Clouds 6 1011 70 10000 6.2 270 22:42 12.05.2020
3316 Clouds 6 1011 70 10000 6.2 270 22:22 12.05.2020
3317 Clouds 7 1011 70 10000 6.2 270 21:57 12.05.2020
3318 Clouds 7 1011 81 10000 6.2 290 21:38 12.05.2020
3319 Clouds 7 1011 81 10000 6.2 290 21:20 12.05.2020
3320 Clouds 7 1011 81 10000 6.2 290 20:59 12.05.2020
3321 Clouds 7 1011 81 10000 6.2 290 20:59 12.05.2020
3322 Clouds 7 1011 81 10000 6.2 300 20:40 12.05.2020
3323 Clouds 7 1011 81 10000 6.2 300 20:22 12.05.2020
3324 Clouds 7 1011 81 10000 6.2 300 19:59 12.05.2020
3325 Clouds 8 1011 61 10000 11.8 310 19:40 12.05.2020
3326 Clouds 8 1011 61 10000 11.8 310 19:21 12.05.2020
3327 Clouds 8 1011 61 10000 11.8 310 18:58 12.05.2020
3328 Clouds 9 1011 61 10000 11.8 300 18:39 12.05.2020
3329 Rain 9 1011 61 10000 11.8 300 18:21 12.05.2020
3330 Rain 9 1011 66 10000 10.8 290 17:43 12.05.2020
3331 Rain 9 1011 66 10000 10.8 290 17:24 12.05.2020
3332 Rain 10 1011 66 10000 10.8 290 16:58 12.05.2020
3333 Rain 10 1011 53 10000 11.8 290 16:40 12.05.2020
3334 Rain 10 1011 53 10000 11.8 290 16:19 12.05.2020
3335 Rain 10 1011 53 10000 11.8 290 15:54 12.05.2020
3336 Rain 10 1011 57 10000 12.3 290 15:36 12.05.2020
3337 Rain 11 1011 57 10000 12.3 290 15:18 12.05.2020
3338 Rain 11 1011 57 10000 12.3 290 14:54 12.05.2020
3339 Rain 11 1011 61 10000 10.8 300 14:36 12.05.2020
3340 Rain 11 1011 61 10000 10.8 300 14:18 12.05.2020
3341 Rain 10 1011 61 10000 10.8 300 13:54 12.05.2020
3342 Rain 9 1012 75 10000 10.3 290 13:36 12.05.2020
3343 Rain 10 1012 75 10000 10.3 290 13:18 12.05.2020
3344 Rain 9 1012 75 10000 10.3 290 12:54 12.05.2020
3345 Rain 10 1012 76 10000 9.3 280 12:36 12.05.2020
3346 Rain 9 1012 76 10000 9.3 280 12:18 12.05.2020
3347 Rain 8 1012 76 10000 9.3 280 11:55 12.05.2020
3348 Rain 9 1013 75 10000 7.2 310 11:36 12.05.2020
3349 Rain 9 1013 75 10000 7.2 310 11:18 12.05.2020
3350 Rain 8 1013 75 10000 7.2 310 10:54 12.05.2020
3351 Rain 8 1013 61 10000 9.3 300 10:36 12.05.2020
3352 Rain 8 1013 61 10000 9.3 300 10:18 12.05.2020
3353 Rain 8 1013 61 10000 9.3 300 09:54 12.05.2020
3354 Rain 8 1013 70 10000 5.7 310 09:36 12.05.2020
3355 Clouds 8 1013 70 10000 5.7 310 09:18 12.05.2020
3356 Clouds 7 1013 80 10000 7.2 280 08:39 12.05.2020
3357 Clouds 6 1013 80 10000 7.2 280 08:19 12.05.2020
3358 Clouds 6 1014 80 10000 8.7 280 07:44 12.05.2020
3359 Clouds 5 1014 80 10000 8.7 280 07:25 12.05.2020
3360 Clouds 5 1014 80 10000 8.7 280 06:55 12.05.2020
3361 Clouds 4 1014 75 10000 6.7 280 06:36 12.05.2020
3362 Clouds 3 1014 75 10000 6.7 280 06:18 12.05.2020
3363 Clouds 4 1014 75 10000 6.7 300 05:44 12.05.2020
3364 Clouds 3 1014 75 10000 7.2 300 03:48 12.05.2020
3365 Clouds 4 1014 75 10000 6.2 300 02:53 12.05.2020
3366 Clear 4 1014 75 10000 7.2 320 02:26 12.05.2020
3367 Clear 4 1014 75 10000 7.2 320 01:33 12.05.2020
3368 Clear 4 1013 70 10000 7.2 320 00:40 12.05.2020
3369 Clear 4 1013 70 10000 7.2 320 00:21 12.05.2020
3370 Clear 5 1013 70 10000 7.2 320 23:55 11.05.2020
3371 Clear 5 1013 84 10000 8.7 330 23:37 11.05.2020
3372 Clear 5 1013 79 10000 8.7 330 23:18 11.05.2020
3373 Clear 6 1013 79 10000 8.7 330 22:54 11.05.2020
3374 Clear 6 1012 56 10000 9.3 330 22:36 11.05.2020
3375 Clear 6 1012 56 10000 9.3 330 22:18 11.05.2020
3376 Clear 6 1012 56 10000 9.3 330 21:54 11.05.2020
3377 Clear 7 1012 45 10000 11.3 340 21:36 11.05.2020
3378 Clear 8 1012 45 10000 11.3 340 21:18 11.05.2020
3379 Clear 8 1012 39 10000 10.3 340 20:42 11.05.2020
3380 Clouds 9 1012 39 10000 10.3 340 20:21 11.05.2020
3381 Clouds 9 1012 39 10000 10.3 340 19:59 11.05.2020
3382 Clouds 9 1012 37 10000 9.3 340 19:41 11.05.2020
3383 Clouds 10 1012 37 10000 9.3 340 19:22 11.05.2020
3384 Clouds 10 1012 37 10000 9.3 340 18:57 11.05.2020
3385 Clouds 10 1012 34 10000 7.2 40 18:38 11.05.2020
3386 Rain 11 1012 34 10000 7.2 40 18:19 11.05.2020
3387 Rain 10 1012 34 10000 7.2 40 17:57 11.05.2020
3388 Rain 11 1012 32 10000 3.6 360 17:39 11.05.2020
3389 Rain 11 1012 32 10000 3.6 360 17:20 11.05.2020
3390 Rain 11 1012 32 10000 3.6 360 16:56 11.05.2020
3391 Rain 12 1012 34 10000 6.7 10 16:37 11.05.2020
3392 Rain 11 1012 34 10000 6.7 10 16:18 11.05.2020
3393 Rain 11 1013 32 10000 5.7 40 15:42 11.05.2020
3394 Rain 11 1013 32 10000 5.7 40 15:20 11.05.2020
3395 Rain 11 1013 32 10000 5.7 40 14:58 11.05.2020
3396 Rain 10 1013 34 10000 7.7 40 14:40 11.05.2020
3397 Clouds 10 1013 34 10000 7.7 40 14:21 11.05.2020
3398 Clouds 11 1013 34 10000 7.7 40 13:54 11.05.2020
3399 Clouds 10 1013 39 10000 9.8 20 13:36 11.05.2020
3400 Clear 10 1013 39 10000 9.8 20 13:18 11.05.2020
3401 Clear 10 1013 39 10000 9.8 20 12:54 11.05.2020
3402 Clear 10 1013 45 10000 10.3 30 12:36 11.05.2020
3403 Clear 9 1013 45 10000 10.3 30 12:18 11.05.2020
3404 Clear 9 1013 49 10000 12.9 30 11:41 11.05.2020
3405 Clear 9 1013 49 10000 12.9 30 11:22 11.05.2020
3406 Clear 9 1013 49 10000 12.9 30 10:58 11.05.2020
3407 Clear 8 1012 52 10000 12.3 30 10:40 11.05.2020
3408 Clear 8 1012 52 10000 12.3 30 10:21 11.05.2020
3409 Clear 8 1012 52 10000 12.3 30 09:58 11.05.2020
3410 Clear 8 1011 57 10000 11.3 20 09:39 11.05.2020
3411 Clouds 7 1011 61 10000 11.3 20 09:19 11.05.2020
3412 Clouds 7 1011 61 10000 11.3 20 08:55 11.05.2020
3413 Clouds 6 1011 75 10000 9.3 20 08:37 11.05.2020
3414 Clouds 6 1011 75 10000 9.3 20 08:18 11.05.2020
3415 Clouds 5 1011 80 10000 7.7 10 07:42 11.05.2020
3416 Clouds 5 1011 80 10000 7.7 10 07:23 11.05.2020
3417 Clouds 4 1010 80 10000 7.7 360 06:41 11.05.2020
3418 Clouds 3 1010 80 10000 7.7 360 05:58 11.05.2020
3419 Clouds 3 1010 80 10000 7.2 360 05:25 11.05.2020
3420 Clouds 4 1009 75 10000 7.2 340 04:31 11.05.2020
3421 Clouds 4 1009 75 10000 7.7 330 02:59 11.05.2020
3422 Clouds 5 1009 70 10000 8.7 340 02:29 11.05.2020
3423 Clouds 6 1009 70 10000 10.8 340 01:34 11.05.2020
3424 Clouds 6 1009 70 10000 10.8 340 00:52 11.05.2020
3425 Clouds 6 1009 69 10000 9.3 350 00:19 11.05.2020
3426 Clouds 7 1009 69 10000 11.3 360 23:43 10.05.2020
3427 Clouds 7 1009 67 10000 11.3 360 23:24 10.05.2020
3428 Clouds 7 1009 67 10000 11.3 360 22:57 10.05.2020
3429 Clouds 7 1009 56 10000 10.8 350 22:38 10.05.2020
3430 Clouds 7 1009 56 10000 10.8 350 22:20 10.05.2020
3431 Clouds 8 1009 52 10000 10.3 350 21:44 10.05.2020
3432 Clouds 8 1009 52 10000 10.3 350 21:20 10.05.2020
3433 Clouds 8 1009 52 10000 10.3 350 20:55 10.05.2020
3434 Clouds 8 1008 64 10000 11.8 350 20:37 10.05.2020
3435 Clouds 8 1008 59 10000 11.8 350 20:19 10.05.2020
3436 Clouds 9 1007 59 10000 10.3 360 19:41 10.05.2020
3437 Clouds 10 1007 58 10000 10.3 360 19:22 10.05.2020
3438 Clouds 10 1007 58 10000 10.3 360 18:57 10.05.2020
3439 Clouds 11 1007 54 10000 10.3 350 18:38 10.05.2020
3440 Clouds 11 1007 54 10000 10.3 350 18:19 10.05.2020
3441 Clouds 11 1007 54 10000 10.3 350 17:59 10.05.2020
3442 Clouds 13 1007 54 10000 8.7 350 17:40 10.05.2020
3443 Clouds 13 1007 54 10000 8.7 350 17:22 10.05.2020
3444 Clouds 13 1007 54 10000 8.7 350 16:59 10.05.2020
3445 Clouds 14 1006 67 10000 10.3 340 16:40 10.05.2020
3446 Clouds 15 1006 67 10000 10.3 340 16:19 10.05.2020
3447 Clouds 15 1006 67 10000 10.3 340 15:55 10.05.2020
3448 Clouds 18 1006 63 10000 8.2 330 15:36 10.05.2020
3449 Clouds 16 1006 63 10000 8.2 330 15:18 10.05.2020
3450 Clouds 17 1006 63 10000 8.2 330 14:55 10.05.2020
3451 Clouds 17 1006 52 10000 5.7 320 14:37 10.05.2020
3452 Clouds 18 1006 52 10000 5.7 320 14:18 10.05.2020
3453 Clouds 18 1006 59 10000 1.5 330 13:39 10.05.2020
3454 Clouds 19 1006 59 10000 1.5 330 13:21 10.05.2020
3455 Clouds 19 1006 59 10000 1.5 330 12:59 10.05.2020
3456 Clouds 18 1006 55 10000 2.1 290 12:41 10.05.2020
3457 Clouds 19 1006 55 10000 2.1 290 12:21 10.05.2020
3458 Clouds 18 1006 55 10000 2.1 290 11:58 10.05.2020
3459 Clouds 17 1007 63 10000 0.5 0 11:40 10.05.2020
3460 Clouds 17 1007 63 10000 0.5 0 11:40 10.05.2020
3461 Clouds 17 1007 63 10000 0.5 0 11:21 10.05.2020
3462 Clouds 17 1007 63 10000 0.5 0 10:54 10.05.2020
3463 Clouds 16 1007 82 6000 1 320 10:36 10.05.2020
3464 Clouds 16 1007 82 6000 1 320 10:18 10.05.2020
3465 Clouds 15 1007 93 2600 0.5 0 09:41 10.05.2020
3466 Clouds 12 1007 93 2600 0.5 0 09:22 10.05.2020
3467 Clouds 14 1007 93 2600 0.5 0 08:55 10.05.2020
3468 Clouds 12 1007 100 1700 1.5 160 08:37 10.05.2020
3469 Clouds 11 1007 100 1700 1.5 160 08:18 10.05.2020
3470 Clouds 9 1007 100 900 1.76 246 07:38 10.05.2020
3471 Clouds 9 1007 100 900 1.67 210 07:19 10.05.2020
3472 Clouds 8 1007 100 900 1.67 210 06:50 10.05.2020
3473 Clouds 8 1008 100 900 1.5 110 06:24 10.05.2020
3474 Clouds 9 1008 93 1000 1.89 201 05:45 10.05.2020
3475 Clouds 9 1009 100 900 0.5 330 04:45 10.05.2020
3476 Clouds 9 1009 100 900 0.5 330 04:25 10.05.2020
3477 Clouds 9 1009 100 900 0.5 330 03:47 10.05.2020
3478 Clouds 8 1009 93 750 1 290 02:59 10.05.2020
3479 Clouds 8 1010 93 900 1 320 02:25 10.05.2020
3480 Clouds 8 1010 93 900 1 320 01:58 10.05.2020
3481 Clouds 8 1010 93 1200 1.5 290 01:39 10.05.2020
3482 Clear 8 1010 93 1200 1.5 290 01:18 10.05.2020
3483 Clear 9 1010 93 1200 1.5 290 00:52 10.05.2020
3484 Clear 9 1010 88 0 0.72 192 00:21 10.05.2020
3485 Clear 10 1011 87 10000 2.1 290 23:40 09.05.2020
3486 Clear 10 1011 87 10000 2.1 290 23:22 09.05.2020
3487 Clear 11 1011 87 10000 2.1 290 22:59 09.05.2020
3488 Clear 12 1011 82 10000 2.6 280 22:40 09.05.2020
3489 Clear 12 1011 82 10000 2.6 280 22:22 09.05.2020
3490 Clear 13 1011 82 10000 2.6 280 21:57 09.05.2020
3491 Clear 14 1011 67 10000 4.1 280 21:39 09.05.2020
3492 Clear 15 1011 67 10000 4.1 280 21:20 09.05.2020
3493 Clear 15 1011 67 10000 4.1 280 20:56 09.05.2020
3494 Clear 16 1012 52 10000 4.1 280 20:38 09.05.2020
3495 Clear 17 1012 52 10000 4.1 280 20:19 09.05.2020
3496 Clear 17 1012 52 10000 4.1 280 19:54 09.05.2020
3497 Clear 18 1012 55 10000 5.1 280 19:36 09.05.2020
3498 Clear 18 1012 55 10000 5.1 280 19:36 09.05.2020
3499 Clear 18 1012 55 10000 5.1 280 19:18 09.05.2020
3500 Clear 19 1012 45 10000 4.6 270 18:41 09.05.2020
3501 Clouds 19 1012 45 10000 4.6 270 18:21 09.05.2020
3502 Clouds 19 1013 49 10000 5.7 270 17:45 09.05.2020
3503 Rain 19 1013 49 10000 5.7 270 17:23 09.05.2020
3504 Rain 19 1013 49 10000 5.7 270 16:56 09.05.2020
3505 Rain 19 1013 55 10000 6.2 280 16:38 09.05.2020
3506 Rain 19 1013 55 10000 6.2 280 16:18 09.05.2020
3507 Rain 18 1014 55 10000 4.6 260 15:43 09.05.2020
3508 Rain 18 1014 55 10000 4.6 260 15:22 09.05.2020
3509 Rain 18 1014 55 10000 4.6 260 14:56 09.05.2020
3510 Rain 18 1014 59 10000 6.7 280 14:37 09.05.2020
3511 Rain 19 1014 59 10000 6.7 280 14:18 09.05.2020
3512 Rain 18 1014 59 10000 6.7 280 13:56 09.05.2020
3513 Rain 18 1015 55 10000 3.1 220 13:38 09.05.2020
3514 Rain 18 1015 55 10000 3.1 220 13:18 09.05.2020
3515 Rain 17 1015 63 10000 3.1 200 12:40 09.05.2020
3516 Clouds 17 1015 63 10000 3.1 200 12:22 09.05.2020
3517 Clouds 16 1015 82 4900 2.1 170 11:45 09.05.2020
3518 Clouds 15 1015 82 4900 2.1 170 11:20 09.05.2020
3519 Clouds 15 1015 82 4900 2.1 170 10:56 09.05.2020
3520 Clouds 13 1016 93 2500 2.6 150 10:38 09.05.2020
3521 Clouds 13 1016 93 2500 2.6 150 10:19 09.05.2020
3522 Clouds 12 1016 93 2500 2.6 150 09:54 09.05.2020
3523 Clouds 11 1016 100 1000 3.1 150 09:36 09.05.2020
3524 Clouds 11 1016 100 1000 3.1 150 09:18 09.05.2020
3525 Clear 10 1016 93 900 2.1 140 08:43 09.05.2020
3526 Clouds 10 1016 93 900 2.1 140 08:25 09.05.2020
3527 Clouds 10 1016 93 900 2.1 140 07:48 09.05.2020
3528 Clouds 9 1016 100 900 2.1 50 07:30 09.05.2020
3529 Clouds 9 1015 93 1100 1 160 06:47 09.05.2020
3530 Clouds 9 1015 93 1100 1 160 06:22 09.05.2020
3531 Clouds 9 1015 93 1500 1.5 250 05:45 09.05.2020
3532 Clouds 9 1016 87 4300 2.6 250 03:44 09.05.2020
3533 Clouds 9 1016 87 4300 2.6 250 03:21 09.05.2020
3534 Clouds 9 1016 87 3900 2.6 270 02:30 09.05.2020
3535 Clouds 9 1016 87 3900 2.6 270 01:52 09.05.2020
3536 Clouds 9 1016 81 5000 2.1 260 01:23 09.05.2020
3537 Clouds 9 1016 81 5000 2.1 260 00:47 09.05.2020
3538 Clouds 10 1016 76 7000 3.6 270 00:29 09.05.2020
3539 Clouds 11 1016 76 7000 3.6 270 23:49 08.05.2020
3540 Clouds 11 1016 71 10000 3.6 260 23:29 08.05.2020
3541 Clouds 11 1016 71 10000 3.6 260 22:59 08.05.2020
3542 Clouds 12 1016 66 10000 4.6 270 22:40 08.05.2020
3543 Clouds 12 1016 66 10000 4.6 270 22:19 08.05.2020
3544 Clouds 12 1016 66 10000 4.6 270 21:59 08.05.2020
3545 Clouds 13 1016 62 10000 5.7 270 21:40 08.05.2020
3546 Clouds 13 1016 62 10000 5.7 270 21:19 08.05.2020
3547 Clouds 13 1016 62 10000 5.7 270 20:58 08.05.2020
3548 Clouds 14 1016 58 10000 8.2 290 20:39 08.05.2020
3549 Clouds 14 1016 58 10000 8.2 290 20:39 08.05.2020
3550 Clouds 14 1016 58 10000 8.2 290 20:21 08.05.2020
3551 Clouds 14 1016 58 10000 8.2 290 20:21 08.05.2020
3552 Clouds 15 1016 55 10000 7.7 290 19:44 08.05.2020
3553 Clouds 16 1016 55 10000 7.7 290 19:24 08.05.2020
3554 Clouds 16 1016 55 10000 7.7 290 18:57 08.05.2020
3555 Clouds 16 1016 48 10000 10.3 280 18:39 08.05.2020
3556 Clouds 16 1016 48 10000 10.3 280 18:21 08.05.2020
3557 Clouds 17 1016 48 10000 8.2 270 17:42 08.05.2020
3558 Clouds 17 1016 48 10000 8.2 270 17:19 08.05.2020
3559 Clouds 17 1017 48 10000 8.7 270 16:46 08.05.2020
3560 Clear 17 1017 48 10000 8.7 270 16:27 08.05.2020
3561 Clear 18 1017 48 10000 8.7 270 15:59 08.05.2020
3562 Clear 17 1017 48 10000 8.7 270 15:41 08.05.2020
3563 Clear 17 1017 48 10000 8.7 270 15:19 08.05.2020
3564 Clear 17 1017 48 10000 8.7 270 14:54 08.05.2020
3565 Clear 18 1017 51 10000 7.7 270 14:36 08.05.2020
3566 Clear 17 1017 51 10000 7.7 270 14:18 08.05.2020
3567 Clear 17 1017 51 10000 7.2 270 13:41 08.05.2020
3568 Clear 17 1017 51 10000 7.2 270 13:20 08.05.2020
3569 Clear 16 1017 51 10000 7.2 270 12:55 08.05.2020
3570 Clear 16 1017 54 7000 6.2 270 12:37 08.05.2020
3571 Clear 15 1017 54 7000 6.2 270 12:18 08.05.2020
3572 Clear 14 1017 66 10000 7.7 270 11:44 08.05.2020
3573 Clear 14 1017 66 10000 7.7 270 11:23 08.05.2020
3574 Clear 14 1017 66 10000 7.7 270 10:58 08.05.2020
3575 Clear 13 1017 71 10000 6.7 270 10:40 08.05.2020
3576 Clear 12 1017 71 10000 6.7 270 10:19 08.05.2020
3577 Clear 12 1017 71 10000 6.7 270 09:56 08.05.2020
3578 Clear 10 1018 81 7000 6.2 270 09:37 08.05.2020
3579 Clear 10 1018 81 7000 6.2 270 09:18 08.05.2020
3580 Clear 8 1017 93 10000 4.1 260 08:42 08.05.2020
3581 Clear 8 1017 93 10000 4.1 260 08:21 08.05.2020
3582 Clear 6 1017 100 3700 3.6 250 07:43 08.05.2020
3583 Clear 6 1017 100 3700 3.6 250 07:43 08.05.2020
3584 Clear 5 1017 100 3700 3.6 250 07:24 08.05.2020
3585 Clear 4 1017 100 3700 3.6 250 06:51 08.05.2020
3586 Clear 4 1018 93 7000 4.6 250 06:23 08.05.2020
3587 Clear 4 1018 93 7000 4.6 250 05:51 08.05.2020
3588 Clear 4 1018 93 6000 4.1 260 04:38 08.05.2020
3589 Clear 4 1019 100 5000 2.6 270 02:34 08.05.2020
3590 Clouds 4 1019 100 5000 2.6 270 01:56 08.05.2020
3591 Clouds 5 1019 87 9000 3.6 290 01:28 08.05.2020
3592 Clouds 5 1019 87 9000 3.6 290 00:53 08.05.2020
3593 Clouds 6 1020 87 10000 4.1 290 00:32 08.05.2020
3594 Clouds 7 1020 87 10000 4.1 290 23:59 07.05.2020
3595 Clouds 7 1020 87 10000 4.1 290 23:40 07.05.2020
3596 Clouds 7 1020 87 10000 4.1 290 23:22 07.05.2020
3597 Clouds 7 1020 87 10000 4.1 290 22:57 07.05.2020
3598 Clouds 8 1020 76 10000 5.7 290 22:39 07.05.2020
3599 Clouds 8 1020 76 10000 5.7 290 22:19 07.05.2020
3600 Clouds 8 1020 76 10000 5.7 290 21:55 07.05.2020
3601 Clouds 9 1020 76 10000 8.2 290 21:37 07.05.2020
3602 Clouds 9 1020 76 10000 8.2 290 21:19 07.05.2020
3603 Clouds 10 1020 66 10000 8.7 290 20:42 07.05.2020
3604 Clouds 10 1020 66 10000 8.7 290 20:23 07.05.2020
3605 Clouds 10 1020 66 10000 8.7 290 19:58 07.05.2020
3606 Clouds 11 1020 62 10000 9.3 300 19:40 07.05.2020
3607 Clouds 11 1020 62 10000 9.3 300 19:21 07.05.2020
3608 Clouds 12 1021 62 10000 8.7 290 18:45 07.05.2020
3609 Clear 12 1021 62 10000 8.7 290 18:27 07.05.2020
3610 Clear 13 1021 62 10000 8.7 290 17:57 07.05.2020
3611 Clear 13 1021 58 10000 7.2 300 17:37 07.05.2020
3612 Clear 14 1021 58 10000 7.2 300 17:19 07.05.2020
3613 Clear 14 1021 62 10000 7.7 280 16:41 07.05.2020
3614 Clear 14 1021 62 10000 7.7 280 16:19 07.05.2020
3615 Clear 14 1021 62 10000 7.7 280 15:57 07.05.2020
3616 Clear 14 1022 58 10000 6.7 290 15:37 07.05.2020
3617 Clear 14 1022 58 10000 6.7 290 15:18 07.05.2020
3618 Clear 14 1022 58 10000 6.7 290 15:18 07.05.2020
3619 Clear 14 1022 62 10000 8.2 300 14:45 07.05.2020
3620 Clouds 14 1022 62 10000 8.2 300 14:23 07.05.2020
3621 Clouds 13 1022 62 10000 8.2 300 13:58 07.05.2020
3622 Clouds 13 1022 62 10000 9.3 300 13:40 07.05.2020
3623 Clouds 13 1022 62 10000 9.3 300 13:40 07.05.2020
3624 Clouds 12 1022 62 10000 9.3 300 13:20 07.05.2020
3625 Clouds 12 1022 66 10000 9.3 290 12:41 07.05.2020
3626 Clouds 12 1022 66 10000 9.3 290 12:20 07.05.2020
3627 Clouds 12 1022 66 10000 7.2 290 11:39 07.05.2020
3628 Clouds 12 1022 66 10000 7.2 290 11:21 07.05.2020
3629 Clouds 11 1022 66 10000 7.2 290 10:57 07.05.2020
3630 Clouds 11 1022 66 10000 7.7 320 10:38 07.05.2020
3631 Clouds 11 1022 66 10000 7.7 320 10:19 07.05.2020
3632 Clouds 10 1021 76 10000 8.2 320 09:40 07.05.2020
3633 Clouds 10 1021 76 10000 8.2 320 09:20 07.05.2020
3634 Clouds 10 1021 76 10000 8.2 320 08:56 07.05.2020
3635 Clouds 9 1021 76 10000 6.2 330 08:37 07.05.2020
3636 Clouds 9 1021 76 10000 6.2 330 08:18 07.05.2020
3637 Clouds 9 1021 81 10000 5.7 320 07:41 07.05.2020
3638 Clouds 8 1021 81 10000 5.7 320 07:21 07.05.2020
3639 Clouds 8 1021 81 10000 5.1 310 06:39 07.05.2020
3640 Clouds 8 1021 81 10000 5.1 310 06:21 07.05.2020
3641 Clouds 8 1022 75 10000 6.2 310 05:25 07.05.2020
3642 Clouds 8 1022 76 10000 5.7 320 03:50 07.05.2020
3643 Clouds 8 1022 76 10000 6.2 310 03:23 07.05.2020
3644 Clouds 9 1022 76 10000 6.7 320 02:41 07.05.2020
3645 Clouds 9 1022 76 10000 6.7 320 01:41 07.05.2020
3646 Clouds 9 1022 76 10000 6.7 320 01:23 07.05.2020
3647 Clouds 9 1022 76 10000 8.7 310 00:45 07.05.2020
3648 Clouds 8 1022 76 10000 8.7 310 00:26 07.05.2020
3649 Clouds 9 1022 76 10000 8.2 310 23:46 06.05.2020
3650 Clouds 9 1022 76 10000 8.2 310 23:25 06.05.2020
3651 Clouds 9 1022 76 10000 8.2 310 22:57 06.05.2020
3652 Clouds 9 1022 76 10000 9.8 310 22:39 06.05.2020
3653 Clouds 9 1022 76 10000 9.8 310 22:19 06.05.2020
3654 Clouds 9 1022 76 10000 9.8 310 21:56 06.05.2020
3655 Clouds 9 1022 76 10000 13.4 310 21:38 06.05.2020
3656 Clouds 8 1022 76 10000 13.4 310 21:19 06.05.2020
3657 Clouds 9 1022 71 10000 12.9 300 20:42 06.05.2020
3658 Clouds 9 1022 71 10000 12.9 300 20:24 06.05.2020
3659 Clouds 10 1022 71 10000 12.9 300 19:58 06.05.2020
3660 Clouds 10 1022 66 10000 12.3 320 19:39 06.05.2020
3661 Clouds 10 1022 66 10000 12.3 320 19:20 06.05.2020
3662 Clouds 10 1022 66 10000 12.3 320 18:59 06.05.2020
3663 Clouds 10 1022 66 10000 12.3 320 18:59 06.05.2020
3664 Clouds 11 1022 62 10000 12.3 310 18:40 06.05.2020
3665 Clouds 11 1022 62 10000 12.3 310 18:40 06.05.2020
3666 Clouds 11 1022 62 10000 12.3 310 18:21 06.05.2020
3667 Clouds 11 1022 62 10000 12.3 310 17:59 06.05.2020
3668 Clouds 12 1023 62 10000 11.3 300 17:39 06.05.2020
3669 Clouds 12 1023 62 10000 11.3 300 17:21 06.05.2020
3670 Clouds 12 1023 62 10000 11.3 300 16:58 06.05.2020
3671 Clouds 12 1023 54 10000 11.3 310 16:40 06.05.2020
3672 Clouds 12 1023 54 10000 11.3 310 16:21 06.05.2020
3673 Clouds 12 1023 54 10000 11.3 310 15:59 06.05.2020
3674 Clouds 12 1023 54 10000 11.3 310 15:59 06.05.2020
3675 Clouds 12 1023 58 10000 10.8 310 15:40 06.05.2020
3676 Clouds 12 1023 58 10000 10.8 310 15:21 06.05.2020
3677 Clouds 12 1023 58 10000 10.8 310 14:56 06.05.2020
3678 Clouds 12 1023 58 10000 10.8 310 14:56 06.05.2020
3679 Clouds 12 1023 54 10000 10.8 300 14:37 06.05.2020
3680 Clouds 12 1023 54 10000 10.8 300 14:18 06.05.2020
3681 Clouds 12 1023 54 10000 10.8 300 14:18 06.05.2020
3682 Clouds 12 1023 54 10000 10.8 300 13:56 06.05.2020
3683 Clouds 12 1024 58 10000 10.3 300 13:36 06.05.2020
3684 Clouds 12 1024 58 10000 10.3 300 13:18 06.05.2020
3685 Clouds 12 1024 62 10000 9.3 310 12:42 06.05.2020
3686 Clouds 12 1024 62 10000 9.3 310 12:23 06.05.2020
3687 Clouds 11 1024 62 10000 9.3 300 11:41 06.05.2020
3688 Clouds 11 1024 62 10000 9.3 300 11:21 06.05.2020
3689 Clouds 11 1024 62 10000 9.3 300 10:58 06.05.2020
3690 Clouds 10 1024 70 10000 7.2 310 10:39 06.05.2020
3691 Clear 10 1024 70 10000 7.2 310 10:19 06.05.2020
3692 Clear 9 1024 81 0 4.6 320 09:45 06.05.2020
3693 Clear 8 1024 81 0 4.6 320 09:26 06.05.2020
3694 Clear 9 1024 81 0 4.6 320 08:55 06.05.2020
3695 Clear 8 1024 87 0 3.1 300 08:36 06.05.2020
3696 Clear 7 1024 87 0 3.1 300 08:18 06.05.2020
3697 Clear 7 1024 87 0 3.1 300 07:55 06.05.2020
3698 Clear 5 1024 93 0 3.1 310 07:36 06.05.2020
3699 Clear 5 1024 93 0 3.1 310 07:18 06.05.2020
3700 Clear 3 1024 86 0 2.1 290 06:43 06.05.2020
3701 Clear 2 1024 86 0 2.1 290 06:19 06.05.2020
3702 Clear 3 1024 75 0 2.1 330 05:37 06.05.2020
3703 Clear 3 1024 75 0 2.1 330 04:49 06.05.2020
3704 Clear 4 1023 75 0 2.6 360 03:49 06.05.2020
3705 Clear 4 1023 83 0 2.6 350 03:24 06.05.2020
3706 Clear 4 1023 80 0 1.5 350 02:43 06.05.2020
3707 Clouds 4 1023 80 0 1.5 350 02:20 06.05.2020
3708 Clouds 6 1023 70 0 1.5 340 01:42 06.05.2020
3709 Clouds 6 1023 70 0 1.5 340 01:20 06.05.2020
3710 Clouds 7 1023 65 0 1.5 340 00:44 06.05.2020
3711 Clouds 7 1023 65 0 1.5 340 00:19 06.05.2020
3712 Clouds 6 1022 81 0 1 340 23:41 05.05.2020
3713 Clouds 7 1022 81 0 1 340 23:19 05.05.2020
3714 Clouds 7 1022 81 0 1 340 22:55 05.05.2020
3715 Clouds 7 1022 70 0 1.5 360 22:37 05.05.2020
3716 Clouds 8 1022 70 0 1.5 360 22:18 05.05.2020
3717 Clouds 10 1021 57 0 3.1 320 21:41 05.05.2020
3718 Clouds 10 1021 57 0 3.1 320 21:21 05.05.2020
3719 Clouds 10 1021 57 0 3.1 320 21:21 05.05.2020
3720 Clouds 11 1021 57 0 3.1 320 20:59 05.05.2020
3721 Clouds 12 1021 35 0 3.6 40 20:40 05.05.2020
3722 Clouds 13 1021 35 0 3.6 40 20:20 05.05.2020
3723 Clouds 13 1021 35 0 3.6 40 19:59 05.05.2020
3724 Clouds 12 1021 46 0 3.6 350 19:39 05.05.2020
3725 Clouds 12 1021 46 0 3.6 350 19:21 05.05.2020
3726 Clouds 13 1021 46 0 3.6 350 18:57 05.05.2020
3727 Clouds 13 1021 46 0 3.6 350 18:57 05.05.2020
3728 Clouds 13 1021 46 0 3.6 350 18:57 05.05.2020
3729 Clouds 14 1021 33 0 3.6 30 18:38 05.05.2020
3730 Clouds 14 1021 33 0 3.6 30 18:19 05.05.2020
3731 Clouds 14 1021 33 0 3.6 30 17:56 05.05.2020
3732 Clouds 14 1021 33 0 3.1 40 17:38 05.05.2020
3733 Rain 14 1021 33 0 3.1 40 17:20 05.05.2020
3734 Rain 14 1020 35 0 4.1 40 16:38 05.05.2020
3735 Clouds 14 1020 35 0 4.1 40 16:20 05.05.2020
3736 Clouds 14 1020 35 0 4.1 40 15:58 05.05.2020
3737 Clouds 14 1020 52 0 6.2 40 15:39 05.05.2020
3738 Clouds 14 1020 51 0 6.2 40 15:21 05.05.2020
3739 Clouds 14 1020 51 0 6.2 40 15:21 05.05.2020
3740 Clouds 14 1020 51 0 6.2 40 14:55 05.05.2020
3741 Clouds 13 1020 51 0 6.2 40 14:37 05.05.2020
3742 Clear 13 1020 49 0 6.2 40 14:18 05.05.2020
3743 Clear 13 1020 49 0 6.2 40 13:55 05.05.2020
3744 Clear 13 1021 40 0 6.7 40 13:37 05.05.2020
3745 Clear 13 1021 40 0 6.7 40 13:18 05.05.2020
3746 Clear 12 1021 40 0 6.7 40 12:55 05.05.2020
3747 Clear 12 1021 51 0 5.7 20 12:37 05.05.2020
3748 Clear 12 1021 52 0 5.7 20 12:19 05.05.2020
3749 Clear 12 1020 43 0 6.2 10 11:41 05.05.2020
3750 Clear 12 1020 43 0 6.2 10 11:20 05.05.2020
3751 Clear 11 1020 43 0 6.2 10 10:56 05.05.2020
3752 Clear 10 1020 57 0 5.1 350 10:38 05.05.2020
3753 Clear 10 1020 57 0 5.1 350 10:18 05.05.2020
3754 Clear 10 1020 57 0 5.1 350 09:55 05.05.2020
3755 Clear 9 1020 75 0 2.1 300 09:36 05.05.2020
3756 Clear 7 1020 75 0 2.1 300 09:18 05.05.2020
3757 Clear 7 1020 86 0 2.1 270 08:40 05.05.2020
3758 Clear 6 1020 86 0 2.1 270 08:19 05.05.2020
3759 Clear 5 1019 93 0 2.1 300 07:45 05.05.2020
3760 Clear 4 1019 93 0 2.1 300 07:23 05.05.2020
3761 Clear 4 1019 93 0 2.1 300 06:59 05.05.2020
3762 Clear 3 1019 93 0 3.1 330 06:40 05.05.2020
3763 Clear 3 1019 93 0 3.1 330 06:20 05.05.2020
3764 Clear 3 1019 93 0 1.5 0 05:28 05.05.2020
3765 Clear 3 1020 86 0 3.6 320 03:19 05.05.2020
3766 Clear 5 1020 81 0 6.2 330 01:23 05.05.2020
3767 Clear 5 1020 81 0 6.2 330 00:49 05.05.2020
3768 Clear 6 1019 70 0 7.2 330 00:19 05.05.2020
3769 Clear 6 1019 61 0 8.2 340 23:43 04.05.2020
3770 Clear 6 1019 61 0 8.2 340 23:43 04.05.2020
3771 Clear 6 1019 61 0 8.2 340 23:21 04.05.2020
3772 Clear 7 1019 61 0 8.2 340 22:56 04.05.2020
3773 Clear 7 1019 61 0 8.2 340 22:56 04.05.2020
3774 Clear 7 1019 75 0 8.7 330 22:37 04.05.2020
3775 Clear 8 1019 72 0 8.7 330 22:19 04.05.2020
3776 Clear 8 1019 72 0 8.7 330 21:53 04.05.2020
3777 Clear 8 1019 72 0 8.7 330 21:53 04.05.2020
3778 Clear 8 1019 72 0 8.7 330 21:53 04.05.2020
3779 Clear 8 1019 72 0 8.7 330 21:53 04.05.2020
3780 Clear 8 1019 72 0 8.7 330 21:53 04.05.2020
3781 Clear 8 1018 46 0 10.3 330 21:30 04.05.2020
3782 Clear 8 1018 46 0 10.3 330 21:30 04.05.2020
3783 Clear 8 1018 46 0 10.3 330 21:30 04.05.2020
3784 Clear 8 1018 46 0 10.3 330 21:30 04.05.2020
3785 Clear 8 1018 46 0 10.3 330 21:30 04.05.2020
3786 Clear 10 1018 70 0 8.7 340 20:44 04.05.2020
3787 Clear 10 1018 69 0 8.7 340 20:23 04.05.2020
3788 Clear 10 1018 68 0 8.7 340 19:59 04.05.2020
3789 Clear 11 1018 50 0 9.3 340 19:40 04.05.2020
3790 Clear 11 1018 50 0 9.3 340 19:20 04.05.2020
3791 Clear 11 1018 50 0 9.3 340 18:56 04.05.2020
3792 Clear 12 1018 50 0 9.8 330 18:37 04.05.2020
3793 Clear 12 1018 50 0 9.8 330 18:18 04.05.2020
3794 Clear 12 1018 50 0 9.8 330 17:55 04.05.2020
3795 Clear 12 1018 50 0 11.3 310 17:37 04.05.2020
3796 Clear 12 1018 50 0 11.3 310 17:18 04.05.2020
3797 Clear 13 1018 43 0 10.3 330 16:42 04.05.2020
3798 Clear 13 1018 43 0 10.3 330 16:21 04.05.2020
3799 Clear 12 1018 50 0 8.2 330 15:46 04.05.2020
3800 Clear 12 1018 50 0 8.2 330 15:25 04.05.2020
3801 Clear 12 1018 50 0 8.2 330 14:58 04.05.2020
3802 Clear 13 1017 54 0 8.7 320 14:40 04.05.2020
3803 Clear 13 1017 54 0 8.7 320 14:40 04.05.2020
3804 Clear 13 1017 54 0 8.7 320 14:40 04.05.2020
3805 Clear 13 1017 54 0 8.7 320 14:40 04.05.2020
3806 Clouds 13 1017 54 0 8.7 320 14:13 04.05.2020
3807 Clouds 13 1017 54 0 8.7 320 14:13 04.05.2020
3808 Clouds 13 1017 54 0 8.7 320 14:12 04.05.2020
3809 Clouds 13 1017 54 0 8.7 320 14:12 04.05.2020
3810 Clouds 12 1018 54 0 8.2 320 12:49 04.05.2020
3811 Clouds 12 1018 54 0 8.2 320 12:49 04.05.2020
3812 Clouds 12 1018 54 0 8.2 320 12:49 04.05.2020
3813 Clouds 12 1018 57 0 5.7 330 12:25 04.05.2020
3814 Clouds 12 1018 57 0 5.7 330 12:25 04.05.2020
3815 Clouds 12 1018 57 0 5.7 330 12:25 04.05.2020
3816 Clouds 12 1018 57 0 5.7 330 12:25 04.05.2020
3817 Clouds 12 1018 57 0 5.7 330 12:25 04.05.2020
3818 Clouds 10 1017 66 0 7.2 330 10:35 04.05.2020
3819 Clouds 8 1017 70 0 5.7 340 09:26 04.05.2020
3820 Clouds 8 1017 70 0 5.7 340 09:26 04.05.2020
3821 Clouds 8 1017 70 0 5.7 340 09:26 04.05.2020
3822 Clouds 8 1017 70 0 5.7 340 09:26 04.05.2020
3823 Clouds 8 1017 70 0 5.7 340 09:26 04.05.2020
3824 Clouds 7 1017 81 0 4.6 330 07:52 04.05.2020
3825 Clouds 6 1017 87 0 4.6 320 07:33 04.05.2020
3826 Clouds 6 1017 87 0 4.6 320 07:33 04.05.2020
3827 Clouds 6 1017 87 0 4.6 320 07:33 04.05.2020
3828 Clouds 6 1017 87 0 4.6 320 07:33 04.05.2020
3829 Clouds 6 1017 87 0 4.6 320 07:33 04.05.2020
3830 Clouds 5 1017 81 0 4.1 320 04:58 04.05.2020
3831 Clear 6 1016 87 0 5.1 310 03:28 04.05.2020
3832 Clouds 6 1016 87 0 5.7 300 02:32 04.05.2020
3833 Clouds 7 1016 87 0 5.1 300 01:03 04.05.2020
3834 Clouds 7 1016 81 0 4.6 300 23:46 03.05.2020
3835 Clouds 7 1016 81 0 4.6 300 23:26 03.05.2020
3836 Clouds 7 1016 81 0 4.6 300 23:00 03.05.2020
3837 Clouds 7 1016 81 0 4.6 300 23:00 03.05.2020
3838 Clouds 7 1016 76 0 5.7 310 22:41 03.05.2020
3839 Clouds 8 1016 76 0 5.7 310 22:22 03.05.2020
3840 Clouds 8 1016 71 0 6.7 310 21:42 03.05.2020
3841 Clouds 9 1016 71 0 6.7 310 21:21 03.05.2020
3842 Clouds 9 1016 71 0 6.7 310 21:21 03.05.2020
3843 Clouds 9 1016 71 0 6.7 310 20:48 03.05.2020
3844 Clouds 10 1016 66 0 7.2 310 20:23 03.05.2020
3845 Clouds 10 1016 66 0 7.2 310 19:57 03.05.2020
3846 Clouds 10 1016 66 0 8.7 300 19:38 03.05.2020
3847 Clouds 11 1016 66 0 8.7 300 19:19 03.05.2020
3848 Clouds 11 1016 62 0 8.7 290 18:40 03.05.2020
3849 Clouds 11 1016 62 0 8.7 290 18:21 03.05.2020
3850 Clouds 11 1016 62 0 8.7 290 17:58 03.05.2020
3851 Clouds 12 1016 66 0 7.2 300 17:40 03.05.2020
3852 Clouds 12 1016 66 0 7.2 300 17:20 03.05.2020
3853 Clouds 12 1016 66 0 7.2 300 17:20 03.05.2020
3854 Clouds 12 1016 66 0 8.7 300 16:45 03.05.2020
3855 Clouds 12 1016 66 0 8.7 300 16:19 03.05.2020
3856 Clouds 12 1016 66 0 8.7 300 16:19 03.05.2020
3857 Clouds 12 1016 66 0 8.7 300 15:58 03.05.2020
3858 Clouds 12 1015 66 0 7.2 300 15:39 03.05.2020
3859 Clear 12 1015 66 0 7.2 300 15:20 03.05.2020
3860 Clear 12 1015 66 0 7.2 300 14:57 03.05.2020
3861 Clear 12 1015 66 0 6.7 300 14:38 03.05.2020
3862 Clouds 12 1015 66 0 6.7 300 14:20 03.05.2020
3863 Clouds 13 1014 66 0 7.7 300 13:41 03.05.2020
3864 Clouds 13 1014 66 0 7.7 300 13:41 03.05.2020
3865 Clouds 13 1014 66 0 7.7 300 12:59 03.05.2020
3866 Clouds 13 1014 66 0 7.7 300 12:59 03.05.2020
3867 Clouds 13 1014 66 0 7.7 300 12:59 03.05.2020
3868 Clouds 12 1014 66 0 7.2 310 12:39 03.05.2020
3869 Clear 12 1014 66 0 7.2 310 12:18 03.05.2020
3870 Clear 12 1014 66 0 7.2 310 11:55 03.05.2020
3871 Clear 12 1014 71 0 8.2 300 11:37 03.05.2020
3872 Clear 11 1014 71 0 8.2 300 11:18 03.05.2020
3873 Clear 11 1013 76 0 6.7 300 10:40 03.05.2020
3874 Clear 11 1013 76 0 6.7 300 10:40 03.05.2020
3875 Clear 11 1013 76 0 6.7 300 10:40 03.05.2020
3876 Clear 11 1013 76 0 6.7 300 10:40 03.05.2020
3877 Clear 11 1013 76 0 6.7 300 10:40 03.05.2020
3878 Clear 10 1013 76 0 6.7 300 09:57 03.05.2020
3879 Clear 10 1013 76 0 6.7 300 09:57 03.05.2020
3880 Clear 10 1013 76 0 6.7 300 09:57 03.05.2020
3881 Clear 10 1013 76 0 6.7 300 09:57 03.05.2020
3882 Clear 10 1013 76 0 6.7 300 09:57 03.05.2020
3883 Clear 10 1013 81 0 7.2 300 09:28 03.05.2020
3884 Clear 10 1013 81 0 7.2 300 09:28 03.05.2020
3885 Clear 10 1013 81 0 7.2 300 09:28 03.05.2020
3886 Clear 10 1013 81 0 7.2 300 09:28 03.05.2020
3887 Clear 9 1013 81 0 7.2 300 08:54 03.05.2020
3888 Clear 9 1013 81 0 7.2 300 08:54 03.05.2020
3889 Clear 9 1013 81 0 7.2 300 08:54 03.05.2020
3890 Clear 9 1013 81 0 7.2 300 08:54 03.05.2020
3891 Clear 9 1013 81 0 7.2 300 08:54 03.05.2020
3892 Clouds 8 1012 87 0 4.6 280 08:21 03.05.2020
3893 Clouds 8 1012 87 0 4.6 280 08:21 03.05.2020
3894 Clouds 8 1012 87 0 4.6 280 08:21 03.05.2020
3895 Clouds 7 1011 93 0 5.1 280 07:38 03.05.2020
3896 Clouds 7 1011 93 0 4.6 290 06:19 03.05.2020
3897 Clouds 6 1010 93 0 4.1 280 05:46 03.05.2020
3898 Clouds 6 1010 93 0 3.1 270 04:31 03.05.2020
3899 Clouds 6 1010 93 0 3.1 270 03:59 03.05.2020
3900 Clouds 7 1010 93 0 3.6 280 02:57 03.05.2020
3901 Clear 7 1009 87 0 5.1 300 02:24 03.05.2020
3902 Clear 8 1009 87 0 6.7 290 01:44 03.05.2020
3903 Clear 8 1009 87 0 6.7 290 01:24 03.05.2020
3904 Clear 8 1009 93 0 4.1 300 00:42 03.05.2020
3905 Clear 8 1009 93 0 4.1 300 00:21 03.05.2020
3906 Clear 8 1009 93 0 4.1 300 00:21 03.05.2020
3907 Clear 8 1009 93 0 4.1 300 23:59 02.05.2020
3908 Clear 8 1008 87 0 4.6 300 23:41 02.05.2020
3909 Clear 8 1008 87 0 4.6 300 23:21 02.05.2020
3910 Clear 8 1007 81 0 7.2 300 22:43 02.05.2020
3911 Clear 8 1007 81 0 7.2 300 22:23 02.05.2020
3912 Clear 8 1007 81 0 7.2 300 21:56 02.05.2020
3913 Clear 9 1007 81 0 8.7 310 21:38 02.05.2020
3914 Clear 9 1007 81 0 8.7 310 21:18 02.05.2020
3915 Clouds 9 1007 81 0 8.7 310 21:18 02.05.2020
3916 Clear 9 1007 81 0 8.7 310 20:57 02.05.2020
3917 Clear 10 1006 71 0 9.8 300 20:37 02.05.2020
3918 Clear 10 1006 71 0 9.8 300 20:19 02.05.2020
3919 Clear 10 1006 71 0 9.8 300 19:57 02.05.2020
3920 Clear 10 1005 71 0 10.3 300 19:38 02.05.2020
3921 Clear 11 1005 71 0 10.3 300 19:18 02.05.2020
3922 Clear 11 1004 66 0 9.3 320 18:41 02.05.2020
3923 Clear 11 1004 66 0 9.3 320 18:23 02.05.2020
3924 Clear 12 1004 66 0 9.3 320 17:58 02.05.2020
3925 Clear 11 1004 76 0 7.2 300 17:39 02.05.2020
3926 Clear 12 1004 76 0 7.2 300 17:20 02.05.2020
3927 Clear 11 1004 76 0 7.2 300 16:59 02.05.2020
3928 Clear 12 1003 66 0 7.2 300 16:39 02.05.2020
3929 Clouds 12 1003 66 0 7.2 300 16:21 02.05.2020
3930 Clouds 11 1003 76 0 7.2 310 15:43 02.05.2020
3931 Clouds 10 1003 76 0 7.2 310 15:20 02.05.2020
3932 Clouds 10 1003 76 0 7.2 310 15:20 02.05.2020
3933 Clouds 11 1003 76 0 7.2 310 14:58 02.05.2020
3934 Clouds 11 1002 76 0 4.1 310 14:40 02.05.2020
3935 Rain 11 1002 76 0 4.1 310 14:21 02.05.2020
3936 Rain 10 1002 81 0 5.1 340 13:40 02.05.2020
3937 Rain 10 1002 81 0 5.1 340 13:22 02.05.2020
3938 Rain 10 1002 81 0 5.1 340 12:55 02.05.2020
3939 Rain 10 1001 71 0 6.2 300 12:37 02.05.2020
3940 Rain 10 1001 71 0 6.2 300 12:18 02.05.2020
3941 Rain 10 1001 71 0 5.1 310 11:41 02.05.2020
3942 Rain 10 1001 71 0 5.1 310 11:22 02.05.2020
3943 Rain 11 1001 71 0 5.1 310 10:59 02.05.2020
3944 Rain 9 1000 81 0 5.1 290 10:39 02.05.2020
3945 Rain 10 1000 81 0 5.1 290 10:21 02.05.2020
3946 Rain 10 1000 81 0 5.1 290 09:57 02.05.2020
3947 Rain 9 1000 93 0 4.1 280 09:38 02.05.2020
3948 Clouds 8 1000 93 0 4.1 280 09:20 02.05.2020
3949 Clouds 8 1000 93 0 4.1 280 08:51 02.05.2020
3950 Clouds 8 999 93 0 3.1 270 08:30 02.05.2020
3951 Clouds 8 999 93 0 3.1 270 07:49 02.05.2020
3952 Clouds 7 999 93 0 3.6 230 07:30 02.05.2020
3953 Clouds 6 999 93 0 3.6 230 06:53 02.05.2020
3954 Rain 6 998 93 0 3.1 190 06:23 02.05.2020
3955 Rain 6 998 93 0 3.6 210 05:27 02.05.2020
3956 Clouds 7 998 87 0 3.6 200 04:26 02.05.2020
3957 Clouds 7 998 93 0 4.1 200 03:36 02.05.2020
3958 Clouds 7 998 93 0 4.1 180 02:39 02.05.2020
3959 Clouds 7 998 93 0 4.1 180 01:52 02.05.2020
3960 Clouds 7 998 93 0 5.1 190 01:18 02.05.2020
3961 Clouds 7 998 100 0 4.1 180 00:42 02.05.2020
3962 Clouds 7 998 100 0 4.1 180 00:20 02.05.2020
3963 Clouds 7 998 100 0 4.1 200 23:40 01.05.2020
3964 Rain 7 998 100 0 4.1 200 23:20 01.05.2020
3965 Rain 7 998 100 0 4.1 200 22:58 01.05.2020
3966 Rain 8 998 93 0 4.1 190 22:38 01.05.2020
3967 Rain 8 998 93 0 4.1 190 22:19 01.05.2020
3968 Rain 8 998 93 0 4.1 190 21:57 01.05.2020
3969 Rain 8 998 87 0 2.1 170 21:39 01.05.2020
3970 Clouds 9 998 87 0 2.1 170 21:19 01.05.2020
3971 Clouds 9 998 87 0 2.1 170 20:57 01.05.2020
3972 Clouds 9 997 93 0 3.6 190 20:38 01.05.2020
3973 Clouds 9 997 93 0 3.6 190 20:19 01.05.2020
3974 Clouds 9 997 93 0 3.6 190 19:55 01.05.2020
3975 Clouds 9 997 87 0 3.1 170 19:37 01.05.2020
3976 Rain 9 997 87 0 3.1 170 19:19 01.05.2020
3977 Rain 9 997 87 0 3.1 170 18:55 01.05.2020
3978 Rain 9 997 87 0 1.5 320 18:36 01.05.2020
3979 Rain 9 997 87 0 1.5 320 18:18 01.05.2020
3980 Rain 12 997 54 0 2.6 260 17:40 01.05.2020
3981 Rain 12 997 54 0 2.6 260 17:21 01.05.2020
3982 Rain 12 997 54 0 2.6 260 16:57 01.05.2020
3983 Rain 13 997 58 0 3.1 250 16:39 01.05.2020
3984 Rain 13 997 58 0 3.1 250 16:20 01.05.2020
3985 Rain 13 997 58 0 3.1 250 15:57 01.05.2020
3986 Rain 13 997 58 0 4.6 250 15:39 01.05.2020
3987 Rain 13 997 58 0 4.6 250 15:19 01.05.2020
3988 Rain 12 997 66 0 6.2 260 14:43 01.05.2020
3989 Rain 11 997 66 0 6.2 260 14:24 01.05.2020
3990 Rain 12 997 66 0 6.2 260 13:56 01.05.2020
3991 Rain 11 997 71 0 6.7 250 13:38 01.05.2020
3992 Rain 11 997 71 0 6.7 250 13:19 01.05.2020
3993 Rain 11 997 71 0 6.7 250 12:55 01.05.2020
3994 Rain 11 997 93 0 3.6 190 12:37 01.05.2020
3995 Rain 10 997 93 0 3.6 190 12:18 01.05.2020
3996 Rain 9 997 93 0 4.6 160 11:41 01.05.2020
3997 Rain 9 997 93 0 4.6 160 11:23 01.05.2020
3998 Rain 9 997 93 0 4.6 160 10:57 01.05.2020
3999 Rain 9 997 93 0 4.6 160 10:38 01.05.2020
4000 Rain 9 997 93 0 4.6 160 10:19 01.05.2020
4001 Rain 8 997 87 0 6.7 160 09:44 01.05.2020
4002 Clouds 8 997 87 0 6.7 160 09:19 01.05.2020
4003 Clouds 8 997 87 0 6.7 160 08:57 01.05.2020
4004 Clouds 8 997 87 0 5.7 150 08:39 01.05.2020
4005 Clouds 8 997 87 0 5.7 150 08:21 01.05.2020
4006 Clouds 9 997 87 0 7.2 150 07:44 01.05.2020
4007 Rain 9 997 87 0 7.2 150 07:22 01.05.2020
4008 Rain 9 997 87 0 5.7 160 06:42 01.05.2020
4009 Rain 9 997 87 0 5.1 140 05:35 01.05.2020
4010 Rain 9 998 93 0 3.6 130 04:47 01.05.2020
4011 Rain 8 998 87 0 4.6 120 03:24 01.05.2020
4012 Rain 7 998 93 0 4.6 120 02:45 01.05.2020
4013 Clouds 7 998 93 0 4.6 120 02:24 01.05.2020
4014 Clouds 7 998 93 0 4.1 120 01:28 01.05.2020
4015 Clouds 6 998 93 0 4.1 120 00:59 01.05.2020
4016 Clouds 7 999 87 0 2.6 120 00:37 01.05.2020
4017 Clouds 7 999 87 0 2.6 120 00:19 01.05.2020
4018 Clouds 6 999 87 0 2.6 120 23:55 30.04.2020
4019 Clouds 7 1000 81 0 2.6 150 23:37 30.04.2020
4020 Clouds 7 1000 81 0 2.6 150 23:18 30.04.2020
4021 Clouds 8 1000 75 0 2.1 240 22:41 30.04.2020
4022 Clouds 8 1000 75 0 2.1 240 22:21 30.04.2020
4023 Clouds 8 1000 75 0 2.1 240 21:57 30.04.2020
4024 Clouds 10 1000 62 0 2.6 260 21:38 30.04.2020
4025 Clear 10 1000 62 0 2.6 260 21:19 30.04.2020
4026 Clear 10 1000 62 0 2.6 260 20:54 30.04.2020
4027 Clear 11 999 58 0 7.7 280 20:36 30.04.2020
4028 Clouds 11 999 58 0 7.7 280 20:18 30.04.2020
4029 Clouds 12 999 66 0 7.7 290 19:43 30.04.2020
4030 Clouds 12 999 66 0 7.7 290 19:24 30.04.2020
4031 Clouds 12 999 66 0 7.7 290 18:56 30.04.2020
4032 Clouds 12 999 71 0 7.7 270 18:38 30.04.2020
4033 Clouds 12 999 71 0 7.7 270 18:20 30.04.2020
4034 Clouds 12 999 71 0 7.7 270 17:56 30.04.2020
4035 Clouds 12 999 81 0 5.7 250 17:38 30.04.2020
4036 Clouds 11 999 81 0 5.7 250 17:20 30.04.2020
4037 Clouds 11 999 81 0 5.7 250 16:55 30.04.2020
4038 Clouds 12 998 66 0 3.1 260 16:36 30.04.2020
4039 Rain 11 998 66 0 3.1 260 16:18 30.04.2020
4040 Rain 12 998 66 0 3.6 240 15:44 30.04.2020
4041 Rain 12 998 66 0 3.6 240 15:23 30.04.2020
4042 Rain 12 998 66 0 3.1 210 14:43 30.04.2020
4043 Rain 12 998 66 0 3.1 210 14:22 30.04.2020
4044 Rain 13 998 66 0 3.1 210 13:59 30.04.2020
4045 Rain 13 998 66 0 3.1 240 13:41 30.04.2020
4046 Rain 12 998 66 0 3.1 240 13:23 30.04.2020
4047 Rain 12 998 66 0 3.1 240 12:59 30.04.2020
4048 Rain 11 998 76 0 3.1 210 12:41 30.04.2020
4049 Clouds 11 998 76 0 3.1 210 12:19 30.04.2020
4050 Clouds 11 998 76 0 3.1 210 11:54 30.04.2020
4051 Clouds 10 999 93 0 3.6 210 11:36 30.04.2020
4052 Clouds 10 999 93 0 3.6 210 11:18 30.04.2020
4053 Clouds 9 998 87 0 5.1 240 10:40 30.04.2020
4054 Clouds 9 998 87 0 5.1 240 10:21 30.04.2020
4055 Clouds 9 998 87 0 5.1 240 09:57 30.04.2020
4056 Clouds 9 998 93 0 5.1 170 09:39 30.04.2020
4057 Rain 10 998 93 0 5.1 170 09:20 30.04.2020
4058 Rain 9 998 100 0 6.7 150 08:46 30.04.2020
4059 Rain 9 998 100 0 6.7 150 08:26 30.04.2020
4060 Rain 9 999 93 0 4.6 140 07:45 30.04.2020
4061 Rain 9 999 93 0 4.6 140 07:26 30.04.2020
4062 Rain 9 999 93 0 4.6 140 06:59 30.04.2020
4063 Rain 9 999 93 0 4.6 140 06:59 30.04.2020
4064 Rain 8 1000 100 0 5.7 130 06:32 30.04.2020
4065 Rain 9 1000 100 0 5.7 130 05:47 30.04.2020
4066 Rain 7 1002 93 0 4.1 140 04:46 30.04.2020
4067 Clouds 7 1002 93 0 4.1 140 04:24 30.04.2020
4068 Clouds 8 1002 93 0 3.1 160 02:52 30.04.2020
4069 Clouds 8 1003 100 0 3.6 170 02:28 30.04.2020
4070 Clouds 8 1003 93 0 4.1 170 01:38 30.04.2020
4071 Clouds 8 1003 93 0 4.1 170 00:53 30.04.2020
4072 Clouds 9 1003 100 0 3.6 150 00:25 30.04.2020
4073 Clouds 9 1003 100 0 3.6 150 23:59 29.04.2020
4074 Clouds 9 1003 100 0 3.6 150 23:59 29.04.2020
4075 Clouds 9 1003 100 0 3.6 150 23:59 29.04.2020
4076 Clouds 9 1003 100 0 3.6 140 23:41 29.04.2020
4077 Clouds 9 1003 100 0 3.6 140 23:23 29.04.2020
4078 Clouds 9 1003 100 0 3.6 140 22:58 29.04.2020
4079 Clouds 9 1003 93 0 2.6 140 22:39 29.04.2020
4080 Clouds 9 1003 93 0 2.6 140 22:20 29.04.2020
4081 Clouds 9 1003 93 0 2.1 140 21:39 29.04.2020
4082 Clouds 9 1003 93 0 2.1 140 21:21 29.04.2020
4083 Clouds 9 1003 93 0 2.1 140 20:59 29.04.2020
4084 Clouds 9 1003 93 0 3.6 130 20:40 29.04.2020
4085 Clouds 9 1003 93 0 3.6 130 20:19 29.04.2020
4086 Clouds 9 1003 93 0 3.6 130 19:57 29.04.2020
4087 Clouds 9 1003 87 0 2.6 120 19:39 29.04.2020
4088 Clouds 9 1003 87 0 2.6 120 19:18 29.04.2020
4089 Clouds 9 1004 87 0 2.6 100 18:42 29.04.2020
4090 Clouds 9 1004 87 0 2.6 100 18:21 29.04.2020
4091 Clouds 9 1004 87 0 2.6 100 17:56 29.04.2020
4092 Clouds 9 1004 87 0 4.1 120 17:37 29.04.2020
4093 Rain 9 1004 87 0 4.1 120 17:19 29.04.2020
4094 Rain 9 1004 87 0 2.6 120 16:38 29.04.2020
4095 Clouds 9 1004 87 0 2.6 120 16:19 29.04.2020
4096 Clouds 9 1004 87 0 2.6 120 15:57 29.04.2020
4097 Clouds 9 1004 87 0 4.6 110 15:39 29.04.2020
4098 Rain 9 1004 87 0 4.6 110 15:20 29.04.2020
4099 Rain 9 1004 76 0 3.6 120 14:46 29.04.2020
4100 Rain 9 1004 76 0 3.6 120 14:27 29.04.2020
4101 Rain 9 1004 76 0 3.6 120 13:59 29.04.2020
4102 Rain 9 1004 76 0 3.6 120 13:59 29.04.2020
4103 Rain 9 1004 76 0 4.6 120 13:40 29.04.2020
4104 Rain 9 1004 76 0 4.6 120 13:20 29.04.2020
4105 Rain 9 1004 76 0 4.6 120 12:57 29.04.2020
4106 Rain 9 1004 81 0 3.6 120 12:39 29.04.2020
4107 Rain 9 1004 81 0 3.6 120 12:18 29.04.2020
4108 Rain 9 1004 76 0 4.6 110 11:40 29.04.2020
4109 Clouds 9 1004 76 0 4.6 110 11:21 29.04.2020
4110 Clouds 9 1004 76 0 4.6 110 10:58 29.04.2020
4111 Clouds 9 1004 70 0 3.6 120 10:37 29.04.2020
4112 Clouds 9 1004 70 0 3.6 120 10:37 29.04.2020
4113 Clouds 9 1004 70 0 3.6 120 10:19 29.04.2020
4114 Clouds 9 1004 81 0 1.5 0 09:42 29.04.2020
4115 Clouds 9 1004 81 0 1.5 0 09:24 29.04.2020
4116 Clouds 9 1004 81 0 1.5 0 08:57 29.04.2020
4117 Clouds 9 1004 87 0 1.5 80 08:39 29.04.2020
4118 Clouds 8 1004 87 0 1.5 80 08:20 29.04.2020
4119 Clouds 8 1004 87 0 1.5 110 07:42 29.04.2020
4120 Clouds 8 1004 87 0 1.5 110 07:23 29.04.2020
4121 Clouds 7 1004 87 0 1.5 110 06:50 29.04.2020
4122 Clouds 7 1004 87 0 2.1 100 06:31 29.04.2020
4123 Clouds 7 1004 87 0 1 100 05:21 29.04.2020
4124 Clouds 8 1004 75 0 1 0 04:45 29.04.2020
4125 Clouds 8 1004 75 0 1 0 04:18 29.04.2020
4126 Clouds 8 1005 81 0 2.6 180 02:43 29.04.2020
4127 Clouds 8 1005 87 0 3.1 170 01:44 29.04.2020
4128 Clouds 8 1005 87 0 3.1 170 01:26 29.04.2020
4129 Clouds 9 1005 76 0 2.6 180 00:50 29.04.2020
4130 Clouds 9 1005 76 0 2.6 180 00:20 29.04.2020
4131 Clouds 9 1005 76 0 2.6 180 23:56 28.04.2020
4132 Clouds 9 1005 81 0 2.6 190 23:37 28.04.2020
4133 Clouds 9 1005 81 0 2.6 190 23:18 28.04.2020
4134 Clouds 9 1005 81 0 1.5 210 22:37 28.04.2020
4135 Clouds 9 1005 81 0 1.5 210 22:19 28.04.2020
4136 Clouds 9 1005 81 0 1.5 210 21:57 28.04.2020
4137 Clouds 9 1005 76 0 2.1 140 21:39 28.04.2020
4138 Clouds 9 1005 76 0 2.1 140 21:21 28.04.2020
4139 Clouds 10 1005 76 0 2.1 140 20:56 28.04.2020
4140 Clouds 10 1005 71 0 2.6 150 20:38 28.04.2020
4141 Clouds 10 1005 71 0 2.6 150 20:19 28.04.2020
4142 Clouds 11 1005 57 0 3.6 130 19:43 28.04.2020
4143 Clouds 11 1005 57 0 3.6 130 19:22 28.04.2020
4144 Clouds 11 1005 57 0 3.6 130 19:22 28.04.2020
4145 Clouds 11 1005 57 0 3.6 130 18:59 28.04.2020
4146 Clouds 11 1005 50 0 2.6 130 18:41 28.04.2020
4147 Clouds 11 1005 50 0 2.6 130 18:41 28.04.2020
4148 Clouds 12 1005 50 0 2.6 130 18:20 28.04.2020
4149 Clouds 12 1005 50 0 2.6 130 18:20 28.04.2020
4150 Clouds 12 1005 50 0 2.6 130 17:59 28.04.2020
4151 Clouds 12 1005 43 0 1 40 17:37 28.04.2020
4152 Clouds 13 1005 43 0 1 40 17:19 28.04.2020
4153 Clouds 13 1005 43 0 1 40 16:56 28.04.2020
4154 Clouds 13 1005 52 0 1 330 16:37 28.04.2020
4155 Clouds 13 1005 52 0 1 330 16:18 28.04.2020
4156 Clouds 13 1005 52 0 1 330 15:54 28.04.2020
4157 Clouds 13 1005 47 0 2.1 20 15:36 28.04.2020
4158 Clouds 13 1005 47 0 2.1 20 15:18 28.04.2020
4159 Clouds 13 1005 46 0 1 270 14:43 28.04.2020
4160 Clouds 13 1005 46 0 1 270 14:22 28.04.2020
4161 Clouds 13 1005 46 0 1 270 14:22 28.04.2020
4162 Clouds 13 1005 46 0 1 270 13:59 28.04.2020
4163 Clouds 13 1005 46 0 1 270 13:59 28.04.2020
4164 Clouds 12 1006 50 0 1 290 13:40 28.04.2020
4165 Clouds 12 1006 50 0 1 290 13:21 28.04.2020
4166 Clouds 13 1006 50 0 1 290 12:58 28.04.2020
4167 Clouds 11 1006 57 0 1.5 290 12:38 28.04.2020
4168 Clouds 11 1006 57 0 1.5 290 12:20 28.04.2020
4169 Clouds 11 1006 61 0 2.1 310 11:42 28.04.2020
4170 Clouds 11 1006 61 0 2.1 310 11:21 28.04.2020
4171 Clouds 11 1006 61 0 2.1 310 10:57 28.04.2020
4172 Clouds 10 1006 76 0 3.6 320 10:38 28.04.2020
4173 Clouds 10 1006 76 0 3.6 320 10:38 28.04.2020
4174 Clouds 10 1006 76 0 3.6 320 10:18 28.04.2020
4175 Clouds 10 1006 76 0 3.6 320 10:18 28.04.2020
4176 Clouds 9 1005 87 0 2.1 320 09:43 28.04.2020
4177 Clouds 8 1005 87 0 2.1 320 09:24 28.04.2020
4178 Clouds 8 1005 87 0 2.1 320 08:55 28.04.2020
4179 Clouds 7 1005 93 0 4.1 330 08:36 28.04.2020
4180 Clouds 6 1005 93 0 4.1 330 08:18 28.04.2020
4181 Clouds 5 1005 93 0 2.6 330 07:41 28.04.2020
4182 Clouds 4 1005 93 0 2.6 330 07:18 28.04.2020
4183 Clouds 3 1005 93 0 4.1 320 06:40 28.04.2020
4184 Clouds 4 1005 93 0 4.1 320 05:52 28.04.2020
4185 Clouds 4 1005 87 0 3.1 350 05:34 28.04.2020
4186 Clouds 5 1005 87 0 4.1 330 04:33 28.04.2020
4187 Clouds 8 1005 81 0 6.2 350 02:39 28.04.2020
4188 Clouds 8 1005 81 0 6.2 350 01:53 28.04.2020
4189 Clouds 9 1005 81 0 4.1 10 01:22 28.04.2020
4190 Clouds 9 1005 81 0 4.1 320 00:42 28.04.2020
4191 Clouds 9 1005 81 0 4.1 320 00:18 28.04.2020
4192 Clouds 10 1004 66 0 5.1 300 23:43 27.04.2020
4193 Clouds 10 1004 66 0 5.1 300 23:21 27.04.2020
4194 Clouds 12 1005 71 0 3.6 310 22:43 27.04.2020
4195 Clear 12 1005 71 0 3.6 310 22:23 27.04.2020
4196 Clear 12 1005 71 0 3.6 310 22:23 27.04.2020
4197 Clear 12 1005 71 0 3.6 310 21:58 27.04.2020
4198 Clear 12 1004 54 0 3.1 260 21:39 27.04.2020
4199 Clear 12 1004 54 0 3.1 260 21:20 27.04.2020
4200 Clear 12 1004 54 0 3.1 260 20:59 27.04.2020
4201 Clear 12 1004 58 0 6.7 280 20:40 27.04.2020
4202 Clear 13 1004 58 0 6.7 280 20:21 27.04.2020
4203 Clear 13 1004 58 0 6.7 280 19:57 27.04.2020
4204 Clear 14 1005 58 0 5.7 280 19:38 27.04.2020
4205 Clear 14 1005 58 0 5.7 280 19:19 27.04.2020
4206 Clear 14 1005 58 0 5.7 280 18:56 27.04.2020
4207 Clear 15 1005 48 0 5.7 270 18:37 27.04.2020
4208 Clear 15 1005 48 0 5.7 270 18:18 27.04.2020
4209 Clear 15 1005 58 0 6.7 280 17:43 27.04.2020
4210 Clear 15 1005 58 0 6.7 280 17:43 27.04.2020
4211 Clear 16 1005 58 0 6.7 280 17:21 27.04.2020
4212 Clear 15 1005 58 0 6.7 280 16:57 27.04.2020
4213 Clear 15 1005 54 0 7.7 270 16:38 27.04.2020
4214 Clear 15 1005 54 0 7.7 270 16:20 27.04.2020
4215 Clear 15 1005 54 0 7.7 270 15:56 27.04.2020
4216 Clear 15 1006 48 0 7.7 260 15:37 27.04.2020
4217 Clouds 15 1006 48 0 7.7 260 15:18 27.04.2020
4218 Clouds 16 1006 48 0 5.7 240 14:42 27.04.2020
4219 Rain 16 1006 48 0 5.7 240 14:22 27.04.2020
4220 Rain 16 1006 48 0 5.7 240 13:59 27.04.2020
4221 Rain 16 1006 51 0 7.2 260 13:41 27.04.2020
4222 Rain 16 1006 51 0 7.2 260 13:19 27.04.2020
4223 Rain 16 1006 51 0 7.2 260 12:56 27.04.2020
4224 Rain 15 1007 50 0 6.2 230 12:38 27.04.2020
4225 Rain 14 1007 50 0 6.2 230 12:18 27.04.2020
4226 Rain 12 1007 58 0 3.1 210 11:41 27.04.2020
4227 Rain 12 1007 58 0 3.1 210 11:19 27.04.2020
4228 Rain 11 1007 58 0 3.1 210 10:56 27.04.2020
4229 Rain 10 1007 61 0 3.6 230 10:38 27.04.2020
4230 Rain 11 1007 61 0 3.6 230 10:19 27.04.2020
4231 Rain 9 1007 70 0 3.1 220 09:43 27.04.2020
4232 Rain 9 1007 70 0 3.1 220 09:43 27.04.2020
4233 Clouds 8 1007 70 0 3.1 220 09:19 27.04.2020
4234 Clouds 8 1007 70 0 3.1 220 08:57 27.04.2020
4235 Clouds 6 1007 75 0 5.1 200 08:38 27.04.2020
4236 Clouds 5 1007 75 0 5.1 200 08:19 27.04.2020
4237 Clouds 5 1008 80 0 5.7 190 07:44 27.04.2020
4238 Clouds 5 1008 80 0 5.7 190 07:20 27.04.2020
4239 Clouds 4 1008 75 0 5.7 190 06:47 27.04.2020
4240 Clouds 4 1008 75 0 5.7 190 06:25 27.04.2020
4241 Clouds 4 1008 75 0 5.7 190 05:49 27.04.2020
4242 Clouds 3 1009 86 0 2.1 220 04:41 27.04.2020
4243 Clouds 3 1009 86 0 2.1 220 03:49 27.04.2020
4244 Clouds 4 1009 80 0 3.6 190 02:48 27.04.2020
4245 Clouds 4 1010 80 0 3.1 230 01:34 27.04.2020
4246 Clouds 4 1010 80 0 3.1 230 00:57 27.04.2020
4247 Clouds 4 1010 80 0 2.6 240 00:20 27.04.2020
4248 Clouds 5 1010 80 0 2.6 240 23:56 26.04.2020
4249 Clouds 5 1010 70 0 2.6 250 23:38 26.04.2020
4250 Clouds 6 1010 70 0 2.6 250 23:19 26.04.2020
4251 Clouds 6 1010 70 0 2.6 250 22:58 26.04.2020
4252 Clouds 7 1010 61 0 4.1 270 22:39 26.04.2020
4253 Clouds 7 1010 61 0 4.1 270 22:39 26.04.2020
4254 Clouds 7 1010 61 0 4.1 270 22:19 26.04.2020
4255 Clouds 8 1010 61 0 4.1 270 21:57 26.04.2020
4256 Clouds 8 1010 61 0 3.6 280 21:38 26.04.2020
4257 Clouds 8 1010 61 0 3.6 280 21:18 26.04.2020
4258 Clouds 8 1010 61 0 3.6 280 20:54 26.04.2020
4259 Clouds 8 1010 61 0 5.1 290 20:36 26.04.2020
4260 Clouds 8 1010 61 0 5.1 290 20:18 26.04.2020
4261 Clouds 9 1010 61 0 5.1 290 19:56 26.04.2020
4262 Clouds 9 1010 61 0 5.1 270 19:36 26.04.2020
4263 Clouds 9 1010 61 0 5.1 270 19:18 26.04.2020
4264 Clouds 9 1010 61 0 5.7 270 18:40 26.04.2020
4265 Clouds 9 1010 61 0 5.7 270 18:21 26.04.2020
4266 Clouds 9 1011 70 0 6.2 280 17:42 26.04.2020
4267 Clouds 9 1011 70 0 6.2 280 17:22 26.04.2020
4268 Clouds 9 1011 70 0 6.2 280 16:56 26.04.2020
4269 Clouds 9 1011 61 0 5.7 300 16:38 26.04.2020
4270 Clouds 9 1011 61 0 5.7 300 16:19 26.04.2020
4271 Clouds 9 1011 61 0 5.7 300 15:56 26.04.2020
4272 Clouds 9 1011 66 0 5.7 280 15:37 26.04.2020
4273 Clouds 9 1011 66 0 5.7 280 15:37 26.04.2020
4274 Clouds 9 1011 66 0 5.7 280 15:18 26.04.2020
4275 Clouds 9 1011 66 0 6.7 280 14:41 26.04.2020
4276 Clouds 9 1011 66 0 6.7 280 14:19 26.04.2020
4277 Clouds 9 1011 66 0 6.7 280 13:59 26.04.2020
4278 Clouds 9 1011 61 0 6.2 300 13:40 26.04.2020
4279 Clouds 9 1011 61 0 6.2 300 13:22 26.04.2020
4280 Clouds 9 1011 61 0 6.2 300 12:57 26.04.2020
4281 Clouds 9 1011 61 0 5.1 270 12:39 26.04.2020
4282 Clouds 9 1011 61 0 5.1 270 12:20 26.04.2020
4283 Clouds 9 1011 61 0 5.1 270 11:55 26.04.2020
4284 Clouds 9 1011 61 0 4.1 300 11:36 26.04.2020
4285 Clouds 9 1011 61 0 4.1 300 11:18 26.04.2020
4286 Clouds 8 1011 65 0 4.6 270 10:43 26.04.2020
4287 Clouds 8 1011 65 0 4.6 270 10:24 26.04.2020
4288 Clouds 7 1011 65 0 4.6 270 09:58 26.04.2020
4289 Clouds 7 1011 70 0 4.6 290 09:39 26.04.2020
4290 Clouds 7 1011 70 0 4.6 290 09:20 26.04.2020
4291 Clouds 6 1011 70 0 5.7 270 08:42 26.04.2020
4292 Clouds 6 1011 70 0 5.7 270 08:23 26.04.2020
4293 Clouds 5 1011 80 0 2.6 250 07:50 26.04.2020
4294 Clouds 5 1011 80 0 2.6 250 07:25 26.04.2020
4295 Clouds 5 1011 80 0 2.6 250 06:56 26.04.2020
4296 Clouds 4 1011 93 0 3.1 260 06:33 26.04.2020
4297 Clouds 3 1011 93 0 3.1 260 05:54 26.04.2020
4298 Clouds 3 1011 93 0 3.6 260 05:35 26.04.2020
4299 Clouds 3 1011 93 0 3.1 290 04:44 26.04.2020
4300 Clouds 2 1011 93 0 3.1 290 03:50 26.04.2020
4301 Clear 3 1011 81 0 4.1 310 02:44 26.04.2020
4302 Clear 3 1011 81 0 4.1 310 02:21 26.04.2020
4303 Clear 3 1011 87 0 4.1 310 01:40 26.04.2020
4304 Clear 4 1011 87 0 4.1 310 01:21 26.04.2020
4305 Clear 4 1011 81 0 4.6 300 00:39 26.04.2020
4306 Clear 5 1011 81 0 4.6 300 00:18 26.04.2020
4307 Clear 6 1011 81 0 4.6 300 23:38 25.04.2020
4308 Clear 6 1011 81 0 4.6 300 23:20 25.04.2020
4309 Clear 6 1011 81 0 4.6 300 22:57 25.04.2020
4310 Clear 7 1011 76 0 6.7 300 22:39 25.04.2020
4311 Clear 8 1011 76 0 6.7 300 22:19 25.04.2020
4312 Clear 8 1011 61 0 6.2 320 21:40 25.04.2020
4313 Clouds 9 1011 61 0 6.2 320 21:20 25.04.2020
4314 Clouds 10 1011 61 0 6.2 320 20:58 25.04.2020
4315 Clouds 11 1011 47 0 8.2 330 20:40 25.04.2020
4316 Clouds 11 1011 47 0 8.2 330 20:22 25.04.2020
4317 Clouds 12 1011 47 0 8.2 330 19:55 25.04.2020
4318 Clouds 12 1010 44 0 8.2 330 19:37 25.04.2020
4319 Clouds 13 1010 44 0 8.2 330 19:18 25.04.2020
4320 Clouds 14 1011 33 0 1.5 30 18:39 25.04.2020
4321 Clouds 15 1011 33 0 1.5 30 18:21 25.04.2020
4322 Clouds 15 1011 33 0 1.5 30 17:58 25.04.2020
4323 Clouds 15 1011 33 0 3.1 30 17:38 25.04.2020
4324 Clouds 15 1011 33 0 3.1 30 17:19 25.04.2020
4325 Clouds 15 1011 33 0 3.1 30 17:19 25.04.2020
4326 Clouds 15 1011 33 0 3.1 30 16:56 25.04.2020
4327 Clouds 15 1011 33 0 1.5 360 16:38 25.04.2020
4328 Clouds 15 1011 33 0 1.5 360 16:19 25.04.2020
4329 Clouds 16 1012 30 0 3.1 40 15:41 25.04.2020
4330 Clouds 16 1012 30 0 3.1 40 15:21 25.04.2020
4331 Clouds 16 1012 30 0 3.1 40 14:58 25.04.2020
4332 Clouds 15 1012 35 0 4.6 40 14:39 25.04.2020
4333 Clouds 15 1012 35 0 4.6 40 14:20 25.04.2020
4334 Clouds 15 1012 35 0 4.6 40 13:54 25.04.2020
4335 Clouds 15 1012 41 0 4.6 40 13:36 25.04.2020
4336 Clouds 15 1012 41 0 4.6 40 13:18 25.04.2020
4337 Clouds 14 1012 41 0 4.1 20 12:42 25.04.2020
4338 Clouds 14 1012 41 0 4.1 20 12:21 25.04.2020
4339 Clouds 14 1012 41 0 4.1 20 11:59 25.04.2020
4340 Clouds 14 1012 58 0 2.1 30 11:41 25.04.2020
4341 Clouds 13 1012 58 0 2.1 30 11:23 25.04.2020
4342 Clouds 13 1012 58 0 2.1 30 10:54 25.04.2020
4343 Clouds 12 1012 71 0 1.5 30 10:36 25.04.2020
4344 Clouds 12 1012 71 0 1.5 30 10:18 25.04.2020
4345 Clouds 10 1011 75 0 2.1 10 09:41 25.04.2020
4346 Clear 10 1011 75 0 2.1 10 09:21 25.04.2020
4347 Clear 7 1011 86 0 2.6 360 08:42 25.04.2020
4348 Clear 6 1011 86 0 2.6 360 08:22 25.04.2020
4349 Clear 6 1011 86 0 2.6 360 07:59 25.04.2020
4350 Clear 6 1011 86 0 2.6 340 07:41 25.04.2020
4351 Clear 5 1011 86 0 2.6 340 07:19 25.04.2020
4352 Clear 4 1010 86 0 3.1 310 06:42 25.04.2020
4353 Clear 5 1010 81 0 3.6 350 05:44 25.04.2020
4354 Clear 5 1010 81 0 3.6 350 05:26 25.04.2020
4355 Clear 5 1009 81 0 4.6 340 04:20 25.04.2020
4356 Clouds 6 1009 87 0 5.7 330 02:38 25.04.2020
4357 Clouds 6 1009 87 0 5.7 330 02:18 25.04.2020
4358 Clouds 7 1008 87 0 7.7 320 01:45 25.04.2020
4359 Clouds 7 1008 87 0 7.7 320 01:19 25.04.2020
4360 Clouds 7 1008 75 0 9.3 320 00:42 25.04.2020
4361 Clouds 7 1008 75 0 9.3 320 00:18 25.04.2020
4362 Clouds 7 1008 75 0 10.3 320 23:42 24.04.2020
4363 Clouds 7 1008 75 0 10.3 320 23:21 24.04.2020
4364 Clouds 8 1008 75 0 9.3 310 22:41 24.04.2020
4365 Clouds 8 1008 75 0 9.3 310 22:21 24.04.2020
4366 Clouds 8 1008 75 0 9.3 310 21:59 24.04.2020
4367 Clouds 8 1007 76 0 10.8 310 21:41 24.04.2020
4368 Clouds 8 1007 76 0 10.8 310 21:23 24.04.2020
4369 Clouds 8 1007 76 0 10.8 310 21:00 24.04.2020
4370 Clouds 9 1007 66 0 11.8 310 20:41 24.04.2020
4371 Clouds 10 1007 66 0 11.8 310 20:19 24.04.2020
4372 Clouds 10 1007 66 0 11.8 310 20:19 24.04.2020
4373 Clouds 10 1007 66 0 11.8 310 19:57 24.04.2020
4374 Clouds 11 1007 71 0 12.3 300 19:38 24.04.2020
4375 Clouds 11 1007 71 0 12.3 300 19:20 24.04.2020
4376 Clouds 11 1008 71 0 12.9 300 18:41 24.04.2020
4377 Clouds 11 1008 71 0 12.9 300 18:23 24.04.2020
4378 Clouds 11 1008 71 0 12.9 300 17:54 24.04.2020
4379 Clouds 12 1008 62 0 11.8 300 17:36 24.04.2020
4380 Clouds 12 1008 62 0 11.8 300 17:18 24.04.2020
4381 Clouds 11 1008 62 0 11.8 300 16:55 24.04.2020
4382 Clouds 11 1008 62 0 11.8 300 16:37 24.04.2020
4383 Clouds 12 1008 62 0 11.8 300 16:19 24.04.2020
4384 Clouds 12 1008 62 0 11.8 300 16:19 24.04.2020
4385 Clouds 12 1009 62 0 11.8 310 15:40 24.04.2020
4386 Clouds 13 1009 62 0 11.8 310 15:20 24.04.2020
4387 Clouds 13 1009 58 0 11.8 300 14:41 24.04.2020
4388 Clouds 13 1009 58 0 11.8 300 14:22 24.04.2020
4389 Clouds 12 1009 58 0 11.8 300 13:59 24.04.2020
4390 Clouds 12 1009 66 0 10.3 300 13:40 24.04.2020
4391 Clouds 12 1009 66 0 10.3 300 13:20 24.04.2020
4392 Clouds 12 1009 66 0 10.3 300 12:57 24.04.2020
4393 Clouds 12 1009 66 0 9.8 300 12:39 24.04.2020
4394 Clouds 12 1009 66 0 9.8 300 12:19 24.04.2020
4395 Clouds 12 1009 66 0 8.7 300 11:43 24.04.2020
4396 Clouds 12 1009 66 0 8.7 300 11:21 24.04.2020
4397 Clouds 12 1009 66 0 8.7 300 10:57 24.04.2020
4398 Clouds 11 1010 76 0 7.2 290 10:38 24.04.2020
4399 Clouds 11 1010 76 0 7.2 290 10:20 24.04.2020
4400 Clouds 10 1010 76 0 7.2 290 09:55 24.04.2020
4401 Clouds 10 1010 76 0 6.7 300 09:36 24.04.2020
4402 Clouds 9 1010 76 0 6.7 300 09:18 24.04.2020
4403 Clouds 9 1011 87 0 5.1 300 08:42 24.04.2020
4404 Clouds 8 1011 87 0 5.1 300 08:19 24.04.2020
4405 Clouds 7 1011 87 0 5.1 300 07:56 24.04.2020
4406 Clouds 6 1011 81 0 3.6 290 07:38 24.04.2020
4407 Clouds 6 1011 81 0 3.6 290 07:19 24.04.2020
4408 Clouds 5 1012 75 0 2.1 270 06:42 24.04.2020
4409 Clouds 6 1012 75 0 2.1 270 05:51 24.04.2020
4410 Clouds 6 1012 75 0 3.6 310 05:18 24.04.2020
4411 Clouds 8 1014 75 0 3.1 350 03:34 24.04.2020
4412 Clouds 8 1014 75 0 3.1 350 02:50 24.04.2020
4413 Clouds 9 1015 70 0 2.6 320 02:30 24.04.2020
4414 Clouds 9 1015 81 0 1.5 310 01:46 24.04.2020
4415 Clouds 9 1015 81 0 1.5 310 00:50 24.04.2020
4416 Clouds 9 1016 71 0 1.5 310 00:19 24.04.2020
4417 Clouds 9 1017 76 0 1.5 350 23:46 23.04.2020
4418 Clouds 9 1017 76 0 1.5 350 23:27 23.04.2020
4419 Clouds 10 1017 76 0 1.5 350 22:57 23.04.2020
4420 Clouds 11 1017 62 0 2.1 360 22:39 23.04.2020
4421 Clouds 11 1017 62 0 2.1 360 22:20 23.04.2020
4422 Clouds 11 1017 62 0 2.1 360 21:57 23.04.2020
4423 Clouds 11 1017 62 0 2.1 360 21:57 23.04.2020
4424 Clouds 12 1017 58 0 2.1 10 21:39 23.04.2020
4425 Clouds 13 1017 58 0 2.1 10 21:20 23.04.2020
4426 Clouds 13 1017 58 0 2.1 10 21:20 23.04.2020
4427 Clouds 13 1017 58 0 2.1 10 20:57 23.04.2020
4428 Clouds 15 1018 39 0 2.1 100 20:39 23.04.2020
4429 Clouds 16 1018 39 0 2.1 100 20:19 23.04.2020
4430 Clouds 17 1018 39 0 2.1 100 19:56 23.04.2020
4431 Clouds 16 1018 39 0 4.1 160 19:38 23.04.2020
4432 Clouds 18 1018 39 0 4.1 160 19:19 23.04.2020
4433 Clouds 18 1018 39 0 4.1 160 19:19 23.04.2020
4434 Clouds 18 1019 37 0 3.6 140 18:41 23.04.2020
4435 Clouds 19 1019 37 0 3.6 140 18:23 23.04.2020
4436 Clouds 18 1019 37 0 3.6 140 17:58 23.04.2020
4437 Clouds 18 1019 37 0 3.6 140 17:58 23.04.2020
4438 Clouds 18 1020 36 0 4.6 120 17:39 23.04.2020
4439 Clouds 19 1020 36 0 4.6 120 17:21 23.04.2020
4440 Clouds 18 1020 36 0 4.6 120 16:57 23.04.2020
4441 Clouds 19 1021 37 0 4.1 120 16:38 23.04.2020
4442 Clouds 19 1021 37 0 4.1 120 16:18 23.04.2020
4443 Clouds 19 1022 39 0 3.1 100 15:42 23.04.2020
4444 Clouds 19 1022 39 0 3.1 100 15:22 23.04.2020
4445 Clouds 18 1022 39 0 3.1 100 14:56 23.04.2020
4446 Clouds 18 1023 39 0 3.6 30 14:37 23.04.2020
4447 Clear 18 1023 39 0 3.6 30 14:19 23.04.2020
4448 Clear 18 1023 39 0 3.6 30 13:55 23.04.2020
4449 Clear 19 1024 42 0 3.6 40 13:36 23.04.2020
4450 Clear 19 1024 42 0 3.6 40 13:18 23.04.2020
4451 Clear 17 1024 51 0 3.1 130 12:42 23.04.2020
4452 Clear 16 1024 51 0 3.1 130 12:24 23.04.2020
4453 Clear 16 1024 51 0 3.1 130 11:56 23.04.2020
4454 Clear 15 1025 62 0 1.5 100 11:38 23.04.2020
4455 Clear 14 1025 62 0 1.5 100 11:18 23.04.2020
4456 Clear 15 1025 58 0 2.1 80 10:41 23.04.2020
4457 Clear 14 1025 58 0 2.1 80 10:21 23.04.2020
4458 Clear 14 1025 58 0 2.1 80 09:55 23.04.2020
4459 Clear 12 1025 87 0 2.6 130 09:37 23.04.2020
4460 Clear 10 1025 87 0 2.6 130 09:18 23.04.2020
4461 Clear 8 1025 93 0 2.1 100 08:42 23.04.2020
4462 Clear 7 1025 93 0 2.1 100 08:23 23.04.2020
4463 Clear 7 1025 93 0 3.6 110 07:42 23.04.2020
4464 Clear 5 1025 93 0 3.6 110 07:23 23.04.2020
4465 Clear 4 1025 93 0 3.6 110 06:49 23.04.2020
4466 Clear 4 1026 100 0 2.6 100 06:27 23.04.2020
4467 Clear 4 1026 93 0 5.7 120 05:31 23.04.2020
4468 Clear 4 1026 93 0 5.7 120 04:52 23.04.2020
4469 Clear 6 1027 93 0 2.1 80 02:25 23.04.2020
4470 Clear 6 1027 93 0 2.1 80 01:51 23.04.2020
4471 Clear 6 1027 93 0 2.6 110 01:33 23.04.2020
4472 Clear 6 1027 93 0 2.6 110 00:47 23.04.2020
4473 Clear 6 1026 87 0 3.1 110 00:22 23.04.2020
4474 Clear 7 1026 87 0 3.1 110 23:50 22.04.2020
4475 Clear 8 1026 75 0 4.1 120 23:24 22.04.2020
4476 Clear 8 1026 75 0 4.1 120 22:58 22.04.2020
4477 Clear 9 1026 66 0 2.6 110 22:38 22.04.2020
4478 Clear 10 1026 66 0 2.6 110 22:19 22.04.2020
4479 Clear 10 1026 66 0 2.6 110 21:56 22.04.2020
4480 Clear 11 1026 46 0 3.1 110 21:38 22.04.2020
4481 Clear 11 1026 46 0 3.1 110 21:19 22.04.2020
4482 Clear 12 1026 46 0 3.1 110 20:54 22.04.2020
4483 Clear 13 1026 65 0 4.6 110 20:36 22.04.2020
4484 Clear 13 1026 65 0 4.6 110 20:18 22.04.2020
4485 Clear 13 1026 65 0 4.6 110 19:54 22.04.2020
4486 Clear 14 1027 43 0 4.6 110 19:36 22.04.2020
4487 Clear 14 1027 43 0 4.6 110 19:18 22.04.2020
4488 Clear 14 1027 43 0 4.6 110 18:55 22.04.2020
4489 Clear 15 1027 41 0 5.1 100 18:36 22.04.2020
4490 Clear 15 1027 41 0 5.1 100 18:18 22.04.2020
4491 Clear 15 1028 48 0 5.7 100 17:42 22.04.2020
4492 Clear 15 1028 48 0 5.7 100 17:23 22.04.2020
4493 Clear 14 1028 48 0 6.2 100 16:46 22.04.2020
4494 Clear 14 1028 48 0 6.2 100 16:28 22.04.2020
4495 Clear 14 1028 48 0 6.2 100 15:58 22.04.2020
4496 Clear 15 1029 48 0 6.7 110 15:38 22.04.2020
4497 Clear 14 1029 43 0 6.7 110 15:19 22.04.2020
4498 Clear 14 1029 43 0 6.7 110 14:55 22.04.2020
4499 Clear 14 1029 43 0 6.2 110 14:36 22.04.2020
4500 Clear 14 1029 43 0 6.2 110 14:18 22.04.2020
4501 Clear 14 1029 47 0 7.7 110 13:43 22.04.2020
4502 Clear 14 1029 47 0 7.7 110 13:20 22.04.2020
4503 Clear 13 1030 50 0 6.7 110 12:43 22.04.2020
4504 Clear 13 1030 50 0 6.7 110 12:23 22.04.2020
4505 Clear 13 1030 50 0 6.7 110 11:58 22.04.2020
4506 Clear 12 1030 57 0 6.7 110 11:39 22.04.2020
4507 Clear 12 1030 57 0 6.7 110 11:19 22.04.2020
4508 Clear 11 1029 61 0 5.7 110 10:44 22.04.2020
4509 Clear 11 1029 61 0 5.7 110 10:24 22.04.2020
4510 Clear 11 1029 61 0 5.7 110 09:56 22.04.2020
4511 Clear 11 1029 66 0 4.6 110 09:37 22.04.2020
4512 Clear 10 1029 66 0 4.6 110 09:19 22.04.2020
4513 Clear 9 1029 70 0 3.6 100 08:42 22.04.2020
4514 Clear 9 1029 70 0 3.6 100 08:23 22.04.2020
4515 Clear 9 1029 70 0 3.6 100 08:23 22.04.2020
4516 Clear 8 1029 70 0 3.6 100 07:58 22.04.2020
4517 Clear 7 1029 70 0 4.1 100 07:39 22.04.2020
4518 Clear 7 1029 70 0 4.1 100 07:19 22.04.2020
4519 Clear 6 1029 75 0 4.1 100 06:42 22.04.2020
4520 Clear 7 1029 75 0 4.6 100 05:45 22.04.2020
4521 Clear 7 1029 75 0 4.6 100 04:59 22.04.2020
4522 Clear 7 1029 75 0 4.6 110 03:40 22.04.2020
4523 Clear 8 1029 70 0 4.6 110 02:35 22.04.2020
4524 Clear 8 1029 66 0 4.6 90 01:41 22.04.2020
4525 Clear 8 1029 66 0 4.6 90 01:23 22.04.2020
4526 Clear 9 1028 57 0 3.6 100 00:45 22.04.2020
4527 Clear 9 1028 57 0 3.6 100 00:20 22.04.2020
4528 Clear 9 1028 70 0 3.6 100 23:45 21.04.2020
4529 Clear 9 1028 70 0 3.6 100 23:23 21.04.2020
4530 Clear 9 1028 70 0 3.6 100 22:59 21.04.2020
4531 Clear 10 1028 53 0 4.6 110 22:39 21.04.2020
4532 Clear 10 1028 53 0 4.6 110 22:21 21.04.2020
4533 Clear 10 1028 53 0 4.6 110 21:58 21.04.2020
4534 Clear 10 1028 53 0 4.6 110 21:58 21.04.2020
4535 Clear 10 1027 50 0 5.7 120 21:40 21.04.2020
4536 Clear 11 1027 50 0 5.7 120 21:22 21.04.2020
4537 Clear 12 1027 50 0 6.2 110 20:41 21.04.2020
4538 Clear 12 1027 50 0 6.2 110 20:23 21.04.2020
4539 -273 0 0 0 0 0 19:59 21.04.2020
4540 Clear 13 1028 43 0 5.7 110 19:40 21.04.2020
4541 Clear 13 1028 43 0 5.7 110 19:19 21.04.2020
4542 Clear 13 1028 43 0 5.7 110 19:19 21.04.2020
4543 Clear 13 1028 43 0 5.7 110 18:56 21.04.2020
4544 Clear 14 1028 41 0 7.7 120 18:38 21.04.2020
4545 Clear 14 1028 41 0 7.7 120 18:18 21.04.2020
4546 Clear 14 1029 41 0 9.3 90 17:41 21.04.2020
4547 Clear 14 1029 41 0 9.3 90 17:22 21.04.2020
4548 Clear 14 1028 53 0 7.2 110 16:59 21.04.2020
4549 Clear 14 1028 53 0 7.2 110 16:38 21.04.2020
4550 Clear 15 1028 53 0 7.2 110 16:38 21.04.2020
4551 Clear 15 1028 53 0 7.2 110 16:19 21.04.2020
4552 Clear 15 1028 53 0 7.2 110 15:56 21.04.2020
4553 Clear 15 1029 41 0 6.7 110 15:38 21.04.2020
4554 Clear 15 1029 41 0 6.7 110 15:19 21.04.2020
4555 Clear 15 1029 41 0 6.7 110 14:54 21.04.2020
4556 Clear 14 1029 47 0 5.7 100 14:36 21.04.2020
4557 Clear 14 1029 47 0 5.7 100 14:18 21.04.2020
4558 Clear 14 1029 43 0 7.2 110 13:40 21.04.2020
4559 Clear 14 1029 43 0 7.2 110 13:22 21.04.2020
4560 Clear 13 1029 43 0 7.2 110 12:55 21.04.2020
4561 Clear 13 1029 50 0 6.7 110 12:36 21.04.2020
4562 Clear 13 1029 50 0 6.7 110 12:18 21.04.2020
4563 Clear 13 1029 50 0 6.7 110 11:55 21.04.2020
4564 Clear 12 1030 50 0 5.7 120 11:36 21.04.2020
4565 Clear 12 1030 50 0 5.7 120 11:18 21.04.2020
4566 Clear 12 1030 50 0 5.7 120 10:55 21.04.2020
4567 Clear 11 1029 57 0 7.7 110 10:37 21.04.2020
4568 Clear 11 1029 57 0 7.7 110 10:19 21.04.2020
4569 Clear 11 1029 57 0 6.7 110 09:37 21.04.2020
4570 Clear 10 1029 57 0 6.7 110 09:19 21.04.2020
4571 Clear 10 1029 57 0 6.7 110 08:57 21.04.2020
4572 Clear 9 1028 65 0 4.6 90 08:38 21.04.2020
4573 Clear 9 1028 65 0 4.6 90 08:19 21.04.2020
4574 Clear 8 1028 70 0 4.1 90 07:43 21.04.2020
4575 Clear 7 1028 70 0 4.1 90 07:22 21.04.2020
4576 Clear 7 1028 70 0 4.1 90 06:47 21.04.2020
4577 Clear 6 1028 70 0 4.1 100 06:20 21.04.2020
4578 Clear 6 1028 70 0 4.1 100 05:48 21.04.2020
4579 Clear 7 1029 65 0 3.1 100 04:19 21.04.2020
4580 Clear 7 1029 61 0 4.6 110 03:42 21.04.2020
4581 Clear 8 1028 61 0 5.1 110 01:46 21.04.2020
4582 Clear 8 1028 61 0 5.1 110 01:18 21.04.2020
4583 Clear 7 1028 70 0 3.6 100 00:35 21.04.2020
4584 Clear 7 1027 75 0 3.1 110 23:45 20.04.2020
4585 Clear 7 1027 75 0 3.1 110 23:25 20.04.2020
4586 Clear 7 1027 75 0 3.1 110 22:58 20.04.2020
4587 Clear 9 1027 61 0 3.1 110 22:39 20.04.2020
4588 Clear 9 1027 61 0 3.1 110 22:20 20.04.2020
4589 Clear 9 1027 61 0 3.1 110 21:57 20.04.2020
4590 Clear 10 1027 53 0 3.1 100 21:39 20.04.2020
4591 Clear 10 1027 53 0 3.1 100 21:19 20.04.2020
4592 Clear 11 1027 53 0 3.1 100 20:58 20.04.2020
4593 Clear 12 1027 43 0 3.6 110 20:38 20.04.2020
4594 Clear 13 1027 43 0 3.6 110 20:18 20.04.2020
4595 Clear 13 1027 43 0 3.6 110 20:18 20.04.2020
4596 Clear 13 1027 43 0 3.6 110 19:58 20.04.2020
4597 Clear 14 1027 67 0 4.1 100 19:39 20.04.2020
4598 Clear 14 1027 67 0 4.1 100 19:19 20.04.2020
4599 Clear 14 1027 35 0 4.1 100 18:43 20.04.2020
4600 Clear 15 1027 35 0 4.1 100 18:24 20.04.2020
4601 Clear 15 1027 35 0 4.1 100 17:58 20.04.2020
4602 Clear 15 1027 48 0 4.6 110 17:40 20.04.2020
4603 Clear 15 1027 48 0 4.6 110 17:21 20.04.2020
4604 Clear 16 1027 48 0 4.6 110 16:59 20.04.2020
4605 Clear 15 1027 48 0 4.1 100 16:40 20.04.2020
4606 Clear 16 1027 48 0 4.1 100 16:19 20.04.2020
4607 Clear 15 1028 33 0 3.1 110 15:45 20.04.2020
4608 Clear 15 1028 33 0 3.1 110 15:25 20.04.2020
4609 Clear 15 1028 33 0 3.1 110 14:59 20.04.2020
4610 Clear 14 1028 35 0 3.1 90 14:40 20.04.2020
4611 Clear 14 1028 35 0 3.1 90 14:19 20.04.2020
4612 Clear 14 1028 35 0 3.1 90 13:56 20.04.2020
4613 Clear 14 1028 35 0 3.1 90 13:56 20.04.2020
4614 Clear 14 1028 35 0 3.1 90 13:56 20.04.2020
4615 Clear 14 1029 37 0 3.1 110 13:37 20.04.2020
4616 Clear 14 1029 37 0 3.1 110 13:37 20.04.2020
4617 Clear 14 1029 37 0 3.1 110 13:19 20.04.2020
4618 Clear 14 1029 34 0 3.6 100 12:43 20.04.2020
4619 Clear 14 1029 34 0 3.6 100 12:43 20.04.2020
4620 Clear 13 1029 34 0 3.6 100 12:22 20.04.2020
4621 Clear 13 1029 34 0 3.6 100 11:54 20.04.2020
4622 Clear 12 1029 40 0 3.1 120 11:36 20.04.2020
4623 Clear 12 1029 40 0 3.1 120 11:18 20.04.2020
4624 Clear 12 1029 40 0 3.1 120 10:54 20.04.2020
4625 Clear 11 1029 53 0 2.1 100 10:36 20.04.2020
4626 Clear 11 1029 53 0 2.1 100 10:18 20.04.2020
4627 Clear 7 1029 87 0 1.5 80 09:40 20.04.2020
4628 Clear 8 1029 87 0 1.5 80 09:21 20.04.2020
4629 Clear 8 1029 87 0 1.5 80 08:56 20.04.2020
4630 Clear 6 1028 93 0 1.5 90 08:38 20.04.2020
4631 Clear 5 1028 93 0 1.5 90 08:18 20.04.2020
4632 Clear 3 1028 69 0 3.6 130 07:42 20.04.2020
4633 Clear 2 1028 69 0 3.6 130 07:20 20.04.2020
4634 Clear 2 1028 93 0 2.6 60 06:38 20.04.2020
4635 Clear 3 1028 93 0 2.6 60 05:58 20.04.2020
4636 Clear 3 1028 93 0 3.1 60 04:49 20.04.2020
4637 Clear 3 1028 80 0 3.6 60 02:52 20.04.2020
4638 Clear 3 1028 80 0 2.1 70 02:33 20.04.2020
4639 Clear 2 1027 69 0 2.6 120 01:30 20.04.2020
4640 Clear 3 1027 64 0 2.1 110 00:45 20.04.2020
4641 Clear 3 1027 64 0 2.1 110 00:22 20.04.2020
4642 Clear 3 1027 56 0 3.6 120 23:40 19.04.2020
4643 Clear 4 1027 56 0 3.6 120 23:21 19.04.2020
4644 Clear 4 1027 56 0 3.6 120 22:59 19.04.2020
4645 Clear 5 1026 56 0 1 100 22:38 19.04.2020
4646 Clear 5 1026 56 0 1 100 22:19 19.04.2020
4647 Clear 7 1026 39 0 2.1 130 21:43 19.04.2020
4648 Clear 8 1026 39 0 2.1 130 21:25 19.04.2020
4649 -273 0 0 0 0 0 20:59 19.04.2020
4650 Clear 9 1026 37 0 3.6 130 20:41 19.04.2020
4651 Clear 9 1026 37 0 3.6 130 20:20 19.04.2020
4652 Clear 10 1026 37 0 3.6 130 19:57 19.04.2020
4653 Clear 11 1026 34 0 5.1 120 19:39 19.04.2020
4654 Clear 11 1026 34 0 5.1 120 19:21 19.04.2020
4655 Clear 11 1026 34 0 5.1 120 18:58 19.04.2020
4656 Clear 11 1026 34 0 5.1 120 18:39 19.04.2020
4657 Clear 12 1026 34 0 5.1 120 18:19 19.04.2020
4658 Clear 12 1026 34 0 5.1 120 17:56 19.04.2020
4659 Clear 12 1026 34 0 5.1 120 17:56 19.04.2020
4660 Clear 12 1026 32 0 5.7 120 17:38 19.04.2020
4661 Clear 12 1026 32 0 5.7 120 17:20 19.04.2020
4662 Clear 12 1026 32 0 5.7 120 16:56 19.04.2020
4663 Clear 12 1026 40 0 5.7 130 16:37 19.04.2020
4664 Clear 12 1026 40 0 5.7 130 16:19 19.04.2020
4665 Clear 12 1026 40 0 5.1 110 15:42 19.04.2020
4666 Clear 12 1026 40 0 5.1 110 15:42 19.04.2020
4667 Clear 12 1026 40 0 5.1 110 15:22 19.04.2020
4668 Clear 12 1026 40 0 5.1 110 14:55 19.04.2020
4669 Clear 12 1026 43 0 5.7 120 14:37 19.04.2020
4670 Clear 12 1026 43 0 5.7 120 14:18 19.04.2020
4671 Clear 11 1026 49 0 5.7 100 13:39 19.04.2020
4672 Clear 11 1026 49 0 5.7 100 13:20 19.04.2020
4673 Clear 11 1026 49 0 5.7 100 12:50 19.04.2020
4674 Clear 11 1025 50 0 5.1 100 12:25 19.04.2020
4675 Clear 11 1025 50 0 5.1 100 11:59 19.04.2020
4676 Clear 10 1025 70 0 5.1 110 11:37 19.04.2020
4677 Clear 10 1025 70 0 5.1 110 11:19 19.04.2020
4678 Clear 10 1025 70 0 5.1 110 10:58 19.04.2020
4679 Clear 9 1025 75 0 4.6 100 10:39 19.04.2020
4680 Clear 9 1025 75 0 4.6 100 10:19 19.04.2020
4681 Clear 8 1024 75 0 2.1 80 09:46 19.04.2020
4682 Clear 8 1024 75 0 2.1 80 09:28 19.04.2020
4683 Clear 6 1024 93 0 2.1 70 08:42 19.04.2020
4684 Clear 6 1024 93 0 2.1 70 08:24 19.04.2020
4685 Clear 6 1024 93 0 2.1 70 07:59 19.04.2020
4686 Clear 5 1023 86 0 4.1 50 07:41 19.04.2020
4687 Clear 4 1023 86 0 4.1 50 07:23 19.04.2020
4688 Clear 4 1023 86 0 4.1 50 07:23 19.04.2020
4689 Clear 3 1022 86 0 3.6 40 06:30 19.04.2020
4690 Clear 3 1022 86 0 3.6 40 05:56 19.04.2020
4691 Clear 3 1022 86 0 3.1 50 04:48 19.04.2020
4692 Clear 4 1022 77 0 2.1 60 03:19 19.04.2020
4693 Clear 5 1022 65 0 3.1 60 02:22 19.04.2020
4694 Clear 5 1022 60 0 3.1 80 01:39 19.04.2020
4695 Clear 5 1022 60 0 3.1 80 00:50 19.04.2020
4696 Clear 6 1022 52 0 4.1 90 00:26 19.04.2020
4697 Clear 6 1022 52 0 4.1 90 23:59 18.04.2020
4698 Clear 6 1021 48 0 4.6 70 23:39 18.04.2020
4699 Clear 7 1021 48 0 4.6 70 23:19 18.04.2020
4700 Clear 8 1021 42 0 4.6 70 22:42 18.04.2020
4701 Clear 8 1021 42 0 4.6 70 22:22 18.04.2020
4702 Clear 8 1021 42 0 4.6 70 21:58 18.04.2020
4703 Clear 9 1020 39 0 4.6 60 21:38 18.04.2020
4704 Clouds 9 1020 39 0 4.6 60 21:20 18.04.2020
4705 Clouds 9 1020 39 0 4.6 60 20:54 18.04.2020
4706 Clouds 10 1020 37 0 4.6 110 20:36 18.04.2020
4707 Clouds 11 1020 37 0 4.6 110 20:18 18.04.2020
4708 Clouds 12 1020 30 0 5.1 110 19:40 18.04.2020
4709 Clouds 12 1020 30 0 5.1 110 19:22 18.04.2020
4710 Clouds 13 1020 26 0 4.6 110 18:39 18.04.2020
4711 Clouds 13 1020 26 0 4.6 110 18:20 18.04.2020
4712 Clouds 13 1020 26 0 4.6 110 17:56 18.04.2020
4713 Clouds 13 1020 35 0 4.1 110 17:38 18.04.2020
4714 Clouds 13 1020 35 0 4.1 110 17:18 18.04.2020
4715 Clouds 13 1020 37 0 5.1 120 16:43 18.04.2020
4716 Clouds 13 1020 37 0 5.1 120 16:22 18.04.2020
4717 Clouds 14 1020 37 0 5.1 120 15:55 18.04.2020
4718 Clouds 14 1020 35 0 4.6 100 15:37 18.04.2020
4719 Clear 14 1020 35 0 4.6 100 15:19 18.04.2020
4720 Clear 13 1021 30 0 5.1 100 14:44 18.04.2020
4721 Clear 13 1021 30 0 5.1 100 14:23 18.04.2020
4722 Clear 13 1021 30 0 5.7 90 13:44 18.04.2020
4723 Clear 12 1021 30 0 5.7 90 13:22 18.04.2020
4724 Clear 12 1021 30 0 5.7 90 12:55 18.04.2020
4725 Clear 12 1021 34 0 4.6 100 12:36 18.04.2020
4726 Clear 12 1021 34 0 4.6 100 12:36 18.04.2020
4727 Clear 12 1021 34 0 4.6 100 12:18 18.04.2020
4728 Clear 11 1021 46 0 4.1 60 11:42 18.04.2020
4729 Clear 11 1021 46 0 4.1 60 11:22 18.04.2020
4730 Clear 10 1021 46 0 4.1 60 10:57 18.04.2020
4731 Clear 9 1021 52 0 2.1 70 10:37 18.04.2020
4732 Clear 9 1021 52 0 2.1 70 10:18 18.04.2020
4733 Clear 8 1021 65 0 2.6 60 09:41 18.04.2020
4734 Clear 8 1021 65 0 2.6 60 09:41 18.04.2020
4735 Clear 8 1021 65 0 2.6 60 09:23 18.04.2020
4736 Clear 5 1021 69 0 3.6 60 08:44 18.04.2020
4737 Clear 5 1021 69 0 3.6 60 08:25 18.04.2020
4738 Clear 4 1021 69 0 3.6 60 07:54 18.04.2020
4739 Clear 3 1020 86 0 2.1 70 07:34 18.04.2020
4740 Clear 2 1020 86 0 2.1 70 06:55 18.04.2020
4741 Clear 1 1020 80 0 2.6 70 06:25 18.04.2020
4742 Clear 2 1020 80 0 3.1 70 05:36 18.04.2020
4743 Clear 2 1020 80 0 3.6 70 04:46 18.04.2020
4744 Clear 2 1020 80 0 3.6 70 04:25 18.04.2020
4745 Clear 3 1020 69 0 3.6 70 02:48 18.04.2020
4746 Clear 3 1020 78 0 3.1 90 02:23 18.04.2020
4747 Clear 4 1020 78 0 3.1 90 01:53 18.04.2020
4748 Clear 5 1020 78 0 2.6 90 01:35 18.04.2020
4749 Clear 5 1020 78 0 2.6 90 01:35 18.04.2020
4750 Clear 4 1020 75 0 3.6 60 00:44 18.04.2020
4751 Clear 5 1020 75 0 3.6 60 00:22 18.04.2020
4752 Clear 5 1020 75 0 3.6 60 00:22 18.04.2020
4753 Clear 5 1020 75 0 3.6 60 23:56 17.04.2020
4754 Clear 5 1019 75 0 3.1 90 23:38 17.04.2020
4755 Clear 6 1019 75 0 3.1 90 23:18 17.04.2020
4756 Clear 6 1019 75 0 3.1 90 22:56 17.04.2020
4757 Clear 7 1019 65 0 2.6 100 22:37 17.04.2020
4758 Clear 7 1019 65 0 2.6 100 22:19 17.04.2020
4759 Clear 8 1019 45 0 2.6 90 21:42 17.04.2020
4760 Clouds 8 1019 45 0 2.6 90 21:21 17.04.2020
4761 Clouds 9 1019 45 0 2.6 90 20:58 17.04.2020
4762 Clouds 10 1019 37 0 3.6 100 20:38 17.04.2020
4763 Clouds 10 1019 37 0 3.6 100 20:19 17.04.2020
4764 Clouds 11 1019 37 0 3.6 100 19:59 17.04.2020
4765 Clouds 11 1019 32 0 4.1 100 19:41 17.04.2020
4766 Clouds 11 1019 32 0 4.1 100 19:22 17.04.2020
4767 Clouds 12 1019 30 0 4.1 90 18:45 17.04.2020
4768 Clouds 12 1019 30 0 4.1 90 18:24 17.04.2020
4769 Clouds 12 1019 30 0 4.1 90 17:57 17.04.2020
4770 Clouds 12 1019 30 0 3.6 120 17:37 17.04.2020
4771 Clouds 12 1019 30 0 3.6 120 17:18 17.04.2020
4772 Clouds 12 1019 32 0 3.6 100 16:43 17.04.2020
4773 Clouds 12 1019 32 0 3.6 100 16:23 17.04.2020
4774 Clouds 12 1019 32 0 3.6 100 15:55 17.04.2020
4775 Clouds 13 1019 32 0 3.6 100 15:37 17.04.2020
4776 Clear 13 1019 32 0 3.6 100 15:18 17.04.2020
4777 Clear 13 1019 37 0 3.6 100 14:40 17.04.2020
4778 Clear 13 1019 37 0 3.6 100 14:22 17.04.2020
4779 Clear 13 1019 37 0 3.6 100 13:56 17.04.2020
4780 Clear 12 1019 61 0 4.6 40 13:37 17.04.2020
4781 Clear 11 1019 61 0 4.6 40 13:18 17.04.2020
4782 Clear 11 1020 61 0 2.6 20 12:46 17.04.2020
4783 Clear 10 1020 61 0 2.6 20 12:25 17.04.2020
4784 Clouds 10 1019 57 10000 2.1 70 11:42 17.04.2020
4785 Clear 9 1019 70 0 1 360 11:20 17.04.2020
4786 Clear 9 1019 70 0 1 360 11:20 17.04.2020
4787 Clear 8 1019 70 0 1 360 10:57 17.04.2020
4788 Clear 8 1019 80 0 1 340 10:39 17.04.2020
4789 Clear 7 1019 80 0 1 340 10:19 17.04.2020
4790 Clear 7 1019 80 0 1 340 09:54 17.04.2020
4791 Clear 5 1019 86 0 2.1 300 09:36 17.04.2020
4792 Clear 5 1019 86 0 2.1 300 09:18 17.04.2020
4793 Clear 3 1019 86 0 2.1 290 08:44 17.04.2020
4794 Clear 3 1019 86 0 2.1 290 08:24 17.04.2020
4795 Clear 2 1019 86 0 2.1 290 07:44 17.04.2020
4796 Clear 1 1018 86 0 2.6 290 07:24 17.04.2020
4797 Clear 0 1018 93 0 2.1 250 06:52 17.04.2020
4798 Clear 0 1018 93 0 3.6 290 06:27 17.04.2020
4799 Clear 1 1018 86 0 2.1 320 05:38 17.04.2020
4800 Clouds 2 1018 86 0 4.6 320 03:22 17.04.2020
4801 Clouds 2 1018 86 0 4.6 320 03:22 17.04.2020
4802 Clouds 2 1018 86 0 4.6 320 03:22 17.04.2020
4803 Clouds 2 1018 86 0 4.6 320 02:49 17.04.2020
4804 Clouds 4 1018 80 0 6.2 330 01:30 17.04.2020
4805 Clouds 4 1018 80 0 6.2 330 00:59 17.04.2020
4806 Clouds 5 1018 75 0 6.7 340 00:20 17.04.2020
4807 Clouds 5 1018 75 0 6.7 340 23:46 16.04.2020
4808 Clouds 5 1017 70 0 5.7 330 23:24 16.04.2020
4809 Clouds 6 1017 70 0 5.7 330 22:59 16.04.2020
4810 Clouds 6 1017 70 0 5.7 330 22:39 16.04.2020
4811 Clouds 6 1017 70 0 5.7 330 22:20 16.04.2020
4812 Clouds 7 1017 70 0 5.7 330 21:57 16.04.2020
4813 Clouds 8 1016 61 0 6.2 340 21:38 16.04.2020
4814 Clouds 8 1016 61 0 6.2 340 21:19 16.04.2020
4815 Clouds 8 1016 61 0 6.2 340 20:42 16.04.2020
4816 Clouds 9 1016 61 0 8.2 320 20:22 16.04.2020
4817 Clouds 10 1016 61 0 8.2 320 19:58 16.04.2020
4818 Clouds 10 1016 57 0 8.2 310 19:39 16.04.2020
4819 Clouds 11 1016 57 0 8.2 310 19:19 16.04.2020
4820 Clouds 11 1016 57 0 8.2 310 18:55 16.04.2020
4821 Clouds 11 1016 50 0 8.2 320 18:36 16.04.2020
4822 Clouds 11 1016 50 0 8.2 320 18:18 16.04.2020
4823 Clouds 12 1016 50 0 8.2 320 17:42 16.04.2020
4824 Clouds 12 1016 54 0 8.7 310 17:23 16.04.2020
4825 Clouds 12 1016 54 0 8.7 310 16:55 16.04.2020
4826 Clouds 12 1016 57 0 8.7 310 16:36 16.04.2020
4827 Clouds 12 1016 57 0 8.7 310 16:18 16.04.2020
4828 Clouds 13 1016 50 0 5.7 280 15:40 16.04.2020
4829 Clouds 13 1016 50 0 9.3 310 15:19 16.04.2020
4830 Clouds 13 1016 50 0 9.3 310 14:58 16.04.2020
4831 Clouds 13 1016 57 0 9.3 320 14:38 16.04.2020
4832 Clouds 13 1016 57 0 9.3 320 14:19 16.04.2020
4833 Clouds 13 1016 57 0 9.3 320 13:55 16.04.2020
4834 Clouds 13 1017 58 0 10.3 320 13:36 16.04.2020
4835 Clouds 13 1017 58 0 10.3 320 13:18 16.04.2020
4836 Clouds 13 1017 58 0 10.3 320 12:55 16.04.2020
4837 Clouds 12 1016 66 0 9.3 310 12:36 16.04.2020
4838 Clouds 12 1016 66 0 9.3 310 12:18 16.04.2020
4839 Clouds 12 1016 66 0 9.3 310 11:41 16.04.2020
4840 Clouds 11 1016 66 0 10.3 330 11:22 16.04.2020
4841 Clouds 11 1016 66 0 10.3 330 10:57 16.04.2020
4842 Clouds 10 1016 81 0 8.7 310 10:39 16.04.2020
4843 Clouds 10 1016 81 0 8.7 310 10:19 16.04.2020
4844 Clouds 10 1016 81 0 8.7 310 09:57 16.04.2020
4845 Clouds 9 1017 81 0 8.7 310 09:38 16.04.2020
4846 Clouds 8 1017 81 0 8.7 310 09:19 16.04.2020
4847 Clouds 8 1017 81 0 8.7 310 08:42 16.04.2020
4848 Clouds 7 1016 87 0 6.2 280 08:23 16.04.2020
4849 Clouds 6 1016 87 0 6.2 280 07:46 16.04.2020
4850 Clouds 6 1016 87 0 6.2 280 07:46 16.04.2020
4851 Clouds 6 1016 87 0 6.7 270 07:26 16.04.2020
4852 Clouds 6 1016 87 0 6.7 270 06:45 16.04.2020
4853 Clouds 5 1016 93 0 6.2 280 06:26 16.04.2020
4854 Clear 5 1016 93 0 6.2 280 05:49 16.04.2020
4855 Clouds 5 1017 93 0 6.7 280 04:44 16.04.2020
4856 Clouds 5 1017 93 0 7.2 280 03:24 16.04.2020
4857 Clouds 5 1017 93 0 7.2 280 02:52 16.04.2020
4858 Clouds 5 1017 87 0 4.1 280 02:32 16.04.2020
4859 Clouds 6 1017 87 0 9.3 300 01:21 16.04.2020
4860 Clouds 6 1017 81 0 11.8 290 00:38 16.04.2020
4861 Clear 6 1017 81 0 11.8 290 00:18 16.04.2020
4862 Clear 7 1017 81 0 11.8 290 23:43 15.04.2020
4863 Clear 7 1017 87 0 11.3 290 23:22 15.04.2020
4864 Clear 7 1017 87 0 11.3 290 22:58 15.04.2020
4865 Clear 7 1017 81 0 11.8 280 22:37 15.04.2020
4866 Clear 7 1017 81 0 11.8 280 22:19 15.04.2020
4867 Clouds 7 1017 81 0 11.8 280 21:42 15.04.2020
4868 Clear 8 1017 75 0 11.3 270 21:23 15.04.2020
4869 Clear 8 1017 75 0 11.3 270 20:59 15.04.2020
4870 Clear 8 1017 75 0 11.3 270 20:41 15.04.2020
4871 Clear 9 1018 76 0 12.9 280 20:22 15.04.2020
4872 Clear 9 1018 76 0 12.9 280 19:59 15.04.2020
4873 Clear 10 1018 66 0 13.9 270 19:40 15.04.2020
4874 Clear 10 1018 66 0 13.9 270 19:20 15.04.2020
4875 Clear 11 1018 58 0 12.9 270 18:41 15.04.2020
4876 Clear 12 1018 58 0 12.9 270 18:22 15.04.2020
4877 Clear 12 1018 58 0 12.9 270 17:58 15.04.2020
4878 Clear 12 1019 58 0 13.4 280 17:39 15.04.2020
4879 Clear 12 1019 58 0 13.4 280 17:20 15.04.2020
4880 Clear 13 1019 58 0 13.4 280 16:56 15.04.2020
4881 Clear 13 1019 58 0 14.4 280 16:37 15.04.2020
4882 Clear 13 1019 58 0 14.4 280 16:37 15.04.2020
4883 Clear 13 1019 58 0 14.4 280 16:19 15.04.2020
4884 Clear 13 1019 58 0 14.4 280 15:57 15.04.2020
4885 Clear 13 1020 62 0 12.3 280 15:38 15.04.2020
4886 Clear 13 1020 62 0 12.3 280 15:19 15.04.2020
4887 Clear 13 1020 62 0 12.3 280 14:56 15.04.2020
4888 Clear 13 1020 62 0 12.9 280 14:38 15.04.2020
4889 Clouds 13 1020 62 0 12.9 280 14:38 15.04.2020
4890 Clouds 13 1020 62 0 12.9 280 14:20 15.04.2020
4891 Clouds 12 1020 62 0 12.9 280 13:57 15.04.2020
4892 Clouds 12 1020 66 0 12.3 270 13:38 15.04.2020
4893 Clouds 12 1020 66 0 12.3 270 13:19 15.04.2020
4894 Clouds 11 1020 66 0 12.3 290 12:42 15.04.2020
4895 Clouds 11 1020 66 0 12.3 290 12:23 15.04.2020
4896 Clouds 10 1020 66 0 12.3 290 11:59 15.04.2020
4897 Clouds 10 1020 66 0 12.3 290 11:41 15.04.2020
4898 Clouds 10 1020 70 0 11.3 280 11:23 15.04.2020
4899 Clouds 10 1020 70 0 11.3 280 10:58 15.04.2020
4900 Clouds 9 1019 75 0 11.3 290 10:36 15.04.2020
4901 Clouds 9 1019 75 0 11.3 290 10:18 15.04.2020
4902 Clouds 8 1019 75 0 11.3 290 09:55 15.04.2020
4903 Clouds 8 1019 81 0 9.8 290 09:36 15.04.2020
4904 Clouds 7 1019 81 0 9.8 290 09:18 15.04.2020
4905 Clouds 7 1019 81 0 10.3 290 08:41 15.04.2020
4906 Clouds 7 1019 81 0 10.3 290 08:19 15.04.2020
4907 Clouds 6 1019 81 0 10.3 290 07:54 15.04.2020
4908 Clouds 6 1019 81 0 10.8 290 07:33 15.04.2020
4909 Clouds 6 1019 81 0 10.8 290 06:37 15.04.2020
4910 Clouds 6 1020 81 10000 7.7 280 05:57 15.04.2020
4911 Clouds 6 1020 75 0 10.8 280 05:21 15.04.2020
4912 Clouds 6 1020 75 0 10.8 280 04:45 15.04.2020
4913 Clouds 6 1020 81 0 11.3 290 03:51 15.04.2020
4914 Clouds 6 1021 81 0 9.8 290 03:18 15.04.2020
4915 Clouds 6 1021 81 0 9.8 290 02:39 15.04.2020
4916 Clouds 6 1021 75 0 9.8 280 01:48 15.04.2020
4917 Clouds 6 1021 75 0 9.8 280 01:22 15.04.2020
4918 Clouds 6 1021 75 0 9.8 300 00:37 15.04.2020
4919 Clouds 6 1021 75 0 9.8 300 00:19 15.04.2020
4920 Clouds 6 1021 75 0 9.8 300 23:55 14.04.2020
4921 Clouds 6 1021 75 0 9.3 290 23:36 14.04.2020
4922 Clouds 6 1021 75 0 9.3 290 23:36 14.04.2020
4923 Clouds 6 1021 75 0 9.3 290 23:18 14.04.2020
4924 Clouds 6 1021 75 0 9.3 290 22:56 14.04.2020
4925 Clouds 6 1022 75 0 8.7 300 22:37 14.04.2020
4926 Clouds 6 1022 75 0 8.7 300 22:19 14.04.2020
4927 Clouds 6 1022 75 0 8.7 300 21:55 14.04.2020
4928 Clouds 6 1022 70 0 9.3 310 21:37 14.04.2020
4929 Clouds 6 1022 70 0 9.3 310 21:18 14.04.2020
4930 Clouds 6 1022 70 0 9.3 310 20:41 14.04.2020
4931 Clouds 7 1022 65 0 11.3 320 20:23 14.04.2020
4932 Clouds 7 1022 65 0 11.3 320 19:59 14.04.2020
4933 Clouds 7 1022 65 0 11.3 320 19:40 14.04.2020
4934 Clouds 7 1022 65 0 10.8 320 19:21 14.04.2020
4935 Clouds 7 1022 65 0 10.8 320 18:57 14.04.2020
4936 Clouds 7 1022 61 0 11.8 300 18:39 14.04.2020
4937 Clouds 7 1022 61 0 11.8 300 18:20 14.04.2020
4938 Clouds 8 1022 61 0 11.8 300 17:56 14.04.2020
4939 Clouds 8 1022 61 0 11.3 310 17:37 14.04.2020
4940 Clouds 8 1022 61 0 11.3 310 17:19 14.04.2020
4941 Clouds 8 1022 61 0 11.3 310 16:54 14.04.2020
4942 Clouds 8 1022 61 0 9.8 310 16:36 14.04.2020
4943 Clouds 8 1022 61 0 9.8 310 16:18 14.04.2020
4944 Clouds 8 1022 61 0 9.8 310 15:41 14.04.2020
4945 Clouds 8 1022 61 0 9.3 310 15:23 14.04.2020
4946 Clouds 8 1022 58 0 9.3 310 14:59 14.04.2020
4947 Clouds 8 1022 61 0 9.3 310 14:40 14.04.2020
4948 Clouds 8 1021 52 0 6.2 290 14:22 14.04.2020
4949 Clouds 8 1022 49 10000 4.6 300 13:57 14.04.2020
4950 Clouds 8 1022 52 0 8.7 320 13:39 14.04.2020
4951 Clouds 8 1022 52 0 8.7 320 13:20 14.04.2020
4952 Clouds 8 1022 49 0 7.7 330 12:42 14.04.2020
4953 Clouds 8 1022 49 0 7.7 330 12:21 14.04.2020
4954 Clouds 8 1022 49 0 7.7 330 11:56 14.04.2020
4955 Clouds 7 1022 52 0 6.7 340 11:37 14.04.2020
4956 Clouds 7 1022 52 0 6.7 340 11:19 14.04.2020
4957 Clouds 7 1022 52 0 6.7 340 10:45 14.04.2020
4958 Clouds 6 1022 56 0 4.1 320 10:26 14.04.2020
4959 Clouds 6 1022 56 0 4.1 320 09:58 14.04.2020
4960 Clouds 6 1022 56 0 4.1 320 09:40 14.04.2020
4961 Clouds 5 1021 71 0 1.34 316 09:21 14.04.2020
4962 Clouds 2 1021 86 0 5.7 330 08:42 14.04.2020
4963 Clouds 3 1023 79 0 3.64 307 08:24 14.04.2020
4964 Clouds 0 1021 86 0 5.7 330 07:56 14.04.2020
4965 Clouds -1 1021 79 0 4.6 320 07:32 14.04.2020
4966 Clouds -1 1021 79 0 4.6 320 06:53 14.04.2020
4967 Clear 0 1021 94 0 2.98 322 06:27 14.04.2020
4968 Clear 0 1020 80 0 5.1 310 04:48 14.04.2020
4969 Clouds 1 1020 80 0 4.6 310 03:00 14.04.2020
4970 Clouds 2 1019 69 0 3.6 300 02:18 14.04.2020
4971 Clouds 2 1019 74 0 5.7 360 01:25 14.04.2020
4972 Clouds 2 1019 74 0 5.7 360 00:42 14.04.2020
4973 Snow 3 1019 64 0 5.1 340 00:19 14.04.2020
4974 Snow 3 1018 69 0 8.2 320 23:47 13.04.2020
4975 Snow 3 1018 69 0 8.2 320 23:27 13.04.2020
4976 Snow 4 1018 69 0 8.2 320 23:00 13.04.2020
4977 Snow 4 1018 69 0 8.2 320 23:00 13.04.2020
4978 Snow 4 1018 69 0 8.2 320 22:41 13.04.2020
4979 Snow 4 1018 60 0 8.7 330 22:22 13.04.2020
4980 Snow 4 1018 60 0 8.7 330 21:57 13.04.2020
4981 Snow 5 1017 56 0 9.8 320 21:38 13.04.2020
4982 Clouds 5 1017 56 0 9.8 320 21:20 13.04.2020
4983 Clouds 5 1017 56 0 9.8 320 20:56 13.04.2020
4984 Clouds 5 1017 52 0 13.4 330 20:38 13.04.2020
4985 Clouds 5 1017 52 0 13.4 330 20:38 13.04.2020
4986 Clouds 5 1017 52 0 13.4 330 20:18 13.04.2020
4987 Clouds 5 1017 52 0 13.4 330 19:54 13.04.2020
4988 Clouds 6 1017 45 0 15.4 330 19:36 13.04.2020
4989 Clouds 6 1017 45 0 15.4 330 19:18 13.04.2020
4990 Clouds 6 1017 45 0 15.4 330 18:54 13.04.2020
4991 Clouds 7 1017 48 0 15.9 330 18:36 13.04.2020
4992 Clouds 7 1017 48 0 15.9 330 18:18 13.04.2020
4993 Clouds 7 1017 48 0 15.9 330 17:54 13.04.2020
4994 Clouds 8 1018 42 0 15.4 320 17:36 13.04.2020
4995 Clouds 8 1018 42 0 15.4 320 17:18 13.04.2020
4996 Clouds 8 1018 42 0 15.4 320 16:55 13.04.2020
4997 Clouds 9 1018 39 0 14.4 320 16:36 13.04.2020
4998 Clouds 9 1018 39 0 14.4 320 16:18 13.04.2020
4999 Clouds 9 1018 39 0 14.4 320 16:18 13.04.2020
5000 Clouds 9 1018 39 0 14.4 320 15:43 13.04.2020
5001 Clear 9 1017 36 0 9.8 320 15:25 13.04.2020
5002 Clear 10 1017 36 0 9.8 320 14:57 13.04.2020
5003 Clear 9 1018 31 0 10.3 340 14:39 13.04.2020
5004 Clear 9 1018 31 0 10.3 340 14:20 13.04.2020
5005 Clear 9 1018 31 0 10.3 340 13:55 13.04.2020
5006 Clear 9 1018 31 0 10.3 340 13:55 13.04.2020
5007 Clear 9 1017 36 0 11.8 340 13:37 13.04.2020
5008 Clear 9 1017 36 0 11.8 340 13:37 13.04.2020
5009 Clear 9 1017 36 0 11.8 340 13:19 13.04.2020
5010 Clear 9 1017 36 0 11.8 340 12:57 13.04.2020
5011 Clear 8 1017 42 0 10.3 350 12:39 13.04.2020
5012 Clear 8 1017 42 0 10.3 350 12:19 13.04.2020
5013 Clear 7 1017 42 0 10.3 350 11:44 13.04.2020
5014 Clear 7 1017 45 0 10.3 360 11:19 13.04.2020
5015 Clear 6 1017 45 0 10.3 360 10:56 13.04.2020
5016 Clear 6 1016 56 0 10.8 350 10:38 13.04.2020
5017 Clear 6 1016 56 0 10.8 350 10:20 13.04.2020
5018 Clear 6 1016 56 0 10.8 350 09:58 13.04.2020
5019 Clear 5 1016 56 0 9.8 340 09:39 13.04.2020
5020 Clouds 5 1016 56 0 9.8 340 09:21 13.04.2020
5021 Clouds 5 1016 56 0 9.8 340 08:45 13.04.2020
5022 Clouds 4 1015 60 0 8.2 330 08:26 13.04.2020
5023 Clouds 4 1015 60 0 8.2 330 07:44 13.04.2020
5024 Clouds 4 1014 64 0 7.2 330 07:26 13.04.2020
5025 Clouds 3 1014 64 0 7.2 330 06:56 13.04.2020
5026 Clouds 4 1014 64 0 9.3 330 06:33 13.04.2020
5027 Clouds 4 1013 64 0 10.3 330 05:40 13.04.2020
5028 Clouds 4 1013 64 0 10.3 330 05:19 13.04.2020
5029 Clouds 5 1013 60 0 10.3 320 04:31 13.04.2020
5030 Clouds 5 1013 60 0 10.3 320 03:54 13.04.2020
5031 Clouds 6 1012 60 0 11.3 340 03:34 13.04.2020
5032 Clouds 6 1012 60 0 11.3 340 02:40 13.04.2020
5033 Clouds 7 1012 65 0 9.3 340 01:46 13.04.2020
5034 Clouds 7 1012 81 0 7.2 310 01:27 13.04.2020
5035 Clouds 7 1012 81 0 7.2 310 00:48 13.04.2020
5036 Clouds 7 1012 81 0 7.2 320 00:25 13.04.2020
5037 Clouds 7 1012 81 0 7.2 320 23:56 12.04.2020
5038 Clouds 8 1012 75 0 5.7 320 23:38 12.04.2020
5039 Clouds 8 1012 75 0 5.7 320 23:20 12.04.2020
5040 Clouds 8 1012 75 0 5.7 320 23:20 12.04.2020
5041 Clouds 8 1012 75 0 5.7 320 22:54 12.04.2020
5042 Clouds 8 1012 76 0 7.7 320 22:36 12.04.2020
5043 Clouds 9 1012 76 0 7.7 320 22:18 12.04.2020
5044 Clouds 10 1011 71 0 7.7 310 21:38 12.04.2020
5045 Clouds 10 1011 71 0 7.7 310 21:38 12.04.2020
5046 Clouds 10 1011 71 0 7.7 310 21:20 12.04.2020
5047 Clouds 11 1011 71 0 7.7 310 20:44 12.04.2020
5048 Clouds 12 1011 62 0 8.2 290 20:23 12.04.2020
5049 Clouds 13 1011 62 0 8.2 290 19:59 12.04.2020
5050 Clouds 14 1011 58 0 8.2 290 19:40 12.04.2020
5051 Clouds 14 1011 58 0 8.2 290 19:19 12.04.2020
5052 Clouds 15 1011 58 0 8.2 290 18:58 12.04.2020
5053 Clouds 15 1011 54 0 8.2 300 18:39 12.04.2020
5054 Clouds 16 1011 54 0 8.2 300 18:19 12.04.2020
5055 Clouds 16 1011 54 0 8.2 300 17:55 12.04.2020
5056 Clouds 16 1012 54 0 8.7 300 17:37 12.04.2020
5057 Clouds 16 1012 54 0 8.7 300 17:18 12.04.2020
5058 Clouds 15 1012 54 0 8.7 300 16:41 12.04.2020
5059 Clouds 16 1012 51 0 10.3 310 16:22 12.04.2020
5060 Clouds 17 1012 51 0 10.3 310 15:55 12.04.2020
5061 Clouds 17 1012 45 0 6.2 290 15:37 12.04.2020
5062 Clouds 18 1012 45 0 6.2 290 15:18 12.04.2020
5063 Clouds 18 1012 45 0 6.2 290 14:39 12.04.2020
5064 Clouds 17 1012 48 0 7.2 290 14:21 12.04.2020
5065 Clouds 17 1012 48 0 7.2 290 13:57 12.04.2020
5066 Clouds 17 1013 54 0 6.7 270 13:37 12.04.2020
5067 Clouds 17 1013 54 0 6.7 270 13:37 12.04.2020
5068 Clouds 17 1013 54 0 6.7 270 13:18 12.04.2020
5069 Clouds 16 1013 54 0 6.7 270 12:45 12.04.2020
5070 Clouds 16 1013 58 0 8.7 280 12:21 12.04.2020
5071 Clouds 16 1013 58 0 8.7 280 11:59 12.04.2020
5072 Clouds 15 1013 50 0 5.1 270 11:38 12.04.2020
5073 Clouds 15 1013 50 0 5.1 270 11:19 12.04.2020
5074 Clouds 15 1013 50 0 5.1 270 10:56 12.04.2020
5075 Clouds 15 1013 50 0 5.1 270 10:56 12.04.2020
5076 Clouds 13 1014 54 0 5.1 240 10:38 12.04.2020
5077 Clouds 13 1014 54 0 5.1 240 10:20 12.04.2020
5078 Clouds 12 1014 54 0 5.1 240 09:58 12.04.2020
5079 Clouds 12 1014 57 0 4.6 240 09:37 12.04.2020
5080 Clouds 10 1014 57 0 4.6 240 09:19 12.04.2020
5081 Clouds 10 1014 57 0 4.6 240 08:50 12.04.2020
5082 Clouds 9 1014 82 0 5.1 240 08:31 12.04.2020
5083 Clouds 7 1014 82 0 5.1 240 07:47 12.04.2020
5084 Clouds 7 1014 61 0 2.6 210 07:20 12.04.2020
5085 Clouds 7 1014 61 0 2.6 220 06:54 12.04.2020
5086 Clouds 7 1014 61 0 2.6 210 06:30 12.04.2020
5087 Clouds 7 1015 65 0 1.5 200 05:49 12.04.2020
5088 Clouds 8 1016 61 0 3.6 210 04:53 12.04.2020
5089 Clouds 9 1017 61 0 3.1 190 03:30 12.04.2020
5090 Clouds 9 1017 61 0 2.6 200 02:49 12.04.2020
5091 Clouds 9 1019 57 0 2.1 220 02:30 12.04.2020
5092 Clouds 9 1019 53 0 4.1 220 01:26 12.04.2020
5093 Clouds 9 1019 53 0 4.1 220 00:55 12.04.2020
5094 Clouds 9 1019 53 0 5.1 210 00:37 12.04.2020
5095 Clouds 9 1019 53 0 5.1 210 00:18 12.04.2020
5096 Clouds 9 1019 53 0 5.1 210 00:18 12.04.2020
5097 Clouds 9 1019 53 0 5.1 210 23:43 11.04.2020
5098 Clouds 9 1020 70 0 5.7 190 23:23 11.04.2020
5099 Clouds 9 1020 70 0 5.7 190 22:39 11.04.2020
5100 Clouds 10 1021 66 0 3.6 160 22:21 11.04.2020
5101 Clouds 10 1021 66 0 3.6 160 21:56 11.04.2020
5102 Clouds 11 1021 43 0 2.6 210 21:37 11.04.2020
5103 Clouds 11 1021 43 0 2.6 210 21:18 11.04.2020
5104 Clouds 11 1021 43 0 2.6 210 21:18 11.04.2020
5105 Clouds 12 1021 43 0 2.6 210 20:57 11.04.2020
5106 Clouds 12 1021 54 0 2.1 220 20:38 11.04.2020
5107 Clouds 13 1021 54 0 2.1 220 20:20 11.04.2020
5108 Clouds 13 1021 54 0 2.1 220 19:58 11.04.2020
5109 Clouds 14 1022 58 0 0.5 340 19:38 11.04.2020
5110 Clouds 14 1022 58 0 0.5 340 19:19 11.04.2020
5111 Clouds 14 1022 58 0 0.5 340 18:56 11.04.2020
5112 Clouds 15 1023 30 0 2.6 260 18:38 11.04.2020
5113 Clouds 15 1023 30 0 2.6 260 18:20 11.04.2020
5114 Clouds 15 1023 30 0 2.6 260 17:58 11.04.2020
5115 Clouds 15 1023 30 0 2.6 260 17:40 11.04.2020
5116 Clouds 15 1023 30 0 4.1 190 17:20 11.04.2020
5117 Clouds 15 1023 30 0 4.1 190 16:55 11.04.2020
5118 Clouds 15 1024 54 0 1 350 16:37 11.04.2020
5119 Clouds 15 1024 54 0 1 350 16:18 11.04.2020
5120 Clouds 14 1025 54 0 1.5 300 15:37 11.04.2020
5121 Clouds 14 1025 51 0 1.5 300 15:19 11.04.2020
5122 Clouds 14 1025 51 0 1.5 300 14:43 11.04.2020
5123 Clouds 13 1026 51 0 1.5 190 14:24 11.04.2020
5124 Clouds 13 1026 50 0 1.5 190 13:59 11.04.2020
5125 Clouds 13 1026 50 0 1.5 190 13:59 11.04.2020
5126 Clouds 12 1026 50 0 2.6 200 13:39 11.04.2020
5127 Clouds 12 1026 50 0 2.6 200 13:19 11.04.2020
5128 Clouds 11 1027 57 0 2.6 200 12:42 11.04.2020
5129 Clouds 10 1027 57 0 2.6 200 12:21 11.04.2020
5130 Clouds 11 1027 57 0 2.6 200 11:58 11.04.2020
5131 Clouds 9 1027 70 0 3.1 180 11:39 11.04.2020
5132 Clouds 9 1027 70 0 3.1 180 11:19 11.04.2020
5133 Clouds 9 1027 70 0 3.1 180 10:55 11.04.2020
5134 Clouds 8 1027 81 0 1 0 10:36 11.04.2020
5135 Clouds 7 1027 81 0 1 0 10:18 11.04.2020
5136 Clouds 6 1027 81 0 1 0 09:41 11.04.2020
5137 Clouds 4 1027 100 0 1 90 09:22 11.04.2020
5138 Clouds 3 1027 100 0 1 90 08:54 11.04.2020
5139 Clouds 2 1027 93 0 0.5 280 08:36 11.04.2020
5140 Clouds 1 1027 93 0 0.5 280 08:18 11.04.2020
5141 Clouds 1 1027 93 0 0.5 280 07:41 11.04.2020
5142 Clouds 1 1027 79 0 2.6 90 07:23 11.04.2020
5143 Clouds 1 1027 100 0 0.5 50 06:37 11.04.2020
5144 Clouds 1 1027 100 0 0.5 50 05:57 11.04.2020
5145 Clouds 1 1027 93 0 1.5 340 03:57 11.04.2020
5146 Clouds 2 1027 86 0 1.5 340 02:52 11.04.2020
5147 Clouds 3 1027 80 0 2.1 360 01:26 11.04.2020
5148 Clouds 3 1027 80 0 2.1 360 00:57 11.04.2020
5149 Clouds 3 1027 80 0 3.1 340 00:38 11.04.2020
5150 Clouds 3 1027 80 0 3.1 340 00:18 11.04.2020
5151 Clouds 4 1027 80 0 3.1 340 23:42 10.04.2020
5152 Clouds 5 1027 81 0 4.1 300 23:19 10.04.2020
5153 Clouds 5 1027 81 0 4.1 300 22:58 10.04.2020
5154 Clouds 5 1027 81 0 4.1 300 22:39 10.04.2020
5155 Clouds 5 1026 81 0 5.7 320 22:20 10.04.2020
5156 Clouds 6 1026 81 0 5.7 320 21:42 10.04.2020
5157 Clouds 6 1026 81 0 5.7 320 21:42 10.04.2020
5158 Clouds 6 1026 75 0 6.7 310 21:22 10.04.2020
5159 Clouds 7 1026 75 0 6.7 310 20:59 10.04.2020
5160 Clouds 8 1026 66 0 7.2 310 20:41 10.04.2020
5161 Clouds 8 1026 66 0 7.2 310 20:23 10.04.2020
5162 Clouds 8 1026 66 0 7.2 310 19:57 10.04.2020
5163 Clouds 9 1026 61 0 7.7 310 19:39 10.04.2020
5164 Clouds 9 1026 61 0 7.7 310 19:20 10.04.2020
5165 Clouds 10 1026 61 0 7.7 310 18:57 10.04.2020
5166 Clouds 10 1026 57 0 7.2 320 18:38 10.04.2020
5167 Clouds 11 1026 57 0 7.2 320 18:20 10.04.2020
5168 Clouds 11 1026 57 0 7.2 320 17:58 10.04.2020
5169 Clouds 11 1026 53 0 7.2 320 17:39 10.04.2020
5170 Clouds 12 1026 53 0 7.2 320 17:20 10.04.2020
5171 Clouds 11 1026 53 0 7.2 320 16:56 10.04.2020
5172 Clouds 12 1026 53 0 6.2 320 16:37 10.04.2020
5173 Clouds 12 1026 53 0 6.2 320 16:19 10.04.2020
5174 Clouds 12 1026 53 0 6.2 320 15:55 10.04.2020
5175 Clouds 11 1027 50 0 6.7 320 15:36 10.04.2020
5176 Clouds 11 1027 50 0 6.7 320 15:18 10.04.2020
5177 Clouds 11 1027 50 0 6.7 320 14:55 10.04.2020
5178 Clouds 11 1027 53 0 6.2 310 14:37 10.04.2020
5179 Clouds 10 1027 53 0 6.2 310 14:18 10.04.2020
5180 Clouds 10 1027 53 0 6.2 310 14:18 10.04.2020
5181 Clouds 10 1027 53 0 6.2 310 13:43 10.04.2020
5182 Clouds 10 1027 57 0 5.7 310 13:21 10.04.2020
5183 Clouds 9 1027 57 0 5.7 310 12:43 10.04.2020
5184 Clouds 9 1027 61 0 4.6 320 12:23 10.04.2020
5185 Clouds 8 1027 61 0 4.6 320 11:56 10.04.2020
5186 Clouds 8 1028 65 0 7.7 330 11:38 10.04.2020
5187 Clouds 7 1028 65 0 7.7 330 11:20 10.04.2020
5188 Clouds 7 1028 65 0 7.7 330 10:46 10.04.2020
5189 Clouds 7 1028 70 0 6.2 330 10:23 10.04.2020
5190 Clouds 6 1028 70 0 6.2 330 09:57 10.04.2020
5191 Clouds 6 1027 75 0 5.1 310 09:38 10.04.2020
5192 Clouds 5 1027 75 0 5.1 310 09:20 10.04.2020
5193 Clouds 5 1027 75 0 5.1 310 08:43 10.04.2020
5194 Clouds 4 1027 80 0 5.1 310 08:24 10.04.2020
5195 Clouds 3 1027 80 0 5.1 310 07:46 10.04.2020
5196 Clouds 2 1027 80 0 4.6 320 07:24 10.04.2020
5197 Clouds 2 1027 80 0 4.6 320 06:49 10.04.2020
5198 Clouds 2 1027 80 0 5.7 310 06:29 10.04.2020
5199 Clouds 2 1027 80 0 5.7 310 05:42 10.04.2020
5200 Clouds 1 1027 87 0 4.6 310 05:18 10.04.2020
5201 Clouds 2 1027 87 0 5.7 320 03:53 10.04.2020
5202 Clouds 2 1027 83 0 4.6 320 03:32 10.04.2020
5203 Clouds 2 1027 83 0 4.6 320 02:49 10.04.2020
5204 Clouds 3 1027 80 0 3.6 340 02:31 10.04.2020
5205 Clouds 3 1027 80 0 4.1 330 01:30 10.04.2020
5206 Clouds 4 1027 80 0 4.1 330 00:55 10.04.2020
5207 Clouds 4 1028 75 0 4.6 320 00:37 10.04.2020
5208 Clouds 4 1028 75 0 4.6 320 00:18 10.04.2020
5209 Clouds 5 1028 75 0 4.6 320 23:41 09.04.2020
5210 Clouds 5 1027 70 0 5.7 330 23:20 09.04.2020
5211 Clouds 6 1027 70 0 5.7 330 22:54 09.04.2020
5212 Clouds 6 1027 74 0 6.7 340 22:36 09.04.2020
5213 Clouds 6 1027 74 0 6.7 340 22:18 09.04.2020
5214 Clouds 7 1026 76 0 7.7 340 21:38 09.04.2020
5215 Clouds 8 1026 66 0 7.7 340 21:19 09.04.2020
5216 Clouds 8 1026 66 0 7.7 340 20:45 09.04.2020
5217 Clouds 9 1026 53 0 8.2 340 20:22 09.04.2020
5218 Clouds 10 1026 53 0 8.2 340 19:58 09.04.2020
5219 Clouds 10 1025 46 0 8.7 340 19:38 09.04.2020
5220 Clouds 10 1025 46 0 8.7 340 19:19 09.04.2020
5221 Clouds 12 1025 66 0 8.2 340 18:42 09.04.2020
5222 Clear 12 1025 47 0 8.2 340 18:20 09.04.2020
5223 Clear 13 1025 37 0 7.7 330 17:43 09.04.2020
5224 Clear 13 1025 37 0 7.7 330 17:24 09.04.2020
5225 -273 0 0 0 0 0 17:00 09.04.2020
5226 Clear 14 1025 37 0 6.2 330 16:39 09.04.2020
5227 Clear 13 1025 37 0 6.2 330 16:19 09.04.2020
5228 Clear 13 1025 37 0 6.2 330 15:56 09.04.2020
5229 Clear 13 1025 37 0 7.2 320 15:37 09.04.2020
5230 Clouds 13 1025 37 0 7.2 320 15:19 09.04.2020
5231 Clouds 13 1025 37 0 7.2 320 14:42 09.04.2020
5232 Clouds 13 1025 40 0 7.7 340 14:21 09.04.2020
5233 Clouds 13 1025 40 0 7.7 340 13:58 09.04.2020
5234 Clouds 12 1025 47 0 7.2 340 13:40 09.04.2020
5235 Clouds 12 1025 47 0 7.2 340 13:22 09.04.2020
5236 Clouds 12 1025 47 0 7.2 340 12:55 09.04.2020
5237 Clouds 12 1024 47 0 6.7 330 12:36 09.04.2020
5238 Clouds 12 1024 60 0 6.7 330 12:18 09.04.2020
5239 Clouds 11 1024 60 0 6.7 330 11:43 09.04.2020
5240 Clouds 11 1024 66 0 7.2 340 11:20 09.04.2020
5241 Clouds 11 1024 66 0 7.2 340 10:58 09.04.2020
5242 Clouds 10 1023 81 0 6.7 330 10:40 09.04.2020
5243 Clouds 10 1023 81 0 6.7 330 10:21 09.04.2020
5244 Clouds 10 1023 81 0 6.7 330 09:57 09.04.2020
5245 Clouds 9 1023 87 0 5.1 320 09:38 09.04.2020
5246 Clouds 8 1023 87 0 5.1 320 09:20 09.04.2020
5247 Clouds 8 1023 87 0 5.1 320 08:44 09.04.2020
5248 Clouds 7 1022 87 0 6.7 300 08:23 09.04.2020
5249 Clouds 7 1022 87 0 6.7 300 07:57 09.04.2020
5250 Clouds 7 1022 87 0 5.7 300 07:36 09.04.2020
5251 Clouds 7 1022 87 0 5.7 300 07:18 09.04.2020
5252 Clear 5 1022 87 0 5.1 290 06:26 09.04.2020
5253 Clear 5 1022 87 0 5.1 290 05:47 09.04.2020
5254 Clear 5 1021 93 0 4.1 260 04:39 09.04.2020
5255 Clouds 6 1022 81 0 4.6 280 02:35 09.04.2020
5256 Clouds 7 1022 81 0 4.6 280 01:45 09.04.2020
5257 Clouds 7 1022 87 0 5.1 290 01:27 09.04.2020
5258 Clouds 7 1022 87 0 5.1 290 00:44 09.04.2020
5259 Clouds 8 1022 81 0 4.6 290 00:20 09.04.2020
5260 Clouds 8 1022 81 0 4.6 290 23:59 08.04.2020
5261 Clouds 8 1022 81 0 4.6 290 23:41 08.04.2020
5262 Clouds 8 1022 76 0 4.1 270 23:22 08.04.2020
5263 Clouds 9 1022 75 10000 2.1 250 22:44 08.04.2020
5264 Clouds 9 1022 62 0 4.6 270 22:24 08.04.2020
5265 Clouds 10 1022 62 0 4.6 270 21:57 08.04.2020
5266 Clouds 10 1022 66 0 6.7 280 21:39 08.04.2020
5267 Clouds 11 1022 66 0 6.7 280 21:21 08.04.2020
5268 Clouds 11 1022 62 0 7.2 270 20:59 08.04.2020
5269 Clouds 12 1022 62 0 7.2 270 20:40 08.04.2020
5270 Clouds 13 1022 62 0 7.2 270 20:21 08.04.2020
5271 Clouds 13 1022 62 0 7.2 270 19:59 08.04.2020
5272 Clouds 13 1022 62 0 7.2 270 19:40 08.04.2020
5273 Clouds 14 1022 58 0 7.7 270 19:21 08.04.2020
5274 Clouds 14 1022 58 0 7.7 270 18:45 08.04.2020
5275 Clouds 14 1022 58 0 7.7 270 18:45 08.04.2020
5276 Clouds 15 1022 55 0 6.7 260 18:26 08.04.2020
5277 Clouds 16 1022 55 0 6.7 260 17:57 08.04.2020
5278 Clouds 17 1022 51 0 3.6 280 17:38 08.04.2020
5279 Clouds 17 1022 51 0 3.6 280 17:19 08.04.2020
5280 Clouds 18 1022 51 0 3.6 280 16:55 08.04.2020
5281 Clouds 18 1022 51 0 3.6 280 16:37 08.04.2020
5282 Clouds 18 1023 45 0 1 20 16:19 08.04.2020
5283 Clouds 18 1024 48 0 2.1 40 15:38 08.04.2020
5284 Clouds 18 1024 48 0 2.1 40 15:20 08.04.2020
5285 Clouds 18 1024 48 0 2.1 40 14:55 08.04.2020
5286 Clouds 18 1024 42 0 2.6 140 14:37 08.04.2020
5287 Clouds 18 1024 42 0 2.6 140 14:19 08.04.2020
5288 Clouds 18 1024 42 0 2.6 140 13:44 08.04.2020
5289 Clouds 17 1025 44 0 3.1 120 13:21 08.04.2020
5290 Clouds 17 1025 44 0 3.1 120 12:43 08.04.2020
5291 Clouds 15 1026 41 0 4.1 150 12:19 08.04.2020
5292 Clouds 15 1026 41 0 4.1 150 12:19 08.04.2020
5293 Clouds 15 1026 41 0 4.1 150 11:59 08.04.2020
5294 Clouds 14 1027 62 10000 5.1 120 11:41 08.04.2020
5295 Clouds 13 1027 50 0 4.1 150 11:22 08.04.2020
5296 Clouds 13 1027 50 0 4.1 150 10:58 08.04.2020
5297 Clouds 12 1027 61 0 2.6 140 10:39 08.04.2020
5298 Clouds 12 1027 61 0 2.6 140 10:20 08.04.2020
5299 Clouds 12 1027 61 0 2.6 140 09:56 08.04.2020
5300 Clouds 10 1028 87 0 2.6 140 09:38 08.04.2020
5301 Clouds 8 1028 87 0 2.6 140 09:18 08.04.2020
5302 Clouds 8 1028 87 0 2.6 140 08:56 08.04.2020
5303 Clouds 7 1029 75 10000 2.1 140 08:38 08.04.2020
5304 Clouds 7 1029 75 10000 2.1 140 08:20 08.04.2020
5305 Clouds 6 1029 86 0 2.6 160 07:42 08.04.2020
5306 Clouds 5 1029 86 0 2.6 160 07:20 08.04.2020
5307 Clouds 5 1030 86 0 2.6 140 06:22 08.04.2020
5308 Clouds 6 1030 86 0 2.6 140 04:54 08.04.2020
5309 Clouds 5 1031 86 0 2.1 140 02:50 08.04.2020
5310 Clouds 5 1032 80 0 1.5 160 02:21 08.04.2020
5311 Clouds 5 1032 80 0 1.5 160 01:56 08.04.2020
5312 Clouds 6 1032 75 0 2.6 150 01:27 08.04.2020
5313 Clouds 6 1032 75 0 2.6 150 00:45 08.04.2020
5314 Clouds 6 1032 75 0 0.5 330 00:25 08.04.2020
5315 Clouds 6 1032 75 0 0.5 330 23:56 07.04.2020
5316 Clouds 7 1032 65 0 1 340 23:37 07.04.2020
5317 Clouds 7 1032 65 0 1 340 23:18 07.04.2020
5318 Clouds 7 1032 65 0 1 340 22:54 07.04.2020
5319 Clouds 7 1032 65 0 1 340 22:54 07.04.2020
5320 Clouds 9 1032 63 0 1 340 22:36 07.04.2020
5321 Clouds 9 1032 63 0 1 340 22:18 07.04.2020
5322 Clouds 10 1032 63 0 1 340 21:42 07.04.2020
5323 Clouds 10 1032 63 0 1 330 21:21 07.04.2020
5324 Clouds 11 1032 43 0 1 350 20:58 07.04.2020
5325 Clouds 12 1032 43 0 1 350 20:39 07.04.2020
5326 Clouds 13 1032 43 0 1 350 20:21 07.04.2020
5327 Clouds 13 1032 43 0 1 350 19:57 07.04.2020
5328 Clouds 14 1032 33 0 3.6 340 19:38 07.04.2020
5329 Clouds 15 1032 33 0 3.6 340 19:19 07.04.2020
5330 Clouds 15 1032 33 0 3.6 340 18:58 07.04.2020
5331 Clouds 15 1032 33 0 3.6 340 18:40 07.04.2020
5332 Clouds 15 1032 30 0 4.6 340 18:20 07.04.2020
5333 Clouds 16 1032 30 0 4.6 340 17:47 07.04.2020
5334 Clouds 16 1032 38 0 4.1 330 17:24 07.04.2020
5335 Clouds 16 1032 38 0 4.1 330 16:55 07.04.2020
5336 Clouds 16 1032 38 0 4.1 330 16:55 07.04.2020
5337 Clouds 16 1032 41 0 5.7 320 16:37 07.04.2020
5338 Clouds 16 1032 41 0 5.7 320 16:19 07.04.2020
5339 Clouds 16 1032 41 0 5.7 320 15:43 07.04.2020
5340 Clear 16 1032 38 0 5.1 320 15:24 07.04.2020
5341 Clear 16 1032 41 0 5.7 320 14:55 07.04.2020
5342 Clear 15 1032 41 0 5.7 320 14:36 07.04.2020
5343 Clear 15 1032 41 0 6.7 290 14:18 07.04.2020
5344 Clear 15 1032 41 0 6.7 290 13:41 07.04.2020
5345 Clear 15 1032 54 0 5.7 300 13:19 07.04.2020
5346 Clear 15 1032 54 0 5.7 300 12:56 07.04.2020
5347 Clear 14 1031 58 0 6.2 290 12:37 07.04.2020
5348 Clear 14 1031 58 0 6.2 290 12:19 07.04.2020
5349 Clear 14 1031 58 0 6.2 290 11:56 07.04.2020
5350 Clear 13 1030 71 0 4.6 290 11:38 07.04.2020
5351 Clear 13 1030 71 0 4.6 290 11:19 07.04.2020
5352 Clear 11 1030 81 0 4.6 270 10:39 07.04.2020
5353 Clear 11 1030 81 0 4.6 270 10:20 07.04.2020
5354 Clear 10 1030 81 0 4.6 270 09:54 07.04.2020
5355 Clear 9 1029 87 0 4.1 270 09:36 07.04.2020
5356 Clouds 9 1029 87 0 4.1 270 09:18 07.04.2020
5357 Clouds 8 1029 87 0 4.1 270 08:39 07.04.2020
5358 Clouds 7 1028 93 0 4.6 270 08:20 07.04.2020
5359 Clouds 7 1028 93 0 4.6 270 07:46 07.04.2020
5360 Clouds 7 1027 100 0 5.1 270 07:26 07.04.2020
5361 Clouds 7 1027 100 0 5.1 270 06:53 07.04.2020
5362 Clouds 8 1026 93 0 5.7 280 06:26 07.04.2020
5363 Clouds 8 1026 93 0 5.7 280 05:56 07.04.2020
5364 Clouds 8 1025 93 0 6.7 300 05:26 07.04.2020
5365 Clouds 8 1024 87 0 5.7 300 04:22 07.04.2020
5366 Clouds 9 1023 87 0 5.7 300 03:23 07.04.2020
5367 Clouds 9 1023 87 0 5.7 300 02:46 07.04.2020
5368 Clear 9 1023 81 0 6.2 280 01:43 07.04.2020
5369 Clear 9 1022 76 0 6.7 300 01:22 07.04.2020
5370 Clear 10 1021 66 0 3.6 270 00:26 07.04.2020
5371 Clear 11 1021 66 0 3.6 270 23:44 06.04.2020
5372 Clear 12 1020 76 0 4.6 270 23:23 06.04.2020
5373 Clear 12 1020 76 0 4.6 270 22:56 06.04.2020
5374 Clear 13 1020 54 0 3.6 190 22:37 06.04.2020
5375 Clear 14 1020 54 0 3.6 190 22:19 06.04.2020
5376 Clear 14 1020 54 0 3.6 190 21:56 06.04.2020
5377 Clear 14 1019 39 0 5.1 190 21:37 06.04.2020
5378 Clear 15 1019 39 0 5.1 190 21:18 06.04.2020
5379 Clear 16 1019 39 0 5.1 190 20:42 06.04.2020
5380 Clear 18 1019 30 0 4.1 200 20:23 06.04.2020
5381 Clear 19 1019 30 0 4.1 200 19:58 06.04.2020
5382 Clear 20 1018 26 0 4.6 220 19:40 06.04.2020
5383 Clear 20 1018 26 0 4.6 220 19:22 06.04.2020
5384 Clear 20 1018 26 0 4.6 220 18:55 06.04.2020
5385 Clear 20 1018 28 0 5.1 200 18:37 06.04.2020
5386 Clear 21 1018 28 0 5.1 200 18:19 06.04.2020
5387 Clear 21 1018 28 0 5.1 200 17:42 06.04.2020
5388 Clear 20 1018 28 0 6.2 160 17:19 06.04.2020
5389 Clear 20 1018 28 0 6.2 160 16:50 06.04.2020
5390 Clear 20 1019 30 0 5.7 170 16:31 06.04.2020
5391 Clear 20 1019 30 0 5.7 170 15:41 06.04.2020
5392 Clear 18 1019 34 0 4.1 160 13:46 06.04.2020
5393 Clear 17 1019 36 0 4.1 170 13:24 06.04.2020
5394 Clear 17 1019 36 0 4.1 170 13:02 06.04.2020
5395 Clear 15 1019 41 0 6.2 160 12:22 06.04.2020
5396 Clear 13 1019 41 0 6.2 160 11:55 06.04.2020
5397 Clear 13 1019 41 0 6.2 160 11:33 06.04.2020
5398 Clear 13 1019 41 0 6.2 160 11:33 06.04.2020
5399 Clear 13 1019 41 0 6.2 160 11:33 06.04.2020
5400 Clear 13 1019 41 0 6.2 160 11:33 06.04.2020
5401 Clear 13 1019 41 0 6.2 160 11:33 06.04.2020
5402 Clear 13 1019 64 0 4.1 170 10:52 06.04.2020
5403 Clear 13 1019 64 0 4.1 170 10:52 06.04.2020
5404 Clear 13 1019 64 0 4.1 170 10:52 06.04.2020
5405 Clear 13 1019 64 0 4.1 170 10:52 06.04.2020
5406 Clear 13 1019 64 0 4.1 170 10:52 06.04.2020
5407 Clear 11 1019 64 0 5.1 170 10:22 06.04.2020
5408 Clear 11 1019 64 0 5.1 170 09:47 06.04.2020
5409 Clear 11 1019 64 0 5.1 170 09:47 06.04.2020
5410 Clear 11 1019 64 0 5.1 170 09:47 06.04.2020
5411 Clear 9 1019 65 0 3.6 160 09:21 06.04.2020
5412 Clear 8 1019 77 0 3.6 160 08:55 06.04.2020
5413 Clear 8 1019 77 0 3.6 160 08:31 06.04.2020
5414 Clear 7 1019 77 0 4.1 160 07:50 06.04.2020
5415 Clear 7 1019 77 0 4.1 160 07:50 06.04.2020
5416 Clear 7 1019 77 0 4.1 160 07:48 06.04.2020
5417 Clear 6 1020 70 0 6.2 140 06:51 06.04.2020
5418 Clear 6 1020 70 0 6.2 140 06:50 06.04.2020
5419 Clear 6 1020 70 0 6.2 140 06:25 06.04.2020
5420 Clear 7 1020 77 0 3.1 140 04:31 06.04.2020
5421 Clear 8 1021 72 0 5.7 130 03:18 06.04.2020
5422 Clear 8 1021 72 0 5.7 130 02:44 06.04.2020
5423 Clear 9 1022 75 0 5.1 130 01:47 06.04.2020
5424 Clear 9 1022 75 0 5.7 140 00:46 06.04.2020
5425 Clear 10 1022 75 0 5.7 140 00:24 06.04.2020
5426 Clear 10 1022 71 0 5.7 140 23:46 05.04.2020
5427 Clear 10 1022 57 0 5.7 140 23:28 05.04.2020
5428 Clear 10 1022 57 0 5.7 140 23:28 05.04.2020
5429 Clear 10 1022 57 0 5.7 140 23:28 05.04.2020
5430 Clear 10 1022 57 0 5.7 140 23:28 05.04.2020
5431 Clear 10 1022 57 0 5.7 140 23:28 05.04.2020
5432 Clear 10 1022 57 0 5.7 140 22:56 05.04.2020
5433 Clear 10 1022 57 0 5.7 140 22:38 05.04.2020
5434 Clear 10 1022 57 0 5.7 140 22:38 05.04.2020
5435 Clear 10 1022 57 0 5.7 140 22:38 05.04.2020
5436 Clear 10 1023 61 0 4.6 130 22:18 05.04.2020
5437 Clear 10 1023 61 0 4.6 130 21:55 05.04.2020
5438 Clear 10 1023 61 0 4.6 130 21:37 05.04.2020
5439 Clear 11 1023 53 0 4.6 130 21:18 05.04.2020
5440 Clear 13 1023 47 0 5.7 140 20:20 05.04.2020
5441 Clear 13 1023 47 0 5.7 140 20:20 05.04.2020
5442 Clear 13 1023 47 0 5.7 140 20:20 05.04.2020
5443 Clear 13 1023 47 0 5.7 140 20:20 05.04.2020
5444 Clear 13 1023 47 0 5.7 140 19:40 05.04.2020
5445 Clear 14 1023 44 0 6.2 130 19:22 05.04.2020
5446 Clear 14 1023 44 0 6.2 130 19:22 05.04.2020
5447 Clear 15 1023 44 0 6.2 130 18:44 05.04.2020
5448 Clear 16 1024 38 0 6.7 140 17:58 05.04.2020
5449 Clear 16 1024 38 0 6.7 140 17:58 05.04.2020
5450 Clear 16 1024 38 0 6.7 140 17:58 05.04.2020
5451 Clear 16 1024 38 0 6.7 140 17:39 05.04.2020
5452 Clear 16 1024 38 0 6.7 140 17:39 05.04.2020
5453 Clear 16 1024 38 0 6.7 140 17:39 05.04.2020
5454 Clear 16 1025 38 0 5.7 140 17:20 05.04.2020
5455 Clear 16 1025 38 0 5.7 140 17:20 05.04.2020
5456 Clear 16 1025 38 0 5.7 140 16:38 05.04.2020
5457 Clear 16 1025 38 0 5.7 140 16:38 05.04.2020
5458 Clear 16 1025 38 0 5.7 140 16:38 05.04.2020
5459 Clear 16 1025 38 0 5.7 140 16:37 05.04.2020
5460 Clear 16 1025 38 0 5.7 140 16:37 05.04.2020
5461 Clear 16 1025 36 0 5.7 150 16:18 05.04.2020
5462 Clear 15 1025 36 0 5.7 150 15:43 05.04.2020
5463 Clear 15 1026 38 0 7.7 170 15:24 05.04.2020
5464 Clouds 15 1026 38 0 7.7 170 14:47 05.04.2020
5465 Clouds 15 1026 38 0 7.7 170 14:47 05.04.2020
5466 Clouds 15 1026 38 0 7.7 170 14:47 05.04.2020
5467 Clouds 15 1026 38 0 7.7 170 14:47 05.04.2020
5468 Clouds 15 1026 38 0 7.7 170 14:47 05.04.2020
5469 Clouds 15 1026 41 0 7.2 160 13:44 05.04.2020
5470 Clouds 14 1027 54 0 6.2 160 12:56 05.04.2020
5471 Clouds 12 1027 40 0 8.2 160 11:58 05.04.2020
5472 Clouds 12 1027 40 0 8.2 160 11:58 05.04.2020
5473 Clouds 12 1027 40 0 8.2 160 11:58 05.04.2020
5474 Clouds 12 1027 40 0 8.2 160 11:58 05.04.2020
5475 Clouds 12 1027 40 0 8.2 160 11:58 05.04.2020
5476 Clouds 12 1027 40 0 8.2 160 11:37 05.04.2020
5477 Clouds 11 1028 43 0 7.2 160 11:18 05.04.2020
5478 Clouds 11 1028 43 0 7.2 160 10:42 05.04.2020
5479 Clouds 10 1028 52 0 5.1 160 10:19 05.04.2020
5480 Clouds 9 1028 52 0 5.1 160 09:46 05.04.2020
5481 Clouds 9 1028 52 0 5.1 160 09:45 05.04.2020
5482 Clouds 9 1028 52 0 5.1 160 09:45 05.04.2020
5483 Clouds 7 1028 60 0 5.1 160 09:25 05.04.2020
5484 Clouds 7 1028 60 0 5.1 160 09:25 05.04.2020
5485 Clouds 7 1028 60 0 5.1 160 09:25 05.04.2020
5486 Clouds 7 1028 60 0 5.1 160 09:25 05.04.2020
5487 Clouds 7 1028 60 0 5.1 160 09:25 05.04.2020
5488 Clouds 4 1028 69 0 5.7 160 07:49 05.04.2020
5489 Clouds 4 1028 69 0 5.7 160 07:49 05.04.2020
5490 Clouds 3 1027 80 0 5.7 180 04:52 05.04.2020
5491 Clouds 3 1027 80 0 5.7 180 04:52 05.04.2020
5492 Clouds 4 1027 86 0 4.6 170 03:35 05.04.2020
5493 Clouds 4 1027 86 0 4.6 170 03:35 05.04.2020
5494 Clouds 4 1027 86 0 4.6 170 03:35 05.04.2020
5495 Clouds 3 1027 93 0 4.6 170 02:52 05.04.2020
5496 Clouds 3 1027 93 0 4.1 170 01:48 05.04.2020
5497 Clouds 3 1027 93 0 4.1 170 01:30 05.04.2020
5498 Clouds 3 1027 86 0 1.5 200 00:47 05.04.2020
5499 Clouds 4 1026 86 0 2.6 230 00:22 05.04.2020
5500 Clouds 4 1026 86 0 2.6 230 00:22 05.04.2020
5501 Clouds 4 1026 86 0 2.6 230 23:57 04.04.2020
5502 Clouds 4 1026 86 0 2.6 230 23:38 04.04.2020
5503 Clouds 5 1026 70 0 2.6 210 23:20 04.04.2020
5504 Clouds 5 1026 70 0 2.6 210 22:56 04.04.2020
5505 Clouds 5 1026 70 0 2.6 210 22:37 04.04.2020
5506 Clouds 6 1026 65 0 3.6 230 22:19 04.04.2020
5507 Clouds 6 1026 65 0 3.6 230 21:54 04.04.2020
5508 Clouds 6 1026 65 0 3.6 230 21:36 04.04.2020
5509 Clouds 7 1025 57 0 4.6 260 21:18 04.04.2020
5510 Clouds 8 1025 57 0 4.6 260 20:42 04.04.2020
5511 Clouds 9 1025 57 0 7.7 270 20:23 04.04.2020
5512 Clouds 10 1025 57 0 7.7 270 19:59 04.04.2020
5513 Clouds 10 1025 57 0 7.7 270 19:38 04.04.2020
5514 Clouds 11 1024 61 0 5.1 260 19:20 04.04.2020
5515 Clouds 11 1024 61 0 5.1 260 18:58 04.04.2020
5516 Clouds 11 1024 61 0 5.1 260 18:39 04.04.2020
5517 Rain 11 1024 62 0 7.7 260 18:19 04.04.2020
5518 Rain 11 1024 62 0 7.7 260 17:58 04.04.2020
5519 Rain 11 1024 62 0 7.7 260 17:38 04.04.2020
5520 Rain 11 1024 66 0 9.8 270 17:19 04.04.2020
5521 Rain 11 1024 66 0 9.8 270 16:42 04.04.2020
5522 Rain 11 1023 71 0 6.2 270 16:24 04.04.2020
5523 Rain 11 1023 71 0 6.2 270 15:58 04.04.2020
5524 Rain 11 1023 71 0 6.2 270 15:38 04.04.2020
5525 Rain 11 1023 76 0 6.2 250 15:19 04.04.2020
5526 Rain 11 1023 76 0 6.2 250 15:19 04.04.2020
5527 Rain 11 1023 76 0 6.2 250 14:54 04.04.2020
5528 Rain 10 1023 76 0 6.2 250 14:36 04.04.2020
5529 Rain 10 1023 70 0 5.1 250 14:18 04.04.2020
5530 Rain 9 1023 70 0 5.1 250 13:42 04.04.2020
5531 Rain 9 1022 75 0 4.6 240 13:21 04.04.2020
5532 Rain 9 1022 75 0 4.6 240 12:58 04.04.2020
5533 Rain 9 1022 75 0 4.6 240 12:40 04.04.2020
5534 Clouds 8 1022 87 0 3.6 220 12:20 04.04.2020
5535 Clouds 7 1022 87 0 3.6 220 11:42 04.04.2020
5536 Clouds 6 1022 87 0 3.6 220 11:23 04.04.2020
5537 Clouds 6 1022 87 0 3.6 220 10:59 04.04.2020
5538 Clouds 6 1022 87 0 3.6 220 10:41 04.04.2020
5539 Clouds 5 1021 81 0 4.6 220 10:23 04.04.2020
5540 Clouds 5 1021 81 0 4.6 220 09:57 04.04.2020
5541 Clouds 5 1021 81 0 4.6 220 09:39 04.04.2020
5542 Clouds 4 1020 80 0 3.6 220 09:21 04.04.2020
5543 Clear 4 1020 80 0 3.6 220 08:56 04.04.2020
5544 Clear 4 1020 80 0 3.6 220 08:37 04.04.2020
5545 Clouds 3 1020 86 10000 2.6 210 08:19 04.04.2020
5546 Clear 2 1019 86 0 5.7 230 07:40 04.04.2020
5547 Clear 2 1019 86 0 5.7 230 07:22 04.04.2020
5548 Clear 2 1019 86 0 5.7 230 07:22 04.04.2020
5549 Clear 2 1019 86 0 5.7 230 06:40 04.04.2020
5550 Clear 2 1019 92 0 6.2 230 05:57 04.04.2020
5551 Clear 2 1019 92 0 6.2 230 05:39 04.04.2020
5552 Clear 1 1019 92 0 6.2 230 05:21 04.04.2020
5553 Clear 2 1018 92 0 6.2 240 04:24 04.04.2020
5554 Clear 1 1018 93 0 2.1 220 03:45 04.04.2020
5555 Clear 1 1018 90 0 5.7 240 02:49 04.04.2020
5556 Clear 1 1018 89 0 5.7 240 02:30 04.04.2020
5557 Clear 1 1017 89 0 4.6 250 01:51 04.04.2020
5558 Clear 2 1017 89 0 5.1 260 01:22 04.04.2020
5559 Clear 2 1017 89 0 5.1 260 00:47 04.04.2020
5560 Clear 2 1016 89 0 4.6 270 00:27 04.04.2020
5561 Clear 2 1016 87 0 4.6 270 23:39 03.04.2020
5562 Clear 2 1016 87 0 5.7 270 23:21 03.04.2020
5563 Clear 2 1016 87 0 5.7 270 22:57 03.04.2020
5564 Clear 2 1016 87 0 5.7 270 22:39 03.04.2020
5565 Clear 2 1015 80 0 5.1 290 22:18 03.04.2020
5566 Clear 3 1015 80 0 5.1 290 21:43 03.04.2020
5567 Clouds 3 1015 76 0 2.6 260 21:24 03.04.2020
5568 Rain 3 1015 74 0 2.6 260 20:57 03.04.2020
5569 Rain 3 1015 74 0 2.6 260 20:57 03.04.2020
5570 Rain 4 1015 74 0 2.6 260 20:37 03.04.2020
5571 Rain 5 1014 74 0 5.7 340 20:19 03.04.2020
5572 Rain 5 1014 74 0 5.7 340 19:57 03.04.2020
5573 Rain 5 1014 74 0 5.7 340 19:38 03.04.2020
5574 Rain 6 1014 74 0 7.7 320 19:20 03.04.2020
5575 Rain 6 1014 74 0 7.7 320 18:59 03.04.2020
5576 Rain 6 1014 74 0 7.7 320 18:41 03.04.2020
5577 Rain 7 1013 56 0 11.8 290 18:22 03.04.2020
5578 Clouds 7 1013 56 0 11.8 290 17:55 03.04.2020
5579 Clouds 7 1013 56 0 11.8 290 17:37 03.04.2020
5580 Clouds 7 1012 49 0 11.3 300 17:18 03.04.2020
5581 Clouds 8 1012 49 0 11.3 300 16:44 03.04.2020
5582 Clouds 8 1012 49 0 12.9 320 16:22 03.04.2020
5583 Clouds 8 1012 49 0 12.9 320 15:58 03.04.2020
5584 Clouds 8 1012 49 0 12.9 320 15:40 03.04.2020
5585 Clouds 8 1012 49 0 12.9 320 15:21 03.04.2020
5586 Clouds 8 1011 52 0 12.9 320 14:56 03.04.2020
5587 Rain 8 1011 56 10000 6.7 300 14:38 03.04.2020
5588 Rain 8 1010 49 10000 8.7 300 14:20 03.04.2020
5589 Rain 8 1010 49 10000 8.7 300 13:43 03.04.2020
5590 Clouds 7 1010 56 0 9.8 310 13:25 03.04.2020
5591 Clouds 7 1010 56 0 9.8 310 12:56 03.04.2020
5592 Clouds 7 1011 52 10000 9.8 290 12:37 03.04.2020
5593 Clouds 7 1009 49 10000 8.2 290 12:18 03.04.2020
5594 Clouds 7 1008 56 10000 6.7 290 11:55 03.04.2020
5595 Clouds 7 1008 56 10000 6.7 290 11:37 03.04.2020
5596 Clouds 7 1008 56 0 13.9 310 11:18 03.04.2020
5597 Clouds 6 1008 56 0 13.9 310 10:55 03.04.2020
5598 Clouds 6 1008 56 0 13.9 310 10:36 03.04.2020
5599 Clouds 6 1007 75 0 11.8 290 10:18 03.04.2020
5600 Clouds 6 1007 75 0 11.8 290 09:40 03.04.2020
5601 Clouds 6 1007 75 0 11.8 290 09:40 03.04.2020
5602 Clouds 5 1006 93 0 8.2 300 09:22 03.04.2020
5603 Clouds 5 1006 75 10000 6.7 270 08:59 03.04.2020
5604 Clouds 4 1006 93 0 8.2 300 08:40 03.04.2020
5605 Clouds 4 1006 93 0 8.2 300 08:40 03.04.2020
5606 Clouds 3 1006 86 0 9.8 320 08:22 03.04.2020
5607 Clouds 3 1006 86 0 9.8 320 07:50 03.04.2020
5608 Clouds 3 1005 80 0 11.8 300 07:32 03.04.2020
5609 Clouds 3 1005 80 0 11.8 300 06:50 03.04.2020
5610 Clouds 3 1004 80 0 11.8 300 06:25 03.04.2020
5611 Clouds 3 1004 80 0 11.8 300 05:40 03.04.2020
5612 Clouds 4 1003 86 0 10.8 290 03:47 03.04.2020
5613 Clouds 4 1003 80 0 11.3 300 03:29 03.04.2020
5614 Clouds 4 1002 76 0 11.8 290 02:29 03.04.2020
5615 Clouds 4 1002 65 0 15.4 290 01:24 03.04.2020
5616 Clouds 4 1002 65 0 15.4 290 00:43 03.04.2020
5617 Clouds 5 1002 65 0 14.9 290 00:23 03.04.2020
5618 Clouds 5 1002 65 0 14.9 290 23:43 02.04.2020
5619 Clouds 5 1002 76 0 15.4 290 23:24 02.04.2020
5620 Clouds 5 1002 76 0 15.4 290 22:59 02.04.2020
5621 Clouds 5 1001 60 0 6.2 280 22:41 02.04.2020
5622 Clouds 5 1001 70 0 14.9 300 22:21 02.04.2020
5623 Clouds 5 1001 70 0 14.9 300 21:57 02.04.2020
5624 Clouds 5 1003 86 10000 6.7 270 21:36 02.04.2020
5625 Rain 5 1001 81 0 11.3 300 21:18 02.04.2020
5626 Rain 5 1001 81 0 11.3 300 20:44 02.04.2020
5627 Rain 5 1001 81 0 11.3 300 20:44 02.04.2020
5628 Rain 6 1001 86 0 15.4 300 20:24 02.04.2020
5629 Rain 6 1001 86 0 15.4 300 19:56 02.04.2020
5630 Rain 6 1001 86 0 15.4 300 19:37 02.04.2020
5631 Rain 7 1001 87 0 15.4 270 19:19 02.04.2020
5632 Rain 7 1001 87 0 15.4 270 18:42 02.04.2020
5633 Rain 7 1002 87 0 16.5 270 18:21 02.04.2020
5634 Rain 7 1002 87 0 16.5 270 17:59 02.04.2020
5635 Rain 7 1002 87 0 16.5 270 17:59 02.04.2020
5636 Rain 8 1002 87 0 16.5 270 17:41 02.04.2020
5637 Rain 8 1002 70 0 17.5 270 17:22 02.04.2020
5638 Rain 8 1002 70 0 17.5 270 16:58 02.04.2020
5639 Rain 9 1002 70 0 17.5 270 16:40 02.04.2020
5640 Rain 9 1003 66 0 18 270 16:21 02.04.2020
5641 Rain 9 1003 66 0 18 270 15:56 02.04.2020
5642 Rain 9 1003 66 0 18 270 15:38 02.04.2020
5643 Clouds 10 1004 66 0 17.5 270 15:18 02.04.2020
5644 Clouds 10 1004 66 0 17.5 270 14:57 02.04.2020
5645 Clouds 10 1004 66 0 17.5 270 14:38 02.04.2020
5646 Clouds 9 1004 66 0 17.5 260 14:18 02.04.2020
5647 Clouds 9 1004 66 0 17.5 260 13:54 02.04.2020
5648 Clouds 9 1004 66 0 17.5 260 13:36 02.04.2020
5649 Clouds 9 1005 66 0 14.4 260 13:18 02.04.2020
5650 Clouds 9 1005 66 0 14.4 260 12:44 02.04.2020
5651 Clouds 9 1006 61 0 12.9 260 12:19 02.04.2020
5652 Clouds 9 1006 61 0 12.9 260 11:57 02.04.2020
5653 Clouds 9 1006 61 0 12.9 260 11:39 02.04.2020
5654 Clouds 9 1006 66 0 10.8 260 11:20 02.04.2020
5655 Clouds 9 1006 66 0 10.8 260 10:56 02.04.2020
5656 Clouds 9 1006 66 0 10.8 260 10:38 02.04.2020
5657 Clouds 8 1007 75 0 11.3 270 10:20 02.04.2020
5658 Clouds 8 1007 75 0 11.3 270 10:20 02.04.2020
5659 Clouds 8 1007 75 0 11.3 270 09:58 02.04.2020
5660 Clouds 8 1007 75 0 11.3 270 09:58 02.04.2020
5661 Clouds 7 1007 75 0 11.3 270 09:40 02.04.2020
5662 Clouds 7 1008 81 0 9.8 260 09:20 02.04.2020
5663 Clouds 6 1008 81 0 9.8 260 08:47 02.04.2020
5664 Clouds 6 1008 75 0 8.7 260 08:28 02.04.2020
5665 Clouds 6 1008 75 0 8.7 260 07:57 02.04.2020
5666 Clouds 5 1008 75 0 8.7 260 07:38 02.04.2020
5667 Clouds 5 1008 81 0 9.8 260 07:19 02.04.2020
5668 Clouds 6 1009 81 0 9.3 270 06:24 02.04.2020
5669 Clouds 5 1009 81 0 9.3 270 05:46 02.04.2020
5670 Clouds 6 1009 81 0 9.3 270 04:58 02.04.2020
5671 Clouds 6 1011 81 0 10.3 280 02:21 02.04.2020
5672 Clouds 6 1012 81 0 10.3 280 01:27 02.04.2020
5673 Clouds 6 1012 81 0 10.3 280 00:41 02.04.2020
5674 Clouds 6 1012 81 0 9.8 280 00:20 02.04.2020
5675 Clouds 6 1012 81 0 9.8 280 23:40 01.04.2020
5676 Clouds 6 1012 81 0 9.8 280 23:19 01.04.2020
5677 Clouds 6 1012 81 0 9.8 280 22:57 01.04.2020
5678 Clouds 6 1012 81 0 9.8 280 22:57 01.04.2020
5679 Clouds 6 1012 81 0 9.8 280 22:57 01.04.2020
5680 Clouds 6 1012 81 0 9.8 280 22:38 01.04.2020
5681 Clouds 6 1013 75 0 8.7 270 22:19 01.04.2020
5682 Clouds 6 1013 75 0 8.7 270 21:41 01.04.2020
5683 Rain 6 1013 70 0 11.3 290 21:19 01.04.2020
5684 Rain 6 1013 70 0 11.3 290 20:57 01.04.2020
5685 Rain 6 1013 70 0 11.3 290 20:38 01.04.2020
5686 Rain 6 1013 65 0 11.3 300 20:20 01.04.2020
5687 Rain 6 1013 65 0 11.3 300 19:59 01.04.2020
5688 Rain 7 1013 65 0 11.3 300 19:40 01.04.2020
5689 Rain 7 1014 65 0 11.3 300 19:19 01.04.2020
5690 Rain 7 1014 65 0 11.3 300 18:44 01.04.2020
5691 Rain 8 1014 61 0 11.8 300 18:25 01.04.2020
5692 Rain 8 1014 61 0 11.8 300 17:58 01.04.2020
5693 Rain 8 1014 61 0 11.8 300 17:38 01.04.2020
5694 Rain 8 1014 65 0 12.3 310 17:19 01.04.2020
5695 Rain 8 1014 65 0 12.3 310 16:59 01.04.2020
5696 Rain 8 1014 65 0 12.3 310 16:39 01.04.2020
5697 Rain 8 1015 61 0 12.3 310 16:21 01.04.2020
5698 Rain 8 1015 61 0 12.3 310 15:58 01.04.2020
5699 Rain 8 1015 61 0 12.3 310 15:38 01.04.2020
5700 Rain 8 1015 75 0 10.8 300 15:19 01.04.2020
5701 Rain 8 1015 75 0 10.8 300 14:56 01.04.2020
5702 Rain 8 1015 75 0 10.8 300 14:38 01.04.2020
5703 Rain 8 1016 81 0 10.8 300 14:19 01.04.2020
5704 Rain 8 1016 81 0 10.8 300 13:57 01.04.2020
5705 Rain 8 1016 81 0 10.8 300 13:37 01.04.2020
5706 Rain 8 1016 81 0 12.3 290 13:18 01.04.2020
5707 Rain 8 1016 81 0 12.3 290 12:54 01.04.2020
5708 Rain 8 1016 81 0 12.3 290 12:36 01.04.2020
5709 Rain 7 1017 81 0 12.3 290 12:18 01.04.2020
5710 Rain 7 1017 81 0 12.3 290 11:40 01.04.2020
5711 Rain 7 1017 81 0 9.8 280 11:21 01.04.2020
5712 Rain 7 1017 81 0 9.8 280 10:57 01.04.2020
5713 Rain 7 1017 81 0 9.8 280 10:37 01.04.2020
5714 Rain 6 1017 81 0 9.3 270 10:18 01.04.2020
5715 Rain 6 1017 81 0 9.3 270 09:55 01.04.2020
5716 Rain 6 1017 81 0 9.3 270 09:37 01.04.2020
5717 Clouds 6 1018 80 0 11.3 290 09:18 01.04.2020
5718 Clouds 5 1018 80 0 11.3 290 08:40 01.04.2020
5719 Clouds 5 1018 86 0 8.2 270 08:18 01.04.2020
5720 Clouds 4 1018 86 0 8.2 270 07:43 01.04.2020
5721 Clouds 4 1018 86 0 8.2 270 07:21 01.04.2020
5722 Clouds 4 1018 86 0 8.2 270 06:48 01.04.2020
5723 Clouds 4 1019 86 0 7.7 270 06:26 01.04.2020
5724 Rain 4 1019 86 0 7.7 270 05:56 01.04.2020
5725 Rain 5 1020 86 0 9.3 270 04:32 01.04.2020
5726 Rain 4 1020 86 0 9.3 270 03:30 01.04.2020
5727 Clouds 5 1021 86 0 9.3 280 02:56 01.04.2020
5728 Clouds 4 1022 86 0 8.2 270 01:59 01.04.2020
5729 Clouds 4 1022 86 0 8.2 270 01:39 01.04.2020
5730 Clouds 4 1023 80 0 9.3 270 01:19 01.04.2020
5731 Clouds 4 1023 80 0 9.3 270 00:46 01.04.2020
5732 Clouds 4 1024 75 0 8.2 260 00:21 01.04.2020
5733 Clouds 4 1024 75 0 8.2 260 23:48 31.03.2020
5734 Clouds 4 1025 83 0 7.7 260 23:28 31.03.2020
5735 Clouds 4 1025 83 0 7.7 260 22:59 31.03.2020
5736 Clouds 3 1025 65 0 8.2 270 22:37 31.03.2020
5737 Clouds 3 1025 65 0 8.2 270 22:19 31.03.2020
5738 Clouds 3 1025 65 0 8.2 270 21:57 31.03.2020
5739 Clouds 3 1026 60 0 9.3 270 21:39 31.03.2020
5740 Clear 3 1026 60 0 9.3 270 21:20 31.03.2020
5741 Clouds 3 1026 60 0 9.3 270 21:20 31.03.2020
5742 Clouds 3 1026 60 0 9.3 270 21:20 31.03.2020
5743 Clouds 3 1027 69 10000 4.1 270 20:56 31.03.2020
5744 Clear 4 1027 60 0 10.8 270 20:37 31.03.2020
5745 Clear 4 1027 60 0 10.8 270 20:37 31.03.2020
5746 Clear 4 1027 60 0 10.8 270 20:18 31.03.2020
5747 Clear 5 1027 60 0 10.8 270 19:42 31.03.2020
5748 Clouds 5 1028 41 10000 7.7 280 19:24 31.03.2020
5749 Clouds 5 1028 41 10000 7.7 280 18:59 31.03.2020
5750 Clouds 6 1028 41 10000 7.7 280 18:41 31.03.2020
5751 Clear 6 1028 45 0 7.2 290 18:19 31.03.2020
5752 Clear 7 1028 45 0 7.2 290 17:56 31.03.2020
5753 Clear 7 1028 45 0 7.2 290 17:37 31.03.2020
5754 Clear 8 1028 45 0 8.2 290 17:19 31.03.2020
5755 Clear 8 1028 45 0 8.2 290 16:41 31.03.2020
5756 Clear 8 1029 33 0 6.7 290 16:20 31.03.2020
5757 Clear 8 1029 33 0 6.7 290 15:59 31.03.2020
5758 Clear 8 1029 33 0 6.7 290 15:41 31.03.2020
5759 Clear 8 1030 31 0 5.1 300 15:23 31.03.2020
5760 Clear 8 1030 31 0 5.1 300 14:59 31.03.2020
5761 Clear 8 1030 31 0 5.1 300 14:40 31.03.2020
5762 Clear 7 1030 33 0 2.1 300 14:21 31.03.2020
5763 Clear 7 1030 33 0 2.1 300 13:55 31.03.2020
5764 Clear 7 1030 33 0 2.1 300 13:37 31.03.2020
5765 Clear 7 1031 35 0 1.5 0 13:18 31.03.2020
5766 Clear 6 1031 35 0 1.5 0 12:44 31.03.2020
5767 Clear 6 1032 35 0 1 350 12:20 31.03.2020
5768 Clear 6 1032 35 0 1 350 11:56 31.03.2020
5769 Clear 5 1032 35 0 1 350 11:37 31.03.2020
5770 Clear 5 1032 48 0 1.5 330 11:18 31.03.2020
5771 Clear 5 1032 48 0 1.5 330 10:55 31.03.2020
5772 Clear 5 1032 48 0 1.5 330 10:55 31.03.2020
5773 Clear 5 1032 48 0 1.5 330 10:37 31.03.2020
5774 Clear 4 1032 59 0 0.5 290 10:18 31.03.2020
5775 Clear 3 1032 59 0 0.5 290 09:43 31.03.2020
5776 Clear 2 1032 74 0 1 330 09:25 31.03.2020
5777 Clear 1 1032 74 0 1 330 08:58 31.03.2020
5778 Clear 1 1032 74 0 1 330 08:58 31.03.2020
5779 Clear 0 1032 74 0 1 330 08:40 31.03.2020
5780 Clear -1 1032 92 0 2.6 20 08:20 31.03.2020
5781 Clear -2 1032 92 0 2.6 20 07:57 31.03.2020
5782 Clear -2 1032 92 0 2.6 20 07:38 31.03.2020
5783 Clear -2 1031 85 0 2.6 30 07:20 31.03.2020
5784 Clear -2 1031 85 0 2.6 30 07:20 31.03.2020
5785 Clear -2 1031 85 0 2.6 30 06:53 31.03.2020
5786 Clear -2 1031 85 0 2.6 30 06:35 31.03.2020
5787 Clear -2 1031 86 0 2.1 10 05:41 31.03.2020
5788 Clear -1 1031 87 0 2.6 20 04:33 31.03.2020
5789 Clear -1 1030 69 0 2.6 10 02:40 31.03.2020
5790 Clear 0 1030 69 0 3.1 360 01:47 31.03.2020
5791 Clear 0 1030 63 10000 3.6 20 01:19 31.03.2020
5792 Clear 0 1030 59 0 6.7 40 00:42 31.03.2020
5793 Clear 1 1030 55 0 6.2 40 00:19 31.03.2020
5794 Clear 1 1030 55 0 6.2 40 23:39 30.03.2020
5795 Clear 1 1029 51 0 4.1 60 23:19 30.03.2020
5796 Clear 2 1029 51 0 4.1 60 22:57 30.03.2020
5797 Clear 2 1029 51 0 4.1 60 22:38 30.03.2020
5798 Clear 2 1028 55 10000 4.6 30 22:18 30.03.2020
5799 Clear 2 1028 55 10000 4.6 30 21:57 30.03.2020
5800 Clear 2 1028 55 10000 4.6 30 21:37 30.03.2020
5801 Clear 3 1028 51 10000 5.1 40 21:19 30.03.2020
5802 Clear 3 1028 48 0 7.2 40 20:57 30.03.2020
5803 Clear 3 1028 48 0 7.2 40 20:38 30.03.2020
5804 Clear 4 1027 41 0 7.2 50 20:19 30.03.2020
5805 Clear 5 1027 41 0 7.2 50 19:41 30.03.2020
5806 Clear 5 1027 35 0 6.2 50 19:22 30.03.2020
5807 Clear 6 1027 35 0 6.2 50 18:59 30.03.2020
5808 Clear 6 1027 35 0 6.2 50 18:41 30.03.2020
5809 Clear 6 1026 33 0 6.2 50 18:22 30.03.2020
5810 Clear 7 1026 33 0 6.2 50 17:57 30.03.2020
5811 Clear 7 1026 33 0 6.2 50 17:39 30.03.2020
5812 Clear 8 1026 39 0 8.2 50 17:19 30.03.2020
5813 Clear 8 1026 39 0 8.2 50 16:57 30.03.2020
5814 Clear 8 1026 39 0 8.2 50 16:39 30.03.2020
5815 Clear 8 1025 45 0 8.7 40 16:20 30.03.2020
5816 Clear 8 1025 45 0 8.7 40 16:20 30.03.2020
5817 Clear 8 1025 45 0 8.7 40 15:55 30.03.2020
5818 Clear 8 1025 45 0 8.7 40 15:37 30.03.2020
5819 Rain 8 1025 45 0 7.7 40 15:19 30.03.2020
5820 Rain 8 1025 45 0 7.7 40 14:55 30.03.2020
5821 Rain 8 1025 45 0 7.7 40 14:37 30.03.2020
5822 Clouds 8 1025 49 0 6.7 40 14:18 30.03.2020
5823 Clouds 8 1025 49 0 6.7 40 13:55 30.03.2020
5824 Clouds 8 1025 49 0 6.7 40 13:37 30.03.2020
5825 Clouds 8 1025 57 0 7.7 40 13:18 30.03.2020
5826 Clouds 8 1025 61 10000 5.7 10 12:43 30.03.2020
5827 Rain 7 1024 61 0 5.7 10 12:20 30.03.2020
5828 Rain 7 1024 61 0 5.7 10 11:57 30.03.2020
5829 Rain 7 1024 61 0 5.7 10 11:39 30.03.2020
5830 Rain 7 1024 75 0 6.2 360 11:21 30.03.2020
5831 Rain 6 1024 75 0 6.2 360 10:41 30.03.2020
5832 Rain 5 1024 86 0 5.1 320 10:23 30.03.2020
5833 Rain 5 1024 86 0 5.1 320 09:59 30.03.2020
5834 Rain 4 1024 86 0 5.1 320 09:40 30.03.2020
5835 Rain 4 1025 93 0 7.2 320 09:19 30.03.2020
5836 Rain 4 1025 93 0 7.2 320 08:47 30.03.2020
5837 Rain 4 1025 86 0 6.7 300 08:28 30.03.2020
5838 Rain 3 1025 86 0 6.7 300 07:58 30.03.2020
5839 Rain 3 1025 86 0 6.7 300 07:39 30.03.2020
5840 Rain 3 1026 86 0 6.2 300 07:20 30.03.2020
5841 Rain 3 1026 86 0 6.2 300 06:39 30.03.2020
5842 Rain 2 1026 86 0 8.2 300 06:19 30.03.2020
5843 Rain 2 1026 86 0 8.2 300 05:39 30.03.2020
5844 Rain 1 1028 91 0 7.7 290 04:28 30.03.2020
5845 Rain 1 1028 91 0 7.7 290 03:53 30.03.2020
5846 Clouds 0 1030 68 10000 3.6 240 02:44 30.03.2020
5847 Clouds 0 1030 64 0 5.1 280 01:55 30.03.2020
5848 Clouds -1 1032 58 10000 2.6 260 00:57 30.03.2020
5849 Clouds -1 1032 54 10000 2.1 310 00:27 30.03.2020
5850 Clear -1 1032 55 0 4.6 310 23:55 29.03.2020
5851 Clear 0 1032 55 0 4.6 310 23:36 29.03.2020
5852 Clear 0 1032 50 0 6.7 330 23:18 29.03.2020
5853 Clear 0 1032 50 0 6.7 330 22:40 29.03.2020
5854 Clear 0 1032 47 0 6.7 350 22:20 29.03.2020
5855 Clear 0 1032 47 0 6.7 350 21:59 29.03.2020
5856 Clear 0 1032 47 0 6.7 350 21:38 29.03.2020
5857 Clear 1 1033 31 10000 2.1 10 21:20 29.03.2020
5858 Clear 2 1032 40 0 4.6 360 20:55 29.03.2020
5859 Clear 2 1032 40 0 4.6 360 20:37 29.03.2020
5860 Clear 3 1032 29 0 4.6 30 20:19 29.03.2020
5861 Clear 3 1032 29 0 4.6 30 19:57 29.03.2020
5862 Clear 3 1032 29 0 4.6 30 19:57 29.03.2020
5863 Clear 4 1032 29 0 4.6 30 19:39 29.03.2020
5864 Clear 4 1033 23 0 9.3 40 19:21 29.03.2020
5865 Clear 5 1033 23 0 9.3 40 18:57 29.03.2020
5866 Clear 4 1033 27 0 10.3 40 18:38 29.03.2020
5867 Clear 5 1033 27 0 10.3 40 18:19 29.03.2020
5868 Clear 5 1033 27 0 10.3 40 17:55 29.03.2020
5869 Clear 5 1033 27 0 10.3 40 17:37 29.03.2020
5870 Clear 5 1033 25 0 11.3 40 17:18 29.03.2020
5871 Clear 5 1033 25 0 11.3 40 16:56 29.03.2020
5872 Clear 5 1033 25 0 11.3 40 16:38 29.03.2020
5873 Clear 5 1033 30 0 12.3 40 16:18 29.03.2020
5874 Clear 5 1033 30 0 12.3 40 15:41 29.03.2020
5875 Clear 5 1033 32 0 12.9 40 15:23 29.03.2020
5876 Clouds 5 1033 32 0 12.9 40 14:58 29.03.2020
5877 Clouds 5 1033 32 0 12.9 40 14:40 29.03.2020
5878 Clouds 5 1033 38 0 12.9 40 14:20 29.03.2020
5879 Clouds 5 1033 38 0 12.9 40 13:58 29.03.2020
5880 Clouds 5 1033 38 0 12.9 40 13:40 29.03.2020
5881 Clouds 4 1032 41 0 13.9 40 13:20 29.03.2020
5882 Clouds 4 1032 41 0 13.9 40 12:56 29.03.2020
5883 Clouds 4 1032 48 0 14.4 40 12:37 29.03.2020
5884 Clouds 4 1032 48 0 14.4 40 12:37 29.03.2020
5885 Snow 4 1032 48 0 14.4 40 12:19 29.03.2020
5886 Snow 4 1032 48 0 14.4 40 11:55 29.03.2020
5887 Snow 4 1032 48 0 14.4 40 11:37 29.03.2020
5888 Snow 4 1031 51 0 14.4 40 11:18 29.03.2020
5889 Snow 4 1031 51 0 14.4 40 11:18 29.03.2020
5890 Snow 3 1031 51 0 14.4 40 10:38 29.03.2020
5891 Snow 3 1030 55 0 13.9 40 10:19 29.03.2020
5892 Snow 3 1030 55 0 13.9 40 09:41 29.03.2020
5893 Clouds 2 1028 59 0 13.4 40 09:22 29.03.2020
5894 Snow 2 1028 59 0 13.4 40 08:57 29.03.2020
5895 Snow 2 1028 59 0 13.4 40 08:39 29.03.2020
5896 Snow 2 1027 64 0 13.4 40 08:20 29.03.2020
5897 Snow 2 1027 64 0 13.4 40 07:44 29.03.2020
5898 Snow 2 1026 69 0 16.5 40 07:22 29.03.2020
5899 Clouds 2 1025 93 0 18.5 30 05:59 29.03.2020
5900 Clouds 3 1025 93 0 17 30 04:56 29.03.2020
5901 Clouds 4 1024 69 0 16.5 30 03:37 29.03.2020
5902 Clouds 4 1023 60 0 14.4 40 01:57 29.03.2020
5903 Clouds 3 1023 60 0 14.4 40 01:39 29.03.2020
5904 Clouds 3 1023 52 0 9.3 10 01:19 29.03.2020
5905 Clouds 3 1023 59 10000 4.6 340 00:40 29.03.2020
5906 Clouds 4 1023 51 0 9.3 360 00:18 29.03.2020
5907 Clouds 4 1023 51 0 9.3 360 23:40 28.03.2020
5908 Clouds 5 1022 48 0 7.7 360 23:22 28.03.2020
5909 Clouds 5 1022 48 0 7.7 360 22:43 28.03.2020
5910 Clouds 6 1022 41 0 8.7 10 22:22 28.03.2020
5911 Clouds 6 1022 41 0 8.7 10 21:57 28.03.2020
5912 Clouds 6 1022 41 0 8.7 10 21:39 28.03.2020
5913 Clouds 6 1022 52 0 9.3 10 21:20 28.03.2020
5914 Clouds 7 1022 52 0 9.3 10 20:56 28.03.2020
5915 Clouds 7 1022 52 0 9.3 10 20:37 28.03.2020
5916 Clouds 7 1021 52 0 8.7 10 20:19 28.03.2020
5917 Clouds 7 1021 52 0 8.7 10 19:55 28.03.2020
5918 Clouds 8 1021 52 0 8.7 10 19:36 28.03.2020
5919 Clouds 8 1020 68 0 9.3 10 19:18 28.03.2020
5920 Clouds 9 1020 68 0 9.3 10 18:42 28.03.2020
5921 -273 0 0 0 0 0 18:20 28.03.2020
5922 Clouds 10 1020 68 0 10.3 340 17:43 28.03.2020
5923 Clouds 10 1020 46 0 9.3 340 17:24 28.03.2020
5924 Clouds 11 1020 46 0 9.3 340 16:59 28.03.2020
5925 Clouds 11 1020 46 0 9.3 340 16:59 28.03.2020
5926 Clouds 11 1020 46 0 9.3 340 16:40 28.03.2020
5927 Clouds 11 1021 37 0 3.1 20 16:20 28.03.2020
5928 Clouds 11 1021 37 0 3.1 20 15:55 28.03.2020
5929 Clouds 12 1021 37 0 3.1 20 15:37 28.03.2020
5930 Clouds 12 1021 53 0 4.1 20 15:18 28.03.2020
5931 Clouds 12 1021 53 0 4.1 20 14:41 28.03.2020
5932 Clouds 12 1022 53 0 5.7 30 14:21 28.03.2020
5933 Clear 12 1022 55 0 5.7 30 13:44 28.03.2020
5934 Clear 11 1023 50 0 5.7 30 13:25 28.03.2020
5935 Clear 11 1023 50 0 5.7 30 12:57 28.03.2020
5936 Clear 11 1023 50 0 5.7 30 12:37 28.03.2020
5937 Clear 9 1023 61 0 5.1 360 12:18 28.03.2020
5938 Clear 9 1023 61 0 5.1 360 11:42 28.03.2020
5939 Clear 8 1023 75 0 5.1 340 11:21 28.03.2020
5940 Clear 7 1023 75 0 5.1 340 10:41 28.03.2020
5941 Clear 6 1024 93 0 1.5 320 10:22 28.03.2020
5942 Clear 5 1024 93 0 1.5 320 09:59 28.03.2020
5943 Clear 5 1024 93 0 1.5 320 09:39 28.03.2020
5944 Clear 5 1024 67 6000 4.1 340 09:21 28.03.2020
5945 Clear 3 1024 67 0 3.1 340 08:42 28.03.2020
5946 Clear 3 1024 67 0 3.1 340 08:42 28.03.2020
5947 Clear 2 1024 80 0 3.1 300 08:24 28.03.2020
5948 Clear 1 1024 80 0 3.1 300 07:53 28.03.2020
5949 Clear 1 1024 80 0 3.1 300 07:35 28.03.2020
5950 Clear 0 1024 86 0 3.1 300 06:52 28.03.2020
5951 Clear -1 1024 100 0 1.5 320 06:23 28.03.2020
5952 Clear 0 1024 86 0 2.1 360 05:30 28.03.2020
5953 Clear 0 1024 85 0 2.1 360 04:58 28.03.2020
5954 Clear 0 1024 85 0 2.1 360 04:39 28.03.2020
5955 Clear 1 1025 85 0 1.5 20 02:51 28.03.2020
5956 Clear 2 1025 80 0 1.5 30 01:47 28.03.2020
5957 Clear 2 1025 80 0 2.6 50 01:23 28.03.2020
5958 Clear 2 1025 80 0 2.6 50 00:51 28.03.2020
5959 Clear 3 1026 86 0 2.6 70 00:25 28.03.2020
5960 Clear 3 1026 86 0 2.6 70 23:44 27.03.2020
5961 Clear 3 1026 86 0 4.1 60 23:26 27.03.2020
5962 Clear 3 1026 86 0 4.1 60 22:57 27.03.2020
5963 Clear 3 1026 86 0 4.1 60 22:39 27.03.2020
5964 Clear 4 1026 80 0 3.1 70 22:21 27.03.2020
5965 Clear 4 1026 80 0 3.1 70 21:59 27.03.2020
5966 Clear 5 1026 80 0 3.1 70 21:40 27.03.2020
5967 Clear 5 1025 70 0 4.1 60 21:22 27.03.2020
5968 Clear 6 1025 70 0 4.1 60 20:57 27.03.2020
5969 Clear 6 1025 70 0 4.1 60 20:39 27.03.2020
5970 Clear 6 1025 65 0 4.6 50 20:19 27.03.2020
5971 Clear 6 1025 65 0 4.6 50 20:19 27.03.2020
5972 Clear 6 1025 65 0 4.6 50 19:56 27.03.2020
5973 Clear 6 1025 65 0 4.6 50 19:38 27.03.2020
5974 Clear 8 1025 75 0 3.1 50 19:19 27.03.2020
5975 Clear 8 1025 75 0 3.1 50 18:43 27.03.2020
5976 Clear 10 1025 43 0 4.1 100 18:23 27.03.2020
5977 Clear 10 1025 43 0 4.1 100 17:55 27.03.2020
5978 Clear 10 1024 57 8000 6.2 50 17:37 27.03.2020
5979 Clear 10 1024 57 8000 7.7 50 17:19 27.03.2020
5980 Clear 11 1025 34 0 4.1 100 16:44 27.03.2020
5981 Clear 11 1025 32 0 4.6 100 16:25 27.03.2020
5982 Clear 11 1025 32 0 4.6 100 16:25 27.03.2020
5983 Clear 12 1025 32 0 4.6 100 15:45 27.03.2020
5984 Clear 11 1026 34 0 4.1 100 15:27 27.03.2020
5985 Clear 11 1026 34 0 4.1 100 14:57 27.03.2020
5986 Clear 11 1026 34 0 4.1 100 14:39 27.03.2020
5987 Clear 11 1026 32 0 4.6 110 14:21 27.03.2020
5988 Clear 11 1026 32 0 4.6 110 13:54 27.03.2020
5989 Clear 11 1026 32 0 4.6 110 13:36 27.03.2020
5990 Clear 10 1027 31 0 2.6 100 13:18 27.03.2020
5991 Clear 10 1027 31 0 2.6 100 12:42 27.03.2020
5992 Clear 9 1027 45 0 3.6 100 12:19 27.03.2020
5993 Clear 9 1027 45 0 3.6 100 11:44 27.03.2020
5994 Clear 9 1027 57 0 4.1 50 11:25 27.03.2020
5995 Clear 9 1027 57 0 4.1 50 10:59 27.03.2020
5996 Clear 9 1027 57 0 4.1 50 10:41 27.03.2020
5997 Clear 6 1027 75 0 4.1 80 10:22 27.03.2020
5998 Clear 6 1027 75 0 4.1 80 09:58 27.03.2020
5999 Clear 6 1027 75 0 4.1 80 09:40 27.03.2020
6000 Clear 4 1027 93 0 2.1 90 09:21 27.03.2020
6001 Clear 4 1027 93 0 2.1 90 08:58 27.03.2020
6002 Clear 4 1027 93 0 2.1 90 08:39 27.03.2020
6003 Clear 0 1027 64 0 2.1 90 08:21 27.03.2020
6004 Clear 0 1027 88 0 2.1 90 07:55 27.03.2020
6005 Clear 0 1027 88 0 2.1 90 07:37 27.03.2020
6006 Clear -1 1027 92 0 3.1 70 07:19 27.03.2020
6007 Clear -1 1027 92 0 3.1 80 06:38 27.03.2020
6008 Clear -1 1027 92 0 3.1 80 05:44 27.03.2020
6009 Clear 0 1028 89 0 2.6 80 02:52 27.03.2020
6010 Clear 0 1028 88 0 2.6 80 01:55 27.03.2020
6011 Clear 1 1028 86 0 2.6 90 00:58 27.03.2020
6012 Clear 1 1028 86 0 2.6 90 00:38 27.03.2020
6013 Clear 0 1028 88 0 3.1 90 00:19 27.03.2020
6014 Clear 1 1028 86 0 2.6 90 23:37 26.03.2020
6015 Clear 1 1028 86 0 2.6 90 23:18 26.03.2020
6016 Clear 1 1028 86 0 2.6 90 22:56 26.03.2020
6017 Clear 1 1028 86 0 2.6 90 22:36 26.03.2020
6018 Clear 1 1028 86 0 3.1 90 22:18 26.03.2020
6019 Clear 1 1028 86 0 3.1 90 21:40 26.03.2020
6020 Clear 3 1028 69 0 2.6 90 21:21 26.03.2020
6021 Clear 3 1028 69 0 2.6 90 21:21 26.03.2020
6022 Clear 3 1028 69 0 2.6 90 20:59 26.03.2020
6023 Clear 3 1028 69 0 2.6 90 20:39 26.03.2020
6024 Clear 5 1028 56 0 3.1 110 20:21 26.03.2020
6025 Clear 5 1028 56 0 3.1 110 19:58 26.03.2020
6026 Clear 5 1028 56 0 3.1 110 19:39 26.03.2020
6027 Clear 7 1028 33 0 3.1 110 19:21 26.03.2020
6028 Clear 7 1028 33 0 3.1 110 18:58 26.03.2020
6029 Clear 7 1028 33 0 3.1 110 18:40 26.03.2020
6030 Clear 8 1028 28 0 4.6 130 18:21 26.03.2020
6031 Clear 8 1028 28 0 4.6 130 17:44 26.03.2020
6032 Clear 8 1028 28 0 4.6 130 17:44 26.03.2020
6033 Clear 8 1028 31 0 5.7 110 17:20 26.03.2020
6034 Clear 8 1028 31 0 5.7 110 16:57 26.03.2020
6035 Clear 8 1028 31 0 5.7 110 16:38 26.03.2020
6036 Clear 8 1028 31 0 5.7 110 16:38 26.03.2020
6037 Clear 9 1028 34 0 4.6 100 16:19 26.03.2020
6038 Clear 9 1028 34 0 4.6 100 15:55 26.03.2020
6039 Clear 9 1028 34 0 4.6 100 15:37 26.03.2020
6040 Clear 9 1029 39 0 5.1 110 15:18 26.03.2020
6041 Clear 9 1029 39 0 5.1 110 14:43 26.03.2020
6042 Clear 9 1029 42 0 4.6 110 14:24 26.03.2020
6043 Clouds 9 1029 42 0 4.6 110 13:55 26.03.2020
6044 Clouds 9 1029 42 0 4.6 110 13:37 26.03.2020
6045 Clouds 9 1029 39 0 5.1 90 13:19 26.03.2020
6046 Clouds 9 1029 39 0 5.1 90 12:38 26.03.2020
6047 -273 0 0 0 0 0 12:20 26.03.2020
6048 Clouds 9 1030 45 0 3.6 110 11:46 26.03.2020
6049 Clouds 8 1030 42 0 4.1 120 11:23 26.03.2020
6050 Clouds 8 1030 42 0 4.1 120 10:59 26.03.2020
6051 Clouds 8 1030 42 0 4.1 120 10:41 26.03.2020
6052 Clouds 6 1030 60 0 3.6 130 10:20 26.03.2020
6053 Clouds 6 1030 60 0 3.6 130 09:45 26.03.2020
6054 Clouds 4 1029 61 0 4.1 130 09:24 26.03.2020
6055 Clouds 4 1029 61 0 4.1 130 08:58 26.03.2020
6056 Clouds 4 1029 61 0 4.1 130 08:39 26.03.2020
6057 Clouds -1 1029 92 0 4.6 120 08:20 26.03.2020
6058 Clouds -1 1029 92 0 4.6 120 07:46 26.03.2020
6059 Clouds -2 1029 92 0 3.6 110 07:24 26.03.2020
6060 Clouds -2 1029 92 0 3.6 110 06:59 26.03.2020
6061 Clouds -2 1029 92 0 2.6 110 06:33 26.03.2020
6062 Clouds -2 1029 92 0 2.6 110 05:47 26.03.2020
6063 Clouds -1 1029 92 0 5.7 140 03:46 26.03.2020
6064 Clouds -1 1029 92 0 4.6 140 02:58 26.03.2020
6065 Clouds -1 1029 92 0 3.6 130 01:51 26.03.2020
6066 Clouds -1 1030 92 0 2.6 110 01:18 26.03.2020
6067 Clouds 0 1030 85 0 3.1 130 00:32 26.03.2020
6068 Clouds 0 1030 85 0 3.1 130 23:44 25.03.2020
6069 Clouds 1 1030 80 0 4.1 130 23:24 25.03.2020
6070 Clouds 1 1030 80 0 4.1 130 22:54 25.03.2020
6071 Clouds 1 1030 80 0 4.1 130 22:36 25.03.2020
6072 Clouds 3 1030 69 0 4.6 130 22:18 25.03.2020
6073 Clouds 3 1030 69 0 4.6 130 21:42 25.03.2020
6074 Clouds 3 1029 69 0 4.6 140 21:24 25.03.2020
6075 Clouds 3 1029 69 0 4.6 140 20:58 25.03.2020
6076 Clouds 3 1029 69 0 4.6 140 20:38 25.03.2020
6077 Clouds 4 1029 64 0 4.6 130 20:19 25.03.2020
6078 Clouds 4 1029 64 0 4.6 130 19:55 25.03.2020
6079 Clouds 4 1029 64 0 4.6 130 19:37 25.03.2020
6080 Clouds 6 1029 52 0 3.6 120 19:18 25.03.2020
6081 Clouds 6 1029 52 0 3.6 120 18:43 25.03.2020
6082 Clouds 6 1029 52 0 3.6 120 18:43 25.03.2020
6083 Clouds 8 1030 39 0 4.6 130 18:25 25.03.2020
6084 Clouds 8 1030 39 0 4.6 130 17:59 25.03.2020
6085 Clouds 8 1030 39 0 4.6 130 17:40 25.03.2020
6086 Clouds 9 1030 34 0 4.1 130 17:22 25.03.2020
6087 Clouds 9 1030 34 0 4.1 130 16:58 25.03.2020
6088 Clouds 9 1030 34 0 4.1 130 16:39 25.03.2020
6089 Clouds 9 1030 39 0 3.6 100 16:20 25.03.2020
6090 Clouds 9 1030 39 0 3.6 100 15:43 25.03.2020
6091 Clouds 10 1031 25 0 3.1 140 15:21 25.03.2020
6092 Clouds 10 1031 25 0 3.1 140 14:58 25.03.2020
6093 Clouds 10 1031 25 0 3.1 140 14:40 25.03.2020
6094 Clouds 9 1031 26 0 3.6 160 14:20 25.03.2020
6095 Clouds 9 1031 26 0 3.6 160 13:44 25.03.2020
6096 Clouds 9 1032 24 0 4.6 180 13:24 25.03.2020
6097 Clouds 9 1032 24 0 4.6 180 12:40 25.03.2020
6098 Clouds 8 1032 24 0 5.1 170 12:21 25.03.2020
6099 Clouds 8 1032 24 0 5.1 170 11:59 25.03.2020
6100 Clouds 8 1032 24 0 5.1 170 11:41 25.03.2020
6101 Clouds 7 1032 28 0 5.7 190 11:21 25.03.2020
6102 Clouds 7 1032 28 0 5.7 190 11:21 25.03.2020
6103 Clear 7 1032 28 0 5.7 190 10:58 25.03.2020
6104 Clear 7 1032 28 0 5.7 190 10:40 25.03.2020
6105 Clear 7 1032 28 0 5.7 190 10:40 25.03.2020
6106 Clear 5 1032 32 0 4.6 180 10:19 25.03.2020
6107 Clear 5 1032 32 0 4.6 180 09:58 25.03.2020
6108 Clear 5 1032 32 0 4.6 180 09:39 25.03.2020
6109 Clear 3 1032 37 0 4.1 190 09:21 25.03.2020
6110 Clear 3 1032 37 0 4.1 190 08:43 25.03.2020
6111 Clear 1 1032 47 0 3.1 170 08:25 25.03.2020
6112 Clouds 1 1032 47 0 3.1 170 07:58 25.03.2020
6113 Clouds 1 1032 47 0 3.1 170 07:38 25.03.2020
6114 Clouds 0 1032 87 0 4.6 170 07:18 25.03.2020
6115 Clouds 0 1032 87 0 4.6 170 06:43 25.03.2020
6116 Clouds 2 1032 40 0 4.6 180 06:25 25.03.2020
6117 Clouds 2 1032 40 0 4.6 180 05:47 25.03.2020
6118 Clouds 2 1031 40 0 4.6 190 04:46 25.03.2020
6119 Clouds 3 1031 37 0 6.2 190 03:58 25.03.2020
6120 Clouds 3 1031 37 0 6.2 190 03:34 25.03.2020
6121 Clouds 3 1032 40 0 6.2 180 01:41 25.03.2020
6122 Clouds 3 1032 40 0 6.2 180 01:41 25.03.2020
6123 Clouds 3 1032 40 0 6.2 180 01:41 25.03.2020
6124 Clouds 3 1032 40 0 7.2 180 00:58 25.03.2020
6125 Clouds 3 1032 40 0 7.2 180 00:40 25.03.2020
6126 Clouds 4 1032 38 0 6.7 170 00:18 25.03.2020
6127 Clouds 4 1032 38 0 6.7 170 23:40 24.03.2020
6128 Clouds 4 1032 41 0 6.2 170 23:22 24.03.2020
6129 Clouds 4 1032 41 0 6.2 170 22:55 24.03.2020
6130 Clouds 4 1032 41 0 6.2 170 22:37 24.03.2020
6131 Clouds 4 1032 41 0 6.2 170 22:37 24.03.2020
6132 Clouds 4 1032 44 0 5.7 160 22:19 24.03.2020
6133 Clouds 4 1032 44 0 5.7 160 21:54 24.03.2020
6134 Clouds 4 1032 44 0 5.7 160 21:36 24.03.2020
6135 Clouds 4 1032 48 0 4.1 150 21:18 24.03.2020
6136 -273 0 0 0 0 0 20:42 24.03.2020
6137 Clouds 5 1032 38 0 3.1 150 20:23 24.03.2020
6138 Clouds 5 1032 38 0 3.1 150 19:56 24.03.2020
6139 Clouds 5 1032 38 0 3.1 150 19:56 24.03.2020
6140 Clouds 5 1032 38 0 3.1 150 19:38 24.03.2020
6141 Clouds 7 1032 30 0 4.1 170 19:18 24.03.2020
6142 Clouds 7 1032 30 0 4.1 170 18:55 24.03.2020
6143 Clouds 8 1032 28 0 5.1 170 18:36 24.03.2020
6144 Clouds 8 1032 28 0 5.1 170 18:18 24.03.2020
6145 Clouds 8 1032 28 0 5.1 170 17:42 24.03.2020
6146 Clouds 8 1032 28 0 5.1 170 17:22 24.03.2020
6147 Clouds 8 1032 28 0 5.1 170 16:58 24.03.2020
6148 Clouds 8 1032 28 0 5.1 170 16:39 24.03.2020
6149 Clouds 9 1032 36 10000 5.7 140 16:21 24.03.2020
6150 Clouds 9 1032 36 10000 5.7 140 15:58 24.03.2020
6151 Clouds 9 1033 26 0 4.6 160 15:37 24.03.2020
6152 Clouds 9 1033 29 10000 5.1 170 15:19 24.03.2020
6153 Clouds 9 1033 31 0 4.6 170 14:43 24.03.2020
6154 Clouds 9 1034 26 0 4.6 170 14:19 24.03.2020
6155 Clouds 9 1034 26 0 4.6 170 13:44 24.03.2020
6156 Clouds 8 1034 26 0 5.7 180 13:24 24.03.2020
6157 Clouds 8 1034 26 0 5.7 180 12:57 24.03.2020
6158 Clouds 8 1034 26 0 5.7 180 12:37 24.03.2020
6159 Clouds 7 1035 30 0 5.1 170 12:19 24.03.2020
6160 Clouds 7 1035 30 0 5.1 170 11:40 24.03.2020
6161 Clouds 6 1035 38 0 5.1 160 11:20 24.03.2020
6162 Clouds 6 1035 32 0 7.2 180 10:54 24.03.2020
6163 Clouds 6 1035 38 0 5.1 190 10:36 24.03.2020
6164 Clouds 5 1035 44 0 4.6 160 10:18 24.03.2020
6165 Clouds 5 1035 35 0 5.1 190 09:42 24.03.2020
6166 Clouds 4 1036 38 10000 4.6 170 09:24 24.03.2020
6167 Clouds 2 1035 40 0 6.2 180 08:40 24.03.2020
6168 Clouds 1 1036 43 10000 4.1 180 08:21 24.03.2020
6169 Clouds 1 1036 43 10000 4.1 180 08:21 24.03.2020
6170 Clouds 1 1035 47 0 5.1 180 07:51 24.03.2020
6171 Clouds 0 1035 55 0 3.1 160 07:25 24.03.2020
6172 Clouds -1 1035 59 0 4.6 180 06:59 24.03.2020
6173 Clouds -1 1035 54 10000 3.6 150 06:33 24.03.2020
6174 Clouds -1 1035 58 10000 2.6 150 05:30 24.03.2020
6175 Clouds -1 1035 47 0 5.1 170 04:49 24.03.2020
6176 Clouds 0 1035 62 10000 3.6 170 03:19 24.03.2020
6177 Clouds 0 1035 55 10000 4.1 160 02:25 24.03.2020
6178 Clouds 0 1035 59 0 4.1 160 00:53 24.03.2020
6179 Clouds 1 1035 56 10000 3.1 150 00:26 24.03.2020
6180 Clouds 1 1035 64 0 4.6 160 23:55 23.03.2020
6181 Clouds 1 1035 47 10000 2.6 150 23:37 23.03.2020
6182 Clouds 1 1035 58 10000 3.6 140 23:19 23.03.2020
6183 Clouds 1 1035 58 0 4.1 150 22:43 23.03.2020
6184 Clouds 1 1036 69 0 4.6 140 22:22 23.03.2020
6185 Clouds 1 1036 69 0 4.1 140 21:55 23.03.2020
6186 Clouds 1 1036 69 0 4.1 140 21:37 23.03.2020
6187 Clouds 2 1036 47 10000 3.1 120 21:18 23.03.2020
6188 Clouds 2 1036 69 0 4.6 140 20:42 23.03.2020
6189 Clouds 2 1037 59 0 5.1 140 20:24 23.03.2020
6190 Clear 2 1037 59 0 5.1 140 19:59 23.03.2020
6191 Clear 3 1036 59 0 4.1 140 19:41 23.03.2020
6192 Clear 4 1036 59 0 5.1 140 19:22 23.03.2020
6193 Clear 4 1036 48 0 4.6 130 18:56 23.03.2020
6194 Clouds 5 1036 35 10000 2.6 130 18:38 23.03.2020
6195 Clear 5 1036 60 0 6.7 130 18:18 23.03.2020
6196 Clouds 6 1036 28 10000 4.1 140 17:41 23.03.2020
6197 Clear 7 1037 48 0 6.7 130 17:20 23.03.2020
6198 Clear 7 1036 28 0 6.7 150 16:56 23.03.2020
6199 Clear 7 1036 28 0 6.7 150 16:37 23.03.2020
6200 Clear 7 1036 45 10000 5.1 120 16:18 23.03.2020
6201 Clear 7 1037 28 0 4.6 150 15:41 23.03.2020
6202 Clear 7 1038 41 0 6.7 130 15:19 23.03.2020
6203 Clear 7 1037 28 0 4.6 150 14:38 23.03.2020
6204 Clear 7 1038 35 0 5.7 140 14:20 23.03.2020
6205 Clear 6 1038 30 0 5.1 170 13:57 23.03.2020
6206 Clear 6 1038 30 0 5.1 170 13:39 23.03.2020
6207 Clear 6 1038 38 0 5.1 150 13:20 23.03.2020
6208 Clear 6 1039 35 0 4.6 170 12:44 23.03.2020
6209 Clear 6 1039 38 0 3.6 170 12:25 23.03.2020
6210 Clear 5 1038 30 0 5.7 180 11:58 23.03.2020
6211 Clouds 5 1038 30 10000 6.7 170 11:39 23.03.2020
6212 Clear 5 1039 35 0 4.6 160 11:19 23.03.2020
6213 Clear 5 1039 29 0 5.7 190 10:57 23.03.2020
6214 Clear 4 1039 29 0 5.7 190 10:38 23.03.2020
6215 Clear 4 1039 41 0 3.6 180 10:20 23.03.2020
6216 Clear 3 1039 40 0 4.1 190 09:44 23.03.2020
6217 Clear 2 1039 47 0 4.1 170 09:21 23.03.2020
6218 Clear 2 1039 55 0 4.6 180 08:57 23.03.2020
6219 Clear 1 1039 55 0 4.6 180 08:36 23.03.2020
6220 Clear 0 1039 59 0 3.1 170 08:18 23.03.2020
6221 Clear -1 1038 63 0 5.7 170 07:42 23.03.2020
6222 Clear -1 1039 79 10000 3.1 150 07:23 23.03.2020
6223 Clear -2 1039 63 0 4.6 160 06:49 23.03.2020
6224 Clear -2 1038 68 0 5.1 160 05:54 23.03.2020
6225 Clear -2 1039 74 10000 2.6 140 05:29 23.03.2020
6226 Clear -1 1038 79 10000 3.1 140 03:29 23.03.2020
6227 Clear -1 1038 68 0 5.7 150 01:51 23.03.2020
6228 Clear 0 1039 68 10000 3.6 140 01:33 23.03.2020
6229 Clear 0 1038 69 0 4.1 140 00:39 23.03.2020
6230 Clear 0 1038 59 0 4.1 140 23:48 22.03.2020
6231 Clear 1 1038 55 0 3.6 140 23:26 22.03.2020
6232 Clear 1 1038 55 0 3.6 140 23:26 22.03.2020
6233 Clear 1 1038 55 0 3.6 140 22:47 22.03.2020
6234 Clouds 1 1039 69 10000 4.1 120 22:26 22.03.2020
6235 Clear 2 1038 59 0 4.6 130 21:57 22.03.2020
6236 Clear 2 1038 59 0 4.6 130 21:57 22.03.2020
6237 Clear 2 1038 59 0 4.6 130 21:39 22.03.2020
6238 Clouds 2 1039 69 10000 4.1 120 21:20 22.03.2020
6239 Clear 2 1038 59 0 5.1 130 20:56 22.03.2020
6240 Clear 2 1038 59 0 5.1 130 20:38 22.03.2020
6241 Clear 3 1039 59 0 6.7 120 20:20 22.03.2020
6242 Clear 3 1038 59 0 5.1 120 19:55 22.03.2020
6243 Clear 3 1038 59 0 5.1 120 19:36 22.03.2020
6244 Clear 3 1038 60 0 7.2 110 19:18 22.03.2020
6245 Clear 4 1038 51 0 6.2 130 18:55 22.03.2020
6246 Clear 4 1038 51 0 6.2 130 18:37 22.03.2020
6247 Clear 4 1038 55 0 7.2 110 18:18 22.03.2020
6248 Clear 5 1037 52 0 6.2 130 17:55 22.03.2020
6249 Clear 5 1037 52 0 6.2 130 17:36 22.03.2020
6250 Clear 5 1038 56 0 7.2 120 17:18 22.03.2020
6251 Clear 6 1037 52 0 6.2 140 16:41 22.03.2020
6252 Clouds 6 1037 48 10000 5.7 100 16:22 22.03.2020
6253 Clear 5 1038 60 0 7.7 100 15:59 22.03.2020
6254 Clear 6 1037 44 0 8.2 120 15:39 22.03.2020
6255 Clear 6 1038 44 0 6.7 140 14:47 22.03.2020
6256 Clouds 6 1039 48 10000 5.7 110 14:20 22.03.2020
6257 Clouds 6 1038 41 0 7.7 130 13:58 22.03.2020
6258 Clouds 6 1039 48 10000 5.7 110 13:58 22.03.2020
6259 Clouds 6 1038 41 0 7.7 130 13:40 22.03.2020
6260 Clouds 5 1039 51 10000 6.7 120 13:19 22.03.2020
6261 Clouds 5 1038 48 0 7.2 140 12:47 22.03.2020
6262 Clouds 5 1039 52 10000 6.2 120 12:23 22.03.2020
6263 Clouds 5 1038 52 0 5.1 120 11:59 22.03.2020
6264 Clouds 5 1038 52 0 5.1 120 11:41 22.03.2020
6265 Clouds 5 1039 56 10000 7.2 120 11:23 22.03.2020
6266 Clouds 5 1038 51 0 5.1 120 10:56 22.03.2020
6267 Clouds 5 1038 51 0 5.1 120 10:38 22.03.2020
6268 Clouds 4 1039 52 0 6.7 110 10:20 22.03.2020
6269 Clouds 4 1038 64 0 3.1 150 09:42 22.03.2020
6270 Clouds 3 1038 55 0 6.7 120 09:22 22.03.2020
6271 Clouds 2 1038 74 0 3.1 160 08:44 22.03.2020
6272 Clouds 1 1038 69 0 6.2 110 08:24 22.03.2020
6273 Clear -1 1037 92 0 4.1 170 07:52 22.03.2020
6274 Clear -1 1038 74 0 3.1 140 07:28 22.03.2020
6275 Clear -1 1037 92 0 5.1 160 06:40 22.03.2020
6276 Clear -2 1037 69 0 3.1 170 05:37 22.03.2020
6277 Clear -2 1035 92 0 2.1 60 03:47 22.03.2020
6278 Clear -2 1035 86 0 2.6 80 01:35 22.03.2020
6279 Clear -1 1035 86 0 2.6 80 00:49 22.03.2020
6280 Clear -1 1036 72 10000 1.5 50 00:29 22.03.2020
6281 Clear 0 1035 72 0 2.6 80 23:45 21.03.2020
6282 Clear 0 1035 69 0 3.1 70 23:21 21.03.2020
6283 Clear 0 1035 64 0 3.6 80 22:58 21.03.2020
6284 Clear 1 1035 64 0 3.6 80 22:37 21.03.2020
6285 Clear 1 1036 64 10000 1.5 70 22:19 21.03.2020
6286 Clear 1 1035 55 0 4.1 70 21:57 21.03.2020
6287 Clear 1 1035 55 0 4.1 70 21:38 21.03.2020
6288 Clear 1 1036 64 10000 2.1 60 21:19 21.03.2020
6289 Clear 1 1035 69 0 3.6 80 20:42 21.03.2020
6290 Clear 2 1035 64 10000 1 70 20:22 21.03.2020
6291 Clear 3 1035 59 0 2.1 100 19:55 21.03.2020
6292 Clear 3 1035 59 0 2.1 100 19:36 21.03.2020
6293 Clear 4 1035 48 0 5.7 50 19:18 21.03.2020
6294 Clear 4 1035 48 0 5.7 50 19:18 21.03.2020
6295 Clear 4 1034 44 0 3.1 120 18:41 21.03.2020
6296 Clear 5 1034 56 0 2.6 80 18:20 21.03.2020
6297 Clear 5 1034 38 0 4.1 120 17:58 21.03.2020
6298 Clear 6 1034 45 0 3.6 80 17:40 21.03.2020
6299 Clear 6 1035 45 0 3.1 90 17:22 21.03.2020
6300 Clear 6 1035 45 0 3.1 90 17:22 21.03.2020
6301 Clear 6 1034 38 0 4.6 100 16:42 21.03.2020
6302 Clear 6 1035 41 0 3.6 90 16:24 21.03.2020
6303 Clear 6 1035 41 0 3.6 90 15:59 21.03.2020
6304 Clear 6 1035 38 0 5.7 110 15:40 21.03.2020
6305 Clear 7 1035 45 0 5.1 100 15:22 21.03.2020
6306 Clear 7 1035 38 0 6.7 110 14:57 21.03.2020
6307 Clear 7 1035 38 0 6.7 110 14:38 21.03.2020
6308 Clear 7 1035 41 0 7.2 90 14:19 21.03.2020
6309 Clear 7 1035 41 0 7.2 90 13:58 21.03.2020
6310 Clear 6 1035 41 0 6.7 110 13:39 21.03.2020
6311 Clear 6 1036 38 0 6.2 90 13:21 21.03.2020
6312 Clear 6 1035 35 0 7.2 110 12:57 21.03.2020
6313 Clear 6 1035 35 0 7.2 110 12:37 21.03.2020
6314 Clear 6 1036 38 0 7.2 80 12:19 21.03.2020
6315 Clear 6 1035 41 0 7.2 100 11:55 21.03.2020
6316 Clear 5 1036 44 0 7.7 90 11:37 21.03.2020
6317 Clear 5 1036 44 0 7.7 80 11:18 21.03.2020
6318 Clear 5 1035 48 0 5.1 90 10:56 21.03.2020
6319 Clear 5 1035 48 0 5.1 90 10:38 21.03.2020
6320 Clear 4 1036 60 0 5.7 80 10:19 21.03.2020
6321 Clear 4 1035 60 0 5.7 90 09:41 21.03.2020
6322 Clouds 4 1035 69 10000 8.7 70 09:23 21.03.2020
6323 Clear 3 1035 64 0 4.1 80 08:59 21.03.2020
6324 Clear 3 1035 64 0 4.1 80 08:41 21.03.2020
6325 Clear 2 1035 69 0 5.7 60 08:22 21.03.2020
6326 Clear 2 1034 74 0 3.6 70 07:42 21.03.2020
6327 Clear 1 1035 74 0 5.1 60 07:23 21.03.2020
6328 Clear 1 1034 69 0 4.6 70 06:46 21.03.2020
6329 Clear 1 1034 69 0 5.1 60 06:27 21.03.2020
6330 Clear 1 1034 64 0 4.1 80 05:46 21.03.2020
6331 Clear 1 1033 59 0 5.1 70 04:42 21.03.2020
6332 Clear 2 1033 55 0 4.6 70 02:48 21.03.2020
6333 Clear 2 1033 59 0 5.7 50 02:30 21.03.2020
6334 Clear 2 1033 59 0 4.6 70 01:32 21.03.2020
6335 Clear 2 1033 69 0 4.1 50 00:48 21.03.2020
6336 Clear 2 1033 74 0 5.1 30 00:25 21.03.2020
6337 Clear 2 1032 64 0 4.6 50 23:49 20.03.2020
6338 Clear 2 1033 69 0 4.6 20 23:26 20.03.2020
6339 Clear 3 1032 59 0 4.6 50 22:57 20.03.2020
6340 Clear 3 1032 59 0 4.6 50 22:39 20.03.2020
6341 Clear 3 1032 64 0 5.7 20 22:20 20.03.2020
6342 Clear 3 1032 51 0 6.7 50 21:55 20.03.2020
6343 Clear 3 1032 51 0 6.7 50 21:37 20.03.2020
6344 Clear 4 1032 60 0 6.7 20 21:18 20.03.2020
6345 Clear 4 1031 51 0 5.7 50 20:56 20.03.2020
6346 Clear 4 1031 51 0 5.7 50 20:38 20.03.2020
6347 Clear 4 1031 52 0 6.2 20 20:18 20.03.2020
6348 Clear 5 1031 56 0 7.2 40 19:44 20.03.2020
6349 Clear 5 1030 65 0 5.7 10 19:19 20.03.2020
6350 Clear 6 1030 52 0 8.2 40 18:55 20.03.2020
6351 Clear 6 1030 52 0 8.2 40 18:37 20.03.2020
6352 Clear 7 1030 56 0 6.2 20 18:19 20.03.2020
6353 Clear 7 1030 56 0 6.2 20 18:19 20.03.2020
6354 Clear 7 1030 52 0 5.1 20 17:39 20.03.2020
6355 Clear 8 1029 52 0 6.2 20 17:21 20.03.2020
6356 Clear 8 1029 52 0 6.2 20 17:21 20.03.2020
6357 Clear 8 1029 61 0 7.2 40 16:59 20.03.2020
6358 Clear 8 1029 61 0 7.2 40 16:41 20.03.2020
6359 Clear 9 1029 61 0 6.2 20 16:19 20.03.2020
6360 Clear 9 1029 61 0 7.7 40 15:43 20.03.2020
6361 Clouds 10 1028 65 10000 5.1 10 15:22 20.03.2020
6362 Clear 10 1028 56 0 8.7 40 14:57 20.03.2020
6363 Clear 10 1028 56 0 8.7 40 14:38 20.03.2020
6364 Clouds 10 1028 66 0 6.2 20 14:19 20.03.2020
6365 Clouds 9 1028 43 0 7.2 30 13:46 20.03.2020
6366 Clouds 9 1028 57 0 6.7 360 13:20 20.03.2020
6367 Clouds 8 1028 61 0 2.1 10 12:54 20.03.2020
6368 Clouds 8 1028 61 0 2.1 10 12:36 20.03.2020
6369 Clouds 8 1028 70 10000 4.6 350 12:18 20.03.2020
6370 Clouds 7 1028 81 0 3.6 320 11:39 20.03.2020
6371 Clouds 7 1028 81 0 4.6 320 11:20 20.03.2020
6372 Clouds 6 1028 75 0 5.1 350 10:54 20.03.2020
6373 Clouds 6 1028 75 0 5.1 350 10:36 20.03.2020
6374 Clouds 6 1028 80 0 4.6 330 10:18 20.03.2020
6375 Clouds 6 1027 80 0 4.6 340 09:43 20.03.2020
6376 Clouds 5 1027 80 0 5.1 320 09:20 20.03.2020
6377 Clouds 5 1027 80 0 4.1 340 08:43 20.03.2020
6378 Clouds 5 1027 93 10000 2.1 300 08:23 20.03.2020
6379 Clouds 4 1027 80 0 5.1 330 07:57 20.03.2020
6380 Clouds 4 1027 93 0 3.1 360 07:38 20.03.2020
6381 Clouds 4 1027 93 10000 2.1 310 07:19 20.03.2020
6382 Clouds 4 1027 93 0 2.1 320 06:42 20.03.2020
6383 Clouds 4 1027 86 0 3.1 310 05:57 20.03.2020
6384 Clouds 4 1026 93 0 2.1 260 04:27 20.03.2020
6385 Clouds 4 1026 93 0 3.1 270 02:50 20.03.2020
6386 Clouds 4 1026 86 0 3.1 280 01:50 20.03.2020
6387 Clouds 4 1026 86 0 2.6 250 00:38 20.03.2020
6388 Clouds 4 1027 86 0 3.1 320 23:59 19.03.2020
6389 Clouds 4 1026 86 0 2.1 280 23:40 19.03.2020
6390 Clouds 4 1027 80 0 2.6 280 23:22 19.03.2020
6391 Clouds 5 1027 86 0 3.1 300 22:41 19.03.2020
6392 Clouds 5 1026 80 0 2.6 280 22:22 19.03.2020
6393 Clouds 5 1027 80 0 3.6 300 21:58 19.03.2020
6394 Clouds 5 1027 80 0 3.6 300 21:38 19.03.2020
6395 Clouds 5 1026 86 0 2.1 280 21:20 19.03.2020
6396 Clouds 5 1026 81 0 3.6 310 20:54 19.03.2020
6397 Clouds 6 1026 81 0 3.6 310 20:36 19.03.2020
6398 Clouds 6 1026 75 0 2.6 290 20:18 19.03.2020
6399 Clouds 6 1026 75 0 4.1 320 19:39 19.03.2020
6400 Clouds 7 1026 70 0 3.1 290 19:21 19.03.2020
6401 Clouds 7 1026 70 0 5.7 310 18:59 19.03.2020
6402 Clouds 7 1026 70 0 5.7 310 18:41 19.03.2020
6403 Clouds 8 1026 61 0 3.6 280 18:22 19.03.2020
6404 Clouds 8 1026 61 0 6.2 330 17:56 19.03.2020
6405 Clouds 9 1026 61 10000 5.1 330 17:37 19.03.2020
6406 Clouds 9 1025 57 0 4.1 300 17:18 19.03.2020
6407 Clouds 9 1026 53 0 5.1 320 16:43 19.03.2020
6408 Clouds 9 1026 57 0 4.1 290 16:22 19.03.2020
6409 Clouds 10 1026 61 0 6.2 320 15:44 19.03.2020
6410 Clouds 10 1026 57 10000 3.6 270 15:25 19.03.2020
6411 Clouds 10 1026 57 0 6.2 290 14:55 19.03.2020
6412 Clouds 10 1026 57 0 6.2 290 14:37 19.03.2020
6413 Clouds 10 1026 62 0 4.1 290 14:18 19.03.2020
6414 Clouds 10 1026 57 0 7.2 280 13:39 19.03.2020
6415 Clouds 9 1026 66 0 4.1 320 13:19 19.03.2020
6416 Clouds 9 1026 61 0 4.6 300 12:44 19.03.2020
6417 Clouds 9 1026 66 0 3.1 310 12:24 19.03.2020
6418 Clouds 9 1026 66 0 4.1 270 11:59 19.03.2020
6419 Clouds 9 1026 66 0 3.1 320 11:41 19.03.2020
6420 Clouds 8 1026 75 0 3.1 330 11:23 19.03.2020
6421 Clouds 8 1026 70 0 3.1 280 10:56 19.03.2020
6422 Clouds 8 1025 81 0 3.6 330 10:36 19.03.2020
6423 Clouds 7 1025 81 0 3.1 320 10:18 19.03.2020
6424 Clouds 7 1025 87 0 3.6 270 09:42 19.03.2020
6425 Clouds 7 1025 71 10000 2.6 270 09:24 19.03.2020
6426 Clouds 6 1024 87 0 3.6 270 08:48 19.03.2020
6427 Clouds 6 1025 73 10000 3.1 280 08:23 19.03.2020
6428 Clouds 6 1024 87 0 2.6 250 07:59 19.03.2020
6429 Clouds 5 1024 87 0 4.1 270 07:38 19.03.2020
6430 Clouds 5 1024 93 0 2.6 240 07:19 19.03.2020
6431 Clouds 5 1023 93 10000 2.1 260 06:27 19.03.2020
6432 Clouds 5 1023 93 10000 2.6 250 05:25 19.03.2020
6433 Clouds 5 1023 86 0 4.1 260 04:51 19.03.2020
6434 Clouds 5 1023 93 10000 2.6 240 04:21 19.03.2020
6435 Clouds 5 1023 93 0 5.1 280 02:33 19.03.2020
6436 Clouds 6 1022 87 0 5.7 310 00:53 19.03.2020
6437 Clouds 6 1022 87 0 3.1 260 00:20 19.03.2020
6438 Clouds 6 1022 87 0 4.6 280 23:45 18.03.2020
6439 Clouds 6 1022 87 0 3.1 250 23:26 18.03.2020
6440 Clouds 6 1022 87 0 4.6 260 22:43 18.03.2020
6441 Clouds 6 1022 87 0 3.6 250 22:24 18.03.2020
6442 Clouds 6 1022 87 0 3.6 250 21:59 18.03.2020
6443 Clouds 6 1022 87 0 4.6 260 21:40 18.03.2020
6444 Clouds 7 1022 87 0 3.6 250 21:21 18.03.2020
6445 Clouds 7 1022 87 0 3.6 250 21:21 18.03.2020
6446 Clouds 7 1022 87 0 4.1 280 20:57 18.03.2020
6447 Clouds 7 1022 87 0 4.1 280 20:38 18.03.2020
6448 Rain 7 1022 87 0 3.1 260 20:19 18.03.2020
6449 Rain 7 1022 93 0 5.1 280 19:55 18.03.2020
6450 Rain 7 1022 93 0 5.1 280 19:36 18.03.2020
6451 Rain 7 1021 87 0 3.1 260 19:18 18.03.2020
6452 Rain 8 1021 93 0 4.6 280 18:41 18.03.2020
6453 Rain 8 1021 93 0 3.1 260 18:20 18.03.2020
6454 Rain 8 1021 93 0 7.2 300 17:57 18.03.2020
6455 Rain 8 1021 93 0 3.1 270 17:39 18.03.2020
6456 Rain 8 1020 87 0 3.6 280 17:20 18.03.2020
6457 Rain 9 1020 93 0 7.7 290 16:54 18.03.2020
6458 Rain 9 1020 93 0 7.7 290 16:36 18.03.2020
6459 Drizzle 9 1021 93 2800 7.7 250 16:18 18.03.2020
6460 Rain 9 1020 87 0 7.7 270 15:44 18.03.2020
6461 Drizzle 9 1020 93 0 4.6 250 15:20 18.03.2020
6462 Rain 9 1020 93 0 9.3 270 14:45 18.03.2020
6463 Drizzle 9 1021 93 2800 9.3 250 14:22 18.03.2020
6464 Rain 9 1020 93 0 10.3 270 13:58 18.03.2020
6465 Rain 9 1020 93 0 10.3 270 13:36 18.03.2020
6466 Rain 9 1020 87 0 5.7 250 13:18 18.03.2020
6467 Mist 9 1021 93 4000 9.8 250 12:41 18.03.2020
6468 Drizzle 9 1021 100 2000 9.3 250 12:19 18.03.2020
6469 Drizzle 9 1019 93 0 6.2 250 11:40 18.03.2020
6470 Drizzle 9 1021 93 3000 9.8 240 11:21 18.03.2020
6471 Rain 9 1019 87 0 11.8 260 10:58 18.03.2020
6472 Rain 9 1019 87 0 11.8 260 10:39 18.03.2020
6473 Drizzle 9 1019 93 0 5.7 240 10:20 18.03.2020
6474 Rain 9 1019 93 0 11.8 260 09:56 18.03.2020
6475 Rain 8 1019 93 0 11.8 260 09:38 18.03.2020
6476 Drizzle 8 1020 81 6000 10.8 240 09:20 18.03.2020
6477 Rain 9 1019 87 0 10.3 250 08:39 18.03.2020
6478 Rain 8 1018 93 0 5.1 230 08:21 18.03.2020
6479 Clouds 8 1018 76 0 10.8 250 07:49 18.03.2020
6480 Clouds 8 1020 89 10000 6.2 230 07:31 18.03.2020
6481 Clouds 8 1018 75 0 8.7 250 06:50 18.03.2020
6482 Clouds 7 1018 81 0 5.1 230 06:31 18.03.2020
6483 Clouds 7 1018 75 0 6.2 210 05:37 18.03.2020
6484 Clouds 8 1019 81 0 6.7 220 04:29 18.03.2020
6485 Clouds 8 1020 70 0 8.2 240 03:21 18.03.2020
6486 Clouds 8 1021 66 0 9.3 240 02:35 18.03.2020
6487 Clouds 9 1022 81 0 4.1 230 01:32 18.03.2020
6488 Clouds 9 1022 76 0 7.7 240 00:42 18.03.2020
6489 Clouds 9 1022 76 0 7.7 240 00:21 18.03.2020
6490 Clouds 8 1023 81 0 7.2 240 23:42 17.03.2020
6491 Clouds 8 1023 87 0 3.6 220 23:20 17.03.2020
6492 Clouds 8 1023 87 0 4.1 230 22:45 17.03.2020
6493 Clouds 8 1023 87 0 4.1 230 22:26 17.03.2020
6494 Clouds 8 1024 87 0 6.7 240 21:43 17.03.2020
6495 Clouds 8 1024 87 0 4.1 230 21:23 17.03.2020
6496 Clouds 8 1024 87 0 6.2 250 20:58 17.03.2020
6497 Clouds 8 1024 87 0 6.2 250 20:38 17.03.2020
6498 Rain 8 1024 87 0 4.1 230 20:19 17.03.2020
6499 Rain 8 1024 87 0 7.2 250 19:42 17.03.2020
6500 Rain 8 1024 87 0 4.1 230 19:20 17.03.2020
6501 Rain 8 1024 87 0 7.2 250 18:58 17.03.2020
6502 Rain 8 1024 87 0 7.2 250 18:39 17.03.2020
6503 Mist 8 1023 93 0 4.6 240 18:21 17.03.2020
6504 Rain 8 1024 87 0 7.7 250 17:56 17.03.2020
6505 Mist 8 1023 93 0 5.1 230 17:38 17.03.2020
6506 Clouds 8 1025 87 7000 8.7 250 17:19 17.03.2020
6507 Clouds 8 1024 87 0 7.7 250 16:42 17.03.2020
6508 Clouds 8 1023 81 0 6.7 240 16:19 17.03.2020
6509 Clouds 8 1024 87 0 8.2 250 15:47 17.03.2020
6510 Drizzle 9 1025 76 7000 10.3 250 15:23 17.03.2020
6511 Clouds 9 1024 81 0 10.3 260 14:49 17.03.2020
6512 Clouds 9 1025 87 10000 8.7 250 14:30 17.03.2020
6513 Clouds 9 1024 81 0 6.2 240 13:59 17.03.2020
6514 Clouds 9 1024 76 0 10.8 260 13:41 17.03.2020
6515 Clouds 9 1024 76 0 5.1 230 13:22 17.03.2020
6516 Clouds 9 1024 76 0 10.3 260 12:47 17.03.2020
6517 Clouds 9 1023 76 0 5.1 230 12:25 17.03.2020
6518 Clouds 9 1024 70 0 10.8 250 11:59 17.03.2020
6519 Clouds 9 1023 81 10000 9.3 240 11:39 17.03.2020
6520 Clouds 9 1023 70 0 6.2 230 11:21 17.03.2020
6521 Clouds 9 1023 70 0 7.7 250 10:55 17.03.2020
6522 Clouds 8 1023 70 0 4.6 220 10:36 17.03.2020
6523 Clouds 8 1023 81 0 4.1 210 10:18 17.03.2020
6524 Clouds 7 1023 75 0 4.6 230 09:45 17.03.2020
6525 Clouds 7 1023 81 0 5.1 210 09:20 17.03.2020
6526 Clouds 6 1023 87 0 5.7 210 08:58 17.03.2020
6527 Clouds 6 1023 87 0 5.7 210 08:58 17.03.2020
6528 Clouds 6 1023 87 0 5.7 210 08:40 17.03.2020
6529 Clouds 5 1023 87 0 3.6 200 08:18 17.03.2020
6530 Clouds 4 1023 86 0 5.7 210 07:49 17.03.2020
6531 Clouds 4 1023 86 0 2.6 200 07:21 17.03.2020
6532 Clouds 4 1023 86 0 5.1 220 06:49 17.03.2020
6533 Clouds 4 1023 81 0 2.1 190 06:25 17.03.2020
6534 Clouds 5 1023 75 0 3.1 240 05:26 17.03.2020
6535 Clouds 5 1023 70 0 5.7 250 03:34 17.03.2020
6536 Clouds 5 1023 75 0 4.1 240 02:31 17.03.2020
6537 Clear 5 1023 75 0 3.1 230 01:39 17.03.2020
6538 Clear 5 1023 75 0 3.6 270 00:54 17.03.2020
6539 Clear 5 1023 75 0 1.5 270 00:19 17.03.2020
6540 Clear 5 1023 75 0 4.1 260 23:43 16.03.2020
6541 Clear 6 1023 70 0 2.6 270 23:22 16.03.2020
6542 Clear 6 1022 70 0 6.2 270 22:38 16.03.2020
6543 Clear 6 1022 75 0 2.6 250 22:20 16.03.2020
6544 Clear 7 1022 70 0 5.7 250 21:45 16.03.2020
6545 Clear 7 1022 75 0 3.1 250 21:27 16.03.2020
6546 Clear 7 1022 70 0 5.1 270 20:59 16.03.2020
6547 Clear 7 1022 70 0 5.1 270 20:40 16.03.2020
6548 Clear 7 1021 75 0 6.7 290 20:21 16.03.2020
6549 Clear 7 1021 75 0 6.7 290 19:46 16.03.2020
6550 Clear 7 1021 70 0 3.1 240 19:25 16.03.2020
6551 Clear 7 1021 70 0 3.1 240 19:25 16.03.2020
6552 Clear 7 1021 75 0 5.1 300 18:59 16.03.2020
6553 Clear 7 1021 70 0 3.1 280 18:40 16.03.2020
6554 Clear 8 1020 75 0 3.1 260 18:20 16.03.2020
6555 Clear 8 1020 70 0 5.1 280 17:46 16.03.2020
6556 Clouds 8 1021 75 10000 5.1 270 17:26 16.03.2020
6557 Clear 8 1020 75 0 7.2 280 16:58 16.03.2020
6558 Clear 8 1020 75 0 7.2 280 16:40 16.03.2020
6559 Clear 8 1019 70 0 4.1 270 16:22 16.03.2020
6560 Clear 8 1019 75 0 8.7 280 15:43 16.03.2020
6561 Clouds 9 1019 68 10000 6.2 270 15:24 16.03.2020
6562 Clear 9 1018 70 0 8.2 300 14:48 16.03.2020
6563 Clear 9 1018 76 0 3.6 270 14:24 16.03.2020
6564 Clear 9 1017 75 0 7.7 280 13:53 16.03.2020
6565 Clouds 9 1018 70 10000 7.2 270 13:30 16.03.2020
6566 Clear 9 1017 75 0 9.3 290 12:58 16.03.2020
6567 Clear 9 1017 75 0 9.3 290 12:40 16.03.2020
6568 Clouds 9 1016 81 10000 5.1 280 12:20 16.03.2020
6569 Clear 9 1016 75 0 9.8 290 11:45 16.03.2020
6570 Clouds 9 1015 87 10000 8.2 270 11:26 16.03.2020
6571 Clear 9 1015 75 0 10.3 270 10:47 16.03.2020
6572 Clouds 8 1015 77 10000 8.2 270 10:25 16.03.2020
6573 Clear 8 1014 75 0 5.7 250 09:59 16.03.2020
6574 Clear 9 1014 81 0 5.1 260 09:40 16.03.2020
6575 Clear 8 1013 81 0 5.7 260 09:20 16.03.2020
6576 Clear 8 1013 87 0 6.2 260 08:47 16.03.2020
6577 Rain 8 1013 77 10000 5.1 260 08:24 16.03.2020
6578 Rain 8 1012 87 0 5.1 260 07:45 16.03.2020
6579 Clouds 8 1013 87 10000 3.6 240 07:21 16.03.2020
6580 Rain 8 1011 87 0 6.2 260 06:51 16.03.2020
6581 Clouds 8 1012 81 10000 4.6 240 06:23 16.03.2020
6582 Rain 9 1009 76 0 9.8 260 04:54 16.03.2020
6583 Rain 10 1009 71 0 7.7 250 02:40 16.03.2020
6584 Clouds 9 1009 76 0 7.2 230 00:52 16.03.2020
6585 Rain 9 1009 81 0 4.6 210 00:32 16.03.2020
6586 Clouds 9 1010 76 0 7.2 240 23:46 15.03.2020
6587 Rain 9 1009 81 0 5.1 230 23:20 15.03.2020
6588 Clouds 10 1009 76 0 10.3 240 22:42 15.03.2020
6589 Clouds 9 1009 81 0 1.5 220 22:22 15.03.2020
6590 Clouds 10 1009 76 0 4.1 220 21:56 15.03.2020
6591 Clouds 10 1009 76 0 4.1 220 21:37 15.03.2020
6592 Clouds 10 1009 81 0 2.6 230 21:18 15.03.2020
6593 Clouds 10 1009 76 0 5.1 250 20:42 15.03.2020
6594 Clouds 10 1009 71 10000 4.6 220 20:20 15.03.2020
6595 Clouds 11 1010 66 0 6.7 240 19:58 15.03.2020
6596 Clouds 11 1010 66 0 6.7 240 19:38 15.03.2020
6597 Clouds 11 1009 71 10000 3.6 200 19:19 15.03.2020
6598 Clouds 11 1009 66 0 6.7 220 18:55 15.03.2020
6599 Clouds 11 1009 66 0 6.7 220 18:37 15.03.2020
6600 Clouds 11 1009 71 10000 3.6 200 18:19 15.03.2020
6601 Clouds 12 1009 62 0 6.2 220 17:41 15.03.2020
6602 Clouds 12 1009 62 10000 4.1 200 17:21 15.03.2020
6603 Clouds 12 1009 58 0 6.7 220 16:58 15.03.2020
6604 Clouds 12 1009 58 0 6.7 220 16:39 15.03.2020
6605 Clouds 12 1009 66 10000 5.1 200 16:21 15.03.2020
6606 Clouds 12 1009 62 0 7.7 220 15:46 15.03.2020
6607 Clouds 12 1009 66 10000 5.1 190 15:28 15.03.2020
6608 Clouds 12 1009 62 0 8.2 210 14:58 15.03.2020
6609 Clouds 12 1009 62 0 8.2 210 14:38 15.03.2020
6610 Rain 11 1010 71 0 5.1 190 14:19 15.03.2020
6611 Rain 11 1010 71 0 6.2 210 13:55 15.03.2020
6612 Rain 10 1010 71 0 6.2 210 13:37 15.03.2020
6613 Rain 10 1010 71 0 6.7 200 13:18 15.03.2020
6614 Rain 10 1010 71 0 6.7 200 13:18 15.03.2020
6615 Rain 9 1011 81 0 7.7 210 12:40 15.03.2020
6616 Rain 8 1011 76 0 6.7 200 12:22 15.03.2020
6617 Rain 8 1011 75 0 8.2 210 11:44 15.03.2020
6618 Rain 8 1011 75 0 6.2 200 11:25 15.03.2020
6619 Clouds 8 1011 75 0 8.2 210 10:59 15.03.2020
6620 Clouds 8 1011 75 0 8.2 210 10:40 15.03.2020
6621 Clouds 8 1013 82 10000 6.7 200 10:22 15.03.2020
6622 Clouds 7 1012 70 0 6.2 190 09:59 15.03.2020
6623 Clouds 7 1012 70 0 7.7 200 09:38 15.03.2020
6624 Clouds 7 1012 70 0 5.7 180 09:20 15.03.2020
6625 Clouds 6 1012 70 0 7.7 200 08:41 15.03.2020
6626 Clouds 6 1012 75 0 5.7 180 08:20 15.03.2020
6627 Clouds 6 1012 70 0 7.7 200 07:50 15.03.2020
6628 Clouds 5 1012 75 0 4.6 180 07:23 15.03.2020
6629 Clouds 5 1012 70 0 8.7 190 06:44 15.03.2020
6630 Clouds 5 1013 80 0 8.2 180 05:49 15.03.2020
6631 Clouds 5 1013 65 0 9.3 180 04:58 15.03.2020
6632 Clouds 5 1013 65 0 9.3 180 04:40 15.03.2020
6633 Clouds 5 1014 75 0 5.1 170 04:20 15.03.2020
6634 Clouds 4 1015 75 0 6.2 160 03:25 15.03.2020
6635 Clouds 4 1015 65 0 9.3 180 02:36 15.03.2020
6636 Clouds 4 1017 72 0 6.2 160 01:20 15.03.2020
6637 Clouds 4 1017 64 0 8.2 170 00:42 15.03.2020
6638 Clouds 4 1018 72 0 5.7 160 00:21 15.03.2020
6639 Clouds 4 1017 64 0 7.7 170 23:41 14.03.2020
6640 Clouds 4 1018 72 0 5.7 160 23:21 14.03.2020
6641 Clear 4 1018 64 0 7.2 170 22:58 14.03.2020
6642 Clear 4 1018 64 0 7.2 170 22:40 14.03.2020
6643 Clear 4 1019 77 0 5.1 160 22:22 14.03.2020
6644 Clear 4 1019 60 0 7.7 170 21:56 14.03.2020
6645 Clear 4 1019 60 0 7.7 170 21:36 14.03.2020
6646 Clear 4 1020 77 0 4.6 160 21:18 14.03.2020
6647 Clear 4 1019 64 0 5.1 160 20:58 14.03.2020
6648 Clear 4 1019 64 0 5.1 160 20:40 14.03.2020
6649 Clouds 4 1020 78 0 5.7 150 20:19 14.03.2020
6650 Clouds 5 1020 60 0 5.1 160 19:43 14.03.2020
6651 Clouds 5 1020 76 0 5.7 150 19:25 14.03.2020
6652 Clouds 6 1020 56 0 5.1 170 18:42 14.03.2020
6653 Clouds 6 1020 75 0 5.7 140 18:24 14.03.2020
6654 Clouds 7 1020 48 0 7.2 170 17:58 14.03.2020
6655 Clouds 7 1020 49 10000 6.2 160 17:38 14.03.2020
6656 Clouds 7 1020 49 10000 6.2 160 17:38 14.03.2020
6657 Clear 7 1021 70 0 6.7 140 17:20 14.03.2020
6658 Clear 7 1021 70 0 6.7 140 17:20 14.03.2020
6659 Clear 8 1020 45 0 7.2 170 16:41 14.03.2020
6660 Clear 8 1022 61 10000 4.6 160 16:23 14.03.2020
6661 Clear 8 1021 70 0 6.7 130 15:58 14.03.2020
6662 Clear 8 1022 61 10000 5.1 170 15:27 14.03.2020
6663 Clear 8 1021 48 0 6.2 170 14:58 14.03.2020
6664 Clear 7 1021 48 0 6.2 170 14:37 14.03.2020
6665 Clouds 7 1022 56 10000 5.1 160 14:18 14.03.2020
6666 Clear 7 1022 48 0 5.1 180 13:42 14.03.2020
6667 Clear 7 1023 60 10000 5.1 140 13:23 14.03.2020
6668 Clear 6 1023 48 0 5.1 190 12:57 14.03.2020
6669 Clear 7 1023 56 10000 4.1 180 12:38 14.03.2020
6670 Clear 6 1023 56 10000 4.1 160 12:19 14.03.2020
6671 Clear 6 1023 60 10000 4.6 160 11:42 14.03.2020
6672 Clear 5 1023 56 10000 4.6 160 11:24 14.03.2020
6673 Clear 5 1023 52 0 5.1 170 10:46 14.03.2020
6674 Clear 4 1023 60 10000 3.6 170 10:27 14.03.2020
6675 Clear 4 1023 64 0 4.1 170 09:58 14.03.2020
6676 Clear 3 1023 64 0 4.1 170 09:40 14.03.2020
6677 Clear 2 1022 64 10000 2.1 170 09:20 14.03.2020
6678 Clear 0 1022 64 0 3.6 180 08:46 14.03.2020
6679 Clear 0 1023 61 10000 2.1 160 08:26 14.03.2020
6680 Clear -2 1022 92 0 2.1 190 07:40 14.03.2020
6681 Clear -3 1022 92 10000 2.68 173 07:21 14.03.2020
6682 Clear -3 1021 92 0 2.1 170 06:45 14.03.2020
6683 Clear -3 1021 92 0 2.1 170 06:45 14.03.2020
6684 Clear -3 1021 86 0 2.68 173 06:26 14.03.2020
6685 Clear -3 1021 92 0 0.5 0 04:55 14.03.2020
6686 Clear -2 1021 100 0 1.53 169 03:34 14.03.2020
6687 Clear -2 1020 92 0 1 280 02:48 14.03.2020
6688 Clear -1 1020 92 0 1.5 310 01:46 14.03.2020
6689 Clear 0 1020 78 6000 1.5 260 00:34 14.03.2020
6690 Clear 0 1019 86 0 2.6 350 23:42 13.03.2020
6691 Clear 1 1019 80 0 3.6 320 23:23 13.03.2020
6692 Clear 1 1018 75 0 3.1 320 22:45 13.03.2020
6693 Clouds 2 1018 74 10000 4.6 320 22:22 13.03.2020
6694 Clear 2 1017 74 0 3.1 310 21:41 13.03.2020
6695 Clear 3 1016 75 10000 3.1 310 21:19 13.03.2020
6696 Clear 3 1016 74 0 3.6 340 20:56 13.03.2020
6697 Clear 3 1016 74 0 3.6 340 20:37 13.03.2020
6698 Clear 4 1015 73 10000 5.7 320 20:18 13.03.2020
6699 Clear 4 1014 69 0 6.7 350 19:42 13.03.2020
6700 Clear 4 1013 65 10000 7.7 330 19:23 13.03.2020
6701 Clear 5 1013 73 0 7.7 340 18:44 13.03.2020
6702 Clouds 5 1012 75 10000 7.7 330 18:25 13.03.2020
6703 Clear 5 1011 80 0 12.9 310 17:55 13.03.2020
6704 Clouds 5 1011 70 10000 7.7 320 17:37 13.03.2020
6705 Clouds 6 1010 81 10000 7.2 290 17:18 13.03.2020
6706 Clear 7 1010 65 0 11.8 300 16:40 13.03.2020
6707 Clouds 7 1008 70 10000 9.3 290 16:22 13.03.2020
6708 Clear 7 1008 59 0 13.9 300 15:55 13.03.2020
6709 Clear 7 1008 59 0 13.9 300 15:37 13.03.2020
6710 Clouds 7 1007 65 10000 8.7 290 15:18 13.03.2020
6711 Clear 7 1007 59 0 17 310 14:40 13.03.2020
6712 Clouds 7 1006 61 10000 8.7 290 14:22 13.03.2020
6713 Clouds 7 1005 55 0 18.5 310 13:56 13.03.2020
6714 Clouds 7 1005 55 0 18.5 310 13:37 13.03.2020
6715 Rain 7 1004 70 10000 9.3 300 13:18 13.03.2020
6716 Clouds 7 1006 65 10000 13.4 300 12:40 13.03.2020
6717 Rain 7 1005 81 6000 9.3 290 12:21 13.03.2020
6718 Clouds 7 1002 75 0 13.9 310 11:57 13.03.2020
6719 Clouds 7 1004 75 10000 10.8 310 11:39 13.03.2020
6720 Clouds 7 1003 70 10000 12.3 310 11:21 13.03.2020
6721 Rain 6 1001 87 0 13.4 330 10:47 13.03.2020
6722 Drizzle 6 1000 79 9000 8.2 270 10:27 13.03.2020
6723 Rain 6 998 87 0 8.7 280 09:57 13.03.2020
6724 Rain 6 998 87 0 8.7 280 09:39 13.03.2020
6725 Rain 5 999 93 8000 7.2 220 09:20 13.03.2020
6726 Rain 5 998 86 0 8.2 240 08:45 13.03.2020
6727 Rain 5 998 86 10000 4.6 240 08:22 13.03.2020
6728 Rain 5 998 80 0 12.3 250 07:49 13.03.2020
6729 Rain 5 1000 88 10000 6.2 230 07:28 13.03.2020
6730 Rain 5 998 70 0 12.3 250 06:47 13.03.2020
6731 Rain 5 1001 88 8000 8.2 230 06:28 13.03.2020
6732 Rain 5 999 75 0 9.8 250 05:53 13.03.2020
6733 Rain 5 998 81 10000 6.2 240 05:20 13.03.2020
6734 Rain 6 999 81 0 8.2 250 04:37 13.03.2020
6735 Rain 6 999 81 0 8.7 250 03:37 13.03.2020
6736 Clouds 5 1000 80 0 9.3 230 01:46 13.03.2020
6737 Clouds 4 1000 86 0 5.7 210 01:19 13.03.2020
6738 Clouds 4 1001 80 0 8.7 230 00:53 13.03.2020
6739 Clouds 4 1001 80 0 4.1 220 00:24 13.03.2020
6740 Clouds 4 1001 75 0 7.7 240 23:50 12.03.2020
6741 Clouds 5 1001 81 0 4.1 240 23:27 12.03.2020
6742 Clouds 5 1002 75 0 8.2 250 22:56 12.03.2020
6743 Clouds 5 1002 75 0 8.2 250 22:38 12.03.2020
6744 Clouds 5 1002 75 10000 4.1 240 22:20 12.03.2020
6745 Clouds 6 1002 75 0 8.7 260 21:44 12.03.2020
6746 Clouds 6 1002 75 10000 5.1 240 21:26 12.03.2020
6747 Clouds 5 1002 75 0 11.3 260 20:57 12.03.2020
6748 Clouds 5 1002 75 0 11.3 260 20:38 12.03.2020
6749 Clouds 6 1002 70 10000 6.7 250 20:19 12.03.2020
6750 Rain 6 1002 70 0 11.3 270 19:41 12.03.2020
6751 Clouds 6 1002 70 10000 6.7 250 19:20 12.03.2020
6752 Rain 6 1002 70 0 14.9 270 18:44 12.03.2020
6753 Clouds 6 1002 70 10000 8.7 260 18:24 12.03.2020
6754 Rain 6 1002 60 0 15.4 280 17:57 12.03.2020
6755 Rain 6 1003 70 8000 11.8 260 17:38 12.03.2020
6756 Clouds 6 1003 61 10000 13.4 260 17:20 12.03.2020
6757 Rain 6 1002 61 0 16.5 270 16:55 12.03.2020
6758 Rain 6 1002 61 0 16.5 270<